# Wetter Temperatur Luftdruck Luftfeuchtigkeit Sichtweite Windgeschwindigkeit Windrichtung Zeit
1 Clouds 6 1020 94 10000 0.59 151 11:50 22.04.2021
2 Clouds 6 1019 93 10000 0.46 156 11:26 22.04.2021
3 Clouds 6 1019 93 10000 0.46 156 10:48 22.04.2021
4 Clouds 6 1019 93 10000 0.46 156 10:30 22.04.2021
5 Clouds 7 1019 93 10000 0.23 112 09:59 22.04.2021
6 Clouds 6 1019 93 10000 0.23 110 09:34 22.04.2021
7 Clouds 7 1019 92 10000 0.55 173 08:48 22.04.2021
8 Clouds 7 1019 91 10000 0.18 16 08:23 22.04.2021
9 Clouds 7 1019 91 10000 0.23 268 07:49 22.04.2021
10 Clouds 7 1019 91 10000 0.23 268 07:30 22.04.2021
11 Clouds 8 1019 90 10000 1.02 320 06:44 22.04.2021
12 Clouds 8 1019 89 10000 1.05 339 06:18 22.04.2021
13 Clouds 9 1019 87 10000 1.33 4 05:21 22.04.2021
14 Clouds 15 1029 44 10000 1.54 220 02:24 22.04.2021
15 Clouds 18 1029 29 10000 3.6 30 23:55 21.04.2021
16 Clouds 18 1029 29 10000 3.6 30 23:55 21.04.2021
17 Clouds 18 1029 29 10000 3.6 30 23:37 21.04.2021
18 Rain 18 1028 29 10000 4.12 360 22:59 21.04.2021
19 Rain 18 1028 29 10000 4.12 360 22:38 21.04.2021
20 Clouds 19 1028 30 10000 6.17 20 22:18 21.04.2021
21 Clouds 20 1028 28 10000 7.2 360 21:41 21.04.2021
22 Clouds 20 1028 28 10000 7.2 360 21:41 21.04.2021
23 Clouds 22 1028 23 10000 3.09 310 21:19 21.04.2021
24 Clouds 20 1029 26 10000 1.54 270 20:27 21.04.2021
25 Clouds 20 1030 28 10000 2.06 150 19:49 21.04.2021
26 Clouds 20 1031 30 10000 1.18 299 19:27 21.04.2021
27 Clouds 19 1031 30 10000 2.06 0 18:52 21.04.2021
28 Clouds 19 1031 30 10000 2.06 0 18:34 21.04.2021
29 Clouds 18 1033 34 10000 1.54 310 17:59 21.04.2021
30 Clouds 16 1033 36 10000 1.03 240 17:40 21.04.2021
31 Clouds 16 1033 36 10000 1.03 240 17:22 21.04.2021
32 Clouds 15 1034 47 10000 0.67 290 16:40 21.04.2021
33 Clear 13 1034 54 10000 1.03 50 15:52 21.04.2021
34 Clear 11 1034 66 10000 1.03 0 15:25 21.04.2021
35 Clear 11 1034 62 10000 1.03 0 14:45 21.04.2021
36 Clouds 8 1034 76 10000 0.29 30 14:27 21.04.2021
37 Clouds 5 1034 81 10000 0.12 81 13:50 21.04.2021
38 Clouds 4 1033 87 10000 1.03 100 13:22 21.04.2021
39 Clouds 6 1022 94 10000 0.86 211 12:47 21.04.2021
40 Clouds 6 1021 93 10000 0.59 185 12:23 21.04.2021
41 Clouds 6 1021 93 10000 0.59 185 11:46 21.04.2021
42 Clouds 6 1020 93 10000 0.9 193 11:23 21.04.2021
43 Clouds 6 1020 93 10000 0.9 193 10:40 21.04.2021
44 Clouds 6 1020 92 10000 1.25 177 09:57 21.04.2021
45 Clouds 7 1020 90 10000 1.25 177 09:26 21.04.2021
46 Clouds 7 1020 90 10000 1.25 177 08:50 21.04.2021
47 Clouds 7 1020 89 10000 1.11 194 08:24 21.04.2021
48 Clouds 7 1020 88 10000 0.94 197 07:54 21.04.2021
49 Clouds 8 1020 87 10000 0.44 190 07:28 21.04.2021
50 Clouds 8 1020 86 10000 0.36 68 06:22 21.04.2021
51 Clouds 14 1030 54 10000 6.69 290 02:28 21.04.2021
52 Clouds 18 1028 34 10000 4.63 300 00:20 21.04.2021
53 Clouds 20 1028 28 10000 2.57 280 23:41 20.04.2021
54 Clouds 20 1029 32 10000 1.03 0 22:50 20.04.2021
55 Clouds 20 1029 32 10000 1.03 0 22:24 20.04.2021
56 Clouds 20 1030 32 10000 1.03 0 21:59 20.04.2021
57 Clouds 20 1030 32 10000 1.03 0 21:40 20.04.2021
58 Clouds 20 1030 32 10000 1.03 0 21:22 20.04.2021
59 Clouds 19 1031 30 10000 1.03 310 20:40 20.04.2021
60 Clouds 19 1032 37 10000 1.03 0 20:21 20.04.2021
61 Clouds 18 1032 36 10000 2.57 270 19:49 20.04.2021
62 Clouds 17 1033 45 10000 1.54 0 19:29 20.04.2021
63 Clouds 16 1034 48 10000 1.54 0 18:47 20.04.2021
64 Clouds 15 1035 51 10000 2.06 0 18:29 20.04.2021
65 Clouds 15 1035 51 10000 1.54 100 17:41 20.04.2021
66 Clouds 12 1036 58 10000 2.06 0 16:53 20.04.2021
67 Clouds 12 1036 58 10000 2.06 0 16:34 20.04.2021
68 Clouds 11 1036 66 10000 1.54 0 15:40 20.04.2021
69 Clouds 10 1035 71 10000 0.51 249 15:19 20.04.2021
70 Clouds 9 1035 76 10000 1.03 0 14:45 20.04.2021
71 Clouds 8 1034 76 10000 0.59 279 14:22 20.04.2021
72 Clouds 6 1033 87 10000 1.54 110 13:28 20.04.2021
73 Clouds 6 1022 91 10000 0.96 284 12:55 20.04.2021
74 Clouds 6 1021 91 10000 0.76 312 12:27 20.04.2021
75 Clouds 6 1021 91 10000 0.76 312 11:47 20.04.2021
76 Clouds 6 1021 91 10000 0.76 312 11:47 20.04.2021
77 Clear 6 1020 90 10000 0.87 345 11:28 20.04.2021
78 Clear 6 1020 90 10000 0.87 345 10:48 20.04.2021
79 Clouds 7 1019 90 10000 0.86 4 10:26 20.04.2021
80 Clouds 7 1019 90 10000 0.86 4 09:50 20.04.2021
81 Clouds 7 1019 89 10000 1.07 11 09:18 20.04.2021
82 Clouds 7 1019 89 10000 1.07 11 08:42 20.04.2021
83 Clouds 8 1019 88 10000 1.45 5 07:58 20.04.2021
84 Clouds 8 1019 88 10000 1.04 2 07:32 20.04.2021
85 Clouds 9 1020 84 10000 1.25 350 05:42 20.04.2021
86 Clouds 10 1019 81 10000 1.04 21 04:57 20.04.2021
87 Clouds 11 1031 66 10000 2.06 90 03:41 20.04.2021
88 Clouds 17 1028 42 10000 5.14 20 00:51 20.04.2021
89 Clouds 20 1028 32 10000 2.06 0 23:54 19.04.2021
90 Clouds 20 1028 34 10000 3.09 60 23:31 19.04.2021
91 Clouds 22 1028 23 10000 1.03 0 22:43 19.04.2021
92 Clouds 20 1028 24 10000 2.57 340 22:22 19.04.2021
93 Clouds 22 1028 24 10000 1.54 0 21:42 19.04.2021
94 Clouds 21 1029 23 10000 2.57 0 21:20 19.04.2021
95 Clouds 22 1029 24 10000 1.54 280 20:41 19.04.2021
96 Clouds 20 1030 24 10000 1.54 0 20:20 19.04.2021
97 Clouds 20 1031 28 10000 2.06 0 19:48 19.04.2021
98 Clouds 19 1032 24 10000 1.54 0 19:26 19.04.2021
99 Clouds 19 1032 32 10000 1.1 240 18:59 19.04.2021
100 Clouds 19 1032 32 10000 1.1 240 18:38 19.04.2021
101 Clouds 18 1033 36 10000 2.06 0 18:19 19.04.2021
102 Clouds 17 1033 42 10000 1.03 30 17:43 19.04.2021
103 Clouds 16 1034 44 10000 0.66 199 17:23 19.04.2021
104 Clouds 15 1034 47 10000 1.03 70 16:43 19.04.2021
105 Clouds 13 1035 58 10000 1.03 0 16:24 19.04.2021
106 Clouds 12 1035 58 10000 1.54 90 15:41 19.04.2021
107 Clear 11 1035 62 10000 1.54 80 15:23 19.04.2021
108 Clear 10 1035 62 10000 1.03 0 14:43 19.04.2021
109 Clouds 7 1035 76 10000 1.03 90 14:23 19.04.2021
110 Clouds 4 1035 87 10000 0.62 139 13:49 19.04.2021
111 Clouds 4 1034 87 10000 1.03 290 13:26 19.04.2021
112 Clouds 6 1021 93 10000 1 39 12:45 19.04.2021
113 Clouds 6 1021 93 10000 0.58 61 12:26 19.04.2021
114 Clouds 6 1021 93 10000 0.58 62 11:55 19.04.2021
115 Clouds 6 1020 93 10000 0.81 39 11:26 19.04.2021
116 Clouds 6 1020 93 10000 0.81 39 10:55 19.04.2021
117 Clouds 7 1020 93 10000 0.79 39 10:36 19.04.2021
118 Clouds 7 1020 93 10000 0.94 46 10:18 19.04.2021
119 Clouds 7 1020 93 10000 0.94 46 09:36 19.04.2021
120 Clouds 7 1020 92 10000 0.81 32 09:18 19.04.2021
121 Clouds 7 1020 92 10000 1.12 35 08:29 19.04.2021
122 Clouds 7 1020 92 10000 1.12 35 07:49 19.04.2021
123 Clouds 8 1020 89 10000 1.66 34 07:20 19.04.2021
124 Clouds 8 1020 90 10000 1.63 34 06:37 19.04.2021
125 Clouds 13 1031 54 10000 0.51 0 02:37 19.04.2021
126 Clouds 16 1028 39 10000 4.12 10 01:29 19.04.2021
127 Clouds 17 1028 39 10000 5.66 10 00:23 19.04.2021
128 Clouds 19 1028 37 10000 5.14 30 23:19 18.04.2021
129 Clouds 19 1027 32 10000 4.63 110 22:49 18.04.2021
130 Clouds 19 1027 27 10000 7.2 100 22:30 18.04.2021
131 Clouds 19 1027 27 10000 7.2 100 22:30 18.04.2021
132 Clouds 22 1027 23 10000 1.03 0 21:41 18.04.2021
133 Clouds 22 1028 24 10000 0.51 20 21:20 18.04.2021
134 Clouds 21 1029 32 10000 1.54 150 20:40 18.04.2021
135 Clouds 21 1030 28 10000 2.06 300 20:20 18.04.2021
136 Clouds 20 1030 37 10000 2.06 110 19:49 18.04.2021
137 Clouds 19 1031 37 10000 1.03 50 19:29 18.04.2021
138 Clouds 19 1032 39 10000 1.03 0 18:54 18.04.2021
139 Clouds 19 1032 39 10000 1.03 0 18:31 18.04.2021
140 Clouds 16 1033 55 10000 0.51 40 17:57 18.04.2021
141 Clouds 16 1033 55 10000 0.51 40 17:38 18.04.2021
142 Clouds 15 1034 51 10000 1.54 70 17:19 18.04.2021
143 Clouds 14 1034 54 10000 1.03 0 16:41 18.04.2021
144 Clouds 11 1034 66 10000 1.03 120 15:59 18.04.2021
145 Clouds 11 1034 66 10000 1.03 120 15:39 18.04.2021
146 Clouds 9 1034 71 10000 0.51 0 15:19 18.04.2021
147 Clouds 8 1034 76 10000 0.79 227 14:42 18.04.2021
148 Clouds 5 1033 87 10000 1.54 80 14:19 18.04.2021
149 Clouds 5 1033 87 10000 1.54 80 13:50 18.04.2021
150 Clouds 8 1022 86 10000 0.69 228 13:30 18.04.2021
151 Clouds 6 1021 92 10000 0.49 246 12:39 18.04.2021
152 Clouds 6 1020 91 10000 0.47 337 11:59 18.04.2021
153 Clouds 6 1020 91 10000 0.47 337 11:40 18.04.2021
154 Clouds 6 1019 91 10000 0.24 333 11:20 18.04.2021
155 Clouds 6 1019 91 10000 0.24 333 10:44 18.04.2021
156 Clouds 7 1019 90 10000 0.63 49 10:19 18.04.2021
157 Clouds 7 1019 90 10000 0.63 49 09:39 18.04.2021
158 Clouds 7 1019 89 10000 0.64 20 09:21 18.04.2021
159 Clouds 7 1019 89 10000 0.64 20 08:46 18.04.2021
160 Clouds 8 1020 90 10000 1.23 8 08:26 18.04.2021
161 Clouds 8 1020 90 10000 1.23 8 07:40 18.04.2021
162 Clouds 8 1020 89 10000 1.7 20 06:56 18.04.2021
163 Clouds 9 1020 85 10000 2.26 17 05:27 18.04.2021
164 Clouds 9 1020 85 10000 2.26 17 04:44 18.04.2021
165 Clouds 12 1030 62 10000 4.63 100 02:23 18.04.2021
166 Clouds 15 1028 47 10000 5.14 20 00:58 18.04.2021
167 Clouds 18 1027 39 10000 5.14 110 23:58 17.04.2021
168 Clouds 18 1027 39 10000 5.14 110 23:26 17.04.2021
169 Clouds 21 1027 21 10000 1.54 20 22:44 17.04.2021
170 Clouds 21 1027 21 10000 1.54 20 22:25 17.04.2021
171 Clouds 22 1028 21 10000 2.57 280 21:44 17.04.2021
172 Clouds 21 1028 21 10000 1.54 80 21:23 17.04.2021
173 Clouds 21 1029 23 10000 1.54 30 20:40 17.04.2021
174 Clouds 20 1030 24 10000 2.06 130 20:20 17.04.2021
175 Clouds 20 1030 30 10000 1.54 0 19:39 17.04.2021
176 Clouds 19 1031 34 10000 2.06 0 19:19 17.04.2021
177 Clouds 19 1031 27 10000 1.54 0 18:49 17.04.2021
178 Clouds 17 1032 48 10000 1.03 0 18:21 17.04.2021
179 Clouds 16 1033 55 10000 0.51 0 17:42 17.04.2021
180 Clouds 14 1034 58 10000 1.03 0 16:56 17.04.2021
181 Clouds 14 1034 58 10000 1.03 0 16:37 17.04.2021
182 Clouds 13 1034 62 10000 2.06 90 16:18 17.04.2021
183 Clouds 10 1034 71 10000 1.03 0 15:19 17.04.2021
184 Clouds 9 1034 71 10000 0.51 0 14:42 17.04.2021
185 Clouds 6 1034 87 10000 1.54 100 14:19 17.04.2021
186 Clouds 4 1034 87 10000 0.45 203 13:41 17.04.2021
187 Clouds 6 1021 96 10000 0.67 206 12:47 17.04.2021
188 Clouds 6 1020 95 10000 0.74 182 12:22 17.04.2021
189 Clouds 6 1020 95 10000 0.74 182 11:50 17.04.2021
190 Clouds 6 1020 95 10000 0.74 182 11:31 17.04.2021
191 Clouds 7 1019 94 10000 0.93 178 10:48 17.04.2021
192 Clouds 7 1019 92 10000 0.56 223 10:29 17.04.2021
193 Clouds 7 1019 92 10000 0.56 223 09:45 17.04.2021
194 Clouds 7 1019 91 10000 0.39 286 08:42 17.04.2021
195 Clouds 8 1019 91 10000 0.39 337 08:24 17.04.2021
196 Clouds 8 1019 91 10000 0.38 338 07:42 17.04.2021
197 Clouds 14 1032 47 8000 6.17 240 03:59 17.04.2021
198 Clouds 14 1032 47 8000 6.17 240 03:39 17.04.2021
199 Clouds 17 1027 39 10000 3.6 10 00:51 17.04.2021
200 Clouds 19 1026 32 10000 3.6 20 00:29 17.04.2021
201 Clouds 21 1026 32 10000 1.03 0 23:52 16.04.2021
202 Clouds 20 1027 32 10000 2.06 0 23:29 16.04.2021
203 Clouds 22 1027 26 10000 1.54 0 22:51 16.04.2021
204 Clouds 20 1027 30 10000 2.06 250 22:22 16.04.2021
205 Clouds 20 1028 32 10000 2.06 350 21:54 16.04.2021
206 Clouds 20 1028 32 10000 2.06 350 21:35 16.04.2021
207 Clouds 20 1029 34 10000 1.54 0 20:50 16.04.2021
208 Clouds 19 1030 37 10000 1.03 310 20:27 16.04.2021
209 Clouds 18 1030 42 10000 1.54 270 19:55 16.04.2021
210 Clouds 18 1031 45 10000 2.03 240 19:31 16.04.2021
211 Clouds 17 1032 45 10000 2.06 0 18:46 16.04.2021
212 Clouds 16 1033 48 10000 1.03 0 18:21 16.04.2021
213 Clouds 14 1033 54 10000 1.54 180 17:45 16.04.2021
214 Clouds 12 1034 66 10000 1.54 220 17:19 16.04.2021
215 Clouds 12 1034 62 10000 1.03 0 16:43 16.04.2021
216 Clouds 10 1034 76 10000 0.62 226 16:24 16.04.2021
217 Clouds 10 1034 71 10000 0.62 226 15:48 16.04.2021
218 Clouds 10 1034 76 10000 0.57 210 15:21 16.04.2021
219 Clouds 9 1034 81 10000 1.54 110 14:42 16.04.2021
220 Clouds 9 1033 81 10000 1.03 90 14:19 16.04.2021
221 Clouds 9 1033 81 10000 1.54 70 13:46 16.04.2021
222 Clouds 8 1032 87 10000 2.06 100 13:20 16.04.2021
223 Clouds 6 1020 91 10000 0.32 73 12:48 16.04.2021
224 Clouds 6 1019 91 10000 0.15 50 12:29 16.04.2021
225 Clouds 6 1019 91 10000 0.15 50 11:55 16.04.2021
226 Clouds 7 1019 91 10000 0.38 20 11:27 16.04.2021
227 Clouds 7 1019 91 10000 0.38 20 10:56 16.04.2021
228 Clouds 7 1019 91 10000 0.38 20 10:37 16.04.2021
229 Clouds 7 1018 91 10000 0.57 1 10:19 16.04.2021
230 Clouds 7 1018 91 10000 0.57 1 09:42 16.04.2021
231 Clouds 7 1018 91 10000 0.98 13 09:20 16.04.2021
232 Clouds 7 1019 92 10000 0.98 18 08:41 16.04.2021
233 Clouds 7 1019 91 10000 1.28 22 08:18 16.04.2021
234 Clouds 7 1019 91 10000 1.28 22 07:36 16.04.2021
235 Clouds 8 1019 91 10000 1.46 17 06:58 16.04.2021
236 Clouds 8 1019 91 10000 1.62 19 05:34 16.04.2021
237 Clouds 11 1030 82 10000 1.03 80 04:21 16.04.2021
238 Clouds 13 1028 67 10000 3.6 290 00:58 16.04.2021
239 Clouds 13 1028 67 10000 3.6 290 00:40 16.04.2021
240 Rain 13 1028 67 10000 2.06 360 00:19 16.04.2021
241 Clouds 12 1027 66 9000 4.63 130 23:41 15.04.2021
242 Clouds 20 1027 34 10000 1.54 0 23:22 15.04.2021
243 Clouds 20 1027 34 10000 1.54 0 23:22 15.04.2021
244 Clouds 21 1026 30 10000 3.09 330 22:40 15.04.2021
245 Clouds 21 1026 35 10000 2.06 0 22:21 15.04.2021
246 Clouds 21 1027 28 10000 1.44 260 21:42 15.04.2021
247 Clouds 22 1028 30 10000 2.06 0 21:20 15.04.2021
248 Clouds 21 1028 32 10000 1.03 50 20:44 15.04.2021
249 Clouds 21 1028 32 10000 1.03 50 20:44 15.04.2021
250 Clouds 21 1029 30 10000 2.57 0 20:23 15.04.2021
251 Clouds 19 1030 32 10000 3.09 60 19:44 15.04.2021
252 Clouds 19 1030 39 10000 3.09 40 19:26 15.04.2021
253 Clouds 17 1032 42 10000 2.06 0 18:42 15.04.2021
254 Clouds 17 1032 42 10000 2.06 0 18:21 15.04.2021
255 Clouds 18 1032 42 10000 1.54 0 17:55 15.04.2021
256 Clouds 16 1033 48 10000 0.51 0 17:36 15.04.2021
257 Clouds 18 1032 42 10000 1.54 0 17:36 15.04.2021
258 Clouds 16 1033 55 10000 1.03 0 16:58 15.04.2021
259 Clouds 16 1033 55 10000 1.03 0 16:40 15.04.2021
260 Clouds 14 1033 62 10000 1.03 0 16:21 15.04.2021
261 Clouds 13 1033 67 10000 2.06 110 15:45 15.04.2021
262 Clouds 11 1033 76 9000 2.57 90 15:25 15.04.2021
263 Clouds 12 1033 71 9000 0.51 90 14:41 15.04.2021
264 Clouds 9 1033 87 9000 1.54 110 14:22 15.04.2021
265 Clouds 8 1033 87 9000 1.54 100 13:42 15.04.2021
266 Clouds 8 1032 87 9000 1.54 100 13:19 15.04.2021
267 Clouds 7 1020 91 10000 1.15 308 12:41 15.04.2021
268 Clouds 7 1019 90 10000 1.29 317 12:21 15.04.2021
269 Clouds 7 1019 90 10000 1.29 317 11:46 15.04.2021
270 Clouds 7 1019 90 10000 1.41 330 11:23 15.04.2021
271 Clouds 7 1019 90 10000 1.41 330 10:55 15.04.2021
272 Clouds 7 1019 90 10000 1.08 356 10:28 15.04.2021
273 Clouds 7 1019 90 10000 1.08 356 09:49 15.04.2021
274 Clouds 8 1019 89 10000 1.31 357 09:25 15.04.2021
275 Clouds 8 1019 89 10000 1.31 357 08:49 15.04.2021
276 Clouds 8 1019 90 10000 1.44 8 08:23 15.04.2021
277 Clouds 8 1020 90 10000 1.43 19 07:25 15.04.2021
278 Clouds 8 1020 90 10000 1.43 19 06:49 15.04.2021
279 Clouds 8 1020 90 10000 1.43 19 06:30 15.04.2021
280 Clouds 8 1019 90 10000 1.64 11 04:52 15.04.2021
281 Clouds 13 1030 67 10000 2.06 110 01:58 15.04.2021
282 Clouds 16 1029 55 10000 3.09 270 23:44 14.04.2021
283 Clouds 20 1028 37 10000 1.54 0 23:25 14.04.2021
284 Clouds 19 1029 39 10000 1.54 280 22:47 14.04.2021
285 Clouds 19 1029 42 10000 2.06 310 22:26 14.04.2021
286 Clouds 18 1030 45 10000 5.14 270 21:51 14.04.2021
287 Clouds 17 1030 51 10000 4.12 270 21:32 14.04.2021
288 Clouds 17 1031 48 10000 1.88 273 20:58 14.04.2021
289 Clouds 17 1031 48 10000 1.88 273 20:34 14.04.2021
290 Clouds 16 1032 55 10000 2.57 0 19:55 14.04.2021
291 Clouds 15 1033 58 10000 2.57 70 19:21 14.04.2021
292 Clouds 16 1034 51 10000 1.54 0 18:57 14.04.2021
293 Clouds 15 1035 55 10000 1.03 0 18:36 14.04.2021
294 Clouds 15 1035 55 10000 1.03 0 18:18 14.04.2021
295 Clouds 12 1036 66 10000 1.03 80 17:29 14.04.2021
296 Clouds 12 1036 66 10000 1.03 0 16:58 14.04.2021
297 Clouds 10 1036 76 10000 1.54 100 16:29 14.04.2021
298 Clouds 10 1036 81 10000 1.54 0 15:47 14.04.2021
299 Clouds 9 1036 81 10000 2.06 100 15:28 14.04.2021
300 Clouds 9 1035 87 10000 2.06 100 14:56 14.04.2021
301 Clouds 9 1035 87 10000 1.54 100 14:38 14.04.2021
302 Clouds 9 1035 87 10000 1.54 100 14:19 14.04.2021
303 Clouds 9 1034 87 10000 1.54 100 13:45 14.04.2021
304 Clouds 9 1021 86 10000 0.69 152 12:43 14.04.2021
305 Clouds 9 1020 85 10000 0.07 113 12:18 14.04.2021
306 Clouds 9 1020 85 10000 0.07 113 11:40 14.04.2021
307 Clouds 9 1019 84 10000 0.41 17 11:21 14.04.2021
308 Rain 9 1019 84 10000 0.41 17 10:34 14.04.2021
309 Clouds 9 1020 84 10000 0.74 30 09:43 14.04.2021
310 Rain 8 1020 86 10000 1.05 9 09:23 14.04.2021
311 Rain 8 1020 86 10000 1.05 9 08:48 14.04.2021
312 Rain 8 1021 88 10000 1.08 354 08:23 14.04.2021
313 Clouds 8 1022 88 10000 1.34 354 07:28 14.04.2021
314 Clouds 8 1022 88 10000 1.51 353 06:28 14.04.2021
315 Clouds 8 1022 88 10000 1.51 353 05:31 14.04.2021
316 Clouds 14 1031 58 10000 1.03 120 02:27 14.04.2021
317 Clouds 15 1030 51 10000 4.63 300 00:50 14.04.2021
318 Clouds 15 1030 51 10000 4.63 300 00:50 14.04.2021
319 Clouds 16 1029 48 10000 2.06 290 00:27 14.04.2021
320 Clouds 19 1029 37 10000 4.63 30 23:31 13.04.2021
321 Clouds 20 1028 32 10000 5.14 20 22:44 13.04.2021
322 Clouds 20 1028 32 10000 5.14 20 22:44 13.04.2021
323 Clouds 20 1029 32 10000 4.12 20 22:20 13.04.2021
324 Clouds 21 1029 35 10000 2.57 20 21:48 13.04.2021
325 Clouds 20 1030 34 10000 3.09 360 21:30 13.04.2021
326 Clouds 19 1031 39 10000 1.03 140 20:48 13.04.2021
327 Clouds 19 1031 39 10000 1.03 140 20:24 13.04.2021
328 Clouds 20 1032 37 10000 1.03 10 19:57 13.04.2021
329 Clouds 18 1033 36 10000 0.51 330 19:25 13.04.2021
330 Clouds 16 1034 44 10000 1.54 70 18:48 13.04.2021
331 Clouds 16 1034 44 10000 1.54 70 18:30 13.04.2021
332 Clouds 16 1035 48 10000 1.03 0 17:40 13.04.2021
333 Clouds 16 1035 48 10000 1.03 0 17:21 13.04.2021
334 Clouds 16 1035 51 10000 2.57 60 16:45 13.04.2021
335 Clouds 16 1035 51 10000 1.03 90 16:26 13.04.2021
336 Clouds 14 1036 58 10000 1.03 0 15:55 13.04.2021
337 Clouds 14 1036 58 10000 1.03 0 15:37 13.04.2021
338 Clouds 12 1035 71 10000 0.51 0 14:58 13.04.2021
339 Clouds 12 1035 71 10000 0.51 0 14:24 13.04.2021
340 Clouds 9 1034 81 10000 1.03 310 13:53 13.04.2021
341 Clouds 9 1034 81 10000 0.74 52 13:27 13.04.2021
342 Clouds 8 1021 87 10000 0.74 52 12:59 13.04.2021
343 Clouds 8 1021 87 10000 0.74 52 12:41 13.04.2021
344 Clouds 8 1021 89 10000 0.67 8 12:22 13.04.2021
345 Clouds 8 1021 89 10000 0.67 8 11:36 13.04.2021
346 Clouds 8 1020 90 10000 0.52 8 10:57 13.04.2021
347 Clouds 8 1020 90 10000 0.52 8 10:57 13.04.2021
348 Clouds 8 1020 90 10000 0.52 8 10:39 13.04.2021
349 Clouds 8 1020 89 10000 0.59 67 10:18 13.04.2021
350 Clouds 8 1020 89 10000 0.59 67 09:42 13.04.2021
351 Clouds 8 1020 89 10000 0.36 38 09:18 13.04.2021
352 Clouds 8 1020 89 10000 0.76 29 08:43 13.04.2021
353 Clouds 8 1021 88 10000 1.04 28 08:21 13.04.2021
354 Clouds 8 1021 88 10000 1.04 28 07:37 13.04.2021
355 Clouds 8 1021 88 10000 1.11 11 07:19 13.04.2021
356 Clouds 8 1022 87 10000 1.56 9 06:18 13.04.2021
357 Clouds 13 1032 58 10000 3.09 30 02:52 13.04.2021
358 Clouds 14 1031 51 10000 1.54 40 01:28 13.04.2021
359 Clouds 15 1029 44 10000 4.63 20 23:49 12.04.2021
360 Clouds 16 1029 48 10000 4.63 20 23:29 12.04.2021
361 Clouds 16 1029 44 10000 4.63 40 22:45 12.04.2021
362 Clouds 17 1029 42 10000 3.09 30 22:25 12.04.2021
363 Clouds 19 1029 37 10000 3.6 30 21:47 12.04.2021
364 Clouds 18 1030 42 10000 5.14 10 21:23 12.04.2021
365 Clouds 18 1030 45 10000 4.12 360 20:45 12.04.2021
366 Clouds 18 1031 45 10000 3.09 340 20:26 12.04.2021
367 Clouds 18 1032 45 10000 1.03 0 19:58 12.04.2021
368 Clouds 18 1032 45 10000 1.03 0 19:38 12.04.2021
369 Clouds 17 1032 45 10000 1.03 240 19:19 12.04.2021
370 Clouds 15 1033 51 10000 2.57 90 18:47 12.04.2021
371 Clouds 16 1034 51 10000 2.06 0 18:27 12.04.2021
372 Clouds 16 1035 51 10000 2.06 50 17:46 12.04.2021
373 Clouds 14 1035 58 10000 2.06 110 17:24 12.04.2021
374 Clouds 13 1035 62 10000 1.03 0 16:49 12.04.2021
375 Clouds 12 1035 71 10000 1.03 0 16:28 12.04.2021
376 Clouds 12 1035 71 10000 1.03 0 16:28 12.04.2021
377 Clouds 11 1034 76 10000 0.69 25 15:54 12.04.2021
378 Clouds 11 1034 76 10000 0.69 25 15:33 12.04.2021
379 Clouds 9 1034 87 10000 0.51 0 14:55 12.04.2021
380 Clouds 9 1034 87 10000 0.51 0 14:36 12.04.2021
381 Clouds 8 1033 87 10000 0.68 33 13:56 12.04.2021
382 Clouds 8 1033 87 10000 1.03 110 13:33 12.04.2021
383 Clouds 8 1021 91 10000 0.74 38 12:59 12.04.2021
384 Clouds 8 1021 91 10000 0.74 38 12:38 12.04.2021
385 Clouds 8 1021 91 10000 1.12 4 12:19 12.04.2021
386 Clouds 8 1020 91 10000 1.4 354 11:26 12.04.2021
387 Clouds 8 1020 91 10000 1.4 354 10:51 12.04.2021
388 Clouds 8 1020 92 10000 1.45 354 10:27 12.04.2021
389 Clouds 8 1020 92 10000 1.45 354 09:51 12.04.2021
390 Clouds 8 1020 93 10000 1.6 1 09:23 12.04.2021
391 Clouds 8 1020 93 10000 1.6 1 08:44 12.04.2021
392 Clouds 8 1020 92 10000 1.84 22 07:45 12.04.2021
393 Clouds 8 1020 90 10000 1.73 29 07:22 12.04.2021
394 Clouds 8 1020 88 10000 0.6 19 06:28 12.04.2021
395 Clouds 8 1020 88 10000 0.6 19 05:45 12.04.2021
396 Clouds 12 1030 71 10000 2.06 110 01:42 12.04.2021
397 Clouds 14 1029 54 10000 1.03 0 00:27 12.04.2021
398 Rain 14 1028 62 10000 1.54 280 23:51 11.04.2021
399 Rain 14 1028 62 10000 3.6 260 23:31 11.04.2021
400 Rain 14 1029 62 10000 4.12 290 22:49 11.04.2021
401 Clouds 16 1029 59 10000 1.71 355 22:27 11.04.2021
402 Drizzle 13 1029 67 10000 2.57 260 21:52 11.04.2021
403 Clouds 12 1030 76 10000 4.12 330 21:32 11.04.2021
404 Clouds 15 1029 58 10000 3.09 280 20:59 11.04.2021
405 Clouds 15 1029 58 10000 3.09 280 20:39 11.04.2021
406 Clouds 14 1030 58 10000 2.57 300 20:20 11.04.2021
407 Rain 13 1031 67 10000 3.09 330 19:40 11.04.2021
408 Clouds 14 1031 62 10000 1.03 0 19:19 11.04.2021
409 Clouds 14 1031 62 10000 1.03 0 19:19 11.04.2021
410 Clouds 16 1031 59 10000 1.54 0 18:47 11.04.2021
411 Clouds 14 1032 62 10000 1.03 0 18:26 11.04.2021
412 Clouds 13 1033 62 10000 1.03 330 17:50 11.04.2021
413 Clouds 13 1033 58 10000 1.03 100 17:30 11.04.2021
414 Clouds 13 1033 58 10000 1.03 100 17:30 11.04.2021
415 Clouds 13 1033 58 10000 1.03 100 17:30 11.04.2021
416 Clouds 13 1033 62 10000 1.37 343 16:59 11.04.2021
417 Clouds 13 1033 62 10000 1.37 343 16:40 11.04.2021
418 Clouds 12 1033 66 10000 1.03 360 16:20 11.04.2021
419 Clouds 11 1033 71 10000 1.56 356 15:42 11.04.2021
420 Clouds 11 1033 71 10000 1.54 280 15:22 11.04.2021
421 Clouds 10 1033 76 10000 1.54 290 14:49 11.04.2021
422 Clouds 10 1032 76 10000 2.57 290 14:19 11.04.2021
423 Clouds 10 1032 76 10000 2.06 280 13:40 11.04.2021
424 Clouds 9 1032 87 10000 0.46 195 13:22 11.04.2021
425 Clouds 9 1032 87 10000 0.46 195 13:22 11.04.2021
426 Clouds 9 1017 93 10000 0.64 268 12:26 11.04.2021
427 Clouds 9 1017 93 10000 0.64 268 11:56 11.04.2021
428 Clouds 9 1017 93 10000 0.64 268 11:38 11.04.2021
429 Clouds 9 1017 93 10000 0.69 289 11:19 11.04.2021
430 Clouds 9 1017 93 10000 0.69 289 10:40 11.04.2021
431 Clouds 9 1016 92 10000 0.46 285 10:20 11.04.2021
432 Clouds 9 1016 92 10000 0.46 285 09:43 11.04.2021
433 Clouds 9 1016 92 10000 0.46 285 09:43 11.04.2021
434 Clouds 9 1017 92 10000 0.27 288 09:25 11.04.2021
435 Clouds 9 1017 90 10000 0.41 339 08:39 11.04.2021
436 Clouds 9 1017 90 10000 0.46 345 07:38 11.04.2021
437 Clouds 8 1018 91 10000 1.06 6 07:19 11.04.2021
438 Clouds 9 1018 91 10000 1.48 23 05:47 11.04.2021
439 Rain 9 1018 91 10000 1.75 19 05:22 11.04.2021
440 Rain 10 1030 81 10000 1.54 100 04:35 11.04.2021
441 Rain 10 1030 81 10000 1.54 100 04:35 11.04.2021
442 Clouds 10 1030 81 10000 1.54 100 03:35 11.04.2021
443 Clouds 15 1027 51 10000 2.06 360 00:55 11.04.2021
444 Clouds 16 1027 48 10000 3.09 10 00:32 11.04.2021
445 Clouds 16 1027 51 10000 1.93 332 23:44 10.04.2021
446 Clouds 17 1027 42 10000 2.06 0 22:55 10.04.2021
447 Clouds 18 1028 45 10000 4.12 20 22:28 10.04.2021
448 Clouds 17 1028 45 10000 3.09 360 21:53 10.04.2021
449 Clouds 15 1029 55 10000 5.14 300 21:24 10.04.2021
450 Clouds 16 1029 48 10000 4.12 360 20:55 10.04.2021
451 Clouds 16 1029 48 10000 4.12 360 20:34 10.04.2021
452 Clouds 16 1029 48 10000 4.12 360 20:34 10.04.2021
453 Clouds 19 1030 34 10000 1.03 40 19:58 10.04.2021
454 Clouds 19 1030 34 10000 1.03 40 19:40 10.04.2021
455 Clouds 18 1031 45 10000 2.57 40 19:21 10.04.2021
456 Clouds 17 1031 45 10000 0.51 110 18:41 10.04.2021
457 Clouds 17 1033 51 10000 1.54 0 18:23 10.04.2021
458 Clouds 17 1033 51 10000 1.54 0 18:23 10.04.2021
459 Clouds 16 1033 55 10000 0.51 200 17:35 10.04.2021
460 Clouds 16 1033 55 10000 0.51 200 17:35 10.04.2021
461 Clouds 13 1034 62 10000 1.03 0 16:42 10.04.2021
462 Clouds 12 1034 71 10000 0.51 0 16:21 10.04.2021
463 Clouds 12 1034 71 9000 0.51 90 15:44 10.04.2021
464 Clouds 9 1034 87 9000 1.03 90 14:54 10.04.2021
465 Clouds 9 1034 87 9000 1.03 90 14:33 10.04.2021
466 Rain 8 1033 87 8000 0.67 181 13:55 10.04.2021
467 Rain 8 1033 87 8000 0.67 181 13:36 10.04.2021
468 Clouds 8 1020 92 10000 0.8 171 12:43 10.04.2021
469 Clouds 8 1020 92 10000 0.62 191 12:20 10.04.2021
470 Clouds 8 1020 92 10000 0.62 191 11:45 10.04.2021
471 Clouds 8 1020 91 10000 0.75 225 11:22 10.04.2021
472 Clouds 8 1020 91 10000 0.75 225 10:51 10.04.2021
473 Clouds 8 1020 91 10000 0.75 225 10:30 10.04.2021
474 Clouds 8 1020 91 10000 0.96 241 09:44 10.04.2021
475 Clouds 7 1020 92 10000 1.07 249 09:18 10.04.2021
476 Clouds 8 1020 91 10000 1.06 229 08:34 10.04.2021
477 Clouds 8 1020 91 10000 1.02 246 07:56 10.04.2021
478 Clouds 7 1021 92 10000 1.05 273 07:26 10.04.2021
479 Clouds 7 1022 92 10000 1.17 293 06:29 10.04.2021
480 Clouds 7 1022 92 10000 1.17 293 05:34 10.04.2021
481 Clouds 10 1032 81 10000 1.54 90 03:41 10.04.2021
482 Clouds 10 1032 81 10000 1.54 100 02:42 10.04.2021
483 Clouds 11 1031 71 10000 1.4 294 01:27 10.04.2021
484 Clouds 11 1031 71 10000 1.54 90 00:32 10.04.2021
485 Clouds 11 1031 71 10000 1.54 90 00:32 10.04.2021
486 Clouds 12 1031 71 10000 0.51 260 23:55 09.04.2021
487 Clouds 12 1031 66 10000 1.03 130 23:30 09.04.2021
488 Clouds 12 1031 71 10000 0.51 260 22:54 09.04.2021
489 Clouds 12 1031 71 10000 0.51 260 22:36 09.04.2021
490 Rain 10 1032 76 8000 2.57 270 21:40 09.04.2021
491 Rain 10 1033 76 7000 3.6 280 21:22 09.04.2021
492 Rain 11 1033 66 9000 3.6 330 20:57 09.04.2021
493 Rain 11 1033 66 9000 3.6 330 20:39 09.04.2021
494 Rain 12 1033 66 8000 3.6 360 20:20 09.04.2021
495 Clouds 12 1032 71 10000 2.57 100 19:43 09.04.2021
496 Rain 15 1033 58 10000 5.14 100 19:22 09.04.2021
497 Clouds 16 1033 51 10000 3.6 100 18:43 09.04.2021
498 Clouds 15 1033 55 10000 1.03 50 18:25 09.04.2021
499 Clouds 15 1033 55 10000 1.54 60 17:48 09.04.2021
500 Clouds 15 1034 55 10000 1.03 0 17:29 09.04.2021
501 Clouds 14 1034 58 10000 0.51 0 16:47 09.04.2021
502 Clouds 12 1034 66 10000 1.54 70 16:28 09.04.2021
503 Clouds 11 1034 76 10000 0.82 353 15:44 09.04.2021
504 Clouds 11 1034 76 10000 0.63 299 15:24 09.04.2021
505 Clouds 11 1034 76 10000 0.63 299 14:46 09.04.2021
506 Clouds 10 1034 76 10000 1.03 110 14:22 09.04.2021
507 Clouds 9 1033 81 10000 1.03 100 13:45 09.04.2021
508 Clouds 9 1033 81 10000 0.43 318 13:22 09.04.2021
509 Clouds 8 1019 92 10000 0.43 318 12:47 09.04.2021
510 Clouds 8 1019 92 10000 0.44 341 12:23 09.04.2021
511 Rain 8 1019 92 10000 0.44 341 11:42 09.04.2021
512 Rain 8 1018 93 10000 0.17 346 11:20 09.04.2021
513 Rain 8 1018 93 10000 0.17 346 10:37 09.04.2021
514 Rain 8 1018 93 10000 0.19 10 09:56 09.04.2021
515 Rain 8 1019 93 10000 0.87 36 09:27 09.04.2021
516 Rain 8 1019 93 10000 0.87 36 08:55 09.04.2021
517 Rain 8 1019 93 10000 1.42 23 08:28 09.04.2021
518 Rain 8 1019 93 10000 1.49 30 07:21 09.04.2021
519 Rain 9 1019 93 10000 1.72 28 06:26 09.04.2021
520 Rain 11 1030 76 10000 1.54 310 04:38 09.04.2021
521 Clouds 11 1030 76 10000 1.54 310 03:39 09.04.2021
522 Clouds 16 1028 51 10000 1.54 290 00:39 09.04.2021
523 Clouds 16 1028 48 10000 1.03 210 00:21 09.04.2021
524 Clouds 17 1028 45 10000 2.06 270 23:32 08.04.2021
525 Clouds 16 1028 48 10000 2.57 280 22:51 08.04.2021
526 Clouds 16 1029 48 10000 2.57 140 22:27 08.04.2021
527 Clouds 17 1029 48 10000 4.12 50 21:58 08.04.2021
528 Rain 17 1029 48 10000 2.57 350 21:40 08.04.2021
529 Clouds 17 1029 48 10000 2.57 350 21:21 08.04.2021
530 Clouds 17 1030 48 10000 2.06 350 20:56 08.04.2021
531 Clouds 17 1030 48 10000 2.06 350 20:35 08.04.2021
532 Clouds 19 1031 37 10000 1.54 90 19:58 08.04.2021
533 Clouds 18 1032 42 10000 1.54 250 19:27 08.04.2021
534 Clouds 18 1034 45 10000 1.54 0 18:58 08.04.2021
535 Clouds 18 1034 45 10000 1.54 0 18:38 08.04.2021
536 Clouds 16 1034 51 10000 3.09 290 18:19 08.04.2021
537 Clouds 16 1034 48 10000 1.54 300 17:40 08.04.2021
538 Clouds 15 1035 51 10000 2.06 200 17:18 08.04.2021
539 Clouds 15 1035 55 10000 1.54 20 16:43 08.04.2021
540 Clouds 14 1035 54 10000 1.54 40 16:22 08.04.2021
541 Clouds 13 1035 58 10000 1.03 0 15:43 08.04.2021
542 Clouds 12 1035 66 10000 0.51 50 15:23 08.04.2021
543 Clouds 10 1035 76 10000 0.51 0 14:42 08.04.2021
544 Clouds 9 1034 81 10000 0.68 199 14:20 08.04.2021
545 Clouds 7 1034 87 10000 1.32 220 13:46 08.04.2021
546 Clouds 9 1020 94 10000 1.09 219 13:24 08.04.2021
547 Clouds 9 1020 94 10000 1.09 219 12:53 08.04.2021
548 Clouds 9 1019 93 10000 0.87 210 12:33 08.04.2021
549 Clouds 9 1019 93 10000 0.85 213 11:57 08.04.2021
550 Clouds 9 1018 93 10000 0.91 218 11:25 08.04.2021
551 Clouds 9 1018 93 10000 0.91 218 10:51 08.04.2021
552 Clouds 9 1018 93 10000 0.9 245 10:25 08.04.2021
553 Clouds 9 1018 93 10000 0.88 244 10:25 08.04.2021
554 Clouds 9 1018 93 10000 0.9 245 09:44 08.04.2021
555 Clouds 9 1018 92 10000 0.83 270 09:25 08.04.2021
556 Clouds 9 1018 92 10000 0.83 270 08:40 08.04.2021
557 Clouds 9 1019 92 10000 1.21 174 08:22 08.04.2021
558 Clouds 9 1019 92 10000 1.21 174 07:43 08.04.2021
559 Rain 10 1020 91 10000 0.79 338 05:45 08.04.2021
560 Clouds 12 1030 71 10000 5.66 90 01:25 08.04.2021
561 Rain 16 1028 51 10000 3.6 320 00:30 08.04.2021
562 Rain 16 1028 51 10000 3.6 320 00:30 08.04.2021
563 Clouds 17 1028 48 10000 3.09 10 23:47 07.04.2021
564 Clouds 20 1027 42 10000 4.63 310 23:25 07.04.2021
565 Clouds 21 1028 30 10000 2.57 280 22:56 07.04.2021
566 Clouds 21 1028 30 10000 2.57 280 22:38 07.04.2021
567 Clouds 21 1028 30 10000 2.57 280 22:19 07.04.2021
568 Clouds 21 1028 30 10000 2.57 280 21:34 07.04.2021
569 Clouds 18 1029 39 10000 5.14 20 20:52 07.04.2021
570 Clouds 18 1030 42 10000 6.17 20 20:28 07.04.2021
571 Clouds 19 1030 39 10000 4.12 50 19:52 07.04.2021
572 Clouds 19 1030 39 10000 4.12 50 19:33 07.04.2021
573 Clouds 18 1032 39 10000 3.09 60 18:57 07.04.2021
574 Clouds 18 1032 39 10000 3.09 60 18:39 07.04.2021
575 Clouds 18 1032 39 10000 2.57 260 18:18 07.04.2021
576 Clouds 17 1034 48 10000 1.03 0 17:43 07.04.2021
577 Clouds 11 1020 76 10000 1.25 253 17:24 07.04.2021
578 Clouds 11 1020 76 10000 1.25 253 16:45 07.04.2021
579 Drizzle 11 1034 76 9000 0.79 291 16:21 07.04.2021
580 Drizzle 11 1034 76 9000 0.79 291 15:53 07.04.2021
581 Drizzle 11 1034 76 9000 0.79 291 15:32 07.04.2021
582 Drizzle 11 1034 76 10000 0.56 354 14:43 07.04.2021
583 Clouds 10 1033 81 10000 0.13 307 14:20 07.04.2021
584 Drizzle 10 1033 76 9000 0.13 307 13:39 07.04.2021
585 Clouds 9 1033 87 9000 2.57 90 13:20 07.04.2021
586 Clouds 8 1020 92 10000 0.21 239 12:43 07.04.2021
587 Clouds 8 1019 91 10000 0.21 229 12:18 07.04.2021
588 Clouds 8 1019 91 10000 0.21 229 11:45 07.04.2021
589 Clouds 7 1019 92 10000 0.5 33 11:22 07.04.2021
590 Clouds 7 1019 92 10000 0.5 33 10:50 07.04.2021
591 Clouds 8 1019 91 10000 0.2 301 09:50 07.04.2021
592 Clouds 8 1019 91 10000 1.07 353 09:28 07.04.2021
593 Clouds 8 1019 91 10000 1.09 353 08:53 07.04.2021
594 Clouds 8 1019 90 10000 1.1 3 08:32 07.04.2021
595 Clouds 8 1019 90 10000 1.32 2 07:54 07.04.2021
596 Clouds 9 1019 90 10000 1.47 353 07:29 07.04.2021
597 Clouds 9 1019 90 10000 1.47 353 06:43 07.04.2021
598 Clouds 9 1019 89 10000 1.3 358 05:43 07.04.2021
599 Clouds 13 1030 67 10000 3.6 290 03:18 07.04.2021
600 Clouds 14 1029 58 10000 5.66 290 23:50 06.04.2021
601 Clouds 15 1028 55 10000 4.63 300 23:23 06.04.2021
602 Clouds 15 1029 55 10000 5.14 290 22:57 06.04.2021
603 Rain 16 1029 51 10000 2.57 330 22:21 06.04.2021
604 Clouds 16 1029 51 10000 0.51 360 21:57 06.04.2021
605 Clouds 16 1029 51 10000 0.51 360 21:38 06.04.2021
606 Clouds 18 1029 39 10000 2.06 0 21:19 06.04.2021
607 Clouds 18 1030 42 10000 3.09 290 20:45 06.04.2021
608 Drizzle 14 1031 62 10000 2.57 300 20:21 06.04.2021
609 Drizzle 14 1031 62 10000 2.57 300 19:47 06.04.2021
610 Clouds 16 1031 51 10000 5.14 100 19:29 06.04.2021
611 Clouds 17 1032 45 10000 3.09 120 18:45 06.04.2021
612 Clouds 16 1033 48 10000 1.54 0 18:23 06.04.2021
613 Clouds 16 1033 51 10000 1.54 0 17:45 06.04.2021
614 Clouds 15 1033 55 10000 1.03 0 17:27 06.04.2021
615 Clouds 14 1033 62 10000 2.57 0 16:49 06.04.2021
616 Clouds 14 1034 58 10000 2.06 0 16:30 06.04.2021
617 Clouds 11 1034 71 10000 2.57 120 15:28 06.04.2021
618 Clouds 10 1033 76 10000 2.57 100 14:55 06.04.2021
619 Clouds 10 1033 76 10000 2.57 100 14:37 06.04.2021
620 Clouds 10 1033 76 10000 2.57 100 14:37 06.04.2021
621 Clouds 10 1033 76 10000 3.09 100 14:18 06.04.2021
622 Clouds 10 1033 76 10000 3.6 100 13:40 06.04.2021
623 Clouds 10 1032 71 10000 2.06 110 13:21 06.04.2021
624 Clouds 9 1019 91 10000 0.4 134 12:41 06.04.2021
625 Clouds 9 1018 90 10000 0.59 150 12:20 06.04.2021
626 Clouds 9 1018 90 10000 0.59 150 11:48 06.04.2021
627 Clouds 9 1017 90 10000 0.58 151 11:21 06.04.2021
628 Clouds 9 1017 90 10000 0.58 151 10:47 06.04.2021
629 Clouds 10 1017 89 10000 0.46 147 10:25 06.04.2021
630 Clouds 9 1017 89 10000 0.47 149 09:48 06.04.2021
631 Clouds 9 1017 89 10000 0.47 149 09:48 06.04.2021
632 Clouds 9 1018 89 10000 0.71 139 09:29 06.04.2021
633 Clouds 9 1018 89 10000 0.4 109 08:40 06.04.2021
634 Clouds 9 1018 89 10000 0.46 65 07:57 06.04.2021
635 Clouds 9 1019 91 10000 0.76 42 06:55 06.04.2021
636 Clouds 9 1019 91 10000 1.24 30 05:40 06.04.2021
637 Clouds 13 1029 58 10000 3.09 300 02:54 06.04.2021
638 Clouds 14 1029 54 10000 3.09 360 00:44 06.04.2021
639 Clouds 15 1028 55 10000 2.06 80 00:21 06.04.2021
640 Clouds 16 1028 51 10000 3.09 330 23:42 05.04.2021
641 Clouds 15 1028 58 10000 5.66 290 23:19 05.04.2021
642 Rain 17 1028 39 10000 1.54 340 22:48 05.04.2021
643 Rain 17 1028 42 10000 1.54 290 22:25 05.04.2021
644 Clouds 16 1029 44 10000 1.03 0 21:43 05.04.2021
645 Clouds 17 1029 48 10000 1.03 0 21:20 05.04.2021
646 Clouds 16 1030 48 10000 0.51 90 20:42 05.04.2021
647 Clouds 15 1031 55 10000 1.54 320 20:23 05.04.2021
648 Clouds 14 1031 54 10000 2.57 330 19:42 05.04.2021
649 Clouds 13 1032 58 10000 5.14 20 19:20 05.04.2021
650 Rain 14 1032 54 10000 3.09 60 18:48 05.04.2021
651 Clouds 16 1033 55 10000 1.54 0 18:30 05.04.2021
652 Clouds 14 1033 54 10000 2.57 100 17:57 05.04.2021
653 Clouds 14 1033 54 10000 2.57 100 17:37 05.04.2021
654 Clouds 13 1034 67 10000 2.06 90 17:18 05.04.2021
655 Clouds 12 1034 71 10000 1.54 100 16:41 05.04.2021
656 Clouds 11 1034 71 10000 0.51 0 16:19 05.04.2021
657 Clouds 10 1034 76 9000 0.51 0 15:50 05.04.2021
658 Clouds 9 1034 76 9000 1.03 0 15:27 05.04.2021
659 Clouds 9 1033 81 9000 1.03 90 14:46 05.04.2021
660 Clouds 9 1033 81 9000 2.06 110 14:25 05.04.2021
661 Clouds 10 1032 76 8000 0.51 0 13:31 05.04.2021
662 Clouds 10 1032 76 8000 0.51 0 13:31 05.04.2021
663 Clouds 10 1032 76 8000 0.51 0 13:31 05.04.2021
664 Clouds 8 1020 89 10000 0.49 6 12:48 05.04.2021
665 Clouds 8 1019 90 10000 0.51 333 12:26 05.04.2021
666 Clouds 8 1019 90 10000 0.51 333 11:54 05.04.2021
667 Clouds 8 1019 90 10000 0.51 333 11:33 05.04.2021
668 Clouds 8 1018 89 10000 0.43 353 10:59 05.04.2021
669 Clouds 8 1018 89 10000 0.43 353 10:40 05.04.2021
670 Clouds 8 1017 89 10000 0.51 330 10:19 05.04.2021
671 Clouds 8 1017 89 10000 0.51 330 09:45 05.04.2021
672 Clouds 9 1017 88 10000 0.65 335 09:22 05.04.2021
673 Clouds 9 1017 89 10000 0.42 26 08:40 05.04.2021
674 Clouds 9 1018 89 10000 0.68 26 08:20 05.04.2021
675 Clouds 9 1018 89 10000 0.68 26 07:35 05.04.2021
676 Clouds 10 1019 88 10000 1.61 15 04:23 05.04.2021
677 Clouds 13 1029 62 10000 2.06 320 01:35 05.04.2021
678 Clouds 15 1028 51 10000 2.57 270 00:29 05.04.2021
679 Clouds 16 1027 48 10000 3.6 250 23:43 04.04.2021
680 Clouds 15 1028 55 10000 2.06 340 23:20 04.04.2021
681 Clouds 15 1028 51 10000 4.63 350 22:50 04.04.2021
682 Clouds 17 1027 45 10000 2.07 331 22:28 04.04.2021
683 Clouds 17 1028 48 10000 4.12 340 21:25 04.04.2021
684 Clouds 17 1029 48 10000 2.57 230 20:54 04.04.2021
685 Clouds 15 1030 55 10000 3.6 320 20:25 04.04.2021
686 Clouds 17 1030 48 10000 1.54 0 19:43 04.04.2021
687 Clouds 17 1031 45 10000 2.06 270 19:22 04.04.2021
688 Clouds 17 1031 42 10000 1.03 0 18:57 04.04.2021
689 Clouds 17 1031 42 10000 1.03 0 18:38 04.04.2021
690 Clouds 17 1032 39 10000 1.03 50 18:20 04.04.2021
691 Clouds 14 1033 51 10000 2.06 90 17:37 04.04.2021
692 Clouds 14 1033 51 10000 2.06 90 17:37 04.04.2021
693 Clouds 14 1033 51 10000 2.06 90 17:18 04.04.2021
694 Clouds 14 1033 51 10000 1.03 70 16:41 04.04.2021
695 Clouds 12 1034 62 10000 1.54 290 15:58 04.04.2021
696 Clouds 12 1034 62 10000 1.54 290 15:33 04.04.2021
697 Clouds 10 1033 71 10000 1.03 260 14:43 04.04.2021
698 Clouds 8 1033 81 10000 0.31 353 14:25 04.04.2021
699 Clouds 6 1032 81 10000 1.03 80 13:29 04.04.2021
700 Clouds 9 1019 86 10000 0.6 355 12:55 04.04.2021
701 Clouds 9 1019 86 10000 0.6 355 12:33 04.04.2021
702 Clouds 9 1018 87 10000 0.42 358 11:53 04.04.2021
703 Clouds 9 1018 87 10000 0.42 358 11:31 04.04.2021
704 Clouds 9 1018 87 10000 0.52 329 10:56 04.04.2021
705 Clouds 9 1018 87 10000 0.52 329 10:33 04.04.2021
706 Clouds 9 1018 87 10000 0.57 327 09:52 04.04.2021
707 Clouds 9 1018 87 10000 0.83 360 09:24 04.04.2021
708 Clouds 9 1018 87 10000 0.83 360 08:51 04.04.2021
709 Clouds 9 1018 87 10000 0.83 360 08:33 04.04.2021
710 Clouds 9 1020 88 10000 1.28 5 07:24 04.04.2021
711 Clouds 9 1020 88 10000 1.28 5 06:36 04.04.2021
712 Clouds 9 1020 88 10000 1.45 22 05:32 04.04.2021
713 Rain 13 1029 50 10000 1.54 120 01:28 04.04.2021
714 Clouds 16 1029 41 10000 1.54 170 00:19 04.04.2021
715 Clouds 16 1028 41 10000 0.51 320 23:47 03.04.2021
716 Clouds 15 1029 47 10000 4.12 10 23:23 03.04.2021
717 Clouds 16 1029 48 10000 4.12 30 22:50 03.04.2021
718 Rain 16 1029 44 10000 5.14 10 22:21 03.04.2021
719 Rain 16 1029 44 10000 5.14 20 21:47 03.04.2021
720 Rain 15 1030 47 10000 4.63 20 21:24 03.04.2021
721 Rain 15 1030 47 10000 3.6 30 20:49 03.04.2021
722 Rain 16 1031 44 10000 5.14 20 20:28 03.04.2021
723 Clouds 16 1031 44 10000 3.41 43 19:51 03.04.2021
724 Clouds 16 1031 44 10000 3 35 19:25 03.04.2021
725 Clouds 15 1032 51 10000 2.06 0 18:51 03.04.2021
726 Clouds 15 1032 51 10000 2.06 0 18:32 03.04.2021
727 Clouds 14 1033 58 10000 2.06 90 17:53 03.04.2021
728 Clouds 14 1033 58 10000 1.03 80 17:26 03.04.2021
729 Clouds 14 1033 54 10000 1.03 0 16:52 03.04.2021
730 Clouds 13 1033 58 10000 1.54 80 16:25 03.04.2021
731 Clouds 12 1033 66 10000 1.54 160 15:51 03.04.2021
732 Clouds 12 1033 66 10000 1.54 160 15:30 03.04.2021
733 Clouds 12 1033 66 10000 1.54 160 15:30 03.04.2021
734 Clouds 11 1032 71 10000 2.57 270 14:44 03.04.2021
735 Clouds 10 1032 76 10000 1.54 270 14:25 03.04.2021
736 Clouds 9 1032 81 10000 1.54 280 13:54 03.04.2021
737 Clouds 10 1031 76 10000 0.51 270 13:29 03.04.2021
738 Clouds 9 1019 90 10000 0.94 152 12:57 03.04.2021
739 Clouds 9 1019 90 10000 0.94 152 12:32 03.04.2021
740 Clouds 9 1017 90 10000 0.92 173 11:41 03.04.2021
741 Clouds 9 1017 88 10000 1.19 195 11:19 03.04.2021
742 Clouds 9 1017 88 10000 1.19 195 10:45 03.04.2021
743 Clouds 9 1017 88 10000 1.15 112 10:25 03.04.2021
744 Clouds 9 1017 88 10000 1.15 112 09:36 03.04.2021
745 Clouds 8 1018 89 10000 0.37 100 09:18 03.04.2021
746 Clouds 8 1018 92 10000 1.13 117 08:35 03.04.2021
747 Clouds 8 1019 92 10000 0.79 85 07:31 03.04.2021
748 Clouds 8 1020 92 10000 1.16 47 06:56 03.04.2021
749 Clouds 9 1018 90 10000 1.96 29 03:54 03.04.2021
750 Clouds 14 1029 54 10000 1.54 140 02:55 03.04.2021
751 Clouds 14 1029 54 10000 1.54 140 02:28 03.04.2021
752 Clouds 18 1025 39 10000 3.6 40 00:32 03.04.2021
753 Clouds 18 1025 36 10000 5.14 10 23:59 02.04.2021
754 Clouds 20 1025 37 10000 2.06 10 23:30 02.04.2021
755 Clouds 19 1025 34 10000 0.51 130 22:56 02.04.2021
756 Clouds 19 1025 34 10000 0.51 130 22:38 02.04.2021
757 Clouds 20 1026 37 10000 1.03 100 21:59 02.04.2021
758 Clouds 20 1026 37 10000 1.03 100 21:40 02.04.2021
759 Clouds 18 1027 42 10000 1.54 130 21:18 02.04.2021
760 Clouds 19 1028 39 10000 1.03 70 20:39 02.04.2021
761 Clouds 17 1029 36 10000 3.09 120 20:20 02.04.2021
762 Clouds 17 1029 45 10000 2.06 80 19:41 02.04.2021
763 Clouds 17 1030 51 10000 2.57 90 19:22 02.04.2021
764 Clouds 16 1031 55 10000 2.57 100 18:46 02.04.2021
765 Clouds 15 1031 58 10000 3.09 110 18:28 02.04.2021
766 Clouds 15 1032 55 10000 1.54 80 17:56 02.04.2021
767 Clouds 14 1032 58 10000 1.03 0 17:25 02.04.2021
768 Clouds 12 1032 66 10000 1.54 110 16:24 02.04.2021
769 Clouds 12 1032 66 10000 1.54 0 15:43 02.04.2021
770 Clouds 12 1032 71 10000 1.03 0 15:20 02.04.2021
771 Clouds 9 1031 87 10000 1.54 110 14:33 02.04.2021
772 Clouds 9 1031 81 10000 2.57 90 13:50 02.04.2021
773 Clouds 9 1030 81 10000 1.03 0 13:28 02.04.2021
774 Clouds 7 1018 91 10000 0.61 21 12:58 02.04.2021
775 Clouds 7 1018 91 10000 0.6 19 12:36 02.04.2021
776 Clouds 7 1017 91 10000 1.11 1 12:18 02.04.2021
777 Clouds 7 1017 91 10000 1.11 1 11:44 02.04.2021
778 Clouds 7 1017 91 10000 0.36 22 11:18 02.04.2021
779 Clouds 7 1017 91 10000 0.36 22 10:42 02.04.2021
780 Clouds 7 1017 90 10000 0.64 335 10:21 02.04.2021
781 Rain 7 1017 90 10000 0.64 335 09:39 02.04.2021
782 Clouds 8 1017 90 10000 0.77 5 09:21 02.04.2021
783 Rain 8 1017 90 10000 0.77 5 08:45 02.04.2021
784 Clouds 8 1017 90 10000 0.93 9 08:25 02.04.2021
785 Clouds 8 1017 90 10000 1.35 360 07:20 02.04.2021
786 Clouds 8 1017 90 10000 1.35 360 06:31 02.04.2021
787 Clouds 13 1027 62 10000 1.54 90 03:25 02.04.2021
788 Clouds 15 1026 55 10000 3.09 350 01:31 02.04.2021
789 Clouds 16 1025 55 10000 0.51 0 00:38 02.04.2021
790 Clouds 16 1025 51 10000 1.54 120 23:44 01.04.2021
791 Clouds 16 1025 55 10000 2.06 150 23:26 01.04.2021
792 Clouds 18 1026 42 10000 3.09 0 22:22 01.04.2021
793 Clouds 17 1026 48 10000 2.57 280 21:59 01.04.2021
794 Clouds 17 1026 48 10000 2.57 280 21:40 01.04.2021
795 Clouds 18 1027 45 10000 2.57 0 21:20 01.04.2021
796 Clouds 18 1027 39 10000 2.06 0 20:39 01.04.2021
797 Clouds 18 1028 45 10000 3.09 300 20:21 01.04.2021
798 Clouds 16 1029 63 10000 1.54 110 19:40 01.04.2021
799 Clouds 17 1030 48 10000 1.03 10 18:59 01.04.2021
800 Clouds 17 1030 48 10000 1.03 10 18:41 01.04.2021
801 Clouds 14 1031 58 10000 1.03 0 18:18 01.04.2021
802 Clouds 12 1032 58 10000 0.97 274 17:39 01.04.2021
803 Clouds 12 1032 58 10000 0.29 326 17:20 01.04.2021
804 Clouds 11 1032 62 10000 0.29 335 16:44 01.04.2021
805 Clouds 10 1032 71 10000 1.03 150 15:57 01.04.2021
806 Clouds 9 1032 76 10000 2.57 100 15:24 01.04.2021
807 Clouds 9 1031 76 10000 1.54 0 14:55 01.04.2021
808 Clouds 8 1031 81 10000 1.54 110 14:37 01.04.2021
809 Clouds 8 1031 81 10000 1.54 110 14:19 01.04.2021
810 Clouds 7 1030 87 10000 2.06 90 13:32 01.04.2021
811 Clouds 8 1017 89 10000 1.17 290 12:58 01.04.2021
812 Clouds 8 1017 89 10000 1.17 290 12:39 01.04.2021
813 Clouds 8 1017 89 10000 1.17 290 12:39 01.04.2021
814 Clouds 8 1016 89 10000 0.95 302 12:20 01.04.2021
815 Rain 8 1016 89 10000 0.95 302 11:43 01.04.2021
816 Clouds 7 1016 90 10000 1.01 353 11:19 01.04.2021
817 Clouds 7 1016 90 10000 1.01 353 10:47 01.04.2021
818 Clouds 7 1016 90 10000 1.01 353 10:47 01.04.2021
819 Rain 7 1016 91 10000 1.34 2 10:27 01.04.2021
820 Rain 7 1016 91 10000 1.34 2 09:32 01.04.2021
821 Clouds 7 1017 91 10000 1.21 353 08:58 01.04.2021
822 Clouds 7 1017 91 10000 1.21 353 08:32 01.04.2021
823 Clouds 8 1017 90 10000 1.73 355 07:22 01.04.2021
824 Clouds 8 1017 90 10000 1.73 355 06:58 01.04.2021
825 Clouds 9 1017 89 10000 1.97 351 06:24 01.04.2021
826 Rain 13 1028 62 10000 2.57 290 03:23 01.04.2021
827 Clouds 16 1026 48 10000 2.57 10 00:28 01.04.2021
828 Clouds 17 1026 45 10000 1.54 50 23:44 31.03.2021
829 Clouds 17 1026 45 10000 1.54 50 23:44 31.03.2021
830 Clouds 17 1026 45 10000 2.57 350 22:56 31.03.2021
831 Clouds 17 1026 45 10000 2.57 350 22:38 31.03.2021
832 Clouds 16 1027 48 10000 3.6 210 22:19 31.03.2021
833 Clouds 17 1027 42 10000 2.06 210 21:43 31.03.2021
834 Clouds 17 1028 48 10000 4.12 260 21:20 31.03.2021
835 Clouds 16 1029 48 10000 3.6 220 20:42 31.03.2021
836 Clouds 18 1030 42 10000 1.54 300 20:22 31.03.2021
837 Clouds 18 1030 42 10000 2.06 280 19:43 31.03.2021
838 Clouds 16 1031 51 10000 2.57 290 19:21 31.03.2021
839 Clouds 16 1031 48 10000 1.54 0 18:58 31.03.2021
840 Clouds 16 1031 48 10000 1.54 0 18:40 31.03.2021
841 Clouds 16 1031 48 10000 1.54 0 18:40 31.03.2021
842 Clouds 14 1033 54 10000 2.06 300 17:51 31.03.2021
843 Clouds 14 1033 51 10000 1.03 0 17:30 31.03.2021
844 Clouds 14 1033 58 10000 1.54 0 16:56 31.03.2021
845 Clouds 14 1033 58 10000 1.54 0 16:37 31.03.2021
846 Clouds 13 1033 62 10000 0.51 0 15:59 31.03.2021
847 Clouds 13 1033 62 10000 0.51 0 15:41 31.03.2021
848 Clouds 11 1033 71 10000 0.51 0 15:19 31.03.2021
849 Clouds 10 1033 71 10000 0.57 215 14:42 31.03.2021
850 Drizzle 9 1032 81 10000 1.03 0 14:19 31.03.2021
851 Drizzle 9 1032 76 10000 1.54 280 13:39 31.03.2021
852 Rain 9 1018 88 10000 0.48 194 12:41 31.03.2021
853 Rain 8 1018 88 10000 0.25 173 12:20 31.03.2021
854 Rain 8 1018 88 10000 0.25 173 11:41 31.03.2021
855 Rain 8 1018 88 10000 0.48 71 11:20 31.03.2021
856 Rain 8 1018 88 10000 0.48 71 10:46 31.03.2021
857 Rain 8 1018 91 10000 0.8 64 10:24 31.03.2021
858 Clouds 8 1018 91 10000 1.09 46 09:37 31.03.2021
859 Rain 8 1018 91 10000 1.1 46 08:54 31.03.2021
860 Clouds 9 1017 86 10000 0.92 42 08:33 31.03.2021
861 Clouds 9 1018 86 10000 1.27 26 07:43 31.03.2021
862 Rain 9 1018 85 10000 1.64 33 06:36 31.03.2021
863 Clouds 11 1017 81 10000 1.86 6 03:46 31.03.2021
864 Clouds 12 1029 66 10000 1.54 290 01:35 31.03.2021
865 Clouds 13 1028 62 10000 3.09 300 00:48 31.03.2021
866 Clouds 13 1028 58 10000 5.14 290 00:18 31.03.2021
867 Clouds 15 1027 55 10000 5.66 110 23:29 30.03.2021
868 Clouds 18 1028 45 10000 5.66 110 22:56 30.03.2021
869 Clouds 18 1028 45 10000 5.66 110 22:38 30.03.2021
870 Clouds 18 1028 42 10000 3.6 270 22:20 30.03.2021
871 Clouds 17 1029 51 10000 5.14 280 21:42 30.03.2021
872 Clouds 16 1030 51 10000 4.12 170 21:19 30.03.2021
873 Clouds 16 1030 51 10000 5.66 110 20:51 30.03.2021
874 Clouds 18 1031 39 10000 2.06 150 20:27 30.03.2021
875 Clouds 18 1032 42 10000 2.57 80 19:50 30.03.2021
876 Clouds 18 1032 42 10000 2.57 80 19:23 30.03.2021
877 Clouds 16 1032 48 10000 2.57 0 18:36 30.03.2021
878 Clouds 14 1033 54 10000 2.57 100 17:52 30.03.2021
879 Clouds 15 1034 51 10000 4.12 110 17:32 30.03.2021
880 Clouds 14 1034 58 10000 2.06 90 16:48 30.03.2021
881 Clouds 14 1034 62 10000 2.06 100 16:28 30.03.2021
882 Clouds 12 1034 62 10000 1.03 300 15:43 30.03.2021
883 Clouds 11 1034 66 10000 1.03 90 15:20 30.03.2021
884 Clouds 13 1034 62 10000 0.55 93 14:48 30.03.2021
885 Clouds 9 1033 81 10000 1.03 90 14:21 30.03.2021
886 Clouds 9 1033 81 10000 1.03 90 14:21 30.03.2021
887 Clouds 9 1033 81 10000 1.54 110 13:54 30.03.2021
888 Clouds 9 1033 81 10000 1.54 110 13:36 30.03.2021
889 Clouds 9 1018 82 10000 0.38 68 12:44 30.03.2021
890 Clouds 9 1018 83 10000 0.58 32 12:26 30.03.2021
891 Clouds 9 1018 83 10000 0.58 32 11:51 30.03.2021
892 Clouds 9 1017 83 10000 0.42 52 11:21 30.03.2021
893 Clouds 9 1017 83 10000 0.42 55 10:43 30.03.2021
894 Clouds 9 1018 83 10000 0.54 90 10:20 30.03.2021
895 Clouds 9 1018 83 10000 0.54 90 09:43 30.03.2021
896 Clouds 9 1018 83 10000 0.67 48 09:24 30.03.2021
897 Clouds 9 1018 83 10000 0.67 48 08:51 30.03.2021
898 Clouds 9 1018 83 10000 0.66 47 08:32 30.03.2021
899 Clouds 9 1019 85 10000 0.98 15 07:50 30.03.2021
900 Clouds 9 1019 87 10000 1.2 23 07:21 30.03.2021
901 Clouds 9 1019 85 10000 1.57 11 05:25 30.03.2021
902 Clouds 9 1019 85 10000 1.57 11 04:45 30.03.2021
903 Clouds 16 1028 48 10000 4.12 60 00:26 30.03.2021
904 Clouds 17 1027 39 10000 5.14 10 23:29 29.03.2021
905 Clouds 19 1027 39 10000 5.66 350 22:44 29.03.2021
906 Clouds 19 1027 37 10000 5.66 360 22:18 29.03.2021
907 Clouds 20 1027 40 10000 3.6 10 21:43 29.03.2021
908 Clouds 20 1028 40 10000 1.03 80 21:22 29.03.2021
909 Clouds 18 1029 39 10000 2.06 120 20:44 29.03.2021
910 Clouds 18 1029 42 10000 3.6 350 20:26 29.03.2021
911 Clouds 17 1030 42 10000 2.06 300 19:46 29.03.2021
912 Clouds 19 1031 37 10000 2.06 310 19:20 29.03.2021
913 Clouds 17 1031 42 10000 1.54 40 18:40 29.03.2021
914 Clouds 16 1032 48 10000 3.09 110 18:21 29.03.2021
915 Clouds 16 1032 48 10000 1.03 130 17:45 29.03.2021
916 Clouds 14 1033 51 10000 2.57 80 16:59 29.03.2021
917 Clouds 14 1033 51 10000 2.57 80 16:36 29.03.2021
918 Clouds 15 1033 51 10000 2.57 110 15:57 29.03.2021
919 Clouds 15 1033 51 10000 2.57 110 15:34 29.03.2021
920 Clouds 10 1033 71 10000 1.09 76 14:55 29.03.2021
921 Clouds 10 1033 71 10000 1.12 77 14:34 29.03.2021
922 Clouds 7 1032 81 10000 1.54 100 13:52 29.03.2021
923 Clouds 7 1032 81 10000 1.54 100 13:26 29.03.2021
924 Clouds 8 1018 91 10000 1.12 67 12:50 29.03.2021
925 Clouds 8 1017 92 10000 1.25 60 12:29 29.03.2021
926 Rain 8 1017 92 10000 1.25 60 11:41 29.03.2021
927 Rain 9 1017 89 10000 1.23 55 11:22 29.03.2021
928 Clouds 9 1017 89 10000 1.23 55 10:38 29.03.2021
929 Clouds 9 1017 88 10000 1.33 52 09:48 29.03.2021
930 Clouds 9 1017 87 10000 1.37 53 08:59 29.03.2021
931 Clouds 9 1017 86 10000 1.26 40 08:28 29.03.2021
932 Clouds 9 1017 86 10000 1.25 38 07:41 29.03.2021
933 Clouds 9 1018 86 10000 1.54 44 06:42 29.03.2021
934 Clouds 10 1017 84 10000 1.93 35 04:22 29.03.2021
935 Clouds 15 1028 44 10000 2.57 110 02:21 29.03.2021
936 Clouds 18 1025 39 10000 4.63 20 00:24 29.03.2021
937 Clouds 19 1025 34 10000 3.6 10 23:51 28.03.2021
938 Clouds 20 1025 32 10000 5.14 20 23:20 28.03.2021
939 Clouds 20 1025 32 10000 2.06 0 22:42 28.03.2021
940 Clouds 20 1026 28 10000 3.6 10 22:21 28.03.2021
941 Clouds 20 1026 30 10000 3.09 10 21:45 28.03.2021
942 Clouds 20 1027 34 10000 3.6 20 21:23 28.03.2021
943 Clouds 20 1028 28 10000 5.14 350 20:50 28.03.2021
944 Clouds 20 1028 28 10000 5.14 350 20:32 28.03.2021
945 Clouds 19 1029 32 10000 2.06 80 19:46 28.03.2021
946 Clouds 20 1030 42 10000 2.57 110 19:23 28.03.2021
947 Clouds 19 1031 37 10000 1.54 170 18:59 28.03.2021
948 Clouds 19 1031 37 10000 1.54 170 18:33 28.03.2021
949 Clouds 17 1032 42 10000 2.57 100 17:56 28.03.2021
950 Clouds 17 1032 42 10000 2.57 100 17:36 28.03.2021
951 Clouds 16 1032 48 10000 1.03 0 16:55 28.03.2021
952 Clouds 14 1033 51 10000 1.03 0 16:24 28.03.2021
953 Clouds 13 1033 54 10000 1.54 0 15:49 28.03.2021
954 Clouds 11 1033 62 10000 0.51 0 15:24 28.03.2021
955 Clouds 11 1033 62 10000 0.5 355 14:40 28.03.2021
956 Clouds 5 1032 87 10000 1.03 100 13:59 28.03.2021
957 Clouds 5 1032 87 10000 1.03 100 13:34 28.03.2021
958 Clouds 9 1019 88 10000 1.38 57 12:55 28.03.2021
959 Clouds 9 1019 88 10000 1.38 57 12:34 28.03.2021
960 Clouds 9 1018 88 10000 1.38 71 11:50 28.03.2021
961 Clouds 9 1018 88 10000 1.38 71 11:32 28.03.2021
962 Clouds 9 1017 87 10000 1.44 73 10:47 28.03.2021
963 Clouds 9 1017 86 10000 1.56 75 10:29 28.03.2021
964 Clouds 9 1017 86 10000 1.56 75 09:50 28.03.2021
965 Clouds 9 1017 85 10000 1.57 63 09:27 28.03.2021
966 Clouds 9 1017 85 10000 1.57 63 08:48 28.03.2021
967 Clouds 9 1017 85 10000 1.57 63 08:30 28.03.2021
968 Clouds 9 1017 83 10000 1.69 66 07:39 28.03.2021
969 Clouds 9 1018 84 10000 1.88 46 05:39 28.03.2021
970 Clouds 14 1028 51 10000 2.57 90 03:28 28.03.2021
971 Clouds 14 1028 54 10000 0.51 0 00:35 28.03.2021
972 Clouds 14 1027 54 10000 4.63 290 23:51 27.03.2021
973 Clouds 15 1026 55 10000 4.12 290 23:33 27.03.2021
974 Rain 15 1026 55 10000 5.14 280 22:40 27.03.2021
975 Rain 16 1026 48 10000 6.69 270 22:21 27.03.2021
976 Rain 17 1026 39 10000 1.03 20 21:42 27.03.2021
977 Rain 18 1026 36 10000 4.63 110 21:21 27.03.2021
978 Clouds 19 1026 37 10000 4.12 120 20:55 27.03.2021
979 Clouds 19 1026 37 10000 4.12 120 20:37 27.03.2021
980 Clouds 20 1028 34 10000 3.6 100 19:47 27.03.2021
981 Clouds 20 1028 37 10000 4.12 0 19:27 27.03.2021
982 Clouds 20 1029 37 10000 2.57 80 18:58 27.03.2021
983 Clouds 20 1029 37 10000 2.57 80 18:39 27.03.2021
984 Clouds 19 1030 32 10000 4.12 100 18:20 27.03.2021
985 Clouds 18 1031 39 10000 2.57 0 17:29 27.03.2021
986 Clouds 17 1032 45 10000 2.06 80 16:57 27.03.2021
987 Clouds 17 1032 45 10000 2.06 80 16:38 27.03.2021
988 Clouds 15 1032 55 10000 2.57 80 16:19 27.03.2021
989 Clouds 15 1032 51 10000 2.57 120 15:38 27.03.2021
990 Clouds 12 1033 58 10000 1.1 53 14:55 27.03.2021
991 Clouds 11 1032 62 10000 1.03 270 14:24 27.03.2021
992 Clouds 11 1032 62 10000 1.54 280 13:37 27.03.2021
993 Clouds 10 1031 71 10000 1.23 115 13:19 27.03.2021
994 Clouds 9 1031 71 10000 1.03 280 12:41 27.03.2021
995 Clouds 9 1018 90 10000 1.06 123 11:49 27.03.2021
996 Clouds 9 1018 90 10000 1.06 123 11:31 27.03.2021
997 Clouds 9 1018 90 10000 0.77 129 10:49 27.03.2021
998 Clouds 9 1017 90 10000 0.86 121 10:30 27.03.2021
999 Clouds 9 1017 90 10000 0.85 121 09:44 27.03.2021
1000 Clouds 8 1017 90 10000 0.79 97 09:18 27.03.2021
1001 Clouds 8 1017 90 10000 0.79 97 08:38 27.03.2021
1002 Clouds 8 1017 91 10000 0.83 38 07:48 27.03.2021
1003 Clouds 8 1018 90 10000 1.02 29 06:59 27.03.2021
1004 Clouds 8 1018 90 10000 1.02 29 06:59 27.03.2021
1005 Clouds 8 1018 90 10000 1.02 29 06:39 27.03.2021
1006 Clouds 9 1018 91 10000 1.52 25 04:42 27.03.2021
1007 Clouds 13 1030 54 10000 3.6 110 02:19 27.03.2021
1008 Clouds 14 1028 54 10000 5.66 110 00:32 27.03.2021
1009 Clouds 15 1028 47 10000 6.69 110 23:59 26.03.2021
1010 Rain 17 1026 45 10000 3.6 30 23:25 26.03.2021
1011 Rain 17 1027 42 10000 2.06 90 22:39 26.03.2021
1012 Clouds 17 1026 45 10000 5.14 20 21:42 26.03.2021
1013 Clouds 18 1026 42 10000 6.17 20 21:23 26.03.2021
1014 Clouds 18 1026 36 10000 5.66 30 20:54 26.03.2021
1015 Clouds 20 1027 34 10000 6.17 10 20:31 26.03.2021
1016 Clouds 19 1028 37 10000 4.63 10 19:51 26.03.2021
1017 Clouds 19 1028 34 10000 2.06 50 19:32 26.03.2021
1018 Clouds 19 1029 34 10000 3.6 80 18:50 26.03.2021
1019 Clouds 20 1030 34 10000 2.57 0 18:30 26.03.2021
1020 Clouds 19 1030 34 10000 3.6 90 17:50 26.03.2021
1021 Clouds 20 1031 37 10000 3.6 0 17:28 26.03.2021
1022 Clouds 18 1032 39 10000 2.06 0 16:36 26.03.2021
1023 Clouds 17 1033 48 10000 0.96 251 15:59 26.03.2021
1024 Clouds 17 1033 48 10000 0.96 251 15:35 26.03.2021
1025 Clouds 15 1033 51 10000 0.51 0 14:44 26.03.2021
1026 Clouds 13 1033 62 10000 1.03 0 13:52 26.03.2021
1027 Clouds 9 1033 87 10000 1.54 110 13:23 26.03.2021
1028 Clouds 9 1032 81 10000 2.06 110 12:40 26.03.2021
1029 Clouds 5 1021 94 10000 0.24 70 11:49 26.03.2021
1030 Clouds 5 1021 94 10000 0.24 70 11:30 26.03.2021
1031 Clouds 5 1021 94 10000 0.17 356 10:44 26.03.2021
1032 Clouds 6 1020 93 10000 0.39 274 10:23 26.03.2021
1033 Clouds 6 1020 93 10000 0.39 274 09:41 26.03.2021
1034 Clouds 6 1020 92 10000 0.62 279 08:49 26.03.2021
1035 Clouds 7 1020 91 10000 0.53 331 08:31 26.03.2021
1036 Clouds 7 1019 92 10000 0.33 186 07:57 26.03.2021
1037 Clouds 7 1020 90 10000 0.2 346 07:22 26.03.2021
1038 Clouds 7 1020 90 10000 0.2 346 06:56 26.03.2021
1039 Clouds 7 1020 90 10000 1 12 05:32 26.03.2021
1040 Clouds 8 1020 90 10000 1.71 24 04:18 26.03.2021
1041 Clouds 13 1029 62 10000 2.06 110 00:52 26.03.2021
1042 Clouds 14 1028 58 10000 3.6 100 23:53 25.03.2021
1043 Clouds 14 1028 58 10000 3.6 100 23:33 25.03.2021
1044 Clouds 15 1028 58 10000 4.12 110 22:41 25.03.2021
1045 Clouds 15 1028 55 10000 4.12 110 22:20 25.03.2021
1046 Clouds 15 1028 55 10000 4.12 110 21:47 25.03.2021
1047 Clouds 18 1028 36 10000 6.17 120 21:29 25.03.2021
1048 Clouds 20 1028 30 10000 4.12 350 20:41 25.03.2021
1049 Clouds 19 1029 37 10000 4.63 20 20:23 25.03.2021
1050 Clouds 21 1029 35 10000 2.06 40 19:40 25.03.2021
1051 Clouds 18 1030 39 10000 2.06 110 19:22 25.03.2021
1052 Clouds 18 1031 39 10000 1.54 160 18:44 25.03.2021
1053 Clouds 18 1031 36 10000 2.57 0 18:26 25.03.2021
1054 Clouds 20 1032 34 10000 1.03 0 17:41 25.03.2021
1055 Clouds 18 1033 39 10000 1.54 0 17:23 25.03.2021
1056 Clouds 18 1033 39 10000 2.57 90 16:38 25.03.2021
1057 Clouds 17 1034 45 10000 1.54 0 16:19 25.03.2021
1058 Clouds 16 1034 44 10000 1.54 0 15:42 25.03.2021
1059 Clouds 15 1034 47 10000 1.54 0 15:19 25.03.2021
1060 Clouds 14 1034 54 10000 1.03 310 14:42 25.03.2021
1061 Clouds 13 1034 62 10000 0.51 0 13:40 25.03.2021
1062 Clouds 10 1033 76 10000 1.54 110 13:22 25.03.2021
1063 Clouds 7 1033 81 10000 0.51 280 12:41 25.03.2021
1064 Clouds 6 1033 81 10000 2.06 290 12:20 25.03.2021
1065 Clouds 6 1021 91 10000 0.54 36 11:48 25.03.2021
1066 Clouds 5 1020 91 10000 0.36 21 11:26 25.03.2021
1067 Clouds 6 1020 91 10000 0.36 19 10:51 25.03.2021
1068 Clouds 6 1020 91 10000 0.55 11 10:24 25.03.2021
1069 Clouds 6 1020 91 10000 0.55 11 09:55 25.03.2021
1070 Clouds 6 1020 91 10000 0.55 11 09:36 25.03.2021
1071 Rain 6 1019 91 10000 0.83 22 08:43 25.03.2021
1072 Rain 6 1019 90 10000 1.07 16 07:58 25.03.2021
1073 Rain 6 1020 91 10000 1.13 39 06:59 25.03.2021
1074 Rain 7 1021 91 10000 1.39 20 06:25 25.03.2021
1075 Clouds 7 1021 91 10000 1.37 19 05:48 25.03.2021
1076 Clouds 15 1029 44 10000 1.03 0 02:48 25.03.2021
1077 Clouds 16 1028 41 10000 3.6 20 00:21 25.03.2021
1078 Clouds 17 1026 39 10000 4.63 20 23:51 24.03.2021
1079 Clouds 17 1026 39 10000 4.63 20 23:28 24.03.2021
1080 Clouds 19 1026 34 10000 5.14 30 22:47 24.03.2021
1081 Clouds 20 1026 32 10000 4.63 10 22:26 24.03.2021
1082 Clouds 20 1027 34 10000 4.63 10 21:42 24.03.2021
1083 Clouds 20 1027 32 10000 4.63 20 21:22 24.03.2021
1084 Clouds 20 1028 32 10000 4.63 10 20:41 24.03.2021
1085 Clouds 20 1029 32 10000 3.09 10 20:20 24.03.2021
1086 Clouds 19 1029 34 10000 4.12 10 19:39 24.03.2021
1087 Clouds 20 1031 37 10000 1.03 0 19:20 24.03.2021
1088 Clouds 18 1031 39 10000 2.57 160 18:43 24.03.2021
1089 Clouds 17 1032 45 10000 0.51 0 18:20 24.03.2021
1090 Clouds 16 1033 48 10000 1.03 0 17:43 24.03.2021
1091 Clouds 15 1034 55 10000 1.54 0 17:25 24.03.2021
1092 Clouds 14 1034 54 10000 2.57 90 16:51 24.03.2021
1093 Clouds 14 1034 58 10000 1.54 0 16:27 24.03.2021
1094 Clouds 14 1034 62 10000 2.57 0 15:49 24.03.2021
1095 Clouds 12 1034 62 10000 0.51 0 15:30 24.03.2021
1096 Clouds 13 1034 58 10000 0.51 80 14:47 24.03.2021
1097 Clouds 10 1034 71 10000 1.93 341 14:25 24.03.2021
1098 Clouds 10 1034 71 10000 1.93 341 14:25 24.03.2021
1099 Clouds 10 1034 71 10000 1.92 341 13:53 24.03.2021
1100 Drizzle 8 1033 81 10000 1.47 345 13:27 24.03.2021
1101 Drizzle 8 1033 81 10000 1.03 30 12:42 24.03.2021
1102 Clouds 7 1022 93 10000 1.7 15 12:22 24.03.2021
1103 Clouds 7 1022 93 10000 1.7 15 11:43 24.03.2021
1104 Clouds 7 1021 93 10000 1.97 10 10:58 24.03.2021
1105 Clouds 7 1021 93 10000 1.97 10 10:38 24.03.2021
1106 Clouds 8 1020 92 10000 1.77 18 10:20 24.03.2021
1107 Clouds 8 1020 92 10000 1.77 18 09:51 24.03.2021
1108 Clouds 8 1019 91 10000 1.2 35 09:20 24.03.2021
1109 Clouds 8 1019 91 10000 1.2 35 08:49 24.03.2021
1110 Clouds 8 1019 90 10000 1.29 28 08:25 24.03.2021
1111 Clouds 8 1019 90 10000 1.29 28 07:37 24.03.2021
1112 Clouds 8 1020 90 10000 1.48 11 06:52 24.03.2021
1113 Clouds 9 1021 90 10000 2.05 28 03:56 24.03.2021
1114 Clouds 10 1030 81 10000 3.6 100 00:48 24.03.2021
1115 Clouds 12 1029 71 10000 3.09 110 23:57 23.03.2021
1116 Clouds 12 1029 76 10000 3.6 100 23:21 23.03.2021
1117 Clouds 12 1029 71 10000 4.63 110 22:52 23.03.2021
1118 Clouds 12 1029 71 10000 4.63 110 22:31 23.03.2021
1119 Clouds 13 1029 71 10000 2.57 100 21:52 23.03.2021
1120 Clouds 13 1029 71 10000 2.57 100 21:33 23.03.2021
1121 Clouds 12 1029 76 10000 5.66 110 20:48 23.03.2021
1122 Clouds 12 1029 76 10000 5.66 110 20:29 23.03.2021
1123 Clouds 15 1030 63 10000 4.12 90 19:57 23.03.2021
1124 Clouds 15 1030 63 10000 4.12 90 19:37 23.03.2021
1125 Clouds 14 1030 67 10000 4.63 130 19:19 23.03.2021
1126 Clouds 15 1031 55 10000 1.54 100 18:38 23.03.2021
1127 Clouds 15 1031 55 10000 1.54 100 18:18 23.03.2021
1128 Clouds 14 1032 54 10000 1.03 0 17:43 23.03.2021
1129 Clouds 14 1032 62 10000 1.54 0 17:21 23.03.2021
1130 Clouds 13 1033 67 10000 2.06 0 16:26 23.03.2021
1131 Clouds 13 1033 67 10000 0.51 80 15:50 23.03.2021
1132 Clouds 12 1033 66 9000 0.99 164 15:23 23.03.2021
1133 Clouds 11 1033 76 9000 0.51 0 14:48 23.03.2021
1134 Drizzle 10 1033 81 8000 0.51 0 14:19 23.03.2021
1135 Drizzle 10 1033 81 8000 0.51 0 14:19 23.03.2021
1136 Drizzle 9 1033 87 8000 1.03 100 13:47 23.03.2021
1137 Clouds 9 1032 87 8000 1.03 90 13:24 23.03.2021
1138 Clouds 9 1032 87 8000 1.03 90 12:45 23.03.2021
1139 Clouds 8 1031 87 8000 1.03 100 12:26 23.03.2021
1140 Clouds 7 1021 95 5187 0.46 9 11:49 23.03.2021
1141 Clouds 7 1020 95 3137 0.96 69 11:21 23.03.2021
1142 Clouds 7 1020 95 3137 0.96 69 10:42 23.03.2021
1143 Clouds 7 1020 95 7709 0.77 115 10:20 23.03.2021
1144 Clouds 7 1020 95 7709 0.77 115 09:51 23.03.2021
1145 Clouds 7 1019 94 6461 0.57 101 09:23 23.03.2021
1146 Clouds 7 1019 94 6461 0.57 101 08:55 23.03.2021
1147 Clouds 7 1019 94 6461 0.57 101 08:37 23.03.2021
1148 Clouds 7 1019 93 10000 0.58 154 08:19 23.03.2021
1149 Clouds 8 1020 94 10000 0.49 232 07:27 23.03.2021
1150 Clouds 7 1020 94 10000 0.53 231 06:53 23.03.2021
1151 Clouds 7 1021 96 1935 0.71 48 03:25 23.03.2021
1152 Clouds 7 1021 96 1935 0.71 48 02:46 23.03.2021
1153 Clouds 10 1030 81 9000 2.06 110 23:47 22.03.2021
1154 Clouds 10 1030 81 9000 3.6 110 23:18 22.03.2021
1155 Drizzle 10 1030 81 9000 3.6 110 22:42 22.03.2021
1156 Clouds 11 1030 71 10000 4.12 110 22:20 22.03.2021
1157 Drizzle 11 1030 71 10000 3.09 100 21:47 22.03.2021
1158 Rain 11 1030 76 10000 3.09 100 21:26 22.03.2021
1159 Drizzle 10 1030 81 10000 3.09 100 20:44 22.03.2021
1160 Drizzle 10 1030 81 10000 2.57 100 20:25 22.03.2021
1161 Drizzle 10 1031 76 10000 1.54 110 19:58 22.03.2021
1162 Rain 10 1031 76 10000 1.54 110 19:38 22.03.2021
1163 Rain 11 1032 76 10000 2.06 140 19:20 22.03.2021
1164 Drizzle 11 1032 76 10000 1.54 0 18:41 22.03.2021
1165 Clouds 12 1032 66 9000 1.03 240 18:22 22.03.2021
1166 Drizzle 13 1032 58 10000 3.6 210 17:49 22.03.2021
1167 Clouds 16 1032 44 10000 2.06 270 17:22 22.03.2021
1168 Clouds 17 1032 48 10000 3.09 110 16:55 22.03.2021
1169 Clouds 17 1032 48 10000 3.09 110 16:36 22.03.2021
1170 Clouds 16 1033 55 10000 1.54 0 15:42 22.03.2021
1171 Clouds 15 1033 55 10000 1.03 0 15:23 22.03.2021
1172 Clouds 14 1033 62 10000 1.03 90 14:57 22.03.2021
1173 Clouds 14 1033 62 10000 1.03 90 14:34 22.03.2021
1174 Clouds 10 1032 76 10000 1.03 90 13:50 22.03.2021
1175 Clouds 10 1032 76 10000 1.03 90 13:29 22.03.2021
1176 Clouds 9 1032 81 10000 1.54 120 12:58 22.03.2021
1177 Clouds 9 1032 81 10000 1.54 120 12:26 22.03.2021
1178 Clouds 9 1020 86 10000 0.5 12 11:57 22.03.2021
1179 Clouds 9 1019 86 10000 0.52 13 11:39 22.03.2021
1180 Clouds 8 1019 86 10000 0.84 26 11:19 22.03.2021
1181 Clouds 8 1019 86 10000 0.84 26 10:41 22.03.2021
1182 Rain 8 1018 87 10000 0.95 16 10:18 22.03.2021
1183 Rain 8 1018 87 10000 0.95 16 09:36 22.03.2021
1184 Rain 8 1019 88 10000 0.47 307 08:57 22.03.2021
1185 Rain 8 1019 88 10000 0.47 307 08:57 22.03.2021
1186 Rain 8 1019 88 10000 0.47 307 08:39 22.03.2021
1187 Clouds 7 1019 87 10000 0.3 316 08:20 22.03.2021
1188 Rain 7 1019 87 10000 0.3 316 07:42 22.03.2021
1189 Rain 8 1019 86 10000 1.16 1 06:52 22.03.2021
1190 Clouds 9 1020 85 10000 1.3 14 05:18 22.03.2021
1191 Clouds 14 1029 54 10000 1.54 150 00:55 22.03.2021
1192 Clouds 14 1029 51 10000 1.54 100 00:20 22.03.2021
1193 Clouds 15 1029 47 10000 3.09 80 23:48 21.03.2021
1194 Clouds 15 1028 47 10000 3.6 80 23:19 21.03.2021
1195 Clouds 16 1028 41 10000 4.63 50 22:54 21.03.2021
1196 Clouds 17 1028 42 10000 5.66 80 21:45 21.03.2021
1197 Clouds 18 1028 39 10000 4.63 30 21:27 21.03.2021
1198 Clouds 18 1028 36 10000 4.63 20 20:57 21.03.2021
1199 Clouds 18 1028 36 10000 4.63 20 20:39 21.03.2021
1200 Clouds 19 1029 39 10000 5.14 30 20:21 21.03.2021
1201 Clouds 19 1029 39 10000 6.17 10 19:48 21.03.2021
1202 Clouds 18 1030 36 10000 0.51 0 19:20 21.03.2021
1203 Clouds 18 1030 39 10000 3.09 320 18:45 21.03.2021
1204 Clouds 19 1031 42 10000 0.51 0 18:26 21.03.2021
1205 Clouds 17 1032 48 10000 1.54 0 17:44 21.03.2021
1206 Clouds 16 1032 48 10000 1.03 0 17:19 21.03.2021
1207 Clouds 15 1033 51 10000 1.03 0 16:51 21.03.2021
1208 Clouds 14 1033 54 10000 1.54 60 16:27 21.03.2021
1209 Clouds 14 1033 58 10000 1.54 80 15:49 21.03.2021
1210 Clouds 13 1033 67 10000 1.54 90 15:22 21.03.2021
1211 Clouds 12 1033 71 10000 0.51 0 14:58 21.03.2021
1212 Clouds 12 1033 71 10000 0.51 0 14:39 21.03.2021
1213 Clouds 11 1032 76 10000 1.03 0 14:20 21.03.2021
1214 Clouds 12 1032 76 10000 1.03 0 13:51 21.03.2021
1215 Clouds 9 1031 81 10000 2.06 280 12:46 21.03.2021
1216 Clouds 9 1031 81 10000 1.03 0 12:26 21.03.2021
1217 Clouds 7 1019 89 10000 0.83 124 11:47 21.03.2021
1218 Clouds 7 1018 88 10000 0.64 80 11:27 21.03.2021
1219 Clouds 7 1018 88 10000 0.64 80 10:53 21.03.2021
1220 Clouds 7 1018 88 10000 0.64 80 10:32 21.03.2021
1221 Clouds 7 1017 88 10000 1.02 22 09:56 21.03.2021
1222 Clouds 7 1017 88 10000 1.02 22 09:37 21.03.2021
1223 Clouds 8 1017 88 10000 1.19 31 09:19 21.03.2021
1224 Clouds 8 1017 88 10000 1.19 31 08:38 21.03.2021
1225 Clouds 9 1018 86 10000 1.3 54 08:19 21.03.2021
1226 Clouds 9 1018 86 10000 1.3 54 07:30 21.03.2021
1227 Rain 9 1018 86 10000 1.49 67 06:30 21.03.2021
1228 Clouds 9 1018 87 10000 1.69 51 04:58 21.03.2021
1229 Clouds 10 1028 81 10000 2.57 110 00:59 21.03.2021
1230 Clouds 10 1028 81 10000 2.57 110 00:39 21.03.2021
1231 Clouds 11 1027 76 10000 3.09 110 00:20 21.03.2021
1232 Clouds 12 1027 76 10000 2.06 100 23:46 20.03.2021
1233 Clouds 11 1027 76 10000 2.06 110 23:20 20.03.2021
1234 Clouds 11 1027 82 10000 2.57 100 22:47 20.03.2021
1235 Clouds 11 1027 82 10000 5.14 110 22:18 20.03.2021
1236 Clouds 12 1027 76 10000 6.17 110 21:44 20.03.2021
1237 Clouds 12 1027 76 10000 6.17 110 21:24 20.03.2021
1238 Clouds 12 1027 76 9000 8.23 120 20:42 20.03.2021
1239 Clouds 17 1027 42 10000 1.54 90 20:22 20.03.2021
1240 Clouds 18 1027 39 10000 0.51 0 19:47 20.03.2021
1241 Clouds 16 1028 51 10000 3.6 110 19:26 20.03.2021
1242 Clouds 17 1028 45 10000 2.57 120 18:48 20.03.2021
1243 Clouds 18 1028 52 10000 1.54 0 18:25 20.03.2021
1244 Clouds 16 1029 48 10000 1.03 280 17:53 20.03.2021
1245 Clouds 15 1029 47 10000 1.54 120 17:29 20.03.2021
1246 Clouds 15 1029 51 10000 1.03 210 16:45 20.03.2021
1247 Clouds 15 1030 51 10000 0.51 170 16:21 20.03.2021
1248 Clouds 16 1030 51 10000 1.98 179 15:59 20.03.2021
1249 Clouds 13 1030 62 10000 1.03 280 15:39 20.03.2021
1250 Clouds 12 1030 71 10000 1.87 173 14:46 20.03.2021
1251 Clouds 11 1030 76 10000 1.03 110 14:28 20.03.2021
1252 Clouds 10 1030 81 10000 1.36 152 13:40 20.03.2021
1253 Clouds 9 1029 87 10000 1.03 90 12:52 20.03.2021
1254 Clouds 9 1028 87 10000 2.06 90 12:26 20.03.2021
1255 Clouds 8 1017 88 10000 1.06 287 11:47 20.03.2021
1256 Clouds 8 1016 89 10000 1.47 298 11:29 20.03.2021
1257 Clouds 8 1016 89 10000 1.47 298 10:56 20.03.2021
1258 Clouds 8 1016 89 10000 1.47 298 10:37 20.03.2021
1259 Clouds 7 1016 89 10000 1.63 300 10:18 20.03.2021
1260 Clouds 8 1016 88 9116 1.64 295 09:27 20.03.2021
1261 Clouds 8 1016 88 9116 1.64 295 08:58 20.03.2021
1262 Clouds 8 1016 88 9116 1.64 295 08:37 20.03.2021
1263 Clouds 8 1016 87 10000 1.61 274 07:53 20.03.2021
1264 Clouds 8 1016 87 10000 1.61 274 07:32 20.03.2021
1265 Clouds 8 1017 90 6054 1.14 106 06:54 20.03.2021
1266 Clouds 8 1017 90 6930 2.51 126 06:19 20.03.2021
1267 Clouds 10 1017 86 10000 1.38 149 04:00 20.03.2021
1268 Clouds 10 1017 87 10000 1.45 147 03:41 20.03.2021
1269 Clouds 11 1027 66 10000 5.66 120 00:35 20.03.2021
1270 Clouds 14 1025 62 10000 3.6 120 23:31 19.03.2021
1271 Clouds 14 1025 62 10000 6.17 110 22:50 19.03.2021
1272 Clouds 16 1024 48 10000 5.66 300 22:29 19.03.2021
1273 Clouds 15 1024 55 10000 5.66 330 21:58 19.03.2021
1274 Clouds 18 1024 42 10000 4.12 320 21:23 19.03.2021
1275 Clouds 18 1024 42 10000 5.66 340 20:59 19.03.2021
1276 Clouds 18 1024 42 10000 5.66 340 20:40 19.03.2021
1277 Clouds 19 1025 45 10000 2.57 330 20:22 19.03.2021
1278 Clouds 17 1026 42 10000 4.63 310 19:46 19.03.2021
1279 Clouds 18 1027 42 10000 1.46 308 19:20 19.03.2021
1280 Clouds 17 1027 51 10000 5.14 300 18:41 19.03.2021
1281 Clouds 17 1028 45 10000 1.3 265 18:20 19.03.2021
1282 Clouds 17 1029 48 10000 0.51 0 17:55 19.03.2021
1283 Clouds 17 1029 45 10000 0.51 10 17:31 19.03.2021
1284 Clouds 15 1030 51 10000 0.51 0 16:55 19.03.2021
1285 Clouds 13 1030 62 10000 0.51 270 16:31 19.03.2021
1286 Clouds 13 1030 62 10000 0.51 270 16:31 19.03.2021
1287 Rain 12 1031 66 10000 0.51 0 15:56 19.03.2021
1288 Clouds 11 1031 71 10000 0.51 0 15:27 19.03.2021
1289 Clouds 11 1031 71 10000 0.87 193 14:47 19.03.2021
1290 Clouds 10 1030 76 10000 1.03 320 14:28 19.03.2021
1291 Clouds 9 1030 81 10000 1.03 90 13:42 19.03.2021
1292 Rain 8 1029 87 10000 0.66 96 12:57 19.03.2021
1293 Rain 8 1029 87 10000 1.25 111 12:37 19.03.2021
1294 Clouds 7 1017 88 10000 1.77 99 11:48 19.03.2021
1295 Rain 7 1017 88 10000 1.96 117 10:54 19.03.2021
1296 Clouds 7 1017 88 10000 1.96 117 10:32 19.03.2021
1297 Clouds 7 1016 91 6338 2.02 122 09:58 19.03.2021
1298 Clouds 7 1016 91 6338 2.02 122 09:39 19.03.2021
1299 Clouds 7 1016 92 2288 2.32 144 09:19 19.03.2021
1300 Rain 7 1016 92 2288 2.32 144 08:40 19.03.2021
1301 Rain 8 1017 92 1816 2.61 158 08:21 19.03.2021
1302 Clouds 8 1017 92 1816 2.61 158 07:39 19.03.2021
1303 Clouds 10 1017 78 10000 1.36 226 06:52 19.03.2021
1304 Clouds 10 1017 83 10000 1.22 327 03:34 19.03.2021
1305 Clouds 15 1028 55 10000 1.54 100 00:58 19.03.2021
1306 Rain 15 1026 55 10000 1.54 120 23:48 18.03.2021
1307 Rain 15 1026 55 10000 1.54 120 23:25 18.03.2021
1308 Rain 15 1026 55 10000 1.54 120 22:39 18.03.2021
1309 Drizzle 16 1027 48 10000 1.03 130 22:20 18.03.2021
1310 Rain 16 1026 48 10000 0.51 0 21:39 18.03.2021
1311 Drizzle 15 1027 51 10000 1.54 330 20:54 18.03.2021
1312 Drizzle 15 1027 51 10000 1.54 330 20:35 18.03.2021
1313 Clouds 15 1029 55 10000 4.12 110 19:58 18.03.2021
1314 Clouds 15 1029 55 10000 4.12 110 19:40 18.03.2021
1315 Rain 16 1029 59 10000 4.63 110 19:19 18.03.2021
1316 Clouds 16 1029 59 10000 3.6 100 18:34 18.03.2021
1317 Rain 15 1031 55 10000 4.63 110 17:51 18.03.2021
1318 Rain 14 1031 62 10000 6.17 110 17:26 18.03.2021
1319 Rain 14 1031 62 10000 4.12 120 16:49 18.03.2021
1320 Clouds 13 1032 67 10000 3.09 80 16:30 18.03.2021
1321 Clouds 13 1032 71 10000 2.06 80 15:49 18.03.2021
1322 Clouds 12 1032 71 9000 2.57 90 15:29 18.03.2021
1323 Clouds 11 1032 82 9000 1.03 0 14:58 18.03.2021
1324 Clouds 11 1032 82 9000 1.03 0 14:40 18.03.2021
1325 Clouds 10 1031 81 8000 1.54 100 13:54 18.03.2021
1326 Clouds 9 1031 87 7000 1.03 110 13:27 18.03.2021
1327 Clouds 9 1031 87 6000 0.51 0 12:45 18.03.2021
1328 Clouds 9 1030 87 6000 2.06 90 12:27 18.03.2021
1329 Clouds 6 1018 86 10000 0.1 304 11:55 18.03.2021
1330 Clouds 6 1018 86 10000 0.1 304 11:34 18.03.2021
1331 Clouds 7 1017 86 10000 0.59 5 10:49 18.03.2021
1332 Clouds 7 1017 86 10000 0.59 5 10:49 18.03.2021
1333 Clouds 6 1016 86 10000 0.78 8 10:28 18.03.2021
1334 Clouds 6 1016 86 10000 0.78 8 09:58 18.03.2021
1335 Clouds 6 1016 86 10000 0.78 8 09:30 18.03.2021
1336 Clouds 7 1016 86 10000 0.99 20 08:57 18.03.2021
1337 Clouds 7 1016 86 10000 0.99 20 08:33 18.03.2021
1338 Clouds 7 1017 84 10000 0.93 20 07:57 18.03.2021
1339 Clouds 7 1017 84 10000 0.93 20 07:39 18.03.2021
1340 Clouds 8 1018 87 10000 1.13 35 06:40 18.03.2021
1341 Clouds 8 1018 85 10000 1.3 19 06:21 18.03.2021
1342 Clouds 9 1017 83 10000 1.46 9 04:42 18.03.2021
1343 Clouds 12 1028 71 10000 1.54 90 00:39 18.03.2021
1344 Clouds 15 1027 55 10000 0.51 0 23:18 17.03.2021
1345 Clouds 15 1027 58 10000 1.54 0 22:38 17.03.2021
1346 Drizzle 13 1027 67 10000 0.51 0 22:19 17.03.2021
1347 Clouds 13 1028 67 10000 1.03 0 21:48 17.03.2021
1348 Clouds 15 1028 55 10000 2.06 270 21:30 17.03.2021
1349 Clouds 15 1028 55 10000 1.03 0 20:45 17.03.2021
1350 Clouds 12 1029 71 10000 2.06 30 20:26 17.03.2021
1351 Drizzle 11 1029 76 9000 1.03 0 19:57 17.03.2021
1352 Clouds 11 1030 76 6000 4.12 0 19:26 17.03.2021
1353 Clouds 15 1030 55 10000 2.59 314 18:59 17.03.2021
1354 Clouds 15 1030 55 10000 2.59 314 18:41 17.03.2021
1355 Clouds 15 1031 51 10000 1.03 0 17:59 17.03.2021
1356 Clouds 16 1031 59 10000 1.54 340 17:32 17.03.2021
1357 Clouds 14 1032 62 10000 1.03 270 16:57 17.03.2021
1358 Clouds 14 1032 62 10000 1.03 270 16:38 17.03.2021
1359 Drizzle 13 1032 67 10000 0.56 237 16:19 17.03.2021
1360 Clouds 12 1032 71 10000 0.56 237 15:40 17.03.2021
1361 Rain 12 1032 66 10000 0.87 165 14:46 17.03.2021
1362 Rain 11 1032 71 10000 0.97 147 14:28 17.03.2021
1363 Rain 11 1032 71 10000 0.97 147 13:58 17.03.2021
1364 Clouds 11 1032 71 10000 0.97 147 13:40 17.03.2021
1365 Clouds 11 1031 71 10000 0.82 202 13:18 17.03.2021
1366 Clouds 11 1031 71 10000 0.82 202 12:36 17.03.2021
1367 Clouds 11 1030 71 10000 1.03 0 12:18 17.03.2021
1368 Clouds 8 1017 89 10000 1.05 189 11:37 17.03.2021
1369 Clouds 8 1017 89 10000 0.33 262 11:18 17.03.2021
1370 Clouds 8 1017 89 10000 0.33 262 10:40 17.03.2021
1371 Rain 9 1017 89 10000 0.62 223 09:59 17.03.2021
1372 Clouds 9 1017 89 10000 0.62 223 09:41 17.03.2021
1373 Clouds 8 1016 89 10000 0.97 184 09:20 17.03.2021
1374 Clouds 8 1016 89 10000 0.97 184 08:44 17.03.2021
1375 Clouds 8 1017 87 10000 0.82 183 08:25 17.03.2021
1376 Clouds 8 1017 88 10000 0.85 183 07:37 17.03.2021
1377 Clouds 9 1017 86 10000 0.17 188 06:48 17.03.2021
1378 Clouds 9 1018 86 10000 0.72 57 05:28 17.03.2021
1379 Clouds 10 1018 85 10000 1.04 41 03:31 17.03.2021
1380 Clouds 14 1028 58 10000 5.14 20 01:19 17.03.2021
1381 Clouds 15 1027 55 10000 3.6 10 00:33 17.03.2021
1382 Rain 15 1026 55 10000 1.54 360 23:25 16.03.2021
1383 Clouds 15 1026 55 10000 2.06 30 22:44 16.03.2021
1384 Clouds 16 1026 51 10000 2.57 140 22:26 16.03.2021
1385 Clouds 15 1026 55 10000 4.12 120 21:44 16.03.2021
1386 Clouds 15 1027 58 10000 5.66 100 21:25 16.03.2021
1387 Clouds 15 1027 63 10000 5.14 100 20:56 16.03.2021
1388 Clouds 17 1027 42 10000 2.57 0 20:19 16.03.2021
1389 Clouds 17 1028 45 10000 3.09 360 19:48 16.03.2021
1390 Clouds 20 1028 45 10000 1.54 280 19:27 16.03.2021
1391 Clouds 19 1029 42 10000 2.06 280 18:53 16.03.2021
1392 Clouds 19 1029 42 10000 2.06 280 18:35 16.03.2021
1393 Clouds 17 1030 42 10000 1.03 0 17:52 16.03.2021
1394 Clouds 16 1031 51 10000 3.09 80 17:33 16.03.2021
1395 Clouds 17 1031 42 10000 1.03 0 16:54 16.03.2021
1396 Clouds 16 1032 48 10000 1.03 0 16:31 16.03.2021
1397 Clouds 16 1032 51 10000 1.24 174 15:59 16.03.2021
1398 Clouds 16 1032 51 10000 1.24 174 15:39 16.03.2021
1399 Clouds 14 1032 62 10000 1.03 300 15:19 16.03.2021
1400 Clouds 13 1032 62 10000 0.51 0 14:45 16.03.2021
1401 Clouds 12 1032 62 10000 1.03 0 14:23 16.03.2021
1402 Clouds 11 1032 71 10000 0.51 0 13:58 16.03.2021
1403 Clouds 10 1032 81 10000 0.51 0 13:29 16.03.2021
1404 Clouds 9 1031 87 10000 1.03 0 12:56 16.03.2021
1405 Clouds 9 1031 87 10000 1.03 0 12:38 16.03.2021
1406 Clouds 9 1031 81 10000 1.54 100 12:18 16.03.2021
1407 Clouds 9 1031 81 10000 1.54 100 12:18 16.03.2021
1408 Clouds 9 1019 91 10000 1.69 177 11:35 16.03.2021
1409 Clouds 9 1018 90 10000 1.29 186 10:50 16.03.2021
1410 Clouds 9 1018 90 10000 1.29 186 10:50 16.03.2021
1411 Clouds 9 1018 88 9595 0.75 205 10:21 16.03.2021
1412 Clouds 9 1018 88 9716 0.79 203 09:40 16.03.2021
1413 Clouds 9 1018 86 10000 0.29 228 09:21 16.03.2021
1414 Clouds 9 1018 86 10000 0.29 228 08:56 16.03.2021
1415 Clouds 9 1018 86 10000 0.29 228 08:37 16.03.2021
1416 Clouds 9 1018 86 10000 0.09 303 07:55 16.03.2021
1417 Clouds 9 1019 86 10000 0.21 333 07:27 16.03.2021
1418 Clouds 9 1019 85 10000 0.9 10 06:38 16.03.2021
1419 Clouds 9 1020 86 10000 1.07 4 05:37 16.03.2021
1420 Clouds 9 1020 86 10000 1.03 344 04:26 16.03.2021
1421 Clouds 12 1029 76 10000 2.06 210 02:26 16.03.2021
1422 Clouds 14 1028 58 10000 1.54 130 00:39 16.03.2021
1423 Clouds 14 1027 54 10000 4.63 110 23:54 15.03.2021
1424 Clouds 15 1026 55 10000 5.66 110 23:19 15.03.2021
1425 Clouds 17 1026 45 10000 3.09 100 22:43 15.03.2021
1426 Clouds 18 1026 45 10000 2.57 10 22:24 15.03.2021
1427 Clouds 18 1027 39 10000 1.54 0 21:49 15.03.2021
1428 Clouds 18 1027 39 10000 1.54 0 21:28 15.03.2021
1429 Clouds 17 1029 42 10000 1.54 0 20:54 15.03.2021
1430 Clouds 17 1029 42 10000 1.54 0 20:36 15.03.2021
1431 Clouds 17 1029 42 10000 2.06 360 20:18 15.03.2021
1432 Clouds 17 1029 45 10000 3.6 300 19:43 15.03.2021
1433 Clouds 17 1029 48 10000 2.57 330 19:22 15.03.2021
1434 Clouds 16 1030 41 10000 1.54 140 18:47 15.03.2021
1435 Clouds 16 1031 44 10000 3.09 100 18:23 15.03.2021
1436 Clouds 16 1031 44 10000 3.09 100 17:55 15.03.2021
1437 Clouds 17 1031 42 10000 2.06 100 17:28 15.03.2021
1438 Clouds 17 1031 42 10000 1.54 120 16:50 15.03.2021
1439 Clouds 16 1032 51 10000 1.54 0 16:20 15.03.2021
1440 Clouds 15 1032 41 10000 2.06 10 15:39 15.03.2021
1441 Clouds 14 1033 51 10000 0.79 16 15:20 15.03.2021
1442 Clouds 13 1033 58 10000 0.79 16 14:41 15.03.2021
1443 Clouds 11 1032 66 10000 1 32 14:21 15.03.2021
1444 Clouds 10 1032 71 10000 1 32 13:46 15.03.2021
1445 Clouds 9 1032 76 10000 1.03 120 13:24 15.03.2021
1446 Rain 18 1031 42 10000 1.54 100 12:47 15.03.2021
1447 Rain 8 1031 81 10000 1.54 80 12:18 15.03.2021
1448 Rain 6 1019 89 10000 0.62 39 11:47 15.03.2021
1449 Rain 6 1019 88 10000 0.76 44 11:29 15.03.2021
1450 Rain 6 1019 88 10000 0.76 44 10:45 15.03.2021
1451 Rain 7 1018 87 10000 0.82 34 10:26 15.03.2021
1452 Rain 7 1018 87 10000 0.82 34 09:49 15.03.2021
1453 Rain 7 1018 87 10000 0.82 34 09:30 15.03.2021
1454 Rain 7 1018 87 10000 1.08 21 08:48 15.03.2021
1455 Rain 7 1019 87 10000 1.24 27 08:27 15.03.2021
1456 Rain 7 1019 87 10000 1.24 27 07:49 15.03.2021
1457 Clouds 7 1019 87 10000 1.24 27 07:30 15.03.2021
1458 Clouds 7 1019 87 10000 1.2 34 06:36 15.03.2021
1459 Clouds 7 1020 85 10000 1.94 27 05:24 15.03.2021
1460 Clouds 14 1029 51 10000 3.09 70 01:25 15.03.2021
1461 Clouds 15 1026 44 10000 3.6 10 23:52 14.03.2021
1462 Clouds 16 1026 41 10000 5.14 360 23:19 14.03.2021
1463 Clouds 16 1026 44 10000 3.09 30 22:42 14.03.2021
1464 Clouds 17 1026 36 10000 3.09 360 22:19 14.03.2021
1465 Clouds 17 1026 39 10000 5.14 360 21:44 14.03.2021
1466 Clouds 18 1027 34 10000 4.63 20 21:18 14.03.2021
1467 Clouds 19 1027 37 10000 4.63 320 20:43 14.03.2021
1468 Clouds 18 1028 39 10000 2.57 350 20:24 14.03.2021
1469 Clouds 18 1028 42 10000 4.63 360 19:42 14.03.2021
1470 Clouds 17 1029 42 10000 3.6 90 19:22 14.03.2021
1471 Clouds 17 1030 39 10000 1.54 0 18:46 14.03.2021
1472 Clouds 17 1031 45 10000 1.54 0 18:18 14.03.2021
1473 Clouds 16 1031 48 10000 1.54 0 17:39 14.03.2021
1474 Clouds 16 1031 51 10000 1.03 100 17:20 14.03.2021
1475 Clouds 16 1032 48 10000 1.54 0 16:46 14.03.2021
1476 Clouds 14 1032 51 10000 1.03 0 16:23 14.03.2021
1477 Clouds 13 1032 58 10000 3.09 120 15:52 14.03.2021
1478 Clouds 13 1032 58 10000 1.03 52 15:30 14.03.2021
1479 Clouds 12 1032 71 10000 1.54 0 14:41 14.03.2021
1480 Clouds 12 1032 71 10000 1.03 0 14:20 14.03.2021
1481 Clouds 11 1032 76 10000 2.06 110 13:49 14.03.2021
1482 Clouds 10 1031 81 10000 1.03 110 13:28 14.03.2021
1483 Clouds 10 1031 81 10000 1.03 110 12:45 14.03.2021
1484 Clouds 6 1020 88 10000 1.26 63 12:27 14.03.2021
1485 Clouds 6 1020 88 10000 1.26 63 11:44 14.03.2021
1486 Clouds 6 1019 88 10000 1.45 67 11:26 14.03.2021
1487 Clouds 6 1019 88 10000 1.45 67 10:39 14.03.2021
1488 Clouds 6 1019 88 10000 1.31 59 10:20 14.03.2021
1489 Clouds 6 1019 88 10000 1.3 58 09:59 14.03.2021
1490 Clouds 6 1019 88 10000 1.31 59 09:41 14.03.2021
1491 Clouds 6 1018 87 10000 1.39 42 09:21 14.03.2021
1492 Clouds 6 1018 87 10000 1.39 42 08:40 14.03.2021
1493 Clouds 6 1018 87 10000 1.39 42 08:40 14.03.2021
1494 Clouds 6 1019 87 10000 1.54 32 08:18 14.03.2021
1495 Clouds 6 1019 87 10000 1.56 32 07:34 14.03.2021
1496 Clouds 7 1020 84 10000 1.75 45 06:27 14.03.2021
1497 Clouds 11 1029 76 10000 1.54 300 01:35 14.03.2021
1498 Clouds 11 1028 71 10000 2.57 290 00:49 14.03.2021
1499 Clouds 13 1028 58 10000 3.09 300 00:18 14.03.2021
1500 Clouds 13 1027 67 10000 2.57 290 23:42 13.03.2021
1501 Clouds 14 1027 58 10000 2.57 280 23:22 13.03.2021
1502 Clouds 15 1027 47 10000 1.54 340 22:49 13.03.2021
1503 Clouds 13 1027 67 10000 0.51 0 22:25 13.03.2021
1504 Clouds 12 1028 66 10000 3.09 80 21:40 13.03.2021
1505 Clouds 12 1028 66 10000 3.09 80 21:40 13.03.2021
1506 Clouds 13 1028 67 8000 4.63 110 21:19 13.03.2021
1507 Clouds 16 1028 55 10000 4.63 100 20:48 13.03.2021
1508 Clouds 15 1029 51 10000 1.54 180 20:28 13.03.2021
1509 Clouds 17 1030 45 10000 0.51 10 19:45 13.03.2021
1510 Clouds 17 1030 45 10000 0.51 10 19:27 13.03.2021
1511 Clouds 16 1031 48 10000 1.03 0 18:43 13.03.2021
1512 Clouds 14 1032 62 10000 2.06 0 18:21 13.03.2021
1513 Clouds 14 1033 54 10000 1.03 0 17:52 13.03.2021
1514 Clouds 14 1033 54 10000 1.03 0 17:34 13.03.2021
1515 Clouds 11 1034 71 9000 2.57 110 16:57 13.03.2021
1516 Clouds 11 1034 71 9000 2.57 110 16:39 13.03.2021
1517 Clouds 11 1034 62 9000 0.51 0 15:58 13.03.2021
1518 Clouds 10 1034 71 9000 0.51 0 15:22 13.03.2021
1519 Drizzle 9 1034 81 9000 0.51 0 14:43 13.03.2021
1520 Clouds 8 1034 81 8000 0.51 0 14:24 13.03.2021
1521 Drizzle 8 1033 81 9000 1.03 90 13:30 13.03.2021
1522 Drizzle 8 1033 81 9000 0.94 51 12:56 13.03.2021
1523 Drizzle 8 1033 81 9000 0.94 51 12:38 13.03.2021
1524 Clouds 7 1020 85 10000 0.59 52 11:58 13.03.2021
1525 Clouds 7 1020 84 10000 0.58 51 11:39 13.03.2021
1526 Clouds 7 1020 85 10000 0.36 16 11:21 13.03.2021
1527 Clouds 7 1020 85 10000 0.36 16 10:46 13.03.2021
1528 Clouds 7 1019 86 10000 0.48 4 10:24 13.03.2021
1529 Clouds 7 1019 86 10000 0.48 4 09:34 13.03.2021
1530 Clouds 7 1019 86 10000 0.54 357 08:55 13.03.2021
1531 Clouds 7 1019 86 10000 0.54 357 08:36 13.03.2021
1532 Clouds 6 1019 86 10000 0.66 2 08:18 13.03.2021
1533 Clouds 6 1019 86 10000 0.66 2 07:39 13.03.2021
1534 Clouds 8 1020 85 10000 1.21 350 05:31 13.03.2021
1535 Clouds 9 1019 80 10000 1.68 25 02:42 13.03.2021
1536 Clouds 14 1028 54 10000 3.6 10 00:37 13.03.2021
1537 Clouds 16 1027 44 10000 5.14 290 23:49 12.03.2021
1538 Clouds 15 1026 51 10000 8.23 290 23:30 12.03.2021
1539 Clouds 15 1026 47 10000 9.77 300 22:42 12.03.2021
1540 Clouds 19 1026 34 10000 6.17 290 22:22 12.03.2021
1541 Clouds 19 1026 37 10000 5.66 290 21:42 12.03.2021
1542 Clouds 19 1027 39 10000 6.69 280 21:21 12.03.2021
1543 Clouds 18 1027 42 10000 7.2 280 20:55 12.03.2021
1544 Clouds 18 1028 32 10000 0.51 180 20:31 12.03.2021
1545 Clouds 18 1029 34 10000 2.06 220 19:54 12.03.2021
1546 Clouds 18 1029 34 10000 2.06 220 19:34 12.03.2021
1547 Clouds 17 1030 42 10000 1.03 80 18:54 12.03.2021
1548 Clouds 17 1030 42 10000 1.03 80 18:33 12.03.2021
1549 Clouds 16 1031 44 10000 2.57 150 17:47 12.03.2021
1550 Clouds 15 1032 47 10000 1.54 110 17:29 12.03.2021
1551 Clouds 15 1032 47 10000 1.03 0 16:54 12.03.2021
1552 Clouds 15 1032 47 10000 1.03 0 16:33 12.03.2021
1553 Clouds 14 1033 51 10000 0.32 111 15:50 12.03.2021
1554 Clouds 14 1033 51 10000 1.03 0 15:21 12.03.2021
1555 Clouds 13 1033 62 10000 2.57 100 14:46 12.03.2021
1556 Clouds 12 1033 62 10000 1.54 90 14:19 12.03.2021
1557 Clouds 12 1033 58 10000 0.97 122 13:41 12.03.2021
1558 Clouds 12 1032 62 10000 0.82 126 13:20 12.03.2021
1559 Clouds 10 1032 71 10000 0.82 126 12:52 12.03.2021
1560 Clouds 8 1032 81 10000 0.33 101 12:30 12.03.2021
1561 Clouds 5 1021 84 10000 0.32 103 11:58 12.03.2021
1562 Clouds 5 1021 84 10000 0.32 103 11:40 12.03.2021
1563 Clouds 5 1020 84 10000 0.31 26 11:18 12.03.2021
1564 Clouds 5 1020 84 10000 0.31 26 10:44 12.03.2021
1565 Clouds 5 1019 83 10000 0.67 9 10:22 12.03.2021
1566 Clouds 5 1019 83 10000 0.67 9 09:37 12.03.2021
1567 Clouds 6 1018 83 10000 1.08 9 09:18 12.03.2021
1568 Clouds 6 1018 83 10000 1.08 9 08:39 12.03.2021
1569 Clouds 7 1018 83 10000 1.45 10 07:41 12.03.2021
1570 Clouds 7 1019 82 10000 1.49 16 07:21 12.03.2021
1571 Clouds 6 1019 83 10000 1.19 30 06:42 12.03.2021
1572 Clouds 7 1020 82 10000 1.45 29 05:45 12.03.2021
1573 Clouds 14 1028 47 10000 3.6 20 00:55 12.03.2021
1574 Rain 15 1026 51 10000 1.54 210 23:56 11.03.2021
1575 Clouds 16 1025 36 10000 3.6 200 22:59 11.03.2021
1576 Clouds 16 1025 36 10000 3.6 200 22:59 11.03.2021
1577 Clouds 16 1025 36 10000 3.6 200 22:39 11.03.2021
1578 Clouds 17 1025 36 10000 2.06 110 22:19 11.03.2021
1579 Clouds 18 1025 32 10000 3.6 10 21:46 11.03.2021
1580 Clouds 20 1025 30 10000 4.12 310 21:24 11.03.2021
1581 Clouds 20 1025 30 10000 4.63 360 20:49 11.03.2021
1582 Clouds 20 1026 30 10000 2.06 330 20:22 11.03.2021
1583 Clouds 21 1027 40 10000 3.09 0 19:53 11.03.2021
1584 Clouds 21 1027 40 10000 3.09 0 19:34 11.03.2021
1585 Clouds 20 1028 28 10000 1.03 290 18:53 11.03.2021
1586 Clouds 20 1028 28 10000 1.03 290 18:34 11.03.2021
1587 Clouds 18 1030 32 10000 1.54 0 17:53 11.03.2021
1588 Clouds 17 1031 36 10000 1.03 0 17:32 11.03.2021
1589 Clouds 16 1031 44 10000 1.03 0 16:34 11.03.2021
1590 Clouds 14 1032 51 10000 0.51 30 15:56 11.03.2021
1591 Clouds 14 1032 51 10000 0.51 30 15:37 11.03.2021
1592 Clouds 12 1033 62 10000 1.03 0 15:19 11.03.2021
1593 Clouds 12 1033 62 10000 1.24 191 14:43 11.03.2021
1594 Clouds 9 1033 76 10000 0.51 0 14:18 11.03.2021
1595 Clouds 9 1032 71 10000 1.16 192 13:43 11.03.2021
1596 Clouds 6 1032 87 10000 1.03 0 13:21 11.03.2021
1597 Clouds 6 1031 81 10000 2.06 100 12:50 11.03.2021
1598 Clouds 5 1031 87 10000 2.06 90 12:28 11.03.2021
1599 Clouds 8 1019 88 10000 1.17 184 11:47 11.03.2021
1600 Clouds 9 1018 86 10000 0.9 180 11:29 11.03.2021
1601 Clouds 9 1018 86 10000 0.9 180 10:55 11.03.2021
1602 Clouds 8 1018 76 10000 0.57 192 10:25 11.03.2021
1603 Clouds 8 1018 76 10000 0.57 192 09:50 11.03.2021
1604 Clouds 8 1018 76 10000 0.57 192 09:32 11.03.2021
1605 Clouds 8 1017 77 10000 0.34 253 08:50 11.03.2021
1606 Clouds 8 1017 77 10000 0.34 253 08:31 11.03.2021
1607 Clouds 8 1018 77 10000 0.58 289 07:44 11.03.2021
1608 Clouds 8 1019 79 10000 1.51 204 06:54 11.03.2021
1609 Clouds 8 1019 79 10000 1.51 204 06:36 11.03.2021
1610 Rain 9 1019 78 10000 1.51 199 06:18 11.03.2021
1611 Clouds 14 1029 44 10000 6.17 180 02:25 11.03.2021
1612 Clouds 14 1029 44 10000 6.17 180 02:25 11.03.2021
1613 Clouds 15 1027 44 10000 2.57 20 00:23 11.03.2021
1614 Clouds 17 1025 42 10000 6.17 10 23:22 10.03.2021
1615 Clouds 18 1025 39 10000 4.12 10 22:42 10.03.2021
1616 Clouds 17 1025 39 10000 4.63 10 22:20 10.03.2021
1617 Clouds 18 1026 39 10000 3.6 10 21:44 10.03.2021
1618 Clouds 17 1026 36 10000 4.12 140 21:21 10.03.2021
1619 Clouds 18 1026 32 10000 3.09 90 20:45 10.03.2021
1620 Clouds 20 1027 28 10000 2.57 300 20:27 10.03.2021
1621 Clouds 19 1028 27 10000 2.58 352 19:42 10.03.2021
1622 Clouds 19 1029 27 10000 1.03 40 19:23 10.03.2021
1623 Clouds 19 1029 27 10000 2.57 240 18:44 10.03.2021
1624 Clouds 18 1030 32 10000 1.54 170 18:24 10.03.2021
1625 Clouds 19 1031 37 10000 2.06 0 17:55 10.03.2021
1626 Clouds 19 1031 37 10000 2.06 0 17:36 10.03.2021
1627 Clouds 18 1032 32 10000 2.57 70 17:18 10.03.2021
1628 Clouds 16 1032 39 10000 3.09 70 16:41 10.03.2021
1629 Clouds 17 1033 39 10000 1.03 50 16:21 10.03.2021
1630 Clouds 16 1033 44 10000 1.54 0 15:41 10.03.2021
1631 Clouds 14 1033 58 10000 1.03 0 15:22 10.03.2021
1632 Clouds 12 1033 62 10000 0.78 224 14:43 10.03.2021
1633 Clouds 11 1033 71 10000 1.03 90 14:19 10.03.2021
1634 Clouds 10 1033 76 10000 1.03 110 13:50 10.03.2021
1635 Clouds 10 1033 76 10000 2.06 100 13:27 10.03.2021
1636 Clouds 10 1032 71 10000 1.54 110 12:45 10.03.2021
1637 Clouds 9 1032 76 10000 1.03 100 12:19 10.03.2021
1638 Clouds 6 1020 78 10000 0.16 279 11:32 10.03.2021
1639 Clouds 6 1020 77 10000 0.26 229 10:59 10.03.2021
1640 Clouds 6 1020 77 10000 0.26 229 10:41 10.03.2021
1641 Clouds 7 1019 76 10000 0.35 235 10:23 10.03.2021
1642 Clouds 7 1019 76 10000 0.32 233 09:45 10.03.2021
1643 Clouds 8 1019 75 10000 0.47 338 09:24 10.03.2021
1644 Clouds 8 1019 75 10000 0.47 338 08:57 10.03.2021
1645 Clouds 8 1019 75 10000 0.46 341 08:38 10.03.2021
1646 Clouds 8 1019 74 10000 0.62 353 08:20 10.03.2021
1647 Clouds 9 1019 75 10000 0.78 347 07:31 10.03.2021
1648 Clouds 9 1020 74 10000 0.92 343 06:56 10.03.2021
1649 Clouds 9 1020 74 10000 0.92 343 06:32 10.03.2021
1650 Clouds 10 1020 71 10000 2.05 24 02:41 10.03.2021
1651 Rain 14 1028 51 10000 3.6 140 23:52 09.03.2021
1652 Rain 15 1028 47 10000 4.12 140 23:24 09.03.2021
1653 Clouds 16 1027 48 10000 2.57 20 22:42 09.03.2021
1654 Clouds 15 1027 47 10000 3.09 100 22:23 09.03.2021
1655 Clouds 15 1028 51 10000 1.54 0 21:46 09.03.2021
1656 Clouds 15 1028 47 10000 3.6 20 21:25 09.03.2021
1657 Clouds 15 1028 47 10000 3.6 20 20:59 09.03.2021
1658 Clouds 15 1028 47 10000 3.6 20 20:41 09.03.2021
1659 Clouds 16 1028 48 10000 5.14 20 20:21 09.03.2021
1660 Clouds 17 1028 45 10000 4.63 10 19:51 09.03.2021
1661 Clouds 17 1029 45 10000 2.57 0 19:27 09.03.2021
1662 Clouds 18 1030 36 10000 4.12 40 18:50 09.03.2021
1663 Clouds 16 1031 44 10000 4.12 20 18:27 09.03.2021
1664 Clouds 16 1031 48 10000 3.09 30 17:53 09.03.2021
1665 Clouds 16 1031 48 10000 3.09 30 17:31 09.03.2021
1666 Clouds 16 1032 51 10000 1.54 0 16:55 09.03.2021
1667 Clouds 16 1032 51 10000 1.54 0 16:37 09.03.2021
1668 Clouds 15 1033 51 10000 0.51 150 16:18 09.03.2021
1669 Clouds 13 1033 58 10000 1.03 180 15:43 09.03.2021
1670 Clouds 12 1033 62 10000 0.51 120 15:20 09.03.2021
1671 Clouds 11 1033 76 10000 1.03 80 14:28 09.03.2021
1672 Clouds 10 1032 81 10000 1.29 98 13:57 09.03.2021
1673 Clouds 10 1032 81 10000 1.29 98 13:38 09.03.2021
1674 Clouds 9 1032 81 8000 2.06 110 13:19 09.03.2021
1675 Clouds 9 1032 76 10000 2.06 120 12:39 09.03.2021
1676 Clouds 7 1020 77 10000 1 57 12:18 09.03.2021
1677 Clouds 7 1020 77 10000 1 57 11:41 09.03.2021
1678 Clouds 7 1019 77 10000 1.2 43 11:21 09.03.2021
1679 Clouds 7 1019 77 10000 1.2 43 10:54 09.03.2021
1680 Clouds 7 1019 77 10000 1.2 43 10:36 09.03.2021
1681 Clouds 7 1018 77 10000 1.24 40 10:18 09.03.2021
1682 Clouds 7 1018 77 10000 1.24 40 09:41 09.03.2021
1683 Clouds 8 1018 76 10000 1.49 48 09:22 09.03.2021
1684 Clouds 8 1018 76 10000 1.49 48 08:36 09.03.2021
1685 Clouds 8 1018 76 10000 1.66 38 07:52 09.03.2021
1686 Clouds 8 1018 76 10000 1.66 38 07:31 09.03.2021
1687 Clouds 9 1019 74 10000 1.58 36 06:59 09.03.2021
1688 Clouds 9 1019 74 10000 1.85 40 05:54 09.03.2021
1689 Clouds 9 1019 74 10000 1.85 40 05:34 09.03.2021
1690 Clouds 15 1029 51 10000 4.12 280 00:21 09.03.2021
1691 Clouds 16 1028 48 10000 4.12 80 23:42 08.03.2021
1692 Clouds 17 1028 45 10000 6.17 290 23:23 08.03.2021
1693 Clouds 17 1028 39 10000 1.54 10 22:44 08.03.2021
1694 Clouds 18 1024 36 10000 4.12 350 22:26 08.03.2021
1695 Clouds 20 1027 30 10000 3.6 170 21:54 08.03.2021
1696 Clouds 20 1027 30 10000 3.6 170 21:35 08.03.2021
1697 Clouds 20 1028 34 10000 2.06 0 20:45 08.03.2021
1698 Clouds 17 1029 45 10000 8.75 80 20:25 08.03.2021
1699 Clouds 20 1029 34 10000 1.54 80 19:58 08.03.2021
1700 Clouds 20 1029 37 10000 1.54 0 19:28 08.03.2021
1701 Clouds 20 1030 34 10000 1.54 60 18:39 08.03.2021
1702 Clouds 20 1031 32 10000 1.54 0 18:20 08.03.2021
1703 Clouds 19 1032 39 10000 2.57 90 17:51 08.03.2021
1704 Clouds 19 1032 37 10000 2.06 0 17:25 08.03.2021
1705 Clouds 18 1033 39 10000 2.06 340 16:46 08.03.2021
1706 Clouds 15 1033 51 10000 1.54 280 16:28 08.03.2021
1707 Clouds 14 1034 51 10000 0.51 0 15:49 08.03.2021
1708 Clouds 16 1034 55 10000 1.03 0 15:26 08.03.2021
1709 Clouds 15 1034 55 10000 1.03 90 14:43 08.03.2021
1710 Clouds 14 1034 58 10000 1.54 110 14:20 08.03.2021
1711 Clouds 12 1034 66 10000 1.54 110 13:38 08.03.2021
1712 Clouds 10 1033 76 10000 2.57 90 13:19 08.03.2021
1713 Clouds 10 1033 76 10000 1.54 90 12:42 08.03.2021
1714 Clouds 10 1033 76 10000 1.54 90 12:42 08.03.2021
1715 Clouds 9 1033 87 10000 0.51 0 12:23 08.03.2021
1716 Clouds 9 1020 80 10000 1.44 246 11:40 08.03.2021
1717 Clouds 9 1020 80 10000 1.08 240 11:18 08.03.2021
1718 Clouds 9 1020 80 10000 1.08 240 10:43 08.03.2021
1719 Clouds 9 1019 79 10000 0.76 217 10:22 08.03.2021
1720 Clouds 9 1019 79 10000 0.76 217 09:41 08.03.2021
1721 Clouds 9 1019 77 10000 0.62 209 09:22 08.03.2021
1722 Clouds 10 1019 76 10000 0.53 164 08:28 08.03.2021
1723 Clouds 9 1020 77 10000 1.29 154 07:23 08.03.2021
1724 Clouds 9 1020 77 10000 1.29 154 06:43 08.03.2021
1725 Clouds 10 1020 73 10000 1.46 60 03:38 08.03.2021
1726 Rain 13 1030 71 10000 2.57 280 00:44 08.03.2021
1727 Rain 13 1029 71 10000 1.54 90 23:57 07.03.2021
1728 Rain 13 1029 71 10000 1.54 90 23:37 07.03.2021
1729 Rain 15 1028 55 10000 2.57 120 23:18 07.03.2021
1730 Clouds 16 1028 51 10000 4.63 120 22:42 07.03.2021
1731 Rain 18 1027 48 10000 7.2 290 22:23 07.03.2021
1732 Clouds 19 1027 45 10000 6.69 290 21:44 07.03.2021
1733 Clouds 20 1027 42 10000 4.63 300 21:25 07.03.2021
1734 Clouds 20 1028 42 10000 6.17 290 20:48 07.03.2021
1735 Clouds 20 1029 37 10000 1.03 120 20:30 07.03.2021
1736 Clouds 19 1029 37 10000 1.54 130 19:57 07.03.2021
1737 Clouds 19 1029 37 10000 1.54 130 19:38 07.03.2021
1738 Clouds 18 1030 36 10000 2.06 50 19:20 07.03.2021
1739 Clouds 18 1031 48 10000 1.54 60 18:42 07.03.2021
1740 Clouds 18 1031 48 10000 1.54 60 18:19 07.03.2021
1741 Clouds 16 1033 51 10000 2.06 0 17:40 07.03.2021
1742 Clouds 16 1033 51 10000 2.06 0 17:20 07.03.2021
1743 Clouds 13 1034 62 10000 1.03 100 16:56 07.03.2021
1744 Clouds 13 1034 62 10000 1.03 100 16:37 07.03.2021
1745 Clouds 13 1034 62 10000 1.03 100 16:18 07.03.2021
1746 Clouds 12 1034 76 10000 0.32 296 15:42 07.03.2021
1747 Clouds 12 1034 76 10000 0.18 156 15:21 07.03.2021
1748 Drizzle 10 1034 76 10000 1.03 100 14:30 07.03.2021
1749 Clouds 9 1033 81 10000 2.06 100 13:59 07.03.2021
1750 Clouds 9 1033 81 10000 2.06 100 13:40 07.03.2021
1751 Clouds 9 1033 81 10000 2.06 100 13:20 07.03.2021
1752 Clouds 9 1032 81 10000 2.06 100 12:44 07.03.2021
1753 Clouds 9 1032 81 10000 2.06 100 12:24 07.03.2021
1754 Clouds 6 1020 76 10000 1.03 32 11:41 07.03.2021
1755 Clouds 6 1019 76 10000 0.97 31 11:21 07.03.2021
1756 Clouds 6 1019 76 10000 0.97 31 10:39 07.03.2021
1757 Clouds 7 1018 76 10000 1.1 26 10:21 07.03.2021
1758 Clouds 6 1018 77 10000 1.1 27 09:41 07.03.2021
1759 Clouds 7 1019 76 10000 1.16 28 09:21 07.03.2021
1760 Clouds 7 1019 76 10000 1.16 28 08:45 07.03.2021
1761 Clouds 7 1019 76 10000 1.23 28 08:23 07.03.2021
1762 Clouds 8 1020 75 10000 1.22 18 07:25 07.03.2021
1763 Clouds 9 1018 74 10000 1.19 18 02:41 07.03.2021
1764 Clouds 13 1030 67 10000 1.54 0 00:45 07.03.2021
1765 Clouds 16 1028 55 10000 2.57 90 23:41 06.03.2021
1766 Clouds 16 1028 55 10000 2.57 90 23:23 06.03.2021
1767 Clouds 16 1028 55 10000 1.03 0 22:47 06.03.2021
1768 Clouds 15 1028 58 10000 2.57 90 22:27 06.03.2021
1769 Clouds 16 1028 48 10000 1.54 180 21:57 06.03.2021
1770 Clouds 15 1028 55 10000 1.54 120 21:21 06.03.2021
1771 Clouds 13 1029 62 10000 2.06 10 20:49 06.03.2021
1772 Clouds 14 1029 58 10000 1.03 0 20:27 06.03.2021
1773 Clouds 14 1029 62 10000 4.12 110 19:49 06.03.2021
1774 Clouds 16 1030 55 10000 3.6 110 19:22 06.03.2021
1775 Clouds 16 1030 51 10000 1.54 140 18:54 06.03.2021
1776 Clouds 16 1030 51 10000 1.54 140 18:36 06.03.2021
1777 Clouds 16 1031 55 10000 0.51 50 18:18 06.03.2021
1778 Clouds 16 1031 51 10000 1.03 0 17:42 06.03.2021
1779 Clouds 16 1032 59 10000 1.03 70 17:21 06.03.2021
1780 Clouds 14 1032 62 10000 2.06 100 16:42 06.03.2021
1781 Clouds 13 1033 62 10000 1.54 0 16:24 06.03.2021
1782 Clouds 13 1033 62 10000 1.03 130 15:47 06.03.2021
1783 Clouds 12 1033 71 9000 2.57 90 15:29 06.03.2021
1784 Clouds 11 1033 76 9000 3.09 90 14:51 06.03.2021
1785 Clouds 9 1032 87 10000 3.6 110 14:28 06.03.2021
1786 Clouds 10 1032 81 10000 3.09 110 13:40 06.03.2021
1787 Clouds 10 1031 76 10000 4.63 120 13:20 06.03.2021
1788 Clouds 10 1031 76 10000 2.57 110 12:44 06.03.2021
1789 Rain 10 1030 76 10000 1.03 100 12:20 06.03.2021
1790 Rain 7 1018 75 10000 0.66 15 11:55 06.03.2021
1791 Clouds 7 1017 74 10000 0.23 266 11:22 06.03.2021
1792 Clouds 7 1017 74 10000 0.25 267 10:49 06.03.2021
1793 Clouds 8 1017 74 10000 0.41 23 10:24 06.03.2021
1794 Clouds 8 1017 74 10000 0.41 23 09:47 06.03.2021
1795 Clouds 9 1017 73 10000 0.73 37 09:20 06.03.2021
1796 Clouds 9 1017 73 10000 0.73 37 08:46 06.03.2021
1797 Clouds 9 1017 73 10000 1.08 30 07:58 06.03.2021
1798 Clouds 9 1017 73 10000 1.08 30 07:39 06.03.2021
1799 Clouds 8 1018 75 10000 1.41 33 07:19 06.03.2021
1800 Clouds 9 1019 74 10000 1.7 29 05:38 06.03.2021
1801 Clouds 13 1027 71 10000 2.06 90 02:39 06.03.2021
1802 Clouds 13 1027 71 10000 2.06 90 01:20 06.03.2021
1803 Clouds 12 1027 76 10000 2.06 310 00:36 06.03.2021
1804 Clouds 14 1025 62 10000 1.03 100 23:29 05.03.2021
1805 Clouds 15 1025 55 10000 3.6 210 22:49 05.03.2021
1806 Clouds 15 1025 55 10000 3.6 210 22:25 05.03.2021
1807 Clouds 18 1025 48 10000 7.72 0 21:57 05.03.2021
1808 Clouds 18 1025 48 10000 7.72 0 21:39 05.03.2021
1809 Clouds 21 1026 37 10000 1.03 0 20:59 05.03.2021
1810 Clouds 20 1027 32 10000 2.57 240 20:41 05.03.2021
1811 Clouds 20 1027 32 10000 2.57 240 20:23 05.03.2021
1812 Clouds 21 1027 30 10000 2.57 240 19:44 05.03.2021
1813 Clouds 20 1028 32 10000 1.54 120 19:22 05.03.2021
1814 Clouds 18 1029 45 10000 2.06 100 18:44 05.03.2021
1815 Clouds 17 1029 45 10000 1.54 110 18:25 05.03.2021
1816 Clouds 18 1030 39 10000 1 316 17:43 05.03.2021
1817 Clouds 16 1031 44 10000 2.57 80 17:24 05.03.2021
1818 Clouds 16 1031 51 10000 1.03 90 16:41 05.03.2021
1819 Clouds 15 1032 58 10000 1.54 110 16:23 05.03.2021
1820 Clouds 14 1032 58 10000 2.57 90 15:53 05.03.2021
1821 Clouds 12 1032 66 10000 1.54 140 15:26 05.03.2021
1822 Clouds 12 1032 66 10000 1.03 120 14:40 05.03.2021
1823 Clouds 10 1032 76 10000 1.03 120 14:21 05.03.2021
1824 Clouds 10 1031 76 10000 1.54 100 13:43 05.03.2021
1825 Clouds 10 1031 76 10000 1.54 100 13:21 05.03.2021
1826 Clouds 9 1031 81 10000 0.81 30 12:42 05.03.2021
1827 Clouds 6 1019 80 10000 0.84 29 11:39 05.03.2021
1828 Clouds 6 1018 80 10000 0.77 22 11:19 05.03.2021
1829 Clouds 6 1018 80 10000 0.77 22 10:43 05.03.2021
1830 Clouds 7 1017 79 10000 0.86 19 10:24 05.03.2021
1831 Clouds 7 1017 79 10000 0.86 19 09:54 05.03.2021
1832 Clouds 7 1017 79 10000 1.25 13 09:29 05.03.2021
1833 Clouds 7 1017 79 10000 1.25 13 08:57 05.03.2021
1834 Clouds 7 1017 79 10000 1.25 13 08:38 05.03.2021
1835 Clouds 7 1017 79 10000 1.25 13 08:38 05.03.2021
1836 Clouds 7 1018 78 10000 1.26 10 08:20 05.03.2021
1837 Clouds 7 1018 78 10000 1.26 10 07:30 05.03.2021
1838 Clouds 7 1018 78 10000 1.18 22 06:34 05.03.2021
1839 Clouds 8 1019 77 10000 1.44 19 05:41 05.03.2021
1840 Clouds 14 1029 51 10000 1.54 170 00:59 05.03.2021
1841 Clouds 14 1029 51 10000 2.06 200 23:53 04.03.2021
1842 Clouds 14 1028 51 10000 2.57 200 23:24 04.03.2021
1843 Clouds 17 1027 42 10000 4.12 100 22:29 04.03.2021
1844 Clouds 18 1027 48 10000 4.12 40 21:53 04.03.2021
1845 Rain 18 1027 39 10000 6.17 30 21:32 04.03.2021
1846 Clouds 18 1027 36 10000 4.63 10 20:57 04.03.2021
1847 Clouds 18 1027 36 10000 4.63 10 20:38 04.03.2021
1848 Rain 20 1028 34 10000 2.06 20 20:20 04.03.2021
1849 Rain 20 1028 34 10000 2.06 20 20:20 04.03.2021
1850 Clouds 19 1028 37 10000 3.09 360 19:49 04.03.2021
1851 Clouds 19 1029 45 10000 3.09 280 19:23 04.03.2021
1852 Clouds 18 1030 39 10000 2.06 0 18:50 04.03.2021
1853 Clouds 17 1031 45 10000 2.06 30 18:29 04.03.2021
1854 Clouds 17 1031 45 10000 3.09 300 17:47 04.03.2021
1855 Clouds 17 1031 45 10000 3.09 300 17:47 04.03.2021
1856 Clouds 17 1031 45 10000 3.09 300 17:29 04.03.2021
1857 Clouds 15 1032 58 10000 2.57 280 16:50 04.03.2021
1858 Clouds 15 1032 58 10000 2.57 280 16:31 04.03.2021
1859 Clouds 13 1033 62 10000 2.57 90 15:56 04.03.2021
1860 Clouds 13 1033 62 10000 2.57 90 15:34 04.03.2021
1861 Clouds 12 1033 66 10000 0.51 240 14:53 04.03.2021
1862 Clouds 12 1033 66 10000 0.51 240 14:31 04.03.2021
1863 Clouds 9 1033 76 10000 0.51 0 13:52 04.03.2021
1864 Clouds 9 1033 76 10000 0.51 0 13:33 04.03.2021
1865 Clouds 8 1032 81 10000 1.11 19 12:58 04.03.2021
1866 Clouds 8 1032 81 10000 1.3 11 12:39 04.03.2021
1867 Clouds 8 1020 78 10000 1.28 15 11:48 04.03.2021
1868 Clouds 8 1019 78 10000 1.11 1 11:27 04.03.2021
1869 Clouds 8 1019 78 10000 1.11 1 10:55 04.03.2021
1870 Clouds 8 1019 78 10000 1.11 1 10:31 04.03.2021
1871 Clouds 7 1019 77 10000 0.82 29 09:47 04.03.2021
1872 Clouds 7 1018 77 10000 0.59 308 09:25 04.03.2021
1873 Clouds 7 1018 77 10000 0.59 308 08:42 04.03.2021
1874 Clouds 7 1018 76 10000 0.49 2 08:22 04.03.2021
1875 Clouds 7 1018 76 10000 0.49 2 07:35 04.03.2021
1876 Clouds 8 1020 74 10000 1.11 13 06:28 04.03.2021
1877 Clouds 8 1020 74 10000 1.11 13 05:42 04.03.2021
1878 Clouds 13 1030 54 10000 3.09 110 01:49 04.03.2021
1879 Clouds 17 1027 42 10000 3.6 20 23:19 03.03.2021
1880 Clouds 19 1027 37 10000 1.54 70 22:29 03.03.2021
1881 Clouds 19 1027 48 10000 3.6 120 21:55 03.03.2021
1882 Clouds 19 1027 48 10000 3.6 120 21:37 03.03.2021
1883 Clouds 17 1028 42 10000 3.6 120 21:18 03.03.2021
1884 Clouds 19 1029 39 10000 1.54 0 20:43 03.03.2021
1885 Clouds 20 1029 37 10000 2.06 250 20:24 03.03.2021
1886 Clouds 17 1030 42 10000 1.54 0 19:47 03.03.2021
1887 Clouds 18 1031 36 10000 1.54 0 19:28 03.03.2021
1888 Clouds 16 1031 48 10000 1.03 0 18:48 03.03.2021
1889 Clouds 14 1032 54 10000 2.06 0 18:30 03.03.2021
1890 Clouds 15 1032 58 10000 2.06 100 17:56 03.03.2021
1891 Clouds 14 1032 58 10000 3.09 100 17:20 03.03.2021
1892 Clouds 15 1033 58 10000 3.09 100 16:51 03.03.2021
1893 Clouds 13 1033 62 10000 3.6 100 16:27 03.03.2021
1894 Clouds 14 1033 58 10000 3.09 90 15:51 03.03.2021
1895 Clouds 13 1033 62 10000 2.57 100 15:31 03.03.2021
1896 Clouds 13 1033 62 10000 1.54 0 14:39 03.03.2021
1897 Clouds 11 1033 71 10000 0.51 0 14:20 03.03.2021
1898 Clouds 9 1032 76 10000 0.51 150 13:39 03.03.2021
1899 Clouds 9 1032 76 10000 0.51 150 13:21 03.03.2021
1900 Clouds 8 1032 81 10000 0.51 80 12:41 03.03.2021
1901 Clouds 8 1032 81 10000 0.51 90 12:22 03.03.2021
1902 Clouds 8 1019 78 10000 0.62 348 11:44 03.03.2021
1903 Clouds 8 1018 78 10000 0.38 345 11:26 03.03.2021
1904 Clouds 8 1018 78 10000 0.38 345 10:45 03.03.2021
1905 Clouds 8 1018 78 10000 0.56 170 10:21 03.03.2021
1906 Clouds 8 1018 78 10000 0.56 170 09:41 03.03.2021
1907 Clouds 8 1017 78 10000 0.9 170 08:52 03.03.2021
1908 Rain 8 1018 78 10000 0.89 142 08:24 03.03.2021
1909 Clouds 8 1018 78 10000 0.89 142 07:55 03.03.2021
1910 Rain 8 1019 77 9362 1.14 150 07:28 03.03.2021
1911 Rain 8 1019 77 8999 1.5 164 06:22 03.03.2021
1912 Clouds 8 1019 77 8999 1.5 164 05:44 03.03.2021
1913 Clouds 8 1019 76 10000 1.43 134 04:36 03.03.2021
1914 Clouds 10 1018 71 10000 1.38 103 03:54 03.03.2021
1915 Clouds 15 1026 44 10000 2.57 0 00:28 03.03.2021
1916 Clouds 16 1024 44 10000 5.66 130 23:35 02.03.2021
1917 Clouds 18 1024 42 10000 4.63 150 22:53 02.03.2021
1918 Clouds 19 1024 34 10000 4.63 10 22:22 02.03.2021
1919 Clouds 21 1024 30 10000 4.12 10 21:54 02.03.2021
1920 Clouds 20 1024 30 10000 5.14 20 21:36 02.03.2021
1921 Clouds 20 1024 32 10000 4.63 20 20:56 02.03.2021
1922 Clouds 20 1024 32 10000 4.63 20 20:38 02.03.2021
1923 Clouds 20 1025 32 10000 5.66 360 20:20 02.03.2021
1924 Clouds 20 1026 37 10000 2.57 0 19:47 02.03.2021
1925 Clouds 19 1027 39 10000 1.64 356 19:28 02.03.2021
1926 Clouds 20 1027 32 10000 2.57 240 18:42 02.03.2021
1927 Clouds 17 1028 45 10000 2.57 40 18:22 02.03.2021
1928 Clouds 18 1029 42 10000 1.03 0 17:58 02.03.2021
1929 Clouds 18 1029 42 10000 1.03 0 17:39 02.03.2021
1930 Clouds 18 1029 52 10000 1.03 240 17:19 02.03.2021
1931 Clouds 18 1029 52 10000 1.03 240 17:19 02.03.2021
1932 Clouds 18 1030 39 10000 1.54 310 16:45 02.03.2021
1933 Clouds 16 1030 48 10000 1.54 0 15:54 02.03.2021
1934 Clouds 16 1030 48 10000 1.54 0 15:27 02.03.2021
1935 Clouds 15 1030 51 10000 1.03 0 14:49 02.03.2021
1936 Clouds 15 1030 55 10000 1.37 137 14:19 02.03.2021
1937 Clouds 12 1030 66 10000 1.03 100 13:44 02.03.2021
1938 Clouds 10 1030 76 10000 2.57 120 13:24 02.03.2021
1939 Clouds 10 1030 71 10000 2.06 120 12:45 02.03.2021
1940 Clouds 9 1029 76 10000 1.02 117 12:25 02.03.2021
1941 Clouds 9 1016 77 10000 1.06 117 11:45 02.03.2021
1942 Clouds 9 1016 75 10000 0.81 112 11:22 02.03.2021
1943 Clouds 9 1016 75 10000 0.81 111 10:49 02.03.2021
1944 Clouds 9 1015 76 10000 0.98 120 10:25 02.03.2021
1945 Clouds 9 1015 77 10000 1 119 09:41 02.03.2021
1946 Clouds 9 1015 77 10000 1.22 115 09:22 02.03.2021
1947 Clouds 9 1015 76 10000 1.21 117 08:43 02.03.2021
1948 Clouds 9 1016 76 10000 0.38 143 08:25 02.03.2021
1949 Clouds 9 1016 76 10000 0.38 143 07:41 02.03.2021
1950 Clouds 9 1016 74 10000 0.75 94 06:37 02.03.2021
1951 Rain 9 1016 74 10000 1.07 54 05:47 02.03.2021
1952 Rain 10 1017 73 10000 1.5 44 05:29 02.03.2021
1953 Clouds 15 1025 55 10000 3.09 20 02:35 02.03.2021
1954 Clouds 15 1025 55 10000 3.09 20 01:42 02.03.2021
1955 Clouds 15 1025 55 10000 3.09 20 01:18 02.03.2021
1956 Clouds 18 1023 42 10000 5.14 30 23:29 01.03.2021
1957 Clouds 18 1022 42 10000 4.63 20 22:43 01.03.2021
1958 Clouds 20 1022 37 10000 4.63 20 22:25 01.03.2021
1959 Clouds 20 1023 34 10000 5.14 90 21:52 01.03.2021
1960 Clouds 21 1023 32 10000 1.03 0 21:24 01.03.2021
1961 Clouds 19 1023 42 10000 3.09 0 20:59 01.03.2021
1962 Clouds 19 1023 42 10000 3.09 0 20:39 01.03.2021
1963 Clouds 21 1024 40 10000 3.09 0 20:18 01.03.2021
1964 Clouds 21 1025 35 10000 1.54 190 19:42 01.03.2021
1965 Clouds 19 1026 34 10000 2.57 170 19:18 01.03.2021
1966 Clouds 18 1027 39 10000 2.06 30 18:40 01.03.2021
1967 Clouds 17 1028 45 10000 2.06 230 18:21 01.03.2021
1968 Clouds 17 1028 42 10000 1.03 0 17:42 01.03.2021
1969 Clouds 17 1029 48 10000 2.06 50 17:20 01.03.2021
1970 Clouds 16 1029 48 10000 1.03 0 16:45 01.03.2021
1971 Clouds 16 1030 55 10000 2.57 120 16:26 01.03.2021
1972 Clouds 16 1030 55 10000 2.57 120 16:26 01.03.2021
1973 Clouds 16 1030 55 10000 1.03 360 15:42 01.03.2021
1974 Clouds 14 1030 58 10000 0.51 0 15:22 01.03.2021
1975 Clouds 12 1030 76 10000 0.51 0 14:49 01.03.2021
1976 Clouds 11 1030 76 10000 1.03 0 14:30 01.03.2021
1977 Clouds 11 1030 76 10000 1.54 90 13:44 01.03.2021
1978 Clouds 10 1029 81 10000 0.51 0 13:25 01.03.2021
1979 Clouds 9 1029 87 10000 1.54 90 12:59 01.03.2021
1980 Clouds 9 1029 87 10000 1.54 90 12:40 01.03.2021
1981 Clouds 8 1029 87 10000 2.06 100 12:19 01.03.2021
1982 Clouds 7 1016 75 10000 0.58 65 11:42 01.03.2021
1983 Clouds 7 1016 75 10000 0.47 48 10:57 01.03.2021
1984 Clouds 7 1015 74 10000 0.74 32 10:36 01.03.2021
1985 Clouds 7 1015 74 10000 0.76 31 10:18 01.03.2021
1986 Clouds 7 1015 74 10000 0.76 31 09:44 01.03.2021
1987 Clouds 8 1015 73 10000 0.94 11 09:23 01.03.2021
1988 Clouds 8 1015 73 10000 0.94 11 08:52 01.03.2021
1989 Clouds 8 1015 73 10000 1.17 19 08:21 01.03.2021
1990 Clouds 9 1015 74 10000 1.02 38 06:54 01.03.2021
1991 Clouds 9 1016 74 10000 0.76 40 05:39 01.03.2021
1992 Clouds 13 1026 62 10000 0.51 0 01:48 01.03.2021
1993 Clouds 16 1025 48 10000 1.54 100 23:41 28.02.2021
1994 Clouds 17 1025 42 10000 1.03 0 22:55 28.02.2021
1995 Clouds 16 1025 44 10000 2.16 353 22:25 28.02.2021
1996 Clouds 16 1026 48 10000 0.51 150 21:54 28.02.2021
1997 Clouds 15 1027 47 10000 4.12 170 21:32 28.02.2021
1998 Clouds 16 1027 48 10000 4.63 170 20:58 28.02.2021
1999 Clouds 16 1027 48 10000 4.63 170 20:38 28.02.2021
2000 Clouds 18 1027 39 10000 5.66 10 19:57 28.02.2021
2001 Clouds 18 1027 39 10000 5.66 10 19:38 28.02.2021
2002 Clouds 20 1028 37 10000 5.66 20 19:20 28.02.2021
2003 Clouds 18 1029 39 10000 5.66 10 18:43 28.02.2021
2004 Clouds 17 1029 39 10000 5.66 360 18:24 28.02.2021
2005 Clouds 18 1030 42 10000 5.66 30 17:48 28.02.2021
2006 Clouds 18 1031 42 10000 1.03 0 17:28 28.02.2021
2007 Clouds 17 1031 45 10000 2.06 0 16:54 28.02.2021
2008 Clouds 17 1031 42 10000 1.03 0 16:36 28.02.2021
2009 Clouds 17 1031 45 10000 2.06 0 15:57 28.02.2021
2010 Clouds 17 1031 45 10000 2.06 0 15:37 28.02.2021
2011 Clouds 15 1032 55 10000 1.54 60 15:18 28.02.2021
2012 Clouds 14 1032 54 10000 1.54 120 14:48 28.02.2021
2013 Clouds 13 1032 58 10000 1.54 150 14:25 28.02.2021
2014 Clouds 11 1032 66 10000 2.57 90 13:52 28.02.2021
2015 Clouds 11 1031 66 10000 1.09 18 13:20 28.02.2021
2016 Clouds 10 1031 76 10000 1.03 250 12:56 28.02.2021
2017 Clouds 10 1031 76 10000 1.03 250 12:37 28.02.2021
2018 Clouds 10 1031 71 10000 1.54 260 12:19 28.02.2021
2019 Clouds 8 1019 73 10000 1.13 21 11:44 28.02.2021
2020 Clouds 8 1018 74 10000 1.02 46 11:25 28.02.2021
2021 Clouds 8 1018 74 10000 1.02 46 10:54 28.02.2021
2022 Clouds 8 1018 74 10000 1.08 50 10:28 28.02.2021
2023 Clouds 8 1018 74 10000 1.08 50 09:51 28.02.2021
2024 Clouds 8 1018 74 10000 1.08 50 09:32 28.02.2021
2025 Clouds 9 1017 72 10000 1.06 44 08:50 28.02.2021
2026 Clouds 9 1017 72 10000 1.06 44 08:31 28.02.2021
2027 Clouds 10 1017 70 10000 1 48 07:54 28.02.2021
2028 Clouds 10 1017 70 10000 0.95 40 07:36 28.02.2021
2029 Clouds 10 1018 68 10000 1.33 39 06:43 28.02.2021
2030 Clouds 11 1019 64 10000 1.83 36 05:24 28.02.2021
2031 Clouds 10 1018 66 10000 1.92 39 03:40 28.02.2021
2032 Clouds 12 1029 76 10000 1.03 80 01:55 28.02.2021
2033 Clouds 12 1029 71 10000 1.54 100 00:52 28.02.2021
2034 Clouds 12 1029 71 10000 1.54 100 00:34 28.02.2021
2035 Clouds 12 1028 71 10000 1.03 210 23:45 27.02.2021
2036 Drizzle 12 1028 76 10000 2.57 270 23:19 27.02.2021
2037 Clouds 11 1028 82 10000 3.09 280 22:45 27.02.2021
2038 Clouds 11 1028 82 10000 1.54 80 22:21 27.02.2021
2039 Clouds 12 1028 76 10000 3.09 120 21:46 27.02.2021
2040 Clouds 14 1028 62 10000 2.57 20 21:24 27.02.2021
2041 Clouds 13 1028 62 10000 1.03 0 20:49 27.02.2021
2042 Clouds 17 1027 48 10000 3.09 180 20:28 27.02.2021
2043 Clouds 20 1028 37 10000 1.03 0 19:46 27.02.2021
2044 Clouds 17 1029 45 10000 4.12 10 19:27 27.02.2021
2045 Clouds 18 1030 48 10000 3.09 310 18:46 27.02.2021
2046 Clouds 18 1030 48 10000 3.09 310 18:22 27.02.2021
2047 Clouds 17 1030 55 10000 1.54 300 17:58 27.02.2021
2048 Clouds 16 1031 48 10000 0.51 360 17:38 27.02.2021
2049 Clouds 16 1031 48 10000 0.51 360 17:19 27.02.2021
2050 Clouds 15 1031 58 10000 2.06 50 16:49 27.02.2021
2051 Clouds 15 1032 58 10000 1.54 180 16:28 27.02.2021
2052 Clouds 14 1032 58 10000 2.06 300 15:46 27.02.2021
2053 Clouds 12 1032 71 10000 0.51 60 15:19 27.02.2021
2054 Clouds 11 1032 76 10000 1.03 110 14:41 27.02.2021
2055 Clouds 11 1032 76 10000 1.54 110 14:21 27.02.2021
2056 Clouds 10 1032 81 10000 1.03 90 13:43 27.02.2021
2057 Clouds 10 1031 81 10000 0.51 360 13:19 27.02.2021
2058 Rain 10 1031 76 10000 0.51 360 12:45 27.02.2021
2059 Rain 9 1031 81 10000 0.51 100 12:24 27.02.2021
2060 Rain 8 1018 78 10000 1.23 210 11:51 27.02.2021
2061 Rain 8 1018 78 10000 1.23 210 11:31 27.02.2021
2062 Rain 8 1018 78 10000 1.37 198 10:51 27.02.2021
2063 Rain 8 1018 78 10000 1.37 198 10:32 27.02.2021
2064 Rain 8 1017 78 8779 1.6 188 09:54 27.02.2021
2065 Rain 8 1017 78 8779 1.6 188 09:32 27.02.2021
2066 Rain 8 1017 78 9210 2.44 185 08:44 27.02.2021
2067 Rain 9 1017 78 10000 3.14 166 08:24 27.02.2021
2068 Rain 9 1017 78 10000 3.14 166 07:58 27.02.2021
2069 Rain 10 1018 76 10000 2.77 154 06:55 27.02.2021
2070 Clouds 14 1027 58 10000 2.06 0 01:30 27.02.2021
2071 Clouds 14 1027 58 10000 2.57 270 00:31 27.02.2021
2072 Rain 14 1027 62 10000 2.06 260 23:41 26.02.2021
2073 Clouds 15 1026 55 10000 4.63 80 23:22 26.02.2021
2074 Rain 17 1025 42 10000 5.14 150 22:34 26.02.2021
2075 Clouds 20 1024 32 10000 2.06 330 21:54 26.02.2021
2076 Clouds 20 1024 30 10000 3.6 30 21:35 26.02.2021
2077 Clouds 23 1025 28 10000 3.6 290 20:56 26.02.2021
2078 Clouds 23 1025 28 10000 3.6 290 20:37 26.02.2021
2079 Clouds 22 1026 26 10000 4.12 20 20:18 26.02.2021
2080 Clouds 21 1028 30 10000 3.6 50 19:27 26.02.2021
2081 Clouds 21 1029 30 10000 1.54 30 18:57 26.02.2021
2082 Clouds 21 1029 28 10000 2.06 180 18:25 26.02.2021
2083 Clouds 20 1030 30 10000 2.57 0 17:59 26.02.2021
2084 Clouds 20 1030 30 10000 2.57 0 17:37 26.02.2021
2085 Clouds 19 1031 34 10000 2.06 0 17:18 26.02.2021
2086 Clouds 19 1031 37 10000 1.03 360 16:46 26.02.2021
2087 Clouds 19 1031 42 10000 0.51 0 16:27 26.02.2021
2088 Clouds 17 1032 48 10000 1.54 0 15:44 26.02.2021
2089 Clouds 16 1032 51 10000 1.54 0 15:24 26.02.2021
2090 Clear 14 1032 58 10000 1.03 0 14:57 26.02.2021
2091 Clear 14 1032 58 10000 1.03 0 14:35 26.02.2021
2092 Clear 13 1032 62 10000 0.51 0 13:59 26.02.2021
2093 Clouds 13 1032 62 10000 0.51 0 13:39 26.02.2021
2094 Clouds 9 1031 76 10000 1.03 0 12:58 26.02.2021
2095 Clouds 8 1031 76 10000 0.51 0 12:31 26.02.2021
2096 Clouds 7 1019 76 10000 0.26 91 11:47 26.02.2021
2097 Clouds 7 1018 76 10000 0.56 102 11:20 26.02.2021
2098 Clouds 7 1018 76 10000 0.56 102 10:43 26.02.2021
2099 Clouds 7 1018 76 10000 0.21 139 09:48 26.02.2021
2100 Clouds 8 1018 75 10000 0.12 238 09:28 26.02.2021
2101 Clouds 8 1018 75 10000 0.12 238 08:39 26.02.2021
2102 Clouds 8 1018 74 10000 0.21 329 07:59 26.02.2021
2103 Clouds 8 1018 74 10000 0.21 329 07:59 26.02.2021
2104 Clouds 8 1018 73 10000 0.46 324 07:24 26.02.2021
2105 Clouds 9 1018 74 10000 0.38 16 06:35 26.02.2021
2106 Clouds 10 1019 73 10000 0.7 86 05:20 26.02.2021
2107 Clouds 16 1028 44 10000 2.57 120 02:41 26.02.2021
2108 Clouds 16 1028 41 10000 0.51 90 00:33 26.02.2021
2109 Clouds 19 1027 37 10000 5.66 40 23:41 25.02.2021
2110 Clouds 20 1026 32 10000 4.63 30 23:19 25.02.2021
2111 Clouds 20 1026 30 10000 4.63 20 22:38 25.02.2021
2112 Clouds 21 1027 28 10000 4.63 20 21:54 25.02.2021
2113 Clouds 21 1027 28 10000 4.63 20 21:54 25.02.2021
2114 Clouds 21 1027 28 10000 4.63 20 21:33 25.02.2021
2115 Clouds 20 1028 32 10000 4.63 360 20:57 25.02.2021
2116 Clouds 20 1028 32 10000 4.63 360 20:37 25.02.2021
2117 Clouds 20 1029 32 10000 5.14 20 20:19 25.02.2021
2118 Clouds 20 1030 37 10000 4.12 20 19:49 25.02.2021
2119 Clouds 19 1031 37 10000 4.63 40 19:21 25.02.2021
2120 Clouds 20 1031 32 10000 5.14 20 18:44 25.02.2021
2121 Clouds 19 1032 34 10000 4.63 30 18:18 25.02.2021
2122 Clouds 19 1033 34 10000 3.09 10 17:42 25.02.2021
2123 Clouds 18 1033 39 10000 3.09 0 17:23 25.02.2021
2124 Clouds 17 1034 45 10000 3.09 0 16:35 25.02.2021
2125 Clouds 17 1034 42 10000 1.03 0 15:55 25.02.2021
2126 Clouds 16 1034 51 10000 1.03 20 15:28 25.02.2021
2127 Clouds 15 1034 55 10000 2.06 90 14:40 25.02.2021
2128 Clouds 15 1034 51 10000 1.03 0 14:21 25.02.2021
2129 Clouds 14 1034 58 10000 1.03 0 13:44 25.02.2021
2130 Clouds 12 1034 66 10000 1.03 90 13:23 25.02.2021
2131 Clouds 9 1033 76 10000 1.54 290 12:39 25.02.2021
2132 Clouds 9 1033 76 10000 1.54 290 12:20 25.02.2021
2133 Rain 8 1021 75 10000 0.75 87 11:43 25.02.2021
2134 Rain 8 1020 75 10000 0.89 76 10:54 25.02.2021
2135 Rain 8 1020 75 10000 0.89 76 10:36 25.02.2021
2136 Rain 8 1020 74 10000 0.63 62 09:50 25.02.2021
2137 Clouds 8 1019 74 10000 0.63 58 09:28 25.02.2021
2138 Clouds 8 1019 74 10000 0.63 58 08:46 25.02.2021
2139 Clouds 8 1019 74 10000 0.67 49 08:21 25.02.2021
2140 Clouds 8 1019 74 10000 0.67 49 07:42 25.02.2021
2141 Clouds 9 1019 72 10000 0.94 19 06:58 25.02.2021
2142 Clouds 10 1021 71 10000 1.67 30 05:29 25.02.2021
2143 Clouds 15 1030 44 10000 4.63 30 01:52 25.02.2021
2144 Clouds 15 1030 44 10000 4.63 30 01:27 25.02.2021
2145 Clouds 16 1030 39 10000 4.63 20 00:33 25.02.2021
2146 Clouds 17 1029 39 10000 6.17 20 23:40 24.02.2021
2147 Clouds 19 1028 34 10000 6.17 20 22:56 24.02.2021
2148 Clouds 19 1029 34 10000 5.14 30 22:30 24.02.2021
2149 Clouds 20 1029 34 10000 4.12 0 21:52 24.02.2021
2150 Clouds 20 1029 34 10000 4.12 0 21:33 24.02.2021
2151 Clouds 18 1030 39 10000 6.17 10 20:50 24.02.2021
2152 Clouds 17 1031 45 10000 2.06 0 20:28 24.02.2021
2153 Clouds 17 1032 39 10000 4.63 20 19:47 24.02.2021
2154 Clouds 20 1032 37 10000 4.63 70 19:21 24.02.2021
2155 Clouds 20 1034 34 10000 6.69 40 18:54 24.02.2021
2156 Clouds 20 1032 40 10000 2.06 0 18:32 24.02.2021
2157 Clouds 17 1033 42 10000 1.54 60 17:45 24.02.2021
2158 Clouds 18 1034 42 10000 0.51 290 17:25 24.02.2021
2159 Clouds 18 1034 48 10000 2.06 360 16:48 24.02.2021
2160 Clouds 18 1034 42 10000 1.03 340 16:21 24.02.2021
2161 Clouds 17 1034 48 10000 1.54 0 15:55 24.02.2021
2162 Clouds 17 1034 48 10000 1.54 0 15:34 24.02.2021
2163 Clouds 15 1035 55 10000 1.03 0 14:50 24.02.2021
2164 Clouds 15 1035 55 10000 1.03 0 14:29 24.02.2021
2165 Clouds 12 1034 62 10000 2.57 90 13:44 24.02.2021
2166 Clouds 11 1034 71 10000 1.03 0 13:24 24.02.2021
2167 Clouds 10 1021 69 10000 1.15 87 12:58 24.02.2021
2168 Clouds 10 1021 69 10000 1.15 87 12:38 24.02.2021
2169 Clouds 7 1021 76 10000 1.09 85 12:20 24.02.2021
2170 Clouds 7 1021 76 10000 1.09 85 11:33 24.02.2021
2171 Clouds 7 1020 75 10000 0.87 83 10:43 24.02.2021
2172 Clouds 7 1019 75 10000 0.76 66 10:24 24.02.2021
2173 Clouds 7 1019 73 10000 0.96 57 09:30 24.02.2021
2174 Clouds 7 1019 74 10000 0.97 55 08:51 24.02.2021
2175 Clouds 7 1019 74 10000 0.97 55 08:32 24.02.2021
2176 Clouds 8 1019 73 10000 1.15 43 07:38 24.02.2021
2177 Clouds 8 1019 70 10000 1.21 40 07:18 24.02.2021
2178 Clouds 9 1021 68 10000 1.99 30 05:26 24.02.2021
2179 Clouds 15 1030 47 10000 1.03 0 02:22 24.02.2021
2180 Clouds 17 1028 39 10000 3.09 30 23:39 23.02.2021
2181 Clouds 18 1027 42 10000 3.09 20 22:50 23.02.2021
2182 Clouds 19 1027 37 10000 4.63 20 22:23 23.02.2021
2183 Clouds 20 1027 34 10000 4.12 340 21:49 23.02.2021
2184 Rain 20 1027 34 10000 4.12 340 21:26 23.02.2021
2185 Clouds 19 1028 37 10000 5.14 110 20:59 23.02.2021
2186 Clouds 19 1028 37 10000 5.14 110 20:38 23.02.2021
2187 Clouds 20 1029 42 10000 1.03 240 20:19 23.02.2021
2188 Clouds 18 1029 48 10000 3.09 270 19:44 23.02.2021
2189 Clouds 18 1030 48 10000 3.6 280 19:26 23.02.2021
2190 Clouds 19 1030 39 10000 1.54 100 18:44 23.02.2021
2191 Clouds 18 1031 48 10000 2.06 90 18:25 23.02.2021
2192 Clouds 16 1032 51 10000 2.06 90 17:52 23.02.2021
2193 Clouds 15 1033 63 10000 3.09 90 17:27 23.02.2021
2194 Clouds 16 1033 55 10000 2.06 60 16:46 23.02.2021
2195 Clouds 14 1033 67 10000 1.03 0 16:24 23.02.2021
2196 Clouds 12 1034 71 10000 1.54 80 15:50 23.02.2021
2197 Clouds 12 1034 71 10000 0.67 44 15:31 23.02.2021
2198 Clouds 12 1034 71 10000 0.23 27 14:55 23.02.2021
2199 Clouds 12 1034 71 10000 0.23 27 14:37 23.02.2021
2200 Clouds 11 1034 82 10000 0.21 40 14:19 23.02.2021
2201 Drizzle 11 1033 82 10000 0.21 40 13:38 23.02.2021
2202 Clouds 10 1033 87 10000 1.54 80 12:59 23.02.2021
2203 Clouds 10 1033 87 10000 1.54 80 12:41 23.02.2021
2204 Clouds 10 1032 81 10000 2.06 90 12:18 23.02.2021
2205 Clouds 7 1020 77 10000 0.6 42 11:45 23.02.2021
2206 Clouds 7 1019 76 10000 0.63 24 11:18 23.02.2021
2207 Clouds 7 1019 77 10000 0.63 24 10:38 23.02.2021
2208 Clouds 7 1018 76 10000 0.94 43 09:59 23.02.2021
2209 Clouds 7 1018 76 10000 0.94 43 09:41 23.02.2021
2210 Clouds 7 1018 75 10000 1.08 42 09:20 23.02.2021
2211 Clouds 7 1018 75 10000 1.08 42 08:45 23.02.2021
2212 Clouds 8 1018 73 10000 1.1 34 08:20 23.02.2021
2213 Clouds 8 1019 73 10000 1.23 24 06:56 23.02.2021
2214 Clouds 9 1019 71 10000 1.73 14 05:25 23.02.2021
2215 Clouds 13 1029 54 10000 4.12 30 02:37 23.02.2021
2216 Clouds 13 1029 54 10000 4.12 30 02:19 23.02.2021
2217 Clouds 16 1028 41 10000 1.54 0 00:19 23.02.2021
2218 Clouds 15 1028 44 10000 4.12 30 23:30 22.02.2021
2219 Clouds 16 1027 44 10000 6.17 20 22:42 22.02.2021
2220 Clouds 15 1027 47 10000 6.17 20 22:22 22.02.2021
2221 Clouds 16 1028 44 10000 2.74 14 21:57 22.02.2021
2222 Clouds 16 1028 44 10000 2.74 14 21:38 22.02.2021
2223 Clouds 16 1028 48 10000 6.17 10 21:19 22.02.2021
2224 Clouds 17 1028 45 10000 7.72 20 20:43 22.02.2021
2225 Clouds 17 1029 45 10000 6.69 10 20:24 22.02.2021
2226 Clouds 17 1029 45 10000 6.17 20 19:44 22.02.2021
2227 Clouds 17 1029 45 10000 6.17 20 19:26 22.02.2021
2228 Clouds 17 1030 42 10000 3.09 20 18:47 22.02.2021
2229 Clouds 18 1030 39 10000 1.54 360 18:29 22.02.2021
2230 Clouds 17 1031 45 10000 0.51 0 17:48 22.02.2021
2231 Clouds 17 1031 42 10000 0.51 0 17:19 22.02.2021
2232 Clouds 16 1032 44 10000 2.06 120 16:48 22.02.2021
2233 Clouds 16 1032 44 10000 1.54 340 16:25 22.02.2021
2234 Clouds 13 1033 62 10000 1.54 150 15:31 22.02.2021
2235 Clouds 13 1032 62 10000 1.54 160 14:50 22.02.2021
2236 Clouds 14 1032 58 10000 0.51 0 14:32 22.02.2021
2237 Clouds 12 1032 71 10000 1.54 110 13:51 22.02.2021
2238 Clouds 10 1031 81 10000 1.54 110 13:31 22.02.2021
2239 Clouds 10 1031 81 10000 2.06 110 12:47 22.02.2021
2240 Clouds 9 1031 87 10000 0.51 0 12:22 22.02.2021
2241 Clouds 9 1018 76 10000 1.18 117 11:51 22.02.2021
2242 Clouds 9 1018 78 10000 1.59 118 11:29 22.02.2021
2243 Clouds 9 1018 78 10000 1.59 118 10:50 22.02.2021
2244 Clouds 9 1017 77 10000 1.06 119 10:32 22.02.2021
2245 Clouds 9 1017 78 10000 1.04 119 09:57 22.02.2021
2246 Clouds 10 1017 78 7609 1.33 81 09:36 22.02.2021
2247 Clouds 9 1017 79 7487 1.33 81 09:18 22.02.2021
2248 Clouds 9 1017 79 7487 1.33 81 08:40 22.02.2021
2249 Clouds 10 1017 77 10000 0.78 87 08:19 22.02.2021
2250 Clouds 10 1018 74 10000 0.32 121 07:28 22.02.2021
2251 Clouds 10 1018 76 10000 1.06 123 06:47 22.02.2021
2252 Clouds 10 1019 72 10000 0.69 53 06:23 22.02.2021
2253 Clouds 11 1019 68 10000 1.4 5 03:49 22.02.2021
2254 Clouds 10 1018 70 10000 1.76 12 02:55 22.02.2021
2255 Clouds 12 1029 58 10000 4.12 360 00:49 22.02.2021
2256 Clouds 12 1029 62 10000 2.57 290 00:26 22.02.2021
2257 Clouds 12 1029 62 10000 1.03 300 23:48 21.02.2021
2258 Clouds 13 1027 54 10000 5.66 360 22:55 21.02.2021
2259 Rain 15 1027 55 10000 7.2 360 22:25 21.02.2021
2260 Clouds 16 1027 55 10000 4.12 350 21:50 21.02.2021
2261 Rain 14 1028 62 10000 6.69 20 21:30 21.02.2021
2262 Clouds 18 1028 42 10000 1.54 360 20:50 21.02.2021
2263 Clouds 18 1029 42 10000 1.03 0 20:21 21.02.2021
2264 Clouds 17 1029 55 10000 2.06 260 19:59 21.02.2021
2265 Clouds 17 1029 55 10000 2.06 260 19:39 21.02.2021
2266 Clouds 16 1030 55 10000 2.06 0 19:20 21.02.2021
2267 Clouds 14 1032 67 10000 1.54 40 18:28 21.02.2021
2268 Clouds 15 1032 55 10000 1.03 0 17:47 21.02.2021
2269 Clouds 14 1033 62 10000 1.54 80 17:21 21.02.2021
2270 Clouds 13 1033 62 10000 0.51 0 16:50 21.02.2021
2271 Drizzle 12 1033 71 10000 1.03 0 16:29 21.02.2021
2272 Rain 10 1034 81 10000 0.51 0 15:26 21.02.2021
2273 Rain 10 1034 76 10000 1.54 110 14:59 21.02.2021
2274 Rain 10 1034 76 10000 1.54 110 14:39 21.02.2021
2275 Rain 9 1033 87 10000 1.54 100 13:59 21.02.2021
2276 Rain 9 1032 81 10000 0.51 150 13:30 21.02.2021
2277 Clouds 9 1032 81 10000 1.03 150 12:50 21.02.2021
2278 Clouds 9 1032 87 10000 1.03 130 12:26 21.02.2021
2279 Clouds 9 1019 76 10000 1.02 39 11:42 21.02.2021
2280 Clouds 9 1019 76 10000 1.23 63 10:50 21.02.2021
2281 Clouds 10 1018 74 10000 1.11 54 10:22 21.02.2021
2282 Clouds 10 1018 74 10000 1.11 54 09:51 21.02.2021
2283 Clouds 9 1018 75 10000 0.89 33 09:26 21.02.2021
2284 Clouds 9 1018 75 10000 0.89 33 08:43 21.02.2021
2285 Clouds 9 1018 75 10000 1.07 47 08:19 21.02.2021
2286 Clouds 10 1018 74 10000 1.4 13 07:28 21.02.2021
2287 Clouds 10 1018 74 10000 1.25 7 06:45 21.02.2021
2288 Clouds 11 1018 72 10000 2.34 33 02:44 21.02.2021
2289 Clouds 13 1029 58 10000 3.09 300 01:59 21.02.2021
2290 Clouds 14 1028 54 10000 3.6 300 00:22 21.02.2021
2291 Clouds 14 1028 54 10000 3.09 320 23:59 20.02.2021
2292 Clouds 14 1028 54 10000 6.17 310 22:58 20.02.2021
2293 Clouds 14 1028 54 10000 6.17 310 22:34 20.02.2021
2294 Clouds 15 1028 55 10000 4.63 20 21:59 20.02.2021
2295 Clouds 15 1028 55 10000 4.63 20 21:41 20.02.2021
2296 Clouds 16 1028 55 10000 5.14 20 21:18 20.02.2021
2297 Clouds 19 1029 42 10000 0.51 0 20:42 20.02.2021
2298 Clouds 16 1029 48 10000 1.03 0 20:20 20.02.2021
2299 Clouds 16 1030 51 10000 1.54 0 19:48 20.02.2021
2300 Clouds 14 1031 58 10000 2.06 340 18:58 20.02.2021
2301 Clouds 14 1031 58 10000 2.06 340 18:37 20.02.2021
2302 Clouds 13 1032 62 10000 4.12 110 18:18 20.02.2021
2303 Clouds 13 1033 62 10000 6.17 110 17:36 20.02.2021
2304 Clouds 13 1033 58 10000 2.57 120 16:54 20.02.2021
2305 Rain 12 1034 66 10000 3.09 110 16:27 20.02.2021
2306 Rain 12 1034 71 10000 2.57 110 15:44 20.02.2021
2307 Clouds 12 1033 66 10000 1.54 90 15:18 20.02.2021
2308 Clouds 12 1033 66 10000 1.03 120 14:43 20.02.2021
2309 Clouds 11 1033 76 10000 2.06 100 14:22 20.02.2021
2310 Clouds 10 1032 81 10000 1.03 110 13:40 20.02.2021
2311 Clouds 10 1032 81 10000 1.03 110 13:22 20.02.2021
2312 Clouds 10 1032 81 10000 1.03 120 12:47 20.02.2021
2313 Clouds 7 1020 78 10000 0.99 146 11:56 20.02.2021
2314 Clouds 7 1020 78 10000 0.99 146 11:38 20.02.2021
2315 Clouds 8 1019 77 10000 1.75 169 10:55 20.02.2021
2316 Clouds 7 1019 78 9800 1.78 169 10:32 20.02.2021
2317 Clouds 8 1019 78 10000 2.13 175 09:48 20.02.2021
2318 Rain 8 1018 77 9826 2.17 179 09:18 20.02.2021
2319 Clouds 8 1018 77 9826 2.17 179 08:31 20.02.2021
2320 Clouds 8 1019 77 10000 2.27 178 07:54 20.02.2021
2321 Rain 11 1018 72 10000 2.24 7 02:45 20.02.2021
2322 Rain 12 1029 66 10000 3.6 290 02:21 20.02.2021
2323 Clouds 12 1029 66 10000 3.6 290 01:22 20.02.2021
2324 Rain 12 1029 66 10000 4.63 290 00:45 20.02.2021
2325 Clouds 12 1028 66 10000 6.69 290 23:45 19.02.2021
2326 Clouds 13 1027 62 9000 3.28 9 22:56 19.02.2021
2327 Clouds 17 1027 42 10000 4.12 100 22:26 19.02.2021
2328 Clouds 18 1027 42 10000 6.69 110 21:48 19.02.2021
2329 Clouds 18 1027 42 10000 3.6 140 21:28 19.02.2021
2330 Clouds 19 1027 34 10000 2.57 110 20:47 19.02.2021
2331 Clouds 18 1027 42 10000 2.57 10 20:27 19.02.2021
2332 Clouds 17 1028 39 10000 2.06 360 19:55 19.02.2021
2333 Clouds 17 1029 51 10000 3.09 340 19:24 19.02.2021
2334 Clouds 17 1029 45 10000 3.09 310 18:56 19.02.2021
2335 Clouds 17 1029 45 10000 3.09 310 18:33 19.02.2021
2336 Clouds 17 1030 42 10000 1.54 280 17:49 19.02.2021
2337 Clouds 17 1030 42 10000 1.54 280 16:52 19.02.2021
2338 Clouds 14 1031 58 10000 3.6 290 16:27 19.02.2021
2339 Clouds 15 1031 55 10000 4.12 280 15:57 19.02.2021
2340 Clouds 15 1031 55 10000 4.12 280 15:57 19.02.2021
2341 Clouds 15 1031 55 10000 4.12 280 15:31 19.02.2021
2342 Clouds 12 1032 71 10000 1.54 100 14:56 19.02.2021
2343 Clouds 12 1032 71 10000 1.54 100 14:36 19.02.2021
2344 Clouds 10 1031 76 10000 2.06 110 13:58 19.02.2021
2345 Clouds 10 1031 76 10000 2.06 110 13:37 19.02.2021
2346 Clouds 10 1031 76 10000 2.06 100 13:19 19.02.2021
2347 Clouds 10 1030 76 10000 1.44 210 12:41 19.02.2021
2348 Clouds 8 1019 84 10000 1.14 210 12:22 19.02.2021
2349 Clouds 8 1019 84 10000 1.14 210 11:44 19.02.2021
2350 Clouds 8 1018 82 10000 1.22 189 11:20 19.02.2021
2351 Clouds 8 1018 82 10000 1.22 189 10:39 19.02.2021
2352 Clouds 9 1017 79 10000 1.46 177 10:19 19.02.2021
2353 Clouds 9 1017 79 10000 1.46 177 09:38 19.02.2021
2354 Clouds 9 1017 77 10000 1.44 175 09:19 19.02.2021
2355 Clouds 9 1017 77 10000 1.44 175 08:49 19.02.2021
2356 Clouds 11 1017 76 10000 0.79 165 08:22 19.02.2021
2357 Clouds 11 1017 76 10000 0.79 165 07:47 19.02.2021
2358 Clouds 11 1018 77 10000 0.36 255 07:26 19.02.2021
2359 Clouds 11 1018 79 10000 1.24 283 06:47 19.02.2021
2360 Clouds 11 1019 77 10000 0.99 101 04:44 19.02.2021
2361 Clouds 11 1019 78 10000 0.28 41 04:25 19.02.2021
2362 Clouds 13 1028 58 10000 2.06 320 01:46 19.02.2021
2363 Clouds 12 1027 58 10000 2.06 300 00:36 19.02.2021
2364 Clouds 14 1027 51 10000 4.12 290 23:50 18.02.2021
2365 Clouds 14 1027 51 10000 4.12 290 23:32 18.02.2021
2366 Clouds 15 1027 44 10000 4.63 290 22:44 18.02.2021
2367 Clouds 14 1027 54 10000 6.69 290 22:26 18.02.2021
2368 Clouds 19 1028 39 10000 7.2 290 21:42 18.02.2021
2369 Clouds 15 1028 51 10000 6.69 290 21:24 18.02.2021
2370 Rain 16 1029 44 10000 4.63 300 20:41 18.02.2021
2371 Rain 15 1029 44 10000 5.66 280 20:21 18.02.2021
2372 Clouds 15 1029 41 10000 6.17 280 19:46 18.02.2021
2373 Clouds 16 1029 36 10000 2.57 340 19:25 18.02.2021
2374 Rain 15 1029 36 10000 2.06 350 18:52 18.02.2021
2375 Clouds 16 1029 41 10000 1.54 0 18:27 18.02.2021
2376 Clouds 16 1030 39 10000 1.03 150 17:52 18.02.2021
2377 Clouds 16 1030 44 10000 1.7 170 17:25 18.02.2021
2378 Clouds 15 1030 38 10000 2.57 110 16:52 18.02.2021
2379 Clouds 15 1030 38 10000 2.57 110 16:34 18.02.2021
2380 Clouds 14 1031 44 10000 1.03 270 15:44 18.02.2021
2381 Clouds 13 1031 50 10000 1.54 0 15:24 18.02.2021
2382 Clouds 13 1031 62 10000 1.55 159 14:58 18.02.2021
2383 Clouds 13 1031 62 10000 1.55 159 14:36 18.02.2021
2384 Clouds 11 1030 66 10000 1.03 110 13:58 18.02.2021
2385 Clouds 11 1030 66 10000 1.03 110 13:40 18.02.2021
2386 Clouds 11 1030 76 10000 1.54 110 13:18 18.02.2021
2387 Clouds 11 1030 76 10000 1.03 80 12:41 18.02.2021
2388 Clouds 10 1029 81 10000 1.38 148 12:18 18.02.2021
2389 Rain 8 1019 82 10000 1.38 148 11:46 18.02.2021
2390 Rain 8 1018 83 10000 2.14 148 11:25 18.02.2021
2391 Clouds 8 1018 83 10000 2.14 148 10:44 18.02.2021
2392 Clouds 8 1018 84 10000 2.78 152 10:25 18.02.2021
2393 Clouds 8 1018 84 10000 2.78 152 09:39 18.02.2021
2394 Clouds 8 1017 74 10000 2.41 155 09:20 18.02.2021
2395 Clouds 8 1017 74 10000 2.41 155 08:39 18.02.2021
2396 Clouds 9 1018 75 10000 1.54 167 08:20 18.02.2021
2397 Rain 9 1018 75 10000 1.54 167 07:31 18.02.2021
2398 Rain 10 1018 73 10000 0.8 221 06:40 18.02.2021
2399 Clouds 13 1026 62 10000 0.51 0 02:21 18.02.2021
2400 Clouds 16 1025 48 10000 1.03 300 23:49 17.02.2021
2401 Clouds 15 1025 51 10000 1.54 280 23:20 17.02.2021
2402 Clouds 14 1025 54 10000 1.03 0 22:46 17.02.2021
2403 Clouds 14 1026 58 10000 3.09 280 22:22 17.02.2021
2404 Clouds 13 1027 62 10000 1.54 290 21:48 17.02.2021
2405 Clouds 12 1027 62 10000 5.14 360 21:22 17.02.2021
2406 Clouds 12 1027 62 10000 9.77 290 20:47 17.02.2021
2407 Clouds 15 1026 55 10000 7.2 300 20:28 17.02.2021
2408 Clouds 17 1026 42 10000 1.54 310 19:46 17.02.2021
2409 Clouds 18 1027 45 10000 4.12 260 19:27 17.02.2021
2410 Clouds 19 1027 34 10000 1.03 330 18:41 17.02.2021
2411 Clouds 17 1028 42 10000 2.57 250 18:22 17.02.2021
2412 Clouds 18 1029 42 10000 1.54 0 17:40 17.02.2021
2413 Clouds 16 1029 44 10000 1.03 0 17:18 17.02.2021
2414 Clouds 17 1030 42 10000 1.54 0 16:43 17.02.2021
2415 Clouds 16 1030 48 10000 1.03 0 16:22 17.02.2021
2416 Clouds 14 1030 58 10000 1.54 0 15:44 17.02.2021
2417 Clouds 14 1030 58 10000 1.54 0 15:44 17.02.2021
2418 Clouds 14 1031 54 10000 0.51 160 15:23 17.02.2021
2419 Clouds 12 1031 62 10000 1.03 0 14:46 17.02.2021
2420 Clouds 11 1031 76 10000 2.06 80 14:28 17.02.2021
2421 Clouds 10 1031 76 10000 1.03 0 13:45 17.02.2021
2422 Clouds 9 1030 81 10000 2.06 110 13:27 17.02.2021
2423 Clouds 8 1030 87 10000 1.54 110 12:47 17.02.2021
2424 Clouds 8 1030 87 10000 2.06 120 12:23 17.02.2021
2425 Clouds 9 1017 74 10000 0.84 151 11:42 17.02.2021
2426 Clouds 9 1017 73 10000 0.73 254 11:19 17.02.2021
2427 Clouds 9 1017 73 10000 0.73 254 10:45 17.02.2021
2428 Clouds 9 1017 74 10000 1.14 301 10:25 17.02.2021
2429 Clouds 9 1017 74 10000 1.14 301 09:45 17.02.2021
2430 Clouds 8 1017 75 10000 1.42 299 09:25 17.02.2021
2431 Clouds 8 1017 75 10000 1.42 299 08:43 17.02.2021
2432 Clouds 8 1017 75 10000 1.57 307 08:22 17.02.2021
2433 Clouds 8 1017 75 10000 1.5 297 07:34 17.02.2021
2434 Clouds 9 1018 72 10000 1.74 303 06:35 17.02.2021
2435 Clouds 10 1017 70 10000 2.33 337 02:42 17.02.2021
2436 Clouds 15 1025 41 10000 2.06 280 02:21 17.02.2021
2437 Clouds 16 1024 33 10000 6.17 290 00:33 17.02.2021
2438 Clouds 19 1023 32 10000 5.66 290 23:57 16.02.2021
2439 Clouds 19 1023 32 10000 5.66 290 23:38 16.02.2021
2440 Clouds 21 1023 43 10000 3.09 310 22:44 16.02.2021
2441 Clouds 21 1023 43 10000 3.09 310 22:25 16.02.2021
2442 Clouds 21 1023 43 10000 3.09 310 22:25 16.02.2021
2443 Clouds 21 1024 23 10000 1.03 50 21:57 16.02.2021
2444 Clouds 21 1024 23 10000 1.03 50 21:39 16.02.2021
2445 Clouds 21 1025 23 10000 2.06 0 21:20 16.02.2021
2446 Clouds 20 1026 30 10000 2.06 300 20:42 16.02.2021
2447 Clouds 18 1027 32 10000 4.12 330 20:20 16.02.2021
2448 Clouds 19 1027 30 10000 3.6 310 19:44 16.02.2021
2449 Clouds 19 1029 32 10000 3.6 300 19:25 16.02.2021
2450 Clouds 18 1029 42 10000 4.12 320 18:41 16.02.2021
2451 Clouds 17 1029 36 10000 4.63 340 18:22 16.02.2021
2452 Clouds 17 1030 39 10000 4.63 300 17:53 16.02.2021
2453 Clouds 17 1030 42 10000 3.6 280 17:27 16.02.2021
2454 Clouds 17 1030 34 10000 1.54 0 16:52 16.02.2021
2455 Clouds 17 1030 34 10000 1.54 0 16:52 16.02.2021
2456 Clouds 16 1030 48 10000 2.06 310 16:30 16.02.2021
2457 Clouds 16 1031 41 10000 2.57 300 15:53 16.02.2021
2458 Clouds 16 1031 51 10000 1.03 50 15:32 16.02.2021
2459 Clouds 15 1031 47 10000 1.03 0 14:57 16.02.2021
2460 Clouds 15 1031 47 10000 1.03 0 14:38 16.02.2021
2461 Clouds 14 1031 54 10000 1.37 201 14:19 16.02.2021
2462 Clouds 12 1031 62 10000 0.51 0 13:38 16.02.2021
2463 Clouds 7 1030 87 10000 1.54 280 12:52 16.02.2021
2464 Clouds 6 1030 87 10000 0.51 290 12:29 16.02.2021
2465 Clouds 8 1018 76 10000 1.06 228 11:58 16.02.2021
2466 Clouds 8 1018 76 10000 1.06 228 11:38 16.02.2021
2467 Clouds 8 1018 75 10000 1.13 209 11:19 16.02.2021
2468 Clouds 8 1018 75 10000 1.13 209 10:45 16.02.2021
2469 Clouds 9 1017 74 10000 0.78 187 10:26 16.02.2021
2470 Clouds 9 1017 74 10000 0.78 187 09:50 16.02.2021
2471 Clouds 9 1017 72 10000 0.14 96 09:26 16.02.2021
2472 Clouds 9 1017 72 10000 0.14 96 08:51 16.02.2021
2473 Clouds 10 1017 71 10000 0.73 11 08:26 16.02.2021
2474 Clouds 9 1017 71 10000 0.75 7 07:42 16.02.2021
2475 Rain 9 1018 71 10000 0.78 56 06:49 16.02.2021
2476 Clouds 14 1027 58 10000 4.63 110 02:38 16.02.2021
2477 Clouds 16 1025 51 10000 5.66 110 23:52 15.02.2021
2478 Clouds 17 1025 48 10000 5.14 110 23:27 15.02.2021
2479 Clouds 18 1024 34 10000 3.09 120 22:47 15.02.2021
2480 Clouds 19 1024 30 10000 2.57 120 22:27 15.02.2021
2481 Clouds 19 1025 37 10000 2.57 80 21:44 15.02.2021
2482 Clouds 18 1026 42 10000 2.57 290 21:24 15.02.2021
2483 Clouds 19 1026 39 10000 1.54 310 20:54 15.02.2021
2484 Clouds 19 1026 39 10000 1.54 310 20:36 15.02.2021
2485 Clouds 18 1027 39 10000 3.6 110 19:51 15.02.2021
2486 Clouds 18 1028 34 10000 1.03 0 19:26 15.02.2021
2487 Clouds 18 1029 36 10000 2.36 253 18:54 15.02.2021
2488 Clouds 17 1029 42 10000 1.54 250 18:27 15.02.2021
2489 Clouds 17 1030 39 10000 2.06 0 17:58 15.02.2021
2490 Clouds 17 1030 39 10000 2.06 0 17:40 15.02.2021
2491 Clouds 17 1030 45 10000 1.88 238 17:20 15.02.2021
2492 Clouds 16 1031 48 10000 1.54 70 16:42 15.02.2021
2493 Clouds 15 1031 51 10000 2.06 90 16:21 15.02.2021
2494 Clouds 14 1031 54 10000 1.03 0 15:42 15.02.2021
2495 Clouds 14 1031 54 10000 1.03 0 15:19 15.02.2021
2496 Clouds 13 1031 62 10000 1.12 255 14:44 15.02.2021
2497 Clouds 10 1031 81 10000 2.06 100 14:20 15.02.2021
2498 Clouds 10 1031 81 10000 1.03 140 13:49 15.02.2021
2499 Clouds 8 1030 87 10000 1.54 290 13:20 15.02.2021
2500 Clouds 9 1030 81 10000 1.54 280 12:47 15.02.2021
2501 Clouds 8 1030 87 10000 2.06 280 12:25 15.02.2021
2502 Clouds 8 1018 76 10000 0.91 251 11:51 15.02.2021
2503 Clouds 9 1017 75 10000 1.15 271 11:26 15.02.2021
2504 Clouds 9 1017 75 10000 1.15 271 10:50 15.02.2021
2505 Clouds 9 1017 75 10000 1.15 271 10:30 15.02.2021
2506 Clouds 9 1017 73 10000 1.66 279 09:59 15.02.2021
2507 Clouds 9 1017 73 10000 1.66 279 09:41 15.02.2021
2508 Clouds 9 1017 73 10000 0.67 297 09:22 15.02.2021
2509 Clouds 9 1017 73 10000 0.8 278 08:21 15.02.2021
2510 Clouds 10 1017 70 10000 1.24 299 07:18 15.02.2021
2511 Clouds 10 1017 70 10000 1.24 299 06:41 15.02.2021
2512 Clouds 11 1016 68 10000 1.15 339 02:52 15.02.2021
2513 Clouds 12 1029 62 10000 1.54 60 02:20 15.02.2021
2514 Rain 12 1028 62 10000 4.12 130 23:59 14.02.2021
2515 Clouds 12 1027 58 10000 9.26 100 23:25 14.02.2021
2516 Clouds 19 1024 39 10000 5.66 280 22:46 14.02.2021
2517 Clouds 19 1024 39 10000 5.66 280 22:23 14.02.2021
2518 Clouds 21 1024 28 10000 2.57 0 21:51 14.02.2021
2519 Clouds 21 1025 37 10000 4.12 300 21:29 14.02.2021
2520 Clouds 21 1025 37 10000 4.12 300 21:29 14.02.2021
2521 Clouds 20 1025 42 10000 4.12 310 20:53 14.02.2021
2522 Clouds 19 1026 37 10000 4.12 300 20:30 14.02.2021
2523 Clouds 19 1027 39 10000 5.14 300 19:49 14.02.2021
2524 Clouds 19 1028 37 10000 2.57 240 19:28 14.02.2021
2525 Clouds 18 1029 45 10000 1.54 290 18:42 14.02.2021
2526 Clouds 17 1029 48 10000 3.09 280 18:21 14.02.2021
2527 Clouds 16 1030 51 10000 3.09 280 17:40 14.02.2021
2528 Clouds 16 1030 51 10000 0.51 330 16:57 14.02.2021
2529 Clouds 16 1030 51 10000 0.51 330 16:38 14.02.2021
2530 Clouds 16 1031 51 10000 0.51 220 16:18 14.02.2021
2531 Clouds 15 1031 51 10000 1.54 100 15:41 14.02.2021
2532 Clouds 13 1031 67 10000 0.51 240 14:58 14.02.2021
2533 Clouds 11 1031 76 10000 1.54 280 14:29 14.02.2021
2534 Clouds 11 1031 76 10000 1.23 190 13:56 14.02.2021
2535 Clouds 11 1031 76 10000 1.05 183 13:31 14.02.2021
2536 Clouds 8 1030 81 10000 2.57 110 12:45 14.02.2021
2537 Clouds 7 1030 87 10000 2.06 120 12:21 14.02.2021
2538 Clouds 7 1018 78 10000 0.36 197 11:51 14.02.2021
2539 Clouds 8 1018 77 10000 0.52 163 11:24 14.02.2021
2540 Clouds 7 1017 78 10000 0.52 166 10:49 14.02.2021
2541 Clouds 7 1017 78 10000 0.73 213 09:57 14.02.2021
2542 Clouds 7 1017 78 10000 0.73 213 09:38 14.02.2021
2543 Clouds 8 1016 77 10000 0.95 199 09:20 14.02.2021
2544 Clouds 8 1016 77 10000 0.95 199 08:40 14.02.2021
2545 Clouds 8 1017 76 10000 0.84 190 07:56 14.02.2021
2546 Clouds 9 1018 75 10000 2.42 146 06:51 14.02.2021
2547 Rain 9 1018 74 10000 1.68 107 05:42 14.02.2021
2548 Rain 10 1018 78 6120 2.71 189 03:32 14.02.2021
2549 Clouds 14 1027 62 10000 1.03 0 02:21 14.02.2021
2550 Clouds 14 1026 62 10000 2.06 70 00:47 14.02.2021
2551 Clouds 15 1026 55 10000 3.09 110 00:26 14.02.2021
2552 Clouds 14 1025 62 10000 4.63 110 23:41 13.02.2021
2553 Clouds 17 1025 48 10000 2.06 20 23:20 13.02.2021
2554 Clouds 18 1025 39 10000 1.54 280 22:42 13.02.2021
2555 Clouds 19 1025 42 10000 3.09 310 22:19 13.02.2021
2556 Clouds 17 1025 45 10000 4.12 280 21:42 13.02.2021
2557 Clouds 18 1026 42 10000 1.03 0 20:54 13.02.2021
2558 Clouds 18 1027 42 10000 1.03 290 20:30 13.02.2021
2559 Clouds 18 1027 42 10000 1.03 290 20:30 13.02.2021
2560 Clouds 17 1028 48 10000 0.51 0 19:55 13.02.2021
2561 Clouds 17 1028 48 10000 0.51 0 19:37 13.02.2021
2562 Clouds 15 1029 55 10000 2.57 0 19:18 13.02.2021
2563 Clouds 15 1030 58 10000 3.6 90 18:38 13.02.2021
2564 Clouds 13 1032 62 10000 2.13 266 17:57 13.02.2021
2565 Clouds 13 1032 62 10000 2.13 266 17:38 13.02.2021
2566 Clouds 12 1032 62 10000 1.03 0 17:19 13.02.2021
2567 Clouds 12 1033 66 10000 0.51 220 16:42 13.02.2021
2568 Clouds 9 1033 71 10000 2.06 100 16:18 13.02.2021
2569 Rain 9 1033 76 10000 1.54 110 15:29 13.02.2021
2570 Clouds 8 1033 81 10000 1.03 100 14:50 13.02.2021
2571 Clouds 8 1033 81 8000 0.51 70 14:30 13.02.2021
2572 Clouds 7 1033 87 10000 1.03 110 13:44 13.02.2021
2573 Clouds 7 1033 87 5000 1.54 100 13:24 13.02.2021
2574 Clouds 7 1032 81 10000 2.06 290 12:41 13.02.2021
2575 Clouds 8 1018 80 6938 2.23 270 12:18 13.02.2021
2576 Clouds 8 1018 80 6938 2.23 270 11:41 13.02.2021
2577 Clouds 9 1018 80 6285 1.62 262 11:19 13.02.2021
2578 Rain 9 1018 80 6285 1.62 262 10:44 13.02.2021
2579 Clouds 10 1017 78 8585 1.07 241 10:23 13.02.2021
2580 Rain 10 1017 78 8585 1.07 241 09:52 13.02.2021
2581 Rain 10 1017 75 10000 0.99 233 09:29 13.02.2021
2582 Clouds 10 1017 75 10000 0.99 233 08:53 13.02.2021
2583 Clouds 10 1017 75 10000 0.99 233 08:30 13.02.2021
2584 Clouds 10 1017 74 10000 0.47 257 07:45 13.02.2021
2585 Clouds 10 1018 73 10000 0.49 293 06:35 13.02.2021
2586 Clouds 10 1019 74 10000 1.61 5 05:19 13.02.2021
2587 Clouds 10 1019 74 10000 2.15 15 03:46 13.02.2021
2588 Clouds 14 1027 58 10000 1.54 350 01:31 13.02.2021
2589 Clouds 14 1026 54 10000 4.12 30 00:19 13.02.2021
2590 Clouds 14 1026 54 10000 4.12 30 23:46 12.02.2021
2591 Clouds 14 1026 62 10000 3.6 20 23:20 12.02.2021
2592 Drizzle 13 1026 67 10000 4.12 10 22:38 12.02.2021
2593 Clouds 16 1026 51 10000 4.63 20 22:18 12.02.2021
2594 Clouds 17 1026 45 10000 5.14 290 21:42 12.02.2021
2595 Clouds 15 1026 63 10000 2.57 360 21:23 12.02.2021
2596 Clouds 16 1026 51 10000 4.12 10 20:45 12.02.2021
2597 Clouds 17 1027 45 10000 4.12 20 20:26 12.02.2021
2598 Clouds 19 1027 45 10000 1.54 0 19:55 12.02.2021
2599 Clouds 17 1027 45 10000 4.12 10 19:30 12.02.2021
2600 Clouds 19 1028 42 10000 2.06 50 18:44 12.02.2021
2601 Clouds 17 1028 39 10000 1.54 160 18:25 12.02.2021
2602 Clouds 17 1029 45 10000 1.54 100 17:41 12.02.2021
2603 Clouds 15 1030 55 10000 0.51 270 16:56 12.02.2021
2604 Clouds 14 1030 54 10000 0.51 330 16:21 12.02.2021
2605 Clouds 14 1031 58 10000 0.51 0 15:44 12.02.2021
2606 Clouds 13 1031 62 10000 0.51 0 15:20 12.02.2021
2607 Clouds 13 1031 67 10000 1.03 0 14:39 12.02.2021
2608 Clouds 11 1030 71 10000 0.51 360 13:56 12.02.2021
2609 Clouds 11 1030 71 10000 0.51 360 13:37 12.02.2021
2610 Clouds 9 1029 81 10000 2.57 290 12:55 12.02.2021
2611 Clouds 9 1029 81 10000 2.57 290 12:36 12.02.2021
2612 Clouds 9 1016 77 10000 0.6 287 11:49 12.02.2021
2613 Clouds 9 1016 76 10000 0.59 270 11:26 12.02.2021
2614 Clouds 9 1016 76 10000 0.59 270 10:52 12.02.2021
2615 Clouds 9 1016 76 10000 0.59 270 10:34 12.02.2021
2616 Clouds 9 1015 76 10000 0.74 268 09:44 12.02.2021
2617 Clouds 9 1015 76 10000 1.09 282 09:24 12.02.2021
2618 Clouds 8 1015 76 10000 1.09 279 08:48 12.02.2021
2619 Clouds 9 1015 76 10000 1.05 299 08:27 12.02.2021
2620 Clouds 9 1015 76 10000 1.05 299 07:53 12.02.2021
2621 Clouds 9 1016 74 10000 1.21 301 07:28 12.02.2021
2622 Clouds 9 1016 74 10000 1.21 301 06:54 12.02.2021
2623 Clouds 11 1017 69 10000 1.08 320 05:39 12.02.2021
2624 Clouds 11 1017 70 10000 1.22 27 03:48 12.02.2021
2625 Rain 15 1026 55 10000 2.57 120 00:47 12.02.2021
2626 Rain 14 1025 67 10000 2.57 270 23:40 11.02.2021
2627 Drizzle 14 1024 62 10000 3.6 270 23:22 11.02.2021
2628 Clouds 15 1024 63 10000 2.06 270 22:45 11.02.2021
2629 Clouds 19 1023 45 10000 3.09 100 22:24 11.02.2021
2630 Clouds 20 1023 34 10000 1.54 0 21:46 11.02.2021
2631 Clouds 21 1023 35 10000 5.14 350 21:26 11.02.2021
2632 Clouds 21 1024 32 10000 4.12 10 20:59 11.02.2021
2633 Clouds 21 1024 32 10000 4.12 10 20:40 11.02.2021
2634 Clouds 21 1024 35 10000 1.54 0 20:21 11.02.2021
2635 Clouds 20 1025 34 10000 3.6 300 19:47 11.02.2021
2636 Clouds 20 1026 34 10000 1.54 220 19:27 11.02.2021
2637 Clouds 20 1027 40 10000 1.03 110 18:47 11.02.2021
2638 Clouds 19 1027 37 10000 2.06 70 18:25 11.02.2021
2639 Clouds 19 1028 42 10000 2.06 350 17:50 11.02.2021
2640 Clouds 18 1028 45 10000 2.06 0 17:22 11.02.2021
2641 Clouds 18 1029 42 10000 1.03 0 16:49 11.02.2021
2642 Clouds 16 1029 51 10000 1.03 10 16:30 11.02.2021
2643 Clouds 15 1029 63 10000 1.03 0 15:48 11.02.2021
2644 Clouds 15 1029 63 10000 1.03 0 15:29 11.02.2021
2645 Clouds 14 1029 58 10000 1.03 0 14:58 11.02.2021
2646 Clouds 14 1029 58 10000 1.03 0 14:32 11.02.2021
2647 Clouds 9 1029 87 10000 1.03 110 13:45 11.02.2021
2648 Clouds 10 1029 81 10000 1.54 100 13:21 11.02.2021
2649 Clouds 9 1029 87 10000 0.51 120 12:58 11.02.2021
2650 Clouds 9 1029 87 10000 0.51 120 12:36 11.02.2021
2651 Clouds 9 1016 76 10000 0.53 228 11:57 11.02.2021
2652 Clouds 9 1016 76 10000 0.53 228 11:57 11.02.2021
2653 Clouds 9 1016 76 10000 0.53 228 11:39 11.02.2021
2654 Clouds 9 1016 77 10000 0.62 320 11:18 11.02.2021
2655 Clouds 9 1016 77 10000 0.62 320 10:39 11.02.2021
2656 Clouds 9 1016 76 10000 1.1 291 10:21 11.02.2021
2657 Clouds 9 1016 76 10000 1.1 291 09:42 11.02.2021
2658 Clouds 9 1016 75 10000 0.91 307 09:19 11.02.2021
2659 Clouds 9 1016 75 10000 0.91 307 09:19 11.02.2021
2660 Clouds 9 1016 75 10000 0.91 307 08:49 11.02.2021
2661 Clouds 9 1016 75 10000 0.78 30 07:54 11.02.2021
2662 Clouds 9 1016 76 10000 0.69 19 06:48 11.02.2021
2663 Clouds 9 1017 79 10000 1.88 121 06:25 11.02.2021
2664 Clouds 11 1017 76 10000 0.49 83 03:48 11.02.2021
2665 Drizzle 10 1027 76 10000 2.06 0 02:28 11.02.2021
2666 Rain 9 1027 87 8000 8.23 290 00:36 11.02.2021
2667 Rain 10 1028 81 8000 1.54 10 00:18 11.02.2021
2668 Rain 10 1028 81 8000 3.6 140 23:35 10.02.2021
2669 Rain 14 1025 67 10000 2.57 70 22:48 10.02.2021
2670 Rain 14 1025 62 10000 2.06 10 22:25 10.02.2021
2671 Rain 13 1025 67 10000 0.51 80 21:41 10.02.2021
2672 Rain 13 1024 62 10000 2.57 120 21:22 10.02.2021
2673 Rain 12 1025 76 10000 5.14 110 20:59 10.02.2021
2674 Rain 12 1025 76 10000 5.14 110 20:39 10.02.2021
2675 Drizzle 17 1024 42 10000 4.12 210 20:19 10.02.2021
2676 Clouds 20 1024 32 10000 1.03 280 19:42 10.02.2021
2677 Clouds 21 1025 40 10000 4.12 280 19:21 10.02.2021
2678 Clouds 21 1026 32 10000 1.54 0 18:39 10.02.2021
2679 Clouds 20 1027 37 10000 2.06 0 18:18 10.02.2021
2680 Clouds 19 1028 37 10000 1.03 350 17:49 10.02.2021
2681 Clouds 19 1028 45 10000 1.03 230 17:21 10.02.2021
2682 Clouds 18 1029 36 10000 1.03 20 16:49 10.02.2021
2683 Clouds 17 1029 51 10000 0.96 163 16:29 10.02.2021
2684 Clouds 17 1030 48 10000 1.03 0 15:44 10.02.2021
2685 Clouds 15 1030 55 10000 1.09 175 15:21 10.02.2021
2686 Clouds 14 1030 58 10000 1.03 30 14:41 10.02.2021
2687 Clouds 13 1030 62 10000 1.54 0 14:18 10.02.2021
2688 Clouds 13 1030 67 10000 1.03 0 13:40 10.02.2021
2689 Clouds 10 1030 76 10000 1.03 280 13:21 10.02.2021
2690 Clouds 9 1029 81 10000 2.57 290 12:44 10.02.2021
2691 Clouds 8 1029 81 10000 0.74 199 12:26 10.02.2021
2692 Clouds 9 1016 76 10000 0.78 198 11:41 10.02.2021
2693 Clouds 9 1016 76 10000 0.9 211 11:23 10.02.2021
2694 Clouds 9 1016 76 10000 0.9 211 10:43 10.02.2021
2695 Clouds 9 1016 76 10000 1.09 220 10:19 10.02.2021
2696 Clouds 10 1016 76 10000 1.04 220 09:43 10.02.2021
2697 Clouds 10 1016 76 10000 1.29 213 09:21 10.02.2021
2698 Clouds 9 1016 77 10000 1.33 213 08:43 10.02.2021
2699 Clouds 9 1016 77 10000 1.5 211 07:55 10.02.2021
2700 Clouds 10 1017 78 10000 1.77 200 07:18 10.02.2021
2701 Rain 11 1018 78 9200 1.1 164 03:45 10.02.2021
2702 Rain 15 1027 58 10000 4.63 290 00:51 10.02.2021
2703 Clouds 16 1025 55 10000 5.14 290 23:37 09.02.2021
2704 Clouds 17 1024 42 10000 3.6 290 22:56 09.02.2021
2705 Clouds 18 1025 42 10000 0.51 0 22:25 09.02.2021
2706 Clouds 17 1025 45 10000 2.57 120 21:54 09.02.2021
2707 Clouds 17 1025 45 10000 2.57 120 21:35 09.02.2021
2708 Clouds 16 1026 51 10000 3.09 100 20:59 09.02.2021
2709 Clouds 16 1026 51 10000 3.09 100 20:40 09.02.2021
2710 Clouds 16 1027 51 10000 7.72 110 20:20 09.02.2021
2711 Clouds 17 1028 55 10000 4.63 90 19:39 09.02.2021
2712 Clouds 18 1028 45 10000 4.63 100 19:18 09.02.2021
2713 Clouds 18 1029 42 10000 2.57 80 18:41 09.02.2021
2714 Clouds 17 1030 51 10000 3.09 100 17:58 09.02.2021
2715 Clouds 17 1030 51 10000 3.09 100 17:40 09.02.2021
2716 Clouds 16 1031 51 10000 0.51 50 17:22 09.02.2021
2717 Clouds 15 1031 58 10000 1.03 0 16:47 09.02.2021
2718 Clouds 14 1031 54 10000 1.03 0 16:19 09.02.2021
2719 Clouds 13 1032 62 10000 1.03 20 15:50 09.02.2021
2720 Clouds 12 1032 71 10000 1.03 0 15:27 09.02.2021
2721 Clouds 11 1032 76 10000 1.54 80 14:56 09.02.2021
2722 Clouds 11 1031 76 10000 2.06 100 14:28 09.02.2021
2723 Clouds 10 1031 81 10000 1.54 80 13:53 09.02.2021
2724 Clouds 10 1031 81 10000 1.03 110 13:28 09.02.2021
2725 Clouds 9 1031 87 10000 1.54 100 12:54 09.02.2021
2726 Clouds 9 1031 87 10000 1.54 100 12:36 09.02.2021
2727 Clouds 10 1018 74 10000 1.27 23 11:59 09.02.2021
2728 Clouds 10 1018 74 10000 1.27 23 11:59 09.02.2021
2729 Clouds 10 1018 74 10000 1.27 23 11:40 09.02.2021
2730 Clouds 9 1017 74 10000 0.97 8 11:20 09.02.2021
2731 Clouds 9 1017 74 10000 0.97 8 10:50 09.02.2021
2732 Clouds 9 1017 75 10000 0.73 13 10:19 09.02.2021
2733 Clouds 9 1017 75 10000 0.73 13 09:43 09.02.2021
2734 Clouds 9 1016 75 10000 0.67 36 09:25 09.02.2021
2735 Clouds 9 1016 75 10000 0.67 36 08:51 09.02.2021
2736 Clouds 9 1017 75 10000 0.65 24 08:27 09.02.2021
2737 Clouds 9 1018 74 10000 0.77 351 07:29 09.02.2021
2738 Clouds 10 1019 75 10000 1.09 356 04:55 09.02.2021
2739 Clouds 10 1018 75 10000 0.93 346 03:42 09.02.2021
2740 Clouds 15 1028 55 10000 1.54 0 00:44 09.02.2021
2741 Clouds 16 1027 51 10000 3.09 270 23:57 08.02.2021
2742 Clouds 15 1027 55 10000 3.09 290 23:22 08.02.2021
2743 Clouds 15 1027 58 10000 5.14 280 22:45 08.02.2021
2744 Clouds 16 1027 55 10000 0.51 300 22:26 08.02.2021
2745 Clouds 17 1028 55 10000 2.06 100 21:58 08.02.2021
2746 Clouds 17 1028 55 10000 2.06 100 21:36 08.02.2021
2747 Clouds 15 1029 63 10000 2.06 90 21:18 08.02.2021
2748 Clouds 16 1029 51 10000 1.54 50 20:42 08.02.2021
2749 Clouds 15 1030 58 10000 2.06 90 20:21 08.02.2021
2750 Clouds 16 1031 51 10000 1.03 120 19:45 08.02.2021
2751 Clouds 14 1032 62 10000 1.54 80 19:26 08.02.2021
2752 Clouds 13 1032 62 10000 1.54 0 18:49 08.02.2021
2753 Rain 12 1033 71 10000 2.06 0 18:24 08.02.2021
2754 Drizzle 10 1033 76 9000 2.57 110 17:47 08.02.2021
2755 Drizzle 10 1034 76 9000 1.54 90 17:26 08.02.2021
2756 Drizzle 9 1034 81 9000 1.03 0 16:47 08.02.2021
2757 Rain 8 1034 87 6000 1.03 0 16:28 08.02.2021
2758 Clouds 8 1035 87 5000 1.74 26 15:56 08.02.2021
2759 Clouds 8 1035 87 5000 1.74 26 15:37 08.02.2021
2760 Clouds 8 1035 81 5000 0.51 0 15:18 08.02.2021
2761 Clouds 8 1035 81 7000 1.03 0 14:42 08.02.2021
2762 Clouds 8 1034 81 7000 1.03 0 14:24 08.02.2021
2763 Rain 8 1034 76 8000 4.12 260 13:45 08.02.2021
2764 Rain 8 1033 81 8000 5.14 280 13:25 08.02.2021
2765 Rain 8 1033 87 8000 4.12 280 12:39 08.02.2021
2766 Rain 9 1018 75 10000 0.74 27 11:58 08.02.2021
2767 Rain 9 1018 75 10000 0.74 27 11:32 08.02.2021
2768 Rain 9 1018 75 10000 1.01 94 10:46 08.02.2021
2769 Rain 10 1017 77 10000 1.93 78 10:26 08.02.2021
2770 Rain 9 1017 78 10000 1.99 79 09:55 08.02.2021
2771 Rain 9 1017 78 10000 1.99 79 09:36 08.02.2021
2772 Rain 10 1017 79 8293 1.94 53 08:54 08.02.2021
2773 Rain 10 1017 78 7972 1.24 75 08:24 08.02.2021
2774 Clouds 10 1017 79 7459 1.28 74 07:38 08.02.2021
2775 Clouds 10 1017 77 8279 1.1 62 06:33 08.02.2021
2776 Clouds 11 1018 75 10000 1.19 31 04:56 08.02.2021
2777 Clouds 14 1029 58 10000 1.03 0 02:26 08.02.2021
2778 Clouds 16 1028 51 10000 2.57 130 00:25 08.02.2021
2779 Clouds 16 1028 51 10000 2.06 110 23:53 07.02.2021
2780 Clouds 17 1028 45 10000 1.03 270 23:28 07.02.2021
2781 Clouds 16 1028 51 10000 3.6 290 22:56 07.02.2021
2782 Clouds 16 1028 51 10000 3.6 290 22:38 07.02.2021
2783 Clouds 16 1028 55 10000 6.17 300 22:19 07.02.2021
2784 Clouds 16 1028 55 10000 6.69 290 21:49 07.02.2021
2785 Clouds 16 1029 55 10000 7.2 290 21:24 07.02.2021
2786 Clouds 17 1030 48 10000 6.17 290 20:49 07.02.2021
2787 Rain 17 1030 48 10000 6.17 290 20:27 07.02.2021
2788 Clouds 17 1030 48 10000 6.17 290 19:47 07.02.2021
2789 Clouds 17 1030 45 10000 3.6 140 19:28 07.02.2021
2790 Clouds 17 1030 48 10000 5.14 90 18:45 07.02.2021
2791 Clouds 18 1030 45 10000 1.54 20 18:27 07.02.2021
2792 Clouds 19 1031 42 10000 0.51 0 17:57 07.02.2021
2793 Clouds 19 1031 42 10000 0.51 0 17:38 07.02.2021
2794 Clouds 18 1031 42 10000 2.06 360 17:18 07.02.2021
2795 Clouds 18 1032 39 10000 2.57 120 16:41 07.02.2021
2796 Clouds 18 1032 45 10000 3.6 80 16:20 07.02.2021
2797 Clouds 17 1033 45 10000 2.06 30 15:44 07.02.2021
2798 Clouds 17 1033 42 10000 1.54 20 15:21 07.02.2021
2799 Clouds 17 1033 51 10000 0.51 80 14:45 07.02.2021
2800 Clouds 15 1033 55 10000 1.54 0 14:26 07.02.2021
2801 Clouds 14 1033 62 10000 2.57 110 13:45 07.02.2021
2802 Clouds 12 1033 66 10000 0.51 330 13:27 07.02.2021
2803 Clouds 11 1032 71 10000 0.51 360 12:42 07.02.2021
2804 Clouds 10 1032 76 10000 1.03 110 12:21 07.02.2021
2805 Clouds 8 1020 79 10000 0.27 77 11:45 07.02.2021
2806 Clouds 8 1019 79 10000 0.35 212 11:26 07.02.2021
2807 Clouds 8 1019 79 10000 0.35 212 10:42 07.02.2021
2808 Clouds 8 1019 79 10000 0.35 212 10:42 07.02.2021
2809 Clouds 9 1018 77 10000 0.98 277 10:22 07.02.2021
2810 Clouds 9 1018 77 10000 0.98 277 09:43 07.02.2021
2811 Clouds 9 1018 75 10000 1.22 303 09:21 07.02.2021
2812 Clouds 9 1018 74 10000 0.63 356 08:22 07.02.2021
2813 Clouds 9 1019 75 10000 1.22 65 06:34 07.02.2021
2814 Clouds 9 1019 74 10000 1.36 57 05:56 07.02.2021
2815 Clouds 10 1020 72 10000 1.91 30 03:39 07.02.2021
2816 Clouds 15 1029 51 10000 1.03 0 01:24 07.02.2021
2817 Clouds 17 1027 42 10000 2.06 160 00:32 07.02.2021
2818 Clouds 18 1027 42 10000 3.6 340 23:44 06.02.2021
2819 Clouds 19 1026 39 10000 3.6 30 22:40 06.02.2021
2820 Clouds 20 1026 37 10000 7.72 30 21:39 06.02.2021
2821 Clouds 20 1026 34 10000 5.66 20 21:21 06.02.2021
2822 Clouds 21 1027 37 10000 3.09 40 20:50 06.02.2021
2823 Clouds 21 1028 37 10000 4.63 10 20:25 06.02.2021
2824 Clouds 20 1028 34 10000 3.6 360 19:56 06.02.2021
2825 Clouds 21 1029 32 10000 3.09 260 19:30 06.02.2021
2826 Clouds 20 1030 34 10000 2.57 0 18:47 06.02.2021
2827 Clouds 20 1031 42 10000 2.43 349 18:28 06.02.2021
2828 Clouds 20 1031 42 10000 2.43 349 17:46 06.02.2021
2829 Clouds 18 1032 48 10000 0.51 150 17:22 06.02.2021
2830 Clouds 18 1032 48 10000 0.51 150 17:22 06.02.2021
2831 Clouds 17 1032 45 10000 1.54 220 16:59 06.02.2021
2832 Clouds 17 1033 48 10000 1.54 80 16:37 06.02.2021
2833 Clouds 16 1033 55 10000 1.54 10 16:19 06.02.2021
2834 Clouds 16 1033 55 10000 1.54 10 15:41 06.02.2021
2835 Clouds 15 1033 55 10000 2.06 0 15:20 06.02.2021
2836 Clouds 15 1033 63 10000 0.51 0 14:45 06.02.2021
2837 Clouds 12 1033 62 10000 2.06 100 14:24 06.02.2021
2838 Clouds 12 1033 66 10000 2.57 100 13:48 06.02.2021
2839 Clouds 10 1033 76 10000 1.54 100 12:57 06.02.2021
2840 Clouds 9 1032 81 10000 1.54 120 12:21 06.02.2021
2841 Clouds 8 1020 76 10000 0.82 106 11:47 06.02.2021
2842 Clouds 8 1019 75 10000 1.02 99 11:22 06.02.2021
2843 Clouds 8 1019 75 10000 1.02 99 10:57 06.02.2021
2844 Clouds 8 1019 75 10000 1.02 99 10:30 06.02.2021
2845 Clouds 8 1019 75 10000 1.24 82 09:58 06.02.2021
2846 Rain 8 1019 75 10000 1.24 82 09:37 06.02.2021
2847 Clouds 8 1018 75 10000 1.26 62 09:18 06.02.2021
2848 Clouds 8 1018 75 10000 1.26 62 08:33 06.02.2021
2849 Clouds 9 1018 75 10000 1.22 46 07:59 06.02.2021
2850 Clouds 10 1020 76 10000 1.14 36 05:43 06.02.2021
2851 Clouds 11 1020 75 10000 2.11 16 03:58 06.02.2021
2852 Clouds 11 1029 76 10000 4.63 280 01:58 06.02.2021
2853 Clouds 12 1029 76 10000 5.14 340 00:48 06.02.2021
2854 Clouds 12 1029 76 10000 5.14 340 00:48 06.02.2021
2855 Clouds 16 1028 51 10000 2.57 140 00:19 06.02.2021
2856 Clouds 17 1028 48 10000 1.03 240 23:43 05.02.2021
2857 Clouds 17 1027 48 10000 0.51 110 23:24 05.02.2021
2858 Clouds 16 1027 55 10000 1.54 110 22:47 05.02.2021
2859 Clouds 16 1028 55 10000 1.54 290 22:20 05.02.2021
2860 Drizzle 16 1028 59 10000 2.06 70 21:47 05.02.2021
2861 Clouds 15 1029 63 10000 3.09 90 21:28 05.02.2021
2862 Clouds 18 1029 48 10000 2.06 290 20:47 05.02.2021
2863 Drizzle 14 1030 72 10000 3.6 90 19:52 05.02.2021
2864 Clouds 13 1031 76 10000 5.66 110 19:20 05.02.2021
2865 Clouds 14 1032 72 10000 6.69 110 18:54 05.02.2021
2866 Clouds 14 1032 67 10000 5.14 100 18:27 05.02.2021
2867 Clouds 13 1033 71 10000 2.57 90 17:45 05.02.2021
2868 Drizzle 12 1034 76 10000 3.09 110 17:24 05.02.2021
2869 Drizzle 12 1034 76 10000 4.12 110 16:50 05.02.2021
2870 Drizzle 12 1034 71 10000 3.6 110 16:24 05.02.2021
2871 Rain 12 1034 71 10000 3.6 120 15:57 05.02.2021
2872 Rain 12 1034 71 10000 2.57 110 15:27 05.02.2021
2873 Rain 12 1034 71 9000 2.57 110 14:55 05.02.2021
2874 Clouds 12 1034 71 9000 2.57 110 14:36 05.02.2021
2875 Rain 11 1034 76 9000 2.06 100 14:18 05.02.2021
2876 Rain 11 1033 76 10000 2.06 100 13:38 05.02.2021
2877 Clouds 10 1032 81 10000 1.54 100 12:57 05.02.2021
2878 Clouds 10 1032 81 10000 1.54 100 12:38 05.02.2021
2879 Rain 9 1021 76 10000 0.31 35 11:42 05.02.2021
2880 Rain 8 1020 76 10000 0.45 139 11:22 05.02.2021
2881 Rain 8 1020 76 10000 0.45 139 10:59 05.02.2021
2882 Clouds 8 1020 75 10000 0.36 21 10:28 05.02.2021
2883 Clouds 8 1020 75 10000 0.36 21 09:57 05.02.2021
2884 Rain 8 1020 75 10000 0.36 21 09:39 05.02.2021
2885 Rain 9 1019 75 10000 1.12 352 09:20 05.02.2021
2886 Rain 9 1019 75 10000 1.13 9 08:29 05.02.2021
2887 Rain 9 1019 75 10000 1.13 9 07:39 05.02.2021
2888 Rain 9 1020 74 10000 1.13 23 06:57 05.02.2021
2889 Clouds 10 1021 75 10000 1.38 35 05:39 05.02.2021
2890 Clouds 10 1021 74 10000 1.79 36 04:49 05.02.2021
2891 Clouds 15 1029 47 10000 4.63 40 02:25 05.02.2021
2892 Clouds 16 1029 44 10000 4.63 30 00:41 05.02.2021
2893 Clouds 17 1028 39 10000 4.12 30 00:21 05.02.2021
2894 Clouds 18 1028 39 10000 5.14 20 23:59 04.02.2021
2895 Clouds 18 1028 39 10000 5.14 20 23:40 04.02.2021
2896 Clouds 19 1027 34 10000 5.66 30 23:21 04.02.2021
2897 Clouds 19 1027 34 10000 6.69 20 22:51 04.02.2021
2898 Clouds 20 1027 32 10000 5.66 20 22:28 04.02.2021
2899 Clouds 20 1027 34 10000 5.14 350 21:42 04.02.2021
2900 Clouds 20 1028 32 10000 5.66 10 21:22 04.02.2021
2901 Clouds 20 1029 37 10000 4.63 360 20:53 04.02.2021
2902 Clouds 20 1029 37 10000 4.63 360 20:34 04.02.2021
2903 Clouds 19 1030 37 10000 2.57 360 19:48 04.02.2021
2904 Clouds 18 1031 39 10000 0.51 110 19:19 04.02.2021
2905 Clouds 17 1032 42 10000 1.03 0 18:37 04.02.2021
2906 Clouds 17 1032 42 10000 1.03 0 18:18 04.02.2021
2907 Clouds 16 1033 48 10000 1.03 210 17:42 04.02.2021
2908 Clouds 16 1033 51 10000 1.03 0 17:20 04.02.2021
2909 Clouds 16 1034 51 10000 1.54 0 16:46 04.02.2021
2910 Clouds 15 1034 55 10000 2.06 80 16:19 04.02.2021
2911 Clouds 15 1034 55 10000 0.51 0 15:40 04.02.2021
2912 Clouds 15 1034 55 10000 1.54 0 15:21 04.02.2021
2913 Clouds 13 1034 62 10000 0.51 0 14:49 04.02.2021
2914 Clouds 12 1034 76 10000 2.57 110 14:21 04.02.2021
2915 Clouds 12 1033 71 10000 0.6 53 13:56 04.02.2021
2916 Clouds 12 1033 71 10000 0.6 53 13:36 04.02.2021
2917 Clouds 10 1033 81 10000 0.51 90 12:57 04.02.2021
2918 Clouds 9 1020 73 10000 0.74 29 12:21 04.02.2021
2919 Clouds 9 1020 73 10000 0.75 30 11:42 04.02.2021
2920 Clouds 9 1020 72 10000 0.96 30 11:24 04.02.2021
2921 Clouds 9 1020 72 10000 0.96 30 10:43 04.02.2021
2922 Clouds 10 1019 70 10000 1.24 30 09:56 04.02.2021
2923 Clouds 10 1019 70 10000 1.24 30 09:37 04.02.2021
2924 Clouds 10 1019 70 10000 1.36 27 09:18 04.02.2021
2925 Clouds 10 1019 70 10000 1.36 27 08:37 04.02.2021
2926 Clouds 10 1019 69 10000 1.33 30 08:18 04.02.2021
2927 Clouds 10 1020 70 10000 1.06 23 07:38 04.02.2021
2928 Clouds 10 1021 70 10000 1.05 26 06:54 04.02.2021
2929 Clouds 10 1021 70 10000 1.05 26 06:35 04.02.2021
2930 Clouds 10 1021 72 10000 0.78 30 03:53 04.02.2021
2931 Clouds 11 1030 71 10000 2.57 300 02:25 04.02.2021
2932 Clouds 11 1030 71 10000 2.57 300 00:35 04.02.2021
2933 Clouds 13 1030 62 10000 5.14 300 23:40 03.02.2021
2934 Clouds 13 1030 62 10000 6.17 300 22:43 03.02.2021
2935 Clouds 14 1030 54 10000 2.06 110 22:22 03.02.2021
2936 Clouds 14 1030 58 10000 4.12 90 21:58 03.02.2021
2937 Clouds 14 1030 58 10000 4.12 90 21:37 03.02.2021
2938 Clouds 14 1030 54 10000 4.63 120 21:18 03.02.2021
2939 Clouds 14 1030 58 10000 5.14 110 20:43 03.02.2021
2940 Rain 14 1031 58 10000 3.6 110 20:24 03.02.2021
2941 Rain 13 1032 62 10000 4.63 120 19:43 03.02.2021
2942 Drizzle 13 1033 62 8000 4.12 100 19:21 03.02.2021
2943 Rain 13 1033 62 8000 4.12 100 18:48 03.02.2021
2944 Clouds 11 1033 46 8000 4.12 100 18:20 03.02.2021
2945 Drizzle 11 1034 71 8000 3.09 120 17:52 03.02.2021
2946 Clouds 11 1034 71 10000 3.6 100 17:31 03.02.2021
2947 Clouds 11 1034 71 8000 4.12 110 16:56 03.02.2021
2948 Clouds 11 1034 71 8000 4.12 110 16:30 03.02.2021
2949 Clouds 10 1034 76 8000 3.09 90 15:46 03.02.2021
2950 Rain 9 1034 76 8000 2.57 110 15:26 03.02.2021
2951 Clouds 9 1034 76 10000 2.57 120 14:54 03.02.2021
2952 Rain 9 1034 76 8000 2.57 110 14:30 03.02.2021
2953 Rain 9 1033 71 10000 1.54 130 13:56 03.02.2021
2954 Rain 9 1033 71 10000 1.54 130 13:29 03.02.2021
2955 Rain 9 1032 71 10000 3.09 120 12:52 03.02.2021
2956 Rain 9 1020 77 10000 0.95 91 12:29 03.02.2021
2957 Clouds 9 1020 77 10000 0.95 91 11:59 03.02.2021
2958 Clouds 9 1020 77 10000 0.95 91 11:37 03.02.2021
2959 Clouds 9 1019 76 10000 1.22 88 10:59 03.02.2021
2960 Clouds 10 1018 74 10000 1.15 56 10:23 03.02.2021
2961 Clouds 9 1018 74 10000 1.16 56 09:51 03.02.2021
2962 Clouds 9 1018 74 10000 1.16 56 09:32 03.02.2021
2963 Clouds 9 1018 74 10000 0.95 11 08:54 03.02.2021
2964 Clouds 9 1018 74 10000 0.95 11 08:54 03.02.2021
2965 Rain 9 1018 74 10000 0.95 11 08:35 03.02.2021
2966 Rain 10 1018 74 10000 1.05 334 07:43 03.02.2021
2967 Rain 10 1018 75 10000 1.46 4 06:42 03.02.2021
2968 Rain 10 1019 75 10000 1.99 15 04:55 03.02.2021
2969 Rain 10 1019 75 10000 1.99 15 04:34 03.02.2021
2970 Clouds 10 1019 74 10000 2.05 14 03:48 03.02.2021
2971 Clouds 16 1027 48 10000 3.09 350 02:37 03.02.2021
2972 Rain 12 1014 67 10000 2.38 26 01:20 03.02.2021
2973 Clouds 17 1026 45 10000 4.12 270 00:20 03.02.2021
2974 Clouds 18 1026 42 10000 3.09 250 23:40 02.02.2021
2975 Clouds 18 1026 42 10000 2.93 3 23:22 02.02.2021
2976 Clouds 16 1026 55 10000 4.12 290 22:37 02.02.2021
2977 Clouds 16 1026 55 10000 5.14 290 22:19 02.02.2021
2978 Rain 16 1027 55 10000 6.17 290 21:44 02.02.2021
2979 Rain 17 1027 42 10000 5.14 20 21:22 02.02.2021
2980 Rain 18 1027 42 10000 5.66 20 20:48 02.02.2021
2981 Clouds 18 1028 39 10000 3.09 0 20:21 02.02.2021
2982 Clouds 17 1029 42 10000 2.57 110 19:49 02.02.2021
2983 Clouds 17 1029 42 10000 2.57 110 19:30 02.02.2021
2984 Clouds 17 1029 42 10000 2.57 110 19:30 02.02.2021
2985 Clouds 17 1029 42 10000 2.57 110 19:30 02.02.2021
2986 Clouds 17 1029 42 10000 2.57 110 18:46 02.02.2021
2987 Clouds 17 1030 45 10000 3.09 0 18:26 02.02.2021
2988 Clouds 17 1030 45 10000 3.09 0 18:26 02.02.2021
2989 Clouds 17 1030 42 10000 3.09 0 17:59 02.02.2021
2990 Clouds 17 1030 42 10000 3.09 0 17:36 02.02.2021
2991 Clouds 16 1031 51 10000 4.63 110 17:18 02.02.2021
2992 Clouds 16 1031 44 10000 3.09 110 16:42 02.02.2021
2993 Clouds 17 1031 45 10000 1.54 80 16:23 02.02.2021
2994 Clouds 16 1031 44 10000 1.03 110 15:42 02.02.2021
2995 Clouds 14 1032 54 10000 1.54 80 15:22 02.02.2021
2996 Clouds 14 1032 51 10000 1.03 100 14:49 02.02.2021
2997 Clouds 12 1032 62 10000 1.03 110 14:28 02.02.2021
2998 Clouds 12 1032 62 10000 1.54 90 13:55 02.02.2021
2999 Clouds 12 1032 62 10000 1.54 90 13:37 02.02.2021
3000 Clouds 10 1032 76 10000 0.99 68 13:18 02.02.2021
3001 Clouds 8 1031 81 10000 1.03 90 12:41 02.02.2021
3002 Clouds 9 1017 77 10000 0.99 79 11:45 02.02.2021
3003 Clouds 9 1016 76 10000 0.8 79 11:22 02.02.2021
3004 Clouds 9 1016 76 10000 0.8 79 11:22 02.02.2021
3005 Clouds 9 1016 76 10000 0.8 79 10:55 02.02.2021
3006 Clouds 10 1016 73 10000 0.81 63 10:27 02.02.2021
3007 Clouds 10 1016 73 10000 0.81 63 09:47 02.02.2021
3008 Clouds 10 1016 74 10000 1.31 18 09:26 02.02.2021
3009 Clouds 10 1016 74 10000 1.31 18 08:55 02.02.2021
3010 Clouds 10 1016 75 10000 1.66 352 08:28 02.02.2021
3011 Clouds 10 1016 75 10000 1.66 352 07:31 02.02.2021
3012 Clouds 9 1018 75 10000 1.21 352 06:43 02.02.2021
3013 Clouds 10 1018 76 10000 1.28 11 05:53 02.02.2021
3014 Clouds 10 1018 75 10000 1.61 18 04:57 02.02.2021
3015 Clouds 11 1017 74 10000 2.51 19 02:44 02.02.2021
3016 Clouds 16 1027 51 10000 2.57 360 02:23 02.02.2021
3017 Rain 16 1027 48 10000 3.09 0 00:35 02.02.2021
3018 Rain 18 1025 45 10000 3.6 310 23:20 01.02.2021
3019 Clouds 18 1025 45 10000 3.09 350 22:50 01.02.2021
3020 Rain 19 1025 37 10000 4.63 10 22:32 01.02.2021
3021 Rain 19 1025 39 10000 4.63 20 21:53 01.02.2021
3022 Rain 19 1025 39 10000 4.63 20 21:34 01.02.2021
3023 Clouds 20 1025 37 10000 3.09 0 20:57 01.02.2021
3024 Clouds 20 1025 37 10000 3.09 0 20:37 01.02.2021
3025 Clouds 18 1026 45 10000 3.09 60 20:19 01.02.2021
3026 Clouds 18 1027 45 10000 2.57 0 19:38 01.02.2021
3027 Rain 19 1028 42 10000 5.14 320 19:19 01.02.2021
3028 Rain 19 1028 42 10000 5.66 300 18:47 01.02.2021
3029 Clouds 19 1028 37 10000 2.06 0 18:27 01.02.2021
3030 Clouds 20 1029 32 10000 2.06 120 17:47 01.02.2021
3031 Clouds 19 1030 34 10000 1.54 0 17:23 01.02.2021
3032 Clouds 19 1030 34 10000 1.03 100 16:47 01.02.2021
3033 Clouds 18 1031 45 10000 1.54 170 16:28 01.02.2021
3034 Clouds 17 1031 48 10000 1.54 130 15:43 01.02.2021
3035 Clouds 17 1031 48 10000 1.54 130 15:43 01.02.2021
3036 Clouds 16 1032 55 10000 1.03 270 15:19 01.02.2021
3037 Clouds 14 1032 62 10000 0.51 0 14:52 01.02.2021
3038 Clouds 13 1032 67 10000 1.03 0 14:27 01.02.2021
3039 Clouds 11 1032 76 10000 1.54 80 13:47 01.02.2021
3040 Clouds 9 1032 81 10000 0.51 0 13:26 01.02.2021
3041 Clouds 7 1032 87 10000 1.03 100 12:45 01.02.2021
3042 Clouds 6 1031 87 10000 1.03 0 12:25 01.02.2021
3043 Clouds 8 1019 79 10000 0.22 231 11:51 01.02.2021
3044 Clouds 7 1018 78 10000 0.35 223 11:22 01.02.2021
3045 Clouds 7 1018 79 10000 0.35 221 10:55 01.02.2021
3046 Clouds 7 1018 79 10000 0.35 221 10:36 01.02.2021
3047 Clouds 7 1017 77 10000 0.22 265 10:18 01.02.2021
3048 Clouds 7 1017 78 10000 0.21 265 09:42 01.02.2021
3049 Clouds 8 1017 77 10000 0.28 343 08:56 01.02.2021
3050 Clouds 8 1017 76 10000 0.67 359 08:27 01.02.2021
3051 Clouds 8 1017 76 10000 0.67 359 07:34 01.02.2021
3052 Clouds 9 1019 77 10000 1.7 358 05:46 01.02.2021
3053 Clouds 10 1017 75 10000 2.11 14 02:41 01.02.2021
3054 Clouds 14 1027 54 10000 4.12 110 00:27 01.02.2021
3055 Clouds 15 1027 51 10000 2.57 140 23:40 31.01.2021
3056 Rain 15 1027 55 10000 5.14 110 22:42 31.01.2021
3057 Clouds 17 1027 45 10000 6.69 100 22:23 31.01.2021
3058 Clouds 18 1027 39 10000 2.57 110 21:49 31.01.2021
3059 Clouds 19 1027 37 10000 1.54 90 21:22 31.01.2021
3060 Clouds 18 1027 45 10000 3.09 100 20:46 31.01.2021
3061 Clouds 18 1028 52 10000 3.6 100 20:21 31.01.2021
3062 Clouds 15 1029 63 10000 4.63 120 19:43 31.01.2021
3063 Clouds 16 1029 51 10000 5.66 70 19:24 31.01.2021
3064 Clouds 16 1029 51 10000 5.66 70 19:24 31.01.2021
3065 Clouds 18 1029 42 10000 3.09 280 18:58 31.01.2021
3066 Clouds 18 1029 42 10000 3.09 280 18:40 31.01.2021
3067 Clouds 18 1030 39 10000 1.54 0 18:20 31.01.2021
3068 Clouds 18 1030 48 10000 2.57 0 17:45 31.01.2021
3069 Clouds 18 1031 42 10000 2.06 270 17:23 31.01.2021
3070 Clouds 17 1031 45 10000 1.03 60 16:47 31.01.2021
3071 Clouds 18 1032 45 10000 1.54 0 16:28 31.01.2021
3072 Clouds 16 1032 44 10000 1.03 330 15:52 31.01.2021
3073 Clouds 16 1032 44 10000 1.03 330 15:34 31.01.2021
3074 Clouds 14 1032 62 10000 1.54 70 14:42 31.01.2021
3075 Clouds 14 1032 62 10000 0.1 337 14:24 31.01.2021
3076 Clouds 13 1032 67 10000 0.1 328 13:53 31.01.2021
3077 Clouds 11 1032 82 10000 1.03 70 13:34 31.01.2021
3078 Clouds 10 1032 87 10000 1.03 110 12:49 31.01.2021
3079 Clouds 10 1031 81 10000 2.57 90 12:22 31.01.2021
3080 Clear 7 1019 75 10000 0.26 321 11:44 31.01.2021
3081 Clear 7 1018 74 10000 0.54 286 11:25 31.01.2021
3082 Clear 7 1018 74 10000 0.54 286 10:57 31.01.2021
3083 Clear 7 1018 74 10000 0.54 286 10:35 31.01.2021
3084 Clear 7 1018 74 10000 0.76 289 09:51 31.01.2021
3085 Clear 7 1017 74 10000 0.83 314 09:25 31.01.2021
3086 Clear 7 1017 74 10000 0.83 314 08:33 31.01.2021
3087 Clouds 8 1018 74 10000 0.99 334 06:58 31.01.2021
3088 Clouds 8 1019 74 10000 1.08 348 05:40 31.01.2021
3089 Rain 12 1029 71 8000 2.57 110 00:47 31.01.2021
3090 Rain 13 1028 67 10000 1.54 280 00:22 31.01.2021
3091 Drizzle 14 1028 62 10000 2.06 290 23:33 30.01.2021
3092 Rain 13 1028 62 10000 1.03 300 22:57 30.01.2021
3093 Clouds 13 1028 67 10000 1.54 320 22:30 30.01.2021
3094 Clouds 13 1028 67 10000 2.06 290 21:40 30.01.2021
3095 Clouds 12 1028 71 10000 3.09 280 21:22 30.01.2021
3096 Drizzle 11 1029 76 9000 3.09 260 20:48 30.01.2021
3097 Clouds 12 1029 66 8000 3.6 350 20:29 30.01.2021
3098 Clouds 15 1028 58 10000 5.66 100 19:46 30.01.2021
3099 Clouds 16 1029 51 10000 5.14 110 19:27 30.01.2021
3100 Clouds 17 1029 48 10000 4.63 110 18:55 30.01.2021
3101 Clouds 17 1030 45 10000 2.57 300 18:36 30.01.2021
3102 Clouds 17 1030 45 10000 2.57 300 18:18 30.01.2021
3103 Clouds 16 1030 51 10000 0.51 310 17:21 30.01.2021
3104 Clouds 16 1031 51 10000 1.03 90 16:48 30.01.2021
3105 Clouds 14 1031 54 10000 1.54 0 16:25 30.01.2021
3106 Clouds 15 1031 51 10000 1.03 220 15:59 30.01.2021
3107 Clouds 15 1031 51 10000 1.03 220 15:40 30.01.2021
3108 Clouds 13 1031 58 10000 1.03 0 15:21 30.01.2021
3109 Clouds 13 1031 62 10000 0.51 270 14:52 30.01.2021
3110 Clouds 12 1031 62 10000 1.03 0 14:22 30.01.2021
3111 Clouds 12 1031 62 10000 1.54 100 13:35 30.01.2021
3112 Clouds 10 1030 76 10000 1.54 90 12:53 30.01.2021
3113 Clouds 10 1030 76 10000 1.54 90 12:33 30.01.2021
3114 Clouds 9 1017 77 10000 0.84 290 11:59 30.01.2021
3115 Clouds 9 1017 77 10000 0.84 290 11:31 30.01.2021
3116 Clouds 8 1016 76 10000 0.88 304 10:49 30.01.2021
3117 Clouds 9 1016 76 10000 1.49 312 09:52 30.01.2021
3118 Clouds 9 1016 76 10000 1.49 312 09:31 30.01.2021
3119 Clouds 9 1015 76 10000 1.38 310 08:49 30.01.2021
3120 Clouds 9 1015 76 10000 1.38 310 08:30 30.01.2021
3121 Clouds 9 1017 75 10000 1.51 338 06:58 30.01.2021
3122 Clouds 9 1017 75 10000 1.56 353 06:19 30.01.2021
3123 Clouds 10 1017 72 10000 1.91 2 03:35 30.01.2021
3124 Clouds 16 1025 29 10000 3.09 330 02:25 30.01.2021
3125 Clouds 16 1025 29 10000 3.09 330 01:31 30.01.2021
3126 Clouds 17 1024 27 10000 5.14 300 00:44 30.01.2021
3127 Clouds 18 1024 29 10000 6.69 290 00:21 30.01.2021
3128 Clouds 19 1023 27 10000 6.69 290 23:46 29.01.2021
3129 Clouds 20 1023 26 10000 8.75 300 23:22 29.01.2021
3130 Clouds 21 1023 24 10000 8.75 300 22:44 29.01.2021
3131 Clouds 21 1023 23 10000 7.72 190 22:20 29.01.2021
3132 Clouds 21 1024 30 10000 6.69 300 21:29 29.01.2021
3133 Clouds 21 1024 30 10000 6.69 300 21:29 29.01.2021
3134 Clouds 22 1025 28 10000 5.66 320 20:59 29.01.2021
3135 Clouds 21 1025 28 10000 5.66 270 20:40 29.01.2021
3136 Clouds 21 1025 28 10000 5.66 270 20:18 29.01.2021
3137 Clouds 21 1026 23 10000 1.54 330 19:38 29.01.2021
3138 Clouds 21 1026 23 10000 1.54 330 19:18 29.01.2021
3139 Clouds 20 1027 26 10000 3.09 180 18:42 29.01.2021
3140 Clouds 19 1028 34 10000 1.97 284 17:45 29.01.2021
3141 Clouds 18 1029 42 10000 2.06 220 17:22 29.01.2021
3142 Clouds 17 1029 36 10000 1.03 10 16:46 29.01.2021
3143 Clouds 16 1029 39 10000 2.06 340 16:24 29.01.2021
3144 Clouds 16 1030 44 10000 1.03 0 15:51 29.01.2021
3145 Clouds 15 1030 47 10000 1.03 0 15:31 29.01.2021
3146 Clouds 13 1030 58 10000 1.03 90 14:48 29.01.2021
3147 Clouds 11 1030 71 10000 1.54 110 14:18 29.01.2021
3148 Clouds 11 1029 71 10000 2.57 100 13:44 29.01.2021
3149 Clouds 11 1029 76 10000 2.57 110 13:26 29.01.2021
3150 Clouds 10 1029 76 10000 1.64 270 12:29 29.01.2021
3151 Clouds 9 1016 79 10000 1.64 270 11:51 29.01.2021
3152 Clouds 9 1015 78 10000 1.41 265 11:20 29.01.2021
3153 Clouds 9 1015 78 10000 1.41 265 10:53 29.01.2021
3154 Clouds 9 1015 78 10000 1.41 265 10:35 29.01.2021
3155 Clouds 8 1015 77 10000 1.36 264 09:50 29.01.2021
3156 Clouds 8 1015 76 10000 1.21 281 09:28 29.01.2021
3157 Clouds 8 1015 76 10000 1.21 281 08:47 29.01.2021
3158 Clouds 9 1015 76 10000 1.39 311 08:25 29.01.2021
3159 Clouds 9 1015 76 10000 1.39 311 07:42 29.01.2021
3160 Clouds 9 1016 77 10000 1.73 325 07:22 29.01.2021
3161 Clouds 9 1016 77 10000 2.19 339 06:29 29.01.2021
3162 Clouds 10 1016 74 10000 2.9 340 03:52 29.01.2021
3163 Clouds 15 1025 55 10000 4.63 290 00:46 29.01.2021
3164 Clouds 15 1024 51 10000 5.14 290 00:22 29.01.2021
3165 Clouds 17 1024 45 10000 5.66 280 23:47 28.01.2021
3166 Clouds 17 1025 45 10000 5.66 280 23:27 28.01.2021
3167 Clouds 17 1024 42 10000 4.12 310 22:57 28.01.2021
3168 Clouds 17 1024 42 10000 4.12 310 22:38 28.01.2021
3169 Clouds 17 1025 48 10000 3.09 10 22:18 28.01.2021
3170 Clouds 18 1025 48 10000 4.63 50 21:41 28.01.2021
3171 Clouds 18 1025 45 10000 5.14 360 21:20 28.01.2021
3172 Clouds 19 1025 45 10000 3.09 350 20:40 28.01.2021
3173 Clouds 20 1022 37 10000 8.23 280 20:19 28.01.2021
3174 Clouds 21 1026 37 10000 2.82 292 19:48 28.01.2021
3175 Clouds 19 1027 48 10000 3.09 340 19:27 28.01.2021
3176 Clouds 19 1028 42 10000 2.06 10 18:49 28.01.2021
3177 Clouds 19 1028 42 10000 2.06 10 18:29 28.01.2021
3178 Clouds 17 1028 45 10000 6.69 280 17:48 28.01.2021
3179 Clouds 17 1028 45 10000 6.69 280 17:48 28.01.2021
3180 Clouds 17 1029 48 10000 6.17 290 17:30 28.01.2021
3181 Clouds 18 1029 45 10000 4.12 270 16:47 28.01.2021
3182 Clouds 16 1029 51 10000 1.54 0 16:28 28.01.2021
3183 Clouds 16 1029 51 10000 1.54 0 15:59 28.01.2021
3184 Clouds 14 1030 58 10000 0.51 0 15:24 28.01.2021
3185 Clouds 13 1030 62 10000 0.51 20 14:44 28.01.2021
3186 Clouds 13 1030 62 10000 0.51 20 14:44 28.01.2021
3187 Clouds 12 1030 66 10000 1.03 100 14:23 28.01.2021
3188 Clouds 11 1030 76 10000 1.03 110 13:54 28.01.2021
3189 Clouds 9 1030 81 10000 1.03 90 13:23 28.01.2021
3190 Clouds 9 1029 81 10000 1.54 110 12:48 28.01.2021
3191 Clouds 8 1029 87 10000 1.54 100 12:23 28.01.2021
3192 Clouds 9 1016 77 10000 1.71 292 11:44 28.01.2021
3193 Clouds 9 1016 76 10000 1.58 297 11:21 28.01.2021
3194 Clouds 9 1016 76 10000 1.58 297 10:56 28.01.2021
3195 Clouds 9 1016 76 10000 1.58 297 10:38 28.01.2021
3196 Clouds 9 1015 76 10000 1.64 294 10:20 28.01.2021
3197 Clouds 9 1015 76 10000 1.64 294 09:34 28.01.2021
3198 Clouds 10 1015 75 10000 1.96 288 08:58 28.01.2021
3199 Clouds 10 1015 75 10000 1.96 288 08:39 28.01.2021
3200 Clouds 10 1015 75 10000 2.1 306 07:48 28.01.2021
3201 Clouds 11 1016 73 10000 1.54 316 06:51 28.01.2021
3202 Clouds 11 1016 73 10000 1.54 316 06:32 28.01.2021
3203 Clouds 12 1017 71 10000 2.44 348 04:30 28.01.2021
3204 Clouds 15 1025 63 10000 4.63 110 02:26 28.01.2021
3205 Clouds 17 1024 51 10000 3.09 90 00:27 28.01.2021
3206 Clouds 18 1024 42 10000 4.12 10 23:25 27.01.2021
3207 Clouds 18 1023 45 10000 5.14 20 22:44 27.01.2021
3208 Clouds 21 1024 35 10000 6.17 330 22:25 27.01.2021
3209 Rain 22 1024 30 10000 5.66 300 21:57 27.01.2021
3210 Clouds 22 1024 30 10000 5.66 300 21:39 27.01.2021
3211 Clouds 22 1024 33 10000 6.69 280 21:21 27.01.2021
3212 Clouds 21 1025 35 10000 4.63 260 20:40 27.01.2021
3213 Clouds 21 1026 30 10000 3.09 0 19:57 27.01.2021
3214 Clouds 21 1026 30 10000 3.09 0 19:38 27.01.2021
3215 Clouds 21 1027 46 10000 6.69 280 19:20 27.01.2021
3216 Clouds 21 1027 32 10000 1.54 290 18:42 27.01.2021
3217 Clouds 20 1028 32 10000 2.57 310 18:22 27.01.2021
3218 Clouds 19 1029 45 10000 0.51 20 17:45 27.01.2021
3219 Clouds 19 1029 45 10000 1.03 260 17:21 27.01.2021
3220 Clouds 17 1013 49 10000 1.96 259 16:48 27.01.2021
3221 Clouds 15 1015 54 10000 1.97 252 16:28 27.01.2021
3222 Clouds 16 1015 54 10000 1.96 252 15:50 27.01.2021
3223 Clouds 15 1015 54 10000 1.97 252 15:31 27.01.2021
3224 Clouds 14 1016 59 10000 1.82 252 14:45 27.01.2021
3225 Clouds 13 1017 65 10000 1.41 263 14:22 27.01.2021
3226 Clouds 13 1017 64 10000 1.41 265 13:45 27.01.2021
3227 Clouds 13 1017 64 10000 1.41 265 13:45 27.01.2021
3228 Clouds 11 1017 72 10000 1.28 283 12:58 27.01.2021
3229 Clouds 11 1017 72 10000 1.28 283 12:39 27.01.2021
3230 Clouds 9 1017 78 10000 1.14 286 12:18 27.01.2021
3231 Clouds 9 1017 78 10000 1.14 286 11:44 27.01.2021
3232 Clouds 9 1016 76 10000 1.24 290 11:21 27.01.2021
3233 Clouds 9 1016 76 10000 1.24 290 10:39 27.01.2021
3234 Clouds 10 1015 75 10000 1.27 314 10:19 27.01.2021
3235 Clouds 10 1015 75 10000 1.27 314 09:41 27.01.2021
3236 Clouds 10 1015 74 10000 1.53 330 08:59 27.01.2021
3237 Clouds 10 1015 74 10000 1.53 330 08:31 27.01.2021
3238 Clouds 10 1016 73 10000 1.75 337 07:43 27.01.2021
3239 Clouds 11 1016 70 10000 1.49 320 06:58 27.01.2021
3240 Clouds 11 1017 69 10000 1.35 345 06:19 27.01.2021
3241 Clouds 11 1017 69 10000 1.35 345 05:43 27.01.2021
3242 Clouds 12 1017 65 10000 1.34 25 03:34 27.01.2021
3243 Clouds 13 1015 65 10000 2.14 351 02:23 27.01.2021
3244 Clouds 13 1015 65 10000 2.14 351 01:49 27.01.2021
3245 Clouds 13 1013 66 6335 1.75 27 00:33 27.01.2021
3246 Clouds 15 1011 64 5235 1.82 345 23:49 26.01.2021
3247 Clouds 16 1009 55 10000 1.78 326 23:28 26.01.2021
3248 Clouds 16 1026 63 10000 2.57 100 22:50 26.01.2021
3249 Clouds 16 1026 63 10000 2.57 100 22:23 26.01.2021
3250 Rain 16 1026 63 10000 2.57 100 21:54 26.01.2021
3251 Clouds 16 1026 63 10000 2.57 100 21:34 26.01.2021
3252 Clouds 16 1027 55 10000 4.63 120 20:58 26.01.2021
3253 Clouds 16 1027 55 10000 4.63 120 20:39 26.01.2021
3254 Clouds 18 1027 48 10000 2.06 0 20:21 26.01.2021
3255 Clouds 18 1028 45 10000 2.57 0 19:45 26.01.2021
3256 Clouds 19 1028 42 10000 2.06 270 19:20 26.01.2021
3257 Clouds 18 1028 48 10000 1.03 270 18:47 26.01.2021
3258 Clouds 18 1029 52 10000 5.14 280 18:27 26.01.2021
3259 Clouds 17 1029 48 10000 6.69 300 17:52 26.01.2021
3260 Clouds 17 1029 48 10000 6.69 300 17:33 26.01.2021
3261 Clouds 15 1030 63 10000 5.14 300 16:56 26.01.2021
3262 Clouds 15 1030 63 10000 5.14 300 16:37 26.01.2021
3263 Clouds 15 1030 67 10000 1.54 0 16:18 26.01.2021
3264 Clouds 14 1030 62 10000 2.57 100 15:44 26.01.2021
3265 Clouds 13 1031 67 10000 2.57 100 15:24 26.01.2021
3266 Clouds 12 1031 66 10000 1.03 150 14:43 26.01.2021
3267 Clouds 12 1031 66 10000 1.03 150 14:25 26.01.2021
3268 Clouds 11 1030 76 10000 1.03 90 13:34 26.01.2021
3269 Clouds 10 1029 76 10000 0.61 272 12:57 26.01.2021
3270 Rain 10 1029 76 10000 0.31 154 12:38 26.01.2021
3271 Rain 9 1029 81 10000 1.03 270 12:19 26.01.2021
3272 Rain 9 1017 75 10000 0.42 296 11:50 26.01.2021
3273 Rain 9 1015 75 10000 0.93 296 11:19 26.01.2021
3274 Rain 9 1015 75 10000 0.93 296 10:42 26.01.2021
3275 Rain 9 1015 75 10000 1.12 325 10:21 26.01.2021
3276 Clouds 9 1015 75 10000 1.12 325 09:40 26.01.2021
3277 Clouds 9 1015 73 10000 1.36 334 09:21 26.01.2021
3278 Clouds 9 1015 73 10000 1.36 334 08:48 26.01.2021
3279 Clouds 10 1015 74 10000 1.28 338 08:18 26.01.2021
3280 Clouds 10 1016 74 10000 1.85 340 07:19 26.01.2021
3281 Clouds 10 1016 75 10000 1.73 350 05:53 26.01.2021
3282 Clouds 10 1016 75 10000 1.48 10 05:34 26.01.2021
3283 Clouds 10 1016 75 10000 1.81 11 03:39 26.01.2021
3284 Clouds 15 1026 63 10000 1.03 0 01:19 26.01.2021
3285 Clouds 15 1025 58 10000 2.57 10 00:30 26.01.2021
3286 Clouds 16 1025 55 10000 3.09 30 23:33 25.01.2021
3287 Clouds 16 1025 55 10000 4.12 30 22:51 25.01.2021
3288 Clouds 16 1025 55 10000 4.12 30 22:33 25.01.2021
3289 Clouds 18 1025 42 10000 2.57 20 21:48 25.01.2021
3290 Clouds 18 1025 45 10000 3.09 340 21:22 25.01.2021
3291 Clouds 20 1025 37 10000 3.09 100 20:45 25.01.2021
3292 Clouds 19 1026 39 10000 1.03 150 20:27 25.01.2021
3293 Clouds 19 1027 45 10000 2.06 100 19:50 25.01.2021
3294 Clouds 19 1028 42 10000 2.57 90 19:27 25.01.2021
3295 Clouds 18 1028 45 10000 2.57 170 18:48 25.01.2021
3296 Clouds 18 1028 45 10000 2.57 170 18:26 25.01.2021
3297 Clouds 16 1029 51 9000 2.57 100 17:49 25.01.2021
3298 Clouds 17 1030 55 10000 1.54 100 17:26 25.01.2021
3299 Clouds 15 1030 58 10000 3.09 90 16:57 25.01.2021
3300 Clouds 15 1030 58 10000 3.09 90 16:39 25.01.2021
3301 Clouds 14 1031 58 10000 0.51 0 16:20 25.01.2021
3302 Clouds 14 1031 58 10000 1.54 320 15:41 25.01.2021
3303 Clouds 14 1031 62 10000 1.03 0 15:22 25.01.2021
3304 Clouds 13 1031 67 10000 1.03 0 14:39 25.01.2021
3305 Clouds 13 1031 67 10000 1.03 0 14:39 25.01.2021
3306 Clouds 14 1031 62 10000 1.03 170 14:18 25.01.2021
3307 Clouds 14 1031 62 10000 0.51 0 13:45 25.01.2021
3308 Clouds 11 1030 76 10000 0.77 348 13:25 25.01.2021
3309 Clouds 10 1030 81 10000 0.77 348 12:45 25.01.2021
3310 Clouds 8 1018 75 10000 0.58 324 12:19 25.01.2021
3311 Clouds 8 1018 75 10000 0.58 324 11:31 25.01.2021
3312 Clouds 8 1017 75 10000 0.56 294 10:53 25.01.2021
3313 Clouds 8 1017 75 10000 0.53 314 10:23 25.01.2021
3314 Clouds 8 1017 75 10000 0.53 314 09:55 25.01.2021
3315 Clouds 8 1017 75 10000 0.53 314 09:37 25.01.2021
3316 Clouds 9 1017 75 10000 0.68 327 08:56 25.01.2021
3317 Clouds 9 1017 76 10000 0.44 310 08:23 25.01.2021
3318 Clouds 9 1017 76 10000 0.44 310 07:31 25.01.2021
3319 Clouds 9 1017 74 10000 0.37 47 06:53 25.01.2021
3320 Clouds 10 1018 73 10000 1.2 73 03:39 25.01.2021
3321 Drizzle 12 1028 76 10000 2.57 290 01:22 25.01.2021
3322 Clouds 13 1027 67 10000 2.57 260 23:41 24.01.2021
3323 Drizzle 14 1026 58 10000 1.54 360 23:19 24.01.2021
3324 Clouds 13 1026 67 10000 1.54 290 22:42 24.01.2021
3325 Clouds 13 1026 67 10000 1.54 290 22:42 24.01.2021
3326 Drizzle 13 1026 67 10000 2.57 290 22:20 24.01.2021
3327 Clouds 14 1027 67 9000 6.69 280 21:48 24.01.2021
3328 Drizzle 15 1027 58 10000 5.66 270 21:24 24.01.2021
3329 Clouds 16 1027 55 10000 4.63 290 20:44 24.01.2021
3330 Clouds 14 1028 58 10000 2.57 20 20:21 24.01.2021
3331 Clouds 16 1028 48 10000 5.66 10 19:52 24.01.2021
3332 Clouds 18 1028 39 10000 5.14 120 19:27 24.01.2021
3333 Clouds 19 1029 42 10000 3.09 110 18:58 24.01.2021
3334 Clouds 19 1029 42 10000 3.09 110 18:39 24.01.2021
3335 Clouds 18 1029 48 10000 4.63 110 18:20 24.01.2021
3336 Clouds 18 1030 42 10000 4.63 120 17:50 24.01.2021
3337 Clouds 15 1030 51 10000 1.54 110 17:28 24.01.2021
3338 Clouds 15 1031 58 10000 1.54 150 16:58 24.01.2021
3339 Clouds 15 1031 58 10000 1.54 150 16:38 24.01.2021
3340 Clouds 14 1031 62 10000 3.6 120 16:18 24.01.2021
3341 Clouds 13 1032 62 10000 2.57 90 15:43 24.01.2021
3342 Clouds 13 1032 62 10000 1.54 360 15:18 24.01.2021
3343 Clouds 12 1032 66 10000 1.03 100 14:43 24.01.2021
3344 Clouds 10 1032 76 10000 1.03 110 13:48 24.01.2021
3345 Clouds 10 1032 76 10000 1.03 110 13:48 24.01.2021
3346 Clouds 10 1031 76 10000 0.96 4 13:27 24.01.2021
3347 Clouds 9 1031 81 10000 1.03 100 12:50 24.01.2021
3348 Clouds 9 1031 81 10000 0.9 325 12:20 24.01.2021
3349 Clouds 9 1031 81 10000 0.9 325 12:20 24.01.2021
3350 Clouds 9 1018 75 10000 0.9 325 11:52 24.01.2021
3351 Clouds 9 1017 75 10000 1.04 324 11:25 24.01.2021
3352 Clouds 9 1017 75 10000 1.04 324 10:50 24.01.2021
3353 Clouds 9 1017 75 10000 1.19 338 10:29 24.01.2021
3354 Clouds 9 1017 75 10000 1.19 338 09:44 24.01.2021
3355 Clouds 9 1017 75 10000 1.51 7 09:18 24.01.2021
3356 Clouds 10 1017 75 10000 1.48 360 08:26 24.01.2021
3357 Rain 10 1019 74 10000 1.78 17 03:37 24.01.2021
3358 Clouds 15 1027 47 10000 2.06 20 02:18 24.01.2021
3359 Clouds 16 1026 44 10000 2.06 10 00:28 24.01.2021
3360 Clouds 17 1026 42 10000 3.09 360 23:59 23.01.2021
3361 Clouds 17 1026 42 10000 3.09 360 23:59 23.01.2021
3362 Clouds 18 1025 42 10000 3.6 360 23:33 23.01.2021
3363 Clouds 19 1025 42 10000 3.3 19 22:58 23.01.2021
3364 Clouds 19 1025 42 10000 3.3 19 22:40 23.01.2021
3365 Clouds 20 1025 32 10000 1.03 0 21:58 23.01.2021
3366 Clouds 19 1026 37 10000 3.6 120 21:23 23.01.2021
3367 Clouds 19 1027 39 10000 2.06 110 20:51 23.01.2021
3368 Clouds 17 1028 45 10000 3.09 100 20:30 23.01.2021
3369 Clouds 18 1028 39 10000 2.06 100 19:47 23.01.2021
3370 Clouds 18 1029 39 10000 3.09 290 19:25 23.01.2021
3371 Clouds 17 1030 39 10000 1.54 190 18:59 23.01.2021
3372 Clouds 17 1030 39 10000 1.54 190 18:40 23.01.2021
3373 Clouds 16 1031 41 10000 0.51 200 18:20 23.01.2021
3374 Clouds 16 1032 48 10000 0.51 0 17:29 23.01.2021
3375 Clouds 15 1032 51 10000 0.51 0 16:52 23.01.2021
3376 Clouds 15 1032 51 10000 2.06 100 16:32 23.01.2021
3377 Clouds 14 1033 51 10000 1.54 270 15:49 23.01.2021
3378 Clouds 13 1033 58 10000 1.54 30 15:28 23.01.2021
3379 Clouds 13 1033 58 10000 1.54 240 14:38 23.01.2021
3380 Clouds 12 1033 62 10000 1.54 290 14:19 23.01.2021
3381 Clouds 13 1032 58 10000 0.51 300 13:40 23.01.2021
3382 Clouds 11 1032 66 10000 1.03 100 13:22 23.01.2021
3383 Clouds 9 1032 76 10000 1.03 110 12:43 23.01.2021
3384 Clouds 9 1032 76 10000 2.06 80 12:23 23.01.2021
3385 Clouds 8 1020 76 10000 0.46 331 11:35 23.01.2021
3386 Clouds 8 1019 76 10000 0.9 349 10:55 23.01.2021
3387 Clouds 8 1019 76 10000 1.1 12 10:24 23.01.2021
3388 Clouds 8 1019 76 10000 1.1 12 09:52 23.01.2021
3389 Clouds 8 1019 75 10000 1.01 35 09:28 23.01.2021
3390 Clouds 8 1019 75 10000 1.01 35 08:42 23.01.2021
3391 Clouds 8 1019 74 10000 1.12 28 07:48 23.01.2021
3392 Clouds 8 1020 74 10000 1.2 40 06:49 23.01.2021
3393 Clouds 13 1030 58 10000 2.57 110 02:20 23.01.2021
3394 Clouds 15 1028 47 10000 2.57 20 00:23 23.01.2021
3395 Clouds 15 1028 47 10000 3.09 20 23:36 22.01.2021
3396 Clouds 16 1027 48 10000 3.09 20 22:42 22.01.2021
3397 Clouds 16 1027 48 10000 1.54 260 22:20 22.01.2021
3398 Clouds 16 1028 44 10000 5.14 20 21:39 22.01.2021
3399 Clouds 16 1028 44 10000 5.14 20 21:21 22.01.2021
3400 Clouds 16 1028 44 10000 4.63 350 20:46 22.01.2021
3401 Clouds 17 1029 48 10000 4.12 360 20:26 22.01.2021
3402 Clouds 17 1029 42 10000 5.66 20 19:47 22.01.2021
3403 Clouds 17 1030 48 10000 4.12 20 19:18 22.01.2021
3404 Clouds 17 1030 42 10000 4.12 10 18:44 22.01.2021
3405 Clouds 16 1031 48 10000 4.12 360 18:25 22.01.2021
3406 Clouds 16 1031 48 10000 3.6 50 17:48 22.01.2021
3407 Clouds 17 1031 45 10000 1.03 0 17:29 22.01.2021
3408 Clouds 15 1032 51 10000 2.06 0 16:54 22.01.2021
3409 Clouds 15 1032 51 10000 2.06 260 16:30 22.01.2021
3410 Clouds 15 1032 55 10000 1.03 0 15:45 22.01.2021
3411 Clouds 13 1033 67 10000 0.51 0 15:20 22.01.2021
3412 Clouds 12 1032 71 10000 0.51 310 14:32 22.01.2021
3413 Clouds 11 1032 71 10000 1.03 0 13:54 22.01.2021
3414 Clouds 11 1032 71 10000 1.03 0 13:35 22.01.2021
3415 Clouds 9 1031 87 10000 0.51 0 12:56 22.01.2021
3416 Clouds 9 1031 81 10000 0.52 54 12:27 22.01.2021
3417 Clouds 9 1019 72 10000 0.52 54 11:49 22.01.2021
3418 Clouds 9 1019 73 10000 1.01 40 11:30 22.01.2021
3419 Clouds 9 1019 73 10000 1.02 41 10:46 22.01.2021
3420 Clouds 9 1018 73 10000 1.31 39 10:22 22.01.2021
3421 Clouds 9 1018 73 10000 1.31 39 09:42 22.01.2021
3422 Clouds 8 1018 73 10000 1.17 39 08:57 22.01.2021
3423 Rain 8 1018 73 10000 1.17 39 08:31 22.01.2021
3424 Clouds 9 1018 71 10000 1.36 31 07:41 22.01.2021
3425 Clouds 9 1019 72 10000 2.51 27 04:39 22.01.2021
3426 Clouds 12 1028 71 10000 2.06 90 01:20 22.01.2021
3427 Clouds 14 1027 58 10000 1.03 10 00:27 22.01.2021
3428 Clouds 15 1027 58 10000 1.03 110 23:43 21.01.2021
3429 Clouds 14 1027 62 10000 3.6 100 23:20 21.01.2021
3430 Clouds 15 1027 63 10000 2.57 0 22:42 21.01.2021
3431 Clouds 16 1027 59 10000 2.7 29 21:44 21.01.2021
3432 Clouds 14 1029 67 10000 1.54 0 21:23 21.01.2021
3433 Clouds 12 1029 76 8000 3.09 280 20:59 21.01.2021
3434 Clouds 12 1029 76 8000 3.09 280 20:41 21.01.2021
3435 Drizzle 12 1029 71 8000 2.34 357 20:20 21.01.2021
3436 Clouds 11 1030 76 8000 2.06 0 19:46 21.01.2021
3437 Clouds 13 1030 67 9000 2.57 100 19:25 21.01.2021
3438 Clouds 14 1030 62 10000 3.6 100 18:43 21.01.2021
3439 Drizzle 13 1031 71 10000 2.57 110 18:21 21.01.2021
3440 Clouds 12 1031 76 10000 2.06 90 17:57 21.01.2021
3441 Rain 12 1031 76 10000 1.03 350 17:21 21.01.2021
3442 Rain 12 1032 76 9000 0.51 230 16:56 21.01.2021
3443 Drizzle 12 1032 76 9000 0.51 230 16:38 21.01.2021
3444 Clouds 11 1032 76 7000 0.88 288 16:19 21.01.2021
3445 Clouds 11 1032 82 8000 2.06 80 15:46 21.01.2021
3446 Drizzle 10 1032 81 8000 1.54 130 15:24 21.01.2021
3447 Clouds 10 1032 81 6000 1.03 0 14:44 21.01.2021
3448 Mist 9 1032 87 4000 1.03 0 14:23 21.01.2021
3449 Rain 9 1032 87 4000 1.03 0 13:43 21.01.2021
3450 Mist 9 1031 87 4000 0.51 0 13:23 21.01.2021
3451 Drizzle 9 1031 87 6000 1.35 59 12:42 21.01.2021
3452 Clouds 9 1031 87 6000 1.03 270 12:24 21.01.2021
3453 Clouds 9 1018 73 10000 1.49 52 11:51 21.01.2021
3454 Clouds 9 1017 73 10000 1.44 38 11:28 21.01.2021
3455 Clouds 9 1017 73 10000 1.44 38 10:52 21.01.2021
3456 Clouds 9 1017 73 10000 1.44 38 10:33 21.01.2021
3457 Clouds 9 1017 74 10000 1.52 41 09:45 21.01.2021
3458 Clouds 9 1017 74 10000 1.57 34 09:25 21.01.2021
3459 Clouds 9 1017 74 10000 1.57 34 09:25 21.01.2021
3460 Clouds 9 1017 74 10000 1.57 34 08:45 21.01.2021
3461 Clouds 10 1017 74 10000 1.65 33 08:25 21.01.2021
3462 Clouds 10 1017 73 10000 1.67 33 07:28 21.01.2021
3463 Clouds 10 1017 73 10000 1.67 33 06:58 21.01.2021
3464 Clouds 10 1018 71 10000 1.85 39 05:22 21.01.2021
3465 Clouds 10 1017 73 10000 2.05 33 02:58 21.01.2021
3466 Clouds 13 1028 58 10000 2.57 260 01:21 21.01.2021
3467 Clouds 14 1027 58 10000 4.12 250 23:56 20.01.2021
3468 Clouds 14 1027 58 10000 4.12 250 23:36 20.01.2021
3469 Clouds 15 1026 55 10000 5.14 260 23:18 20.01.2021
3470 Clouds 15 1026 51 10000 3.6 360 22:46 20.01.2021
3471 Clouds 16 1026 48 10000 4.12 360 22:28 20.01.2021
3472 Clouds 17 1027 51 10000 6.69 260 21:41 20.01.2021
3473 Clouds 17 1027 51 10000 6.69 260 21:21 20.01.2021
3474 Clouds 16 1027 55 10000 6.17 260 20:50 20.01.2021
3475 Clouds 16 1028 59 10000 6.17 270 20:19 20.01.2021
3476 Clouds 16 1028 48 10000 2.57 280 19:45 20.01.2021
3477 Clouds 17 1028 45 10000 5.14 80 19:26 20.01.2021
3478 Clouds 17 1028 51 10000 4.63 30 18:42 20.01.2021
3479 Clouds 17 1029 42 10000 4.12 30 18:18 20.01.2021
3480 Clouds 16 1029 55 10000 3.6 120 17:40 20.01.2021
3481 Clouds 15 1030 58 10000 4.63 120 17:19 20.01.2021
3482 Clouds 15 1031 58 10000 2.57 120 16:41 20.01.2021
3483 Clouds 13 1032 67 10000 2.06 120 15:55 20.01.2021
3484 Clouds 13 1032 67 10000 2.06 120 15:36 20.01.2021
3485 Clouds 12 1032 76 10000 1.03 0 14:51 20.01.2021
3486 Clouds 11 1032 76 9000 0.51 0 14:28 20.01.2021
3487 Clouds 11 1031 82 9000 1.39 26 13:59 20.01.2021
3488 Clouds 11 1031 82 9000 1.39 25 13:36 20.01.2021
3489 Rain 10 1031 81 7000 1.53 39 12:48 20.01.2021
3490 Clouds 9 1030 87 6000 1.76 45 12:22 20.01.2021
3491 Rain 10 1018 73 10000 1.76 45 11:39 20.01.2021
3492 Rain 10 1017 73 10000 1.72 44 11:18 20.01.2021
3493 Rain 10 1017 73 10000 1.72 44 10:44 20.01.2021
3494 Rain 10 1016 73 10000 1.82 44 10:18 20.01.2021
3495 Rain 10 1016 73 10000 1.82 44 09:31 20.01.2021
3496 Rain 10 1016 73 10000 1.88 47 08:59 20.01.2021
3497 Clouds 10 1016 73 10000 1.88 47 08:35 20.01.2021
3498 Rain 10 1016 73 10000 1.95 45 07:59 20.01.2021
3499 Rain 11 1017 73 10000 2.06 43 07:37 20.01.2021
3500 Rain 10 1017 72 10000 1.88 51 06:56 20.01.2021
3501 Clouds 10 1018 74 10000 1.88 27 03:34 20.01.2021
3502 Clouds 13 1027 67 10000 3.6 270 01:51 20.01.2021
3503 Clouds 13 1027 67 10000 3.6 280 00:52 20.01.2021
3504 Clouds 16 1026 55 10000 3.6 240 23:51 19.01.2021
3505 Clouds 16 1025 55 10000 3.6 260 23:32 19.01.2021
3506 Clouds 15 1025 58 10000 3.09 270 22:58 19.01.2021
3507 Rain 15 1025 58 10000 3.09 270 22:38 19.01.2021
3508 Rain 15 1026 55 10000 3.09 250 22:20 19.01.2021
3509 Rain 15 1025 58 10000 5.66 270 21:54 19.01.2021
3510 Clouds 18 1025 48 10000 7.2 300 21:32 19.01.2021
3511 Clouds 20 1025 37 10000 1.54 200 20:49 19.01.2021
3512 Clouds 20 1026 40 10000 3.09 10 20:27 19.01.2021
3513 Clouds 19 1027 45 10000 4.63 360 19:56 19.01.2021
3514 Clouds 18 1027 48 10000 3.53 353 19:31 19.01.2021
3515 Clouds 18 1028 48 10000 2.73 338 18:51 19.01.2021
3516 Clouds 16 1028 59 10000 2.58 333 18:32 19.01.2021
3517 Clouds 16 1029 51 10000 1.62 318 17:55 19.01.2021
3518 Clouds 16 1029 51 10000 1.62 318 17:37 19.01.2021
3519 Clouds 17 1029 55 10000 1.2 290 17:18 19.01.2021
3520 Clouds 16 1030 51 10000 1.2 290 16:38 19.01.2021
3521 Clouds 15 1030 58 10000 1.3 294 16:18 19.01.2021
3522 Clouds 14 1031 62 10000 1.3 294 15:47 19.01.2021
3523 Clouds 13 1031 67 10000 1.46 298 15:29 19.01.2021
3524 Clouds 13 1031 71 10000 1.46 298 14:42 19.01.2021
3525 Clouds 12 1031 71 10000 1.27 302 14:23 19.01.2021
3526 Clouds 11 1031 71 10000 1.27 302 13:49 19.01.2021
3527 Clouds 11 1030 82 10000 0.96 300 13:21 19.01.2021
3528 Clouds 10 1030 87 10000 0.72 266 12:48 19.01.2021
3529 Clouds 9 1030 81 10000 0.72 266 12:30 19.01.2021
3530 Clouds 7 1018 77 10000 0.64 302 11:50 19.01.2021
3531 Clouds 7 1017 77 10000 0.65 294 11:28 19.01.2021
3532 Clouds 7 1017 77 10000 0.65 294 11:28 19.01.2021
3533 Clouds 7 1017 77 10000 0.65 294 10:52 19.01.2021
3534 Clouds 7 1017 77 10000 0.65 294 10:32 19.01.2021
3535 Clouds 7 1017 77 10000 0.84 270 09:53 19.01.2021
3536 Clouds 7 1017 77 10000 0.84 270 09:31 19.01.2021
3537 Clouds 8 1017 76 10000 0.92 276 08:59 19.01.2021
3538 Clouds 8 1017 75 10000 0.85 283 08:26 19.01.2021
3539 Clouds 8 1017 75 10000 0.85 283 07:47 19.01.2021
3540 Clouds 9 1018 75 10000 1.07 282 06:54 19.01.2021
3541 Clouds 9 1018 75 10000 1.07 282 06:54 19.01.2021
3542 Clouds 10 1018 73 10000 1.89 341 02:56 19.01.2021
3543 Clouds 12 1029 66 10000 2.26 337 02:20 19.01.2021
3544 Clouds 13 1028 67 10000 2.32 352 23:59 18.01.2021
3545 Clouds 13 1027 67 10000 2.32 352 23:35 18.01.2021
3546 Clouds 13 1027 71 10000 2.77 349 22:58 18.01.2021
3547 Clouds 13 1027 71 10000 2.77 349 22:38 18.01.2021
3548 Clouds 13 1027 71 10000 2.79 352 22:18 18.01.2021
3549 Rain 12 1027 82 10000 2.79 352 21:40 18.01.2021
3550 Rain 12 1028 76 8000 3.03 350 21:21 18.01.2021
3551 Clouds 12 1028 82 9000 3.03 350 20:43 18.01.2021
3552 Clouds 12 1028 82 8000 3.6 349 20:25 18.01.2021
3553 Drizzle 12 1029 82 8000 3.6 349 19:51 18.01.2021
3554 Drizzle 12 1029 82 8000 3.6 349 19:33 18.01.2021
3555 Clouds 13 1029 67 9000 2.57 130 18:47 18.01.2021
3556 Drizzle 16 1029 55 10000 2.06 130 18:23 18.01.2021
3557 Rain 16 1029 59 10000 2.57 120 17:45 18.01.2021
3558 Rain 16 1029 63 10000 0.51 140 17:24 18.01.2021
3559 Rain 14 1029 67 10000 3.09 270 16:48 18.01.2021
3560 Rain 15 1030 58 10000 1.03 0 16:22 18.01.2021
3561 Clouds 15 1030 58 10000 2.06 280 15:49 18.01.2021
3562 Clouds 14 1030 67 10000 4.12 280 15:25 18.01.2021
3563 Clouds 14 1030 67 10000 2.06 250 14:46 18.01.2021
3564 Clouds 13 1029 67 10000 1.54 290 14:28 18.01.2021
3565 Clouds 13 1029 67 10000 1.03 320 13:47 18.01.2021
3566 Clouds 12 1029 71 10000 0.51 360 13:28 18.01.2021
3567 Clouds 11 1029 82 10000 0.51 0 12:56 18.01.2021
3568 Clouds 11 1029 82 10000 0.51 0 12:36 18.01.2021
3569 Clouds 11 1028 82 10000 1.03 110 12:18 18.01.2021
3570 Clouds 10 1016 75 10000 0.37 231 11:40 18.01.2021
3571 Clouds 10 1015 75 10000 0.52 256 11:20 18.01.2021
3572 Clouds 9 1015 76 10000 0.53 256 11:20 18.01.2021
3573 Clouds 9 1015 76 10000 0.53 256 10:44 18.01.2021
3574 Clouds 9 1014 76 10000 0.44 141 09:50 18.01.2021
3575 Clouds 9 1014 77 10000 0.44 141 09:32 18.01.2021
3576 Clouds 9 1015 76 10000 0.28 192 08:54 18.01.2021
3577 Clouds 9 1015 75 10000 0.91 295 08:25 18.01.2021
3578 Clouds 9 1015 75 10000 0.91 295 07:37 18.01.2021
3579 Rain 11 1015 73 10000 1.48 298 05:45 18.01.2021
3580 Rain 11 1015 74 10000 1.48 335 04:39 18.01.2021
3581 Rain 11 1015 74 10000 1.81 349 04:18 18.01.2021
3582 Clouds 11 1015 74 10000 1.81 349 03:42 18.01.2021
3583 Clouds 12 1015 72 10000 2.25 351 03:20 18.01.2021
3584 Clouds 13 1026 67 10000 2.06 270 02:37 18.01.2021
3585 Clouds 13 1026 67 10000 2.06 270 01:36 18.01.2021
3586 Clouds 14 1025 58 10000 3.6 300 00:32 18.01.2021
3587 Clouds 15 1025 55 10000 3.09 280 23:48 17.01.2021
3588 Clouds 15 1025 63 10000 2.06 90 23:21 17.01.2021
3589 Clouds 14 1024 67 10000 1.54 110 22:41 17.01.2021
3590 Clouds 14 1025 67 10000 3.09 100 22:22 17.01.2021
3591 Drizzle 13 1025 76 10000 1.54 70 21:40 17.01.2021
3592 Drizzle 12 1026 76 10000 1.54 350 21:22 17.01.2021
3593 Rain 13 1026 67 10000 4.12 280 20:49 17.01.2021
3594 Drizzle 14 1026 62 10000 5.66 280 20:29 17.01.2021
3595 Clouds 15 1026 58 10000 4.12 110 19:43 17.01.2021
3596 Clouds 16 1027 59 10000 4.63 100 19:25 17.01.2021
3597 Clouds 16 1027 59 10000 4.63 100 19:25 17.01.2021
3598 Clouds 15 1027 63 10000 4.63 110 18:49 17.01.2021
3599 Clouds 16 1027 51 10000 2.06 0 18:27 17.01.2021
3600 Clouds 16 1028 55 10000 2.57 110 17:49 17.01.2021
3601 Clouds 14 1028 62 10000 3.09 110 17:28 17.01.2021
3602 Clouds 13 1029 67 10000 2.57 100 16:44 17.01.2021
3603 Clouds 14 1029 62 10000 1.54 100 16:24 17.01.2021
3604 Clouds 13 1029 67 10000 1.54 120 15:44 17.01.2021
3605 Clouds 14 1029 58 10000 1.54 100 15:25 17.01.2021
3606 Clouds 14 1029 67 10000 0.51 90 14:50 17.01.2021
3607 Clouds 12 1029 76 10000 0.51 0 14:26 17.01.2021
3608 Clouds 11 1029 82 10000 1.03 0 13:47 17.01.2021
3609 Clouds 10 1028 87 10000 1.54 100 13:29 17.01.2021
3610 Clouds 10 1028 87 10000 1.03 100 12:55 17.01.2021
3611 Clouds 9 1028 87 10000 0.87 195 12:32 17.01.2021
3612 Clouds 9 1015 75 10000 0.68 242 11:59 17.01.2021
3613 Clouds 9 1014 75 10000 0.63 201 11:24 17.01.2021
3614 Clouds 9 1014 75 10000 0.63 201 10:49 17.01.2021
3615 Clouds 9 1014 76 10000 0.79 177 10:21 17.01.2021
3616 Clouds 9 1014 76 10000 0.79 177 09:44 17.01.2021
3617 Clouds 9 1013 77 10000 1.41 167 08:47 17.01.2021
3618 Clouds 9 1013 78 9547 1.82 184 07:46 17.01.2021
3619 Clouds 11 1016 76 10000 0.52 330 04:29 17.01.2021
3620 Clouds 11 1015 73 10000 1.14 317 02:48 17.01.2021
3621 Clouds 15 1025 55 10000 3.09 270 00:51 17.01.2021
3622 Clouds 16 1024 48 10000 4.63 270 00:20 17.01.2021
3623 Clouds 16 1024 51 10000 4.63 280 23:51 16.01.2021
3624 Clouds 16 1024 55 10000 5.14 280 23:20 16.01.2021
3625 Rain 17 1024 51 10000 3.6 280 22:45 16.01.2021
3626 Rain 16 1024 55 10000 1.54 260 21:59 16.01.2021
3627 Clouds 16 1024 55 10000 1.54 260 21:38 16.01.2021
3628 Clouds 17 1025 48 10000 1.54 0 21:18 16.01.2021
3629 Clouds 17 1025 45 10000 0.51 240 20:44 16.01.2021
3630 Clouds 16 1026 55 10000 2.06 0 20:22 16.01.2021
3631 Clouds 16 1027 48 10000 1.03 0 19:48 16.01.2021
3632 Clouds 16 1028 51 10000 1.54 260 19:29 16.01.2021
3633 Clouds 17 1028 55 10000 2.06 0 18:43 16.01.2021
3634 Clouds 15 1029 55 10000 1.44 251 18:25 16.01.2021
3635 Clouds 15 1029 51 10000 1.42 253 17:48 16.01.2021
3636 Clouds 14 1030 58 10000 1.54 210 17:29 16.01.2021
3637 Clouds 13 1030 58 10000 1.03 290 16:47 16.01.2021
3638 Clouds 12 1031 58 10000 1.54 0 16:27 16.01.2021
3639 Clouds 12 1031 62 10000 1.03 0 15:54 16.01.2021
3640 Rain 11 1031 62 10000 1.03 130 15:22 16.01.2021
3641 Clouds 9 1031 71 10000 1.03 270 14:25 16.01.2021
3642 Clouds 8 1031 76 10000 1.03 0 13:49 16.01.2021
3643 Drizzle 7 1031 81 10000 3.09 290 13:25 16.01.2021
3644 Drizzle 7 1031 81 10000 2.06 290 12:46 16.01.2021
3645 Drizzle 7 1030 81 9000 3.09 290 12:20 16.01.2021
3646 Rain 8 1015 77 10000 1.43 206 11:49 16.01.2021
3647 Rain 8 1014 78 10000 1.67 200 11:25 16.01.2021
3648 Clouds 8 1014 78 10000 1.67 200 10:47 16.01.2021
3649 Clouds 8 1014 79 5413 2.24 197 10:24 16.01.2021
3650 Clouds 8 1014 79 5413 2.24 197 09:39 16.01.2021
3651 Rain 8 1014 79 7725 2.48 195 09:19 16.01.2021
3652 Clouds 9 1015 79 7367 2.44 190 07:50 16.01.2021
3653 Clouds 10 1015 77 9256 1.63 203 06:44 16.01.2021
3654 Clouds 11 1016 74 10000 0.56 288 04:40 16.01.2021
3655 Clouds 11 1015 72 10000 1.65 2 02:56 16.01.2021
3656 Clouds 15 1026 58 10000 2.57 260 01:44 16.01.2021
3657 Clouds 15 1026 63 10000 3.6 270 00:38 16.01.2021
3658 Clouds 15 1025 63 10000 4.63 290 00:19 16.01.2021
3659 Clouds 16 1024 59 10000 3.09 340 23:24 15.01.2021
3660 Clouds 17 1025 51 10000 3.09 310 22:26 15.01.2021
3661 Clouds 17 1025 51 10000 5.14 280 21:47 15.01.2021
3662 Clouds 17 1025 55 10000 5.14 290 21:25 15.01.2021
3663 Clouds 18 1025 48 10000 3.3 2 20:42 15.01.2021
3664 Clouds 18 1025 48 10000 3.3 2 20:42 15.01.2021
3665 Clouds 19 1026 39 10000 2.06 0 20:22 15.01.2021
3666 Clouds 20 1026 37 10000 3.18 357 19:42 15.01.2021
3667 Clouds 19 1027 42 10000 1.54 0 19:24 15.01.2021
3668 Clouds 19 1028 42 10000 1.54 180 18:45 15.01.2021
3669 Clouds 17 1028 48 10000 1.03 0 18:20 15.01.2021
3670 Clouds 16 1029 51 10000 2.57 100 17:53 15.01.2021
3671 Clouds 16 1029 48 10000 0.51 340 17:27 15.01.2021
3672 Clouds 17 1029 48 10000 0.51 130 16:58 15.01.2021
3673 Clouds 16 1030 48 10000 0.51 0 16:26 15.01.2021
3674 Clouds 14 1030 54 10000 2.06 100 15:56 15.01.2021
3675 Clouds 14 1030 54 10000 2.06 100 15:37 15.01.2021
3676 Clouds 14 1030 58 10000 3.09 110 15:18 15.01.2021
3677 Clouds 14 1030 62 10000 2.57 80 14:37 15.01.2021
3678 Clouds 13 1030 58 10000 1.03 0 14:18 15.01.2021
3679 Clouds 12 1030 71 10000 1.03 0 13:40 15.01.2021
3680 Clouds 11 1030 71 10000 1.28 106 13:19 15.01.2021
3681 Clouds 10 1030 81 10000 1.03 0 12:40 15.01.2021
3682 Clouds 9 1029 81 10000 1.03 100 12:21 15.01.2021
3683 Clouds 10 1016 76 10000 1.1 112 11:42 15.01.2021
3684 Clouds 10 1016 77 10000 1.11 113 11:42 15.01.2021
3685 Rain 10 1015 76 10000 0.59 97 10:59 15.01.2021
3686 Clouds 10 1015 76 10000 0.59 97 10:41 15.01.2021
3687 Clouds 10 1015 76 10000 0.31 353 10:21 15.01.2021
3688 Clouds 10 1015 76 10000 0.31 353 09:48 15.01.2021
3689 Clouds 10 1015 76 10000 0.8 318 09:28 15.01.2021
3690 Clouds 10 1015 74 10000 0.91 325 08:28 15.01.2021
3691 Clouds 10 1015 74 10000 0.91 325 08:28 15.01.2021
3692 Clouds 10 1015 74 10000 0.91 325 07:44 15.01.2021
3693 Clouds 10 1016 73 10000 1.04 3 07:23 15.01.2021
3694 Clouds 10 1016 73 10000 1.62 22 06:36 15.01.2021
3695 Clouds 9 1017 73 10000 1.93 39 02:44 15.01.2021
3696 Clouds 12 1028 66 10000 2.06 110 00:42 15.01.2021
3697 Clouds 14 1028 58 10000 3.09 110 23:30 14.01.2021
3698 Clouds 14 1028 62 10000 2.06 110 22:57 14.01.2021
3699 Clouds 14 1028 62 10000 2.06 110 22:37 14.01.2021
3700 Rain 14 1028 54 10000 1.03 0 22:19 14.01.2021
3701 Clouds 14 1028 58 10000 1.54 0 21:39 14.01.2021
3702 Rain 13 1028 58 10000 3.6 40 21:20 14.01.2021
3703 Rain 13 1028 58 10000 4.12 360 20:47 14.01.2021
3704 Rain 13 1029 58 10000 1.53 37 20:18 14.01.2021
3705 Rain 15 1029 51 10000 3.6 20 19:38 14.01.2021
3706 Rain 15 1029 51 10000 6.17 360 19:18 14.01.2021
3707 Rain 14 1029 58 10000 1.88 15 18:45 14.01.2021
3708 Rain 14 1030 62 10000 2.06 270 17:59 14.01.2021
3709 Clouds 13 1030 67 10000 1.24 358 17:41 14.01.2021
3710 Rain 13 1030 67 10000 1.27 39 17:23 14.01.2021
3711 Rain 12 1031 66 10000 1.03 70 16:39 14.01.2021
3712 Rain 12 1031 62 10000 1.03 110 15:55 14.01.2021
3713 Rain 12 1031 62 10000 1.03 110 15:37 14.01.2021
3714 Rain 12 1031 66 10000 0.73 75 14:50 14.01.2021
3715 Rain 12 1031 62 10000 0.73 75 14:31 14.01.2021
3716 Rain 11 1030 76 10000 0.84 90 13:57 14.01.2021
3717 Rain 11 1030 76 10000 0.84 90 13:57 14.01.2021
3718 Rain 11 1030 76 10000 0.84 90 13:39 14.01.2021
3719 Rain 10 1030 81 10000 0.92 120 13:18 14.01.2021
3720 Rain 10 1030 81 10000 1.03 110 12:38 14.01.2021
3721 Clouds 9 1030 87 10000 1.54 90 12:18 14.01.2021
3722 Rain 9 1017 77 10000 0.65 115 11:41 14.01.2021
3723 Clouds 9 1017 78 10000 0.84 173 11:20 14.01.2021
3724 Clouds 9 1017 77 10000 0.8 173 10:47 14.01.2021
3725 Clouds 9 1016 78 10000 0.98 179 10:20 14.01.2021
3726 Clouds 9 1016 78 10000 0.98 179 09:44 14.01.2021
3727 Clouds 9 1016 77 10000 1.02 162 09:22 14.01.2021
3728 Clouds 9 1016 77 10000 1.02 162 08:40 14.01.2021
3729 Clouds 10 1016 76 8300 1.16 176 08:21 14.01.2021
3730 Clouds 10 1016 76 8300 1.16 176 07:42 14.01.2021
3731 Clouds 10 1017 75 10000 0.96 169 06:41 14.01.2021
3732 Clouds 11 1018 72 10000 1.23 15 05:23 14.01.2021
3733 Clouds 14 1028 62 10000 1.03 120 00:36 14.01.2021
3734 Clouds 14 1027 67 10000 3.09 280 23:49 13.01.2021
3735 Clouds 14 1027 54 10000 3.4 20 23:20 13.01.2021
3736 Clouds 18 1026 45 10000 2.06 0 22:27 13.01.2021
3737 Clouds 18 1025 45 10000 7.72 280 21:50 13.01.2021
3738 Clouds 19 1026 45 10000 7.72 290 21:24 13.01.2021
3739 Clouds 18 1026 45 10000 7.2 280 20:54 13.01.2021
3740 Clouds 20 1027 37 10000 4.12 30 20:28 13.01.2021
3741 Clouds 19 1027 39 10000 4.12 20 19:57 13.01.2021
3742 Clouds 19 1028 39 10000 3.6 50 19:32 13.01.2021
3743 Clouds 19 1029 45 10000 4.12 90 18:58 13.01.2021
3744 Clouds 19 1029 45 10000 4.12 90 18:36 13.01.2021
3745 Clouds 18 1030 42 10000 2.57 120 17:51 13.01.2021
3746 Clouds 19 1030 39 10000 1.03 0 17:23 13.01.2021
3747 Clouds 18 1031 45 10000 2.57 270 16:50 13.01.2021
3748 Clouds 18 1031 39 10000 3.6 100 16:21 13.01.2021
3749 Clouds 18 1031 39 10000 3.6 100 16:21 13.01.2021
3750 Clouds 16 1032 48 10000 1.03 40 15:52 13.01.2021
3751 Clouds 16 1032 44 10000 0.51 0 15:32 13.01.2021
3752 Clouds 14 1032 54 10000 3.09 90 14:43 13.01.2021
3753 Clouds 13 1032 62 10000 2.57 100 13:51 13.01.2021
3754 Clouds 11 1032 66 10000 3.09 130 13:27 13.01.2021
3755 Clouds 10 1032 87 10000 2.57 100 12:46 13.01.2021
3756 Clouds 9 1032 87 10000 2.57 100 12:28 13.01.2021
3757 Clouds 10 1018 75 10000 0.81 42 11:53 13.01.2021
3758 Clouds 10 1018 75 10000 0.81 42 11:34 13.01.2021
3759 Clouds 9 1017 76 10000 0.6 37 10:50 13.01.2021
3760 Clouds 9 1017 76 10000 0.6 37 10:32 13.01.2021
3761 Clouds 10 1017 74 10000 0.94 8 09:53 13.01.2021
3762 Clouds 10 1017 74 10000 0.94 8 09:30 13.01.2021
3763 Clouds 10 1016 74 10000 1.01 10 08:50 13.01.2021
3764 Clouds 10 1016 73 10000 1.19 1 08:28 13.01.2021
3765 Clouds 10 1016 73 10000 1.19 1 07:34 13.01.2021
3766 Clouds 10 1017 73 10000 1.25 7 06:53 13.01.2021
3767 Clouds 11 1018 72 10000 1.96 20 04:20 13.01.2021
3768 Rain 11 1018 72 10000 1.96 20 03:44 13.01.2021
3769 Clouds 11 1017 70 10000 2.04 15 03:24 13.01.2021
3770 Clouds 17 1027 42 10000 3.6 360 01:19 13.01.2021
3771 Clouds 19 1025 34 10000 1.54 350 23:55 12.01.2021
3772 Clouds 19 1025 34 10000 1.03 20 23:22 12.01.2021
3773 Clouds 19 1025 34 10000 2.06 120 22:46 12.01.2021
3774 Clouds 21 1025 30 10000 0.51 0 22:23 12.01.2021
3775 Clouds 20 1026 32 10000 2.57 170 21:49 12.01.2021
3776 Clouds 20 1026 32 10000 3.09 180 21:30 12.01.2021
3777 Clouds 20 1027 34 10000 4.12 330 20:49 12.01.2021
3778 Clouds 20 1028 49 10000 3.09 360 20:27 12.01.2021
3779 Clouds 19 1029 34 10000 4.63 10 19:49 12.01.2021
3780 Clouds 19 1030 42 10000 2.06 0 19:27 12.01.2021
3781 Rain 18 1030 45 10000 1.54 0 18:44 12.01.2021
3782 Rain 18 1031 45 10000 1.03 0 18:24 12.01.2021
3783 Clouds 17 1031 45 10000 1.03 0 17:43 12.01.2021
3784 Clouds 15 1032 58 10000 2.57 140 17:24 12.01.2021
3785 Clouds 15 1032 55 10000 1.54 0 16:43 12.01.2021
3786 Clouds 14 1033 62 10000 1.03 0 16:24 12.01.2021
3787 Clouds 13 1033 58 10000 2.06 80 15:40 12.01.2021
3788 Clouds 12 1033 62 9000 1.03 0 15:21 12.01.2021
3789 Clouds 11 1033 66 9000 1.54 0 14:42 12.01.2021
3790 Clouds 10 1033 71 9000 2.57 100 14:23 12.01.2021
3791 Clouds 9 1033 81 8000 3.09 100 13:52 12.01.2021
3792 Clouds 9 1032 81 8000 3.09 100 13:18 12.01.2021
3793 Clouds 8 1031 87 8000 1.54 100 12:24 12.01.2021
3794 Clouds 11 1018 73 10000 0.65 146 11:41 12.01.2021
3795 Clouds 11 1017 74 10000 0.76 134 10:55 12.01.2021
3796 Clouds 11 1017 74 10000 0.6 123 10:25 12.01.2021
3797 Clouds 11 1017 74 10000 0.6 123 09:58 12.01.2021
3798 Clouds 11 1017 74 10000 0.6 123 09:38 12.01.2021
3799 Clouds 11 1017 74 10000 0.1 190 09:18 12.01.2021
3800 Clouds 10 1017 75 10000 0.59 287 08:26 12.01.2021
3801 Rain 10 1017 75 10000 0.59 287 07:37 12.01.2021
3802 Rain 11 1017 75 10000 0.97 320 06:49 12.01.2021
3803 Clouds 11 1018 73 10000 0.33 329 05:34 12.01.2021
3804 Clouds 12 1018 73 10000 0.16 30 03:28 12.01.2021
3805 Clouds 15 1028 55 10000 3.6 360 02:21 12.01.2021
3806 Clouds 15 1028 55 10000 3.6 360 01:31 12.01.2021
3807 Clouds 17 1027 42 10000 2.57 230 23:58 11.01.2021
3808 Clouds 17 1027 42 10000 2.57 230 23:37 11.01.2021
3809 Clouds 18 1026 42 10000 2.57 130 23:18 11.01.2021
3810 Clouds 18 1026 45 10000 5.14 110 22:45 11.01.2021
3811 Clouds 19 1026 42 10000 5.14 290 22:26 11.01.2021
3812 Clouds 19 1027 39 10000 5.66 270 21:43 11.01.2021
3813 Clouds 19 1027 39 10000 7.2 280 21:25 11.01.2021
3814 Clouds 18 1028 45 10000 7.72 270 20:49 11.01.2021
3815 Clouds 17 1029 48 10000 6.17 290 20:29 11.01.2021
3816 Rain 17 1030 51 10000 7.2 290 19:57 11.01.2021
3817 Rain 17 1030 51 10000 7.2 290 19:35 11.01.2021
3818 Clouds 18 1030 36 10000 2.57 0 18:46 11.01.2021
3819 Clouds 17 1031 45 10000 6.17 20 18:28 11.01.2021
3820 Clouds 17 1031 42 10000 4.12 200 17:57 11.01.2021
3821 Clouds 17 1031 42 10000 4.12 200 17:38 11.01.2021
3822 Clouds 17 1031 42 10000 3.6 70 17:20 11.01.2021
3823 Clouds 17 1032 45 10000 1.54 120 16:41 11.01.2021
3824 Clouds 17 1032 45 10000 1.54 120 16:22 11.01.2021
3825 Clouds 17 1032 42 10000 1.34 313 15:49 11.01.2021
3826 Clouds 16 1032 51 10000 1.03 0 15:29 11.01.2021
3827 Clouds 15 1033 58 10000 1.01 315 14:40 11.01.2021
3828 Clouds 13 1033 62 10000 1.03 330 14:19 11.01.2021
3829 Clouds 13 1033 62 10000 0.59 339 13:44 11.01.2021
3830 Clouds 11 1032 76 10000 2.57 110 13:20 11.01.2021
3831 Clouds 10 1032 76 10000 0.64 13 12:41 11.01.2021
3832 Clouds 10 1031 76 10000 1.19 339 12:21 11.01.2021
3833 Clouds 9 1019 74 10000 1.19 339 11:44 11.01.2021
3834 Clouds 8 1018 76 10000 1.13 337 10:55 11.01.2021
3835 Clouds 8 1018 76 10000 1.13 337 10:32 11.01.2021
3836 Clouds 8 1017 76 10000 1.05 330 09:48 11.01.2021
3837 Clouds 8 1017 75 10000 1.03 342 09:25 11.01.2021
3838 Clouds 8 1017 75 10000 1.03 342 08:47 11.01.2021
3839 Clouds 9 1017 74 10000 0.99 349 08:22 11.01.2021
3840 Clouds 9 1017 74 10000 0.99 349 07:40 11.01.2021
3841 Clouds 9 1018 74 10000 0.99 5 07:19 11.01.2021
3842 Clouds 9 1018 74 10000 0.99 5 06:47 11.01.2021
3843 Clouds 13 1029 54 10000 3.09 110 01:53 11.01.2021
3844 Clouds 13 1028 58 10000 2.57 110 00:40 11.01.2021
3845 Clouds 15 1027 47 10000 1.03 0 23:46 10.01.2021
3846 Clouds 15 1027 47 10000 6.69 110 22:49 10.01.2021
3847 Clouds 16 1027 44 10000 9.26 120 22:28 10.01.2021
3848 Clouds 17 1026 42 10000 9.26 120 21:58 10.01.2021
3849 Clouds 17 1026 42 10000 9.26 120 21:39 10.01.2021
3850 Clouds 20 1027 26 10000 4.12 10 21:18 10.01.2021
3851 Clouds 21 1027 26 10000 2.57 30 20:44 10.01.2021
3852 Clouds 21 1028 32 10000 4.12 10 20:26 10.01.2021
3853 Clouds 21 1028 32 10000 3.6 0 19:38 10.01.2021
3854 Clouds 19 1029 37 10000 3.09 0 19:20 10.01.2021
3855 Clouds 20 1030 40 10000 1.54 0 18:44 10.01.2021
3856 Clouds 19 1031 34 10000 3.09 140 18:20 10.01.2021
3857 Clouds 18 1031 42 10000 2.06 130 17:26 10.01.2021
3858 Clouds 17 1032 48 10000 2.48 338 16:49 10.01.2021
3859 Clouds 17 1032 48 10000 1.8 337 16:28 10.01.2021
3860 Clouds 16 1033 55 10000 2.06 110 15:39 10.01.2021
3861 Clouds 14 1033 58 10000 3.09 100 15:21 10.01.2021
3862 Clouds 14 1033 58 10000 1.03 0 14:40 10.01.2021
3863 Clouds 13 1033 67 10000 1.54 90 14:22 10.01.2021
3864 Clouds 11 1033 76 10000 2.06 100 13:42 10.01.2021
3865 Clouds 10 1032 81 10000 1.54 90 13:24 10.01.2021
3866 Clouds 10 1032 81 10000 1.54 90 12:51 10.01.2021
3867 Clouds 10 1032 81 10000 1.54 90 12:33 10.01.2021
3868 Clouds 9 1019 75 10000 1.09 349 11:55 10.01.2021
3869 Clouds 8 1018 77 10000 0.73 351 11:20 10.01.2021
3870 Clouds 8 1018 77 10000 0.73 351 11:20 10.01.2021
3871 Clouds 8 1018 78 10000 0.72 350 10:51 10.01.2021
3872 Clouds 8 1018 78 10000 0.39 355 10:22 10.01.2021
3873 Clouds 8 1018 78 10000 0.39 355 09:39 10.01.2021
3874 Clouds 8 1018 78 10000 0.79 349 08:27 10.01.2021
3875 Clouds 8 1018 78 10000 0.79 349 07:38 10.01.2021
3876 Clouds 9 1019 76 10000 1.23 0 06:21 10.01.2021
3877 Clouds 9 1019 76 10000 1.23 0 05:45 10.01.2021
3878 Clouds 9 1019 75 10000 1.45 7 05:27 10.01.2021
3879 Clouds 12 1029 62 10000 1.54 310 01:30 10.01.2021
3880 Clouds 14 1028 54 10000 4.12 270 00:19 10.01.2021
3881 Clouds 14 1028 54 10000 4.63 280 23:41 09.01.2021
3882 Clouds 14 1028 54 10000 7.72 290 22:59 09.01.2021
3883 Clouds 16 1027 48 10000 4.63 330 22:20 09.01.2021
3884 Clouds 17 1027 42 10000 3.6 330 21:58 09.01.2021
3885 Clouds 17 1027 42 10000 3.6 330 21:39 09.01.2021
3886 Clouds 17 1027 48 10000 3.09 90 21:20 09.01.2021
3887 Rain 17 1027 48 10000 2.57 0 20:47 09.01.2021
3888 Clouds 17 1027 45 10000 4.12 40 20:28 09.01.2021
3889 Clouds 17 1028 42 10000 3.6 0 19:39 09.01.2021
3890 Clouds 17 1028 45 10000 5.14 350 19:20 09.01.2021
3891 Clouds 19 1029 42 10000 0.51 80 18:37 09.01.2021
3892 Clouds 18 1030 48 10000 1.54 60 17:53 09.01.2021
3893 Clouds 18 1030 48 10000 1.54 60 17:33 09.01.2021
3894 Clouds 16 1031 48 10000 2.06 110 16:56 09.01.2021
3895 Clouds 15 1032 51 10000 2.06 0 16:22 09.01.2021
3896 Clouds 15 1032 55 10000 1.54 0 15:41 09.01.2021
3897 Clouds 15 1032 55 10000 1.03 0 15:19 09.01.2021
3898 Clouds 13 1032 58 10000 0.51 0 14:37 09.01.2021
3899 Clouds 14 1032 58 10000 0.51 0 14:18 09.01.2021
3900 Clouds 12 1032 62 10000 1.03 0 13:43 09.01.2021
3901 Clouds 13 1031 67 10000 1.03 0 13:24 09.01.2021
3902 Clouds 9 1031 81 10000 0.51 100 12:28 09.01.2021
3903 Clouds 9 1019 77 10000 1.86 164 11:58 09.01.2021
3904 Clouds 9 1019 77 10000 1.86 164 11:37 09.01.2021
3905 Clouds 9 1018 76 10000 1.66 165 11:18 09.01.2021
3906 Clouds 9 1018 76 10000 1.66 165 10:42 09.01.2021
3907 Clouds 9 1018 76 10000 1.1 163 10:22 09.01.2021
3908 Clouds 9 1018 76 10000 1.1 163 09:43 09.01.2021
3909 Clouds 9 1018 76 10000 0.75 150 09:20 09.01.2021
3910 Clouds 9 1018 75 10000 0.32 72 07:48 09.01.2021
3911 Clouds 9 1019 75 10000 0.44 341 06:53 09.01.2021
3912 Clouds 9 1019 73 10000 0.28 314 06:33 09.01.2021
3913 Clouds 10 1020 71 10000 1.47 1 03:53 09.01.2021
3914 Clouds 11 1019 69 10000 1.79 7 02:41 09.01.2021
3915 Clouds 9 1031 81 6000 1.03 290 02:23 09.01.2021
3916 Clouds 9 1031 81 6000 1.03 290 02:23 09.01.2021
3917 Clouds 9 1031 81 6000 1.03 290 02:23 09.01.2021
3918 Clouds 9 1031 81 6000 1.03 290 01:25 09.01.2021
3919 Rain 9 1029 81 7000 3.6 100 00:33 09.01.2021
3920 Rain 9 1029 81 7000 3.6 100 00:33 09.01.2021
3921 Clouds 10 1029 81 8000 7.2 100 23:46 08.01.2021
3922 Clouds 15 1027 44 10000 4.12 290 22:46 08.01.2021
3923 Clouds 18 1026 36 10000 4.63 10 21:53 08.01.2021
3924 Clouds 19 1027 42 10000 4.63 20 21:19 08.01.2021
3925 Clouds 18 1027 39 10000 5.66 20 20:37 08.01.2021
3926 Clouds 19 1028 39 10000 3.6 360 19:58 08.01.2021
3927 Clouds 18 1029 45 10000 3.09 10 19:25 08.01.2021
3928 Clouds 19 1030 32 10000 2.57 180 18:54 08.01.2021
3929 Clouds 19 1030 32 10000 2.57 180 18:54 08.01.2021
3930 Clouds 19 1030 32 10000 2.57 180 18:32 08.01.2021
3931 Clouds 19 1030 32 10000 1.54 0 17:54 08.01.2021
3932 Clouds 18 1031 45 10000 2.06 0 17:25 08.01.2021
3933 Clouds 18 1032 42 10000 1.54 270 16:48 08.01.2021
3934 Clouds 17 1032 51 10000 1.03 0 15:49 08.01.2021
3935 Clouds 15 1033 55 10000 1.54 0 15:29 08.01.2021
3936 Clouds 15 1033 51 10000 0.51 0 14:40 08.01.2021
3937 Clouds 15 1033 51 10000 0.51 0 14:40 08.01.2021
3938 Clouds 13 1033 67 10000 0.51 0 13:50 08.01.2021
3939 Clouds 12 1033 66 10000 0.51 130 13:21 08.01.2021
3940 Clouds 9 1033 81 10000 0.51 360 12:51 08.01.2021
3941 Clouds 8 1032 87 10000 0.51 290 12:22 08.01.2021
3942 Clear 7 1019 76 10000 0.47 1 11:48 08.01.2021
3943 Clear 6 1018 76 10000 0.64 10 11:29 08.01.2021
3944 Clear 6 1018 76 10000 0.64 10 10:55 08.01.2021
3945 Clear 7 1018 75 10000 0.63 7 10:37 08.01.2021
3946 Clear 7 1018 76 10000 0.65 7 09:53 08.01.2021
3947 Clear 7 1018 76 10000 0.65 7 09:32 08.01.2021
3948 Clouds 7 1018 77 10000 0.76 354 08:39 08.01.2021
3949 Clouds 8 1019 76 10000 1.22 3 07:29 08.01.2021
3950 Clouds 8 1019 73 10000 1.26 340 06:40 08.01.2021
3951 Clouds 14 1028 62 10000 1.03 250 00:32 08.01.2021
3952 Clouds 14 1028 67 10000 1.03 120 23:41 07.01.2021
3953 Drizzle 13 1027 71 10000 3.6 90 22:50 07.01.2021
3954 Clouds 14 1027 67 10000 2.57 90 22:32 07.01.2021
3955 Clouds 14 1027 62 10000 2.06 120 21:49 07.01.2021
3956 Clouds 13 1028 62 10000 3.09 120 21:27 07.01.2021
3957 Clouds 15 1029 55 10000 4.12 110 20:48 07.01.2021
3958 Clouds 16 1029 51 10000 2.06 300 20:29 07.01.2021
3959 Clouds 16 1030 51 10000 0.51 160 19:47 07.01.2021
3960 Drizzle 13 1032 62 10000 1.54 0 19:23 07.01.2021
3961 Clouds 12 1032 66 10000 2.57 90 18:40 07.01.2021
3962 Drizzle 13 1033 58 10000 0.51 0 18:19 07.01.2021
3963 Clouds 12 1034 58 10000 2.57 80 17:31 07.01.2021
3964 Clouds 12 1034 62 10000 2.06 120 16:55 07.01.2021
3965 Clouds 11 1034 62 10000 2.57 0 16:32 07.01.2021
3966 Clouds 10 1034 66 10000 2.57 120 15:48 07.01.2021
3967 Clouds 10 1034 66 9000 4.63 110 15:30 07.01.2021
3968 Drizzle 8 1034 81 9000 3.6 100 14:27 07.01.2021
3969 Drizzle 8 1034 76 9000 4.12 110 13:49 07.01.2021
3970 Drizzle 7 1034 81 8000 4.12 110 13:22 07.01.2021
3971 Clouds 6 1034 87 8000 4.12 110 12:52 07.01.2021
3972 Clouds 9 1019 73 10000 1.3 320 12:21 07.01.2021
3973 Clouds 9 1019 73 10000 1.3 320 11:38 07.01.2021
3974 Rain 9 1017 75 10000 1.36 309 10:54 07.01.2021
3975 Rain 9 1017 75 10000 1.36 309 10:35 07.01.2021
3976 Rain 9 1016 77 10000 1.83 299 09:50 07.01.2021
3977 Rain 9 1016 77 10000 1.83 299 09:32 07.01.2021
3978 Rain 9 1016 77 10000 1.97 298 08:31 07.01.2021
3979 Rain 9 1017 75 10000 1.02 330 07:57 07.01.2021
3980 Rain 9 1017 75 10000 1.02 330 07:38 07.01.2021
3981 Rain 10 1018 75 10000 1.08 347 05:52 07.01.2021
3982 Clouds 13 1028 62 10000 3.6 0 01:34 07.01.2021
3983 Clouds 17 1026 48 10000 0.5 0 23:52 06.01.2021
3984 Clouds 16 1026 51 10000 2.98 15 22:51 06.01.2021
3985 Clouds 16 1026 51 10000 1 0 22:20 06.01.2021
3986 Clouds 14 1027 67 10000 1.5 80 21:41 06.01.2021
3987 Clouds 13 1027 71 10000 2.1 100 21:22 06.01.2021
3988 Clouds 13 1027 71 10000 2.1 100 20:42 06.01.2021
3989 Rain 13 1028 66 10000 0.5 270 20:22 06.01.2021
3990 Rain 11 1029 71 10000 1 0 19:42 06.01.2021
3991 Clouds 11 1029 71 10000 1 0 19:24 06.01.2021
3992 Clouds 11 1029 76 10000 2.1 120 18:45 06.01.2021
3993 Clouds 14 1029 54 8000 5.1 50 18:27 06.01.2021
3994 Clouds 17 1029 45 10000 3.1 300 17:45 06.01.2021
3995 Clouds 17 1029 51 10000 2.6 0 17:26 06.01.2021
3996 Clouds 17 1029 51 10000 2.6 0 16:56 06.01.2021
3997 Clouds 15 1030 51 10000 1.5 0 16:20 06.01.2021
3998 Clouds 15 1030 51 10000 1.5 0 15:58 06.01.2021
3999 Clouds 14 1030 58 10000 1 0 15:33 06.01.2021
4000 Clouds 13 1030 58 10000 1 110 14:57 06.01.2021
4001 Clouds 13 1030 58 10000 1 110 14:30 06.01.2021
4002 Clouds 12 1030 66 10000 1.25 310 13:51 06.01.2021
4003 Clouds 11 1029 71 10000 1.36 305 13:25 06.01.2021
4004 Clouds 11 1029 71 10000 1.36 305 12:54 06.01.2021
4005 Clouds 11 1029 76 10000 1 110 12:30 06.01.2021
4006 Clouds 10 1016 72 10000 1.43 314 11:44 06.01.2021
4007 Clouds 9 1015 73 10000 1.03 332 11:21 06.01.2021
4008 Clouds 9 1015 73 10000 1.03 332 10:31 06.01.2021
4009 Clouds 10 1014 72 10000 1.37 330 09:52 06.01.2021
4010 Clouds 10 1014 71 10000 1.66 319 09:22 06.01.2021
4011 Clouds 10 1014 71 10000 1.66 319 08:42 06.01.2021
4012 Clouds 9 1014 74 10000 1.86 335 08:18 06.01.2021
4013 Clouds 9 1014 74 10000 1.86 335 07:41 06.01.2021
4014 Clouds 10 1016 74 10000 1.41 8 05:59 06.01.2021
4015 Clouds 10 1017 74 10000 1.8 358 04:43 06.01.2021
4016 Clouds 11 1016 72 10000 2.1 14 02:55 06.01.2021
4017 Clouds 12 1025 76 10000 2.1 14 02:36 06.01.2021
4018 Clouds 12 1025 76 10000 2.21 10 02:18 06.01.2021
4019 Clouds 16 1024 55 10000 4.6 270 23:44 05.01.2021
4020 Rain 17 1023 48 10000 2.7 348 22:53 05.01.2021
4021 Rain 17 1023 48 10000 2.7 348 22:34 05.01.2021
4022 Clouds 19 1022 39 10000 6.7 350 21:59 05.01.2021
4023 Clouds 21 1023 32 10000 1 180 21:18 05.01.2021
4024 Clouds 20 1024 34 10000 1.5 120 20:30 05.01.2021
4025 Clouds 19 1026 39 10000 1.5 0 19:45 05.01.2021
4026 Clouds 19 1026 39 10000 1.5 0 19:24 05.01.2021
4027 Clouds 18 1027 45 10000 1.5 0 18:49 05.01.2021
4028 Clouds 18 1027 45 10000 1.5 0 18:28 05.01.2021
4029 Clouds 18 1027 42 10000 2.1 0 17:54 05.01.2021
4030 Clouds 16 1029 55 10000 0.5 20 17:31 05.01.2021
4031 Clouds 16 1029 55 10000 0.5 20 16:54 05.01.2021
4032 Clouds 13 1029 58 10000 1.5 0 16:24 05.01.2021
4033 Clouds 13 1029 58 10000 1.5 0 15:59 05.01.2021
4034 Clouds 12 1030 66 9000 1.5 0 15:35 05.01.2021
4035 Clouds 10 1030 76 9000 1.5 110 14:48 05.01.2021
4036 Mist 9 1030 81 9000 1.5 110 14:18 05.01.2021
4037 Rain 9 1030 81 9000 1.5 110 13:39 05.01.2021
4038 Mist 8 1029 87 9000 1 0 13:20 05.01.2021
4039 Mist 8 1029 81 9000 1 0 12:46 05.01.2021
4040 Clouds 11 1015 73 10000 0.94 54 12:20 05.01.2021
4041 Clouds 11 1015 73 10000 0.94 54 11:31 05.01.2021
4042 Clouds 10 1014 75 10000 0.94 65 10:45 05.01.2021
4043 Clouds 10 1014 75 10000 0.61 46 10:25 05.01.2021
4044 Clouds 10 1014 75 10000 0.61 46 09:47 05.01.2021
4045 Clouds 11 1014 71 10000 0.49 19 09:26 05.01.2021
4046 Clouds 11 1014 71 10000 0.7 20 08:23 05.01.2021
4047 Clouds 10 1015 73 10000 0.24 358 06:39 05.01.2021
4048 Rain 12 1016 73 7784 0.42 234 03:42 05.01.2021
4049 Clouds 14 1025 62 10000 2.6 260 00:28 05.01.2021
4050 Clouds 15 1025 51 10000 1.5 120 23:43 04.01.2021
4051 Drizzle 14 1024 62 10000 3.1 340 23:24 04.01.2021
4052 Drizzle 18 1024 42 10000 2.6 140 22:46 04.01.2021
4053 Drizzle 18 1024 42 10000 2.6 140 22:46 04.01.2021
4054 Clouds 19 1023 34 10000 6.2 20 22:21 04.01.2021
4055 Clouds 19 1023 34 10000 6.2 20 21:44 04.01.2021
4056 Clouds 22 1023 35 10000 1.5 290 21:24 04.01.2021
4057 Clouds 22 1023 35 10000 1.5 290 20:43 04.01.2021
4058 Clouds 20 1025 34 10000 3.6 280 20:22 04.01.2021
4059 Clouds 20 1025 34 10000 3.6 280 19:43 04.01.2021
4060 Clouds 19 1027 34 10000 2.1 0 19:22 04.01.2021
4061 Clouds 17 1028 45 10000 1 330 18:48 04.01.2021
4062 Clouds 18 1028 45 10000 2.1 240 18:19 04.01.2021
4063 Clouds 17 1029 45 10000 1.13 300 17:41 04.01.2021
4064 Clouds 16 1029 48 10000 1.5 350 17:22 04.01.2021
4065 Clouds 15 1030 47 10000 1.5 330 16:45 04.01.2021
4066 Clouds 15 1030 47 10000 1 320 16:26 04.01.2021
4067 Clouds 14 1030 54 10000 1 360 15:49 04.01.2021
4068 Clouds 12 1030 62 10000 1 360 15:25 04.01.2021
4069 Clouds 11 1030 71 10000 1 300 14:21 04.01.2021
4070 Clouds 10 1030 71 10000 0.89 208 13:43 04.01.2021
4071 Clouds 10 1030 71 10000 1 310 13:20 04.01.2021
4072 Clouds 9 1030 76 10000 2.1 260 12:32 04.01.2021
4073 Clouds 9 1016 78 10000 1.46 234 11:53 04.01.2021
4074 Clouds 9 1015 78 10000 1.59 234 11:20 04.01.2021
4075 Clouds 9 1015 78 10000 1.59 234 10:47 04.01.2021
4076 Clouds 10 1014 78 10000 1.68 235 10:24 04.01.2021
4077 Clouds 10 1014 78 10000 1.68 235 09:49 04.01.2021
4078 Rain 10 1014 77 10000 1.56 240 09:19 04.01.2021
4079 Clouds 10 1014 77 10000 1.56 240 08:41 04.01.2021
4080 Clouds 10 1014 77 10000 1.33 232 07:54 04.01.2021
4081 Rain 10 1015 77 10000 1.48 223 07:18 04.01.2021
4082 Rain 10 1017 77 7396 2.51 179 05:21 04.01.2021
4083 Rain 15 1027 54 10000 0.5 0 02:34 04.01.2021
4084 Clouds 15 1026 54 10000 1.5 0 00:29 04.01.2021
4085 Clouds 17 1026 48 10000 4.6 320 23:47 03.01.2021
4086 Clouds 16 1025 55 10000 4.1 280 23:19 03.01.2021
4087 Clouds 16 1025 55 10000 4.1 280 22:49 03.01.2021
4088 Rain 16 1025 55 10000 4.1 280 22:30 03.01.2021
4089 Clouds 16 1026 51 10000 2.6 350 21:47 03.01.2021
4090 Clouds 15 1026 54 10000 4.6 110 21:25 03.01.2021
4091 Rain 15 1027 51 10000 2.1 190 20:43 03.01.2021
4092 Rain 15 1027 51 10000 2.1 190 20:23 03.01.2021
4093 Clouds 17 1027 48 10000 4.6 110 19:54 03.01.2021
4094 Clouds 16 1028 51 10000 3.6 30 19:34 03.01.2021
4095 Clouds 17 1029 48 10000 4.1 20 18:52 03.01.2021
4096 Clouds 17 1029 48 10000 4.1 20 18:34 03.01.2021
4097 Clouds 16 1030 51 10000 1 320 17:57 03.01.2021
4098 Clouds 16 1030 51 10000 1 320 17:38 03.01.2021
4099 Clouds 14 1031 67 10000 1.5 0 17:18 03.01.2021
4100 Clouds 14 1031 67 10000 1.5 0 16:41 03.01.2021
4101 Mist 12 1032 71 10000 1.5 260 16:19 03.01.2021
4102 Mist 12 1032 71 10000 2.1 0 15:45 03.01.2021
4103 Mist 12 1032 71 10000 1.5 90 15:23 03.01.2021
4104 Mist 11 1032 76 10000 1.5 170 14:44 03.01.2021
4105 Mist 12 1032 71 10000 0.5 70 14:22 03.01.2021
4106 Clouds 11 1031 76 10000 0.5 360 13:38 03.01.2021
4107 Clouds 11 1031 76 10000 1 120 13:19 03.01.2021
4108 Clouds 9 1019 74 10000 0.96 192 11:53 03.01.2021
4109 Clouds 9 1019 74 10000 0.96 192 11:34 03.01.2021
4110 Clouds 9 1018 75 10000 1 176 10:58 03.01.2021
4111 Clouds 9 1018 75 10000 1 176 10:33 03.01.2021
4112 Clouds 9 1017 76 10000 1.44 164 09:52 03.01.2021
4113 Clouds 9 1017 76 10000 1.72 165 09:26 03.01.2021
4114 Clouds 9 1017 76 10000 1.72 165 08:32 03.01.2021
4115 Clouds 10 1018 75 10000 0.95 153 06:57 03.01.2021
4116 Clouds 11 1019 72 10000 0.81 135 03:30 03.01.2021
4117 Clouds 10 1031 81 10000 2.6 100 02:26 03.01.2021
4118 Clouds 10 1030 76 10000 4.6 100 00:54 03.01.2021
4119 Rain 12 1029 71 10000 5.7 110 23:53 02.01.2021
4120 Drizzle 14 1028 62 10000 0.5 20 23:20 02.01.2021
4121 Rain 13 1028 71 10000 3.6 290 22:48 02.01.2021
4122 Drizzle 13 1028 71 10000 3.6 290 22:29 02.01.2021
4123 Rain 15 1027 54 10000 6.2 20 21:48 02.01.2021
4124 Clouds 15 1027 54 10000 6.2 20 21:29 02.01.2021
4125 Clouds 15 1027 47 10000 8.2 20 20:45 02.01.2021
4126 Clouds 15 1027 47 10000 8.2 20 20:25 02.01.2021
4127 Clouds 20 1029 37 10000 3.6 0 19:47 02.01.2021
4128 Clouds 19 1029 45 10000 2.6 0 19:20 02.01.2021
4129 Clouds 19 1029 45 10000 2.6 0 18:47 02.01.2021
4130 Clouds 19 1029 45 10000 2.6 0 18:29 02.01.2021
4131 Clouds 18 1032 34 10000 0.5 80 17:46 02.01.2021
4132 Clouds 17 1032 48 10000 1 90 17:28 02.01.2021
4133 Clouds 16 1033 59 10000 2.6 90 16:46 02.01.2021
4134 Clouds 15 1033 58 10000 2.6 100 16:21 02.01.2021
4135 Clouds 15 1033 58 10000 2.6 100 15:46 02.01.2021
4136 Clouds 15 1033 58 10000 2.6 100 15:27 02.01.2021
4137 Clouds 13 1033 62 10000 0.5 110 14:47 02.01.2021
4138 Clouds 12 1033 71 10000 1 0 14:23 02.01.2021
4139 Rain 11 1033 76 10000 1.5 110 13:43 02.01.2021
4140 Mist 10 1033 81 10000 1.5 90 12:55 02.01.2021
4141 Mist 10 1033 81 10000 1.5 90 12:32 02.01.2021
4142 Mist 10 1032 81 10000 1.5 110 11:59 02.01.2021
4143 Clouds 10 1018 71 10000 0.36 104 11:26 02.01.2021
4144 Clouds 10 1018 71 10000 0.36 104 10:59 02.01.2021
4145 Clouds 10 1018 71 10000 0.36 104 10:35 02.01.2021
4146 Clouds 10 1018 71 10000 0.56 53 09:59 02.01.2021
4147 Clouds 10 1018 71 10000 0.56 53 09:39 02.01.2021
4148 Clouds 9 1018 72 10000 0.59 19 09:19 02.01.2021
4149 Clouds 9 1018 72 10000 0.59 19 08:41 02.01.2021
4150 Clouds 9 1018 72 10000 0.8 15 08:18 02.01.2021
4151 Clouds 9 1019 71 10000 1.18 22 07:24 02.01.2021
4152 Clouds 9 1019 71 10000 1.18 22 06:57 02.01.2021
4153 Clouds 10 1020 71 10000 1.45 25 05:55 02.01.2021
4154 Clouds 14 1030 58 10000 2.6 100 01:58 02.01.2021
4155 Clouds 16 1029 48 10000 2.6 160 00:38 02.01.2021
4156 Clouds 16 1028 48 10000 3.6 120 23:58 01.01.2021
4157 Clouds 17 1028 48 10000 6.2 120 23:24 01.01.2021
4158 Clouds 20 1027 34 10000 3.1 0 22:52 01.01.2021
4159 Clouds 20 1027 34 10000 3.1 0 22:27 01.01.2021
4160 Clouds 20 1027 32 10000 5.1 30 22:00 01.01.2021
4161 Clouds 20 1028 30 10000 5.1 20 21:41 01.01.2021
4162 Clouds 20 1028 30 10000 4.6 20 21:19 01.01.2021
4163 Clouds 21 1029 30 10000 4.6 360 20:48 01.01.2021
4164 Clouds 21 1029 30 10000 2.6 0 20:18 01.01.2021
4165 Clouds 20 1030 42 10000 4.1 350 19:42 01.01.2021
4166 Clouds 19 1030 34 10000 1.5 0 19:22 01.01.2021
4167 Clouds 19 1031 37 10000 1.5 190 18:45 01.01.2021
4168 Clouds 18 1032 42 10000 1.5 0 18:23 01.01.2021
4169 Clouds 18 1032 45 10000 2.6 110 17:47 01.01.2021
4170 Clouds 18 1032 48 10000 2.1 130 17:23 01.01.2021
4171 Clouds 17 1033 48 10000 3.1 0 16:50 01.01.2021
4172 Clouds 17 1033 48 10000 3.1 0 16:25 01.01.2021
4173 Clouds 15 1034 54 10000 1 0 15:41 01.01.2021
4174 Clouds 14 1034 58 10000 1 0 14:48 01.01.2021
4175 Clouds 14 1034 58 10000 1 0 14:27 01.01.2021
4176 Clouds 11 1034 76 10000 1.04 45 13:40 01.01.2021
4177 Clouds 10 1033 81 10000 1.01 53 12:57 01.01.2021
4178 Clouds 9 1033 81 10000 1.25 56 12:36 01.01.2021
4179 Clouds 9 1032 87 10000 1.06 69 11:43 01.01.2021
4180 Clouds 8 1019 77 10000 0.9 58 11:23 01.01.2021
4181 Clouds 8 1019 77 10000 0.9 58 10:59 01.01.2021
4182 Clouds 8 1019 77 10000 0.9 58 10:33 01.01.2021
4183 Clouds 9 1018 77 10000 0.91 48 09:39 01.01.2021
4184 Clouds 9 1018 76 10000 1.09 64 08:52 01.01.2021
4185 Clouds 9 1018 76 10000 1.26 63 08:25 01.01.2021
4186 Clouds 10 1020 73 10000 1.09 22 04:52 01.01.2021
4187 Rain 13 1029 54 10000 3.1 50 02:25 01.01.2021
4188 Clouds 14 1028 50 10000 1.5 120 00:37 01.01.2021
4189 Clouds 15 1027 44 10000 4.1 30 23:56 31.12.2020
4190 Clouds 17 1026 45 10000 6.2 10 23:22 31.12.2020
4191 Clouds 17 1026 45 10000 6.2 10 22:55 31.12.2020
4192 Clouds 16 1026 51 10000 3.1 150 22:37 31.12.2020
4193 Clouds 16 1026 55 10000 3.1 130 22:19 31.12.2020
4194 Clouds 17 1027 51 10000 2.6 150 21:44 31.12.2020
4195 Clouds 17 1027 55 10000 5.1 110 21:21 31.12.2020
4196 Clouds 17 1027 48 10000 1.5 110 20:31 31.12.2020
4197 Clouds 16 1028 48 10000 2.6 0 19:59 31.12.2020
4198 Clouds 15 1029 58 10000 3.1 100 19:36 31.12.2020
4199 Clouds 15 1030 54 10000 3.1 0 19:18 31.12.2020
4200 Clouds 14 1030 62 10000 1.5 80 18:41 31.12.2020
4201 Clouds 13 1031 66 10000 2.1 100 18:23 31.12.2020
4202 Rain 11 1032 76 10000 4.1 100 17:41 31.12.2020
4203 Rain 11 1032 76 9000 3.1 90 17:21 31.12.2020
4204 Rain 11 1032 76 8000 0.91 71 16:39 31.12.2020
4205 Rain 11 1032 76 8000 1.1 24 16:20 31.12.2020
4206 Rain 11 1032 76 8000 1.1 24 15:45 31.12.2020
4207 Drizzle 10 1032 81 9000 0.5 0 15:20 31.12.2020
4208 Rain 10 1032 81 9000 0.5 0 14:54 31.12.2020
4209 Rain 10 1032 81 9000 0.5 0 14:36 31.12.2020
4210 Rain 10 1031 76 10000 1 0 14:18 31.12.2020
4211 Rain 10 1030 76 10000 0.5 0 13:38 31.12.2020
4212 Rain 10 1030 81 10000 0.5 0 13:19 31.12.2020
4213 Drizzle 9 1029 87 10000 1.5 90 12:52 31.12.2020
4214 Rain 9 1029 87 10000 1.5 90 12:32 31.12.2020
4215 Clouds 9 1016 77 8524 1.48 44 11:51 31.12.2020
4216 Clouds 9 1016 77 8524 1.48 44 11:32 31.12.2020
4217 Clouds 9 1015 77 10000 1.5 7 10:46 31.12.2020
4218 Clouds 9 1015 77 10000 1.12 356 10:28 31.12.2020
4219 Rain 9 1015 77 10000 1.12 356 09:51 31.12.2020
4220 Rain 9 1015 78 10000 0.14 3 09:26 31.12.2020
4221 Clouds 9 1015 78 10000 0.14 3 08:50 31.12.2020
4222 Clouds 9 1015 78 10000 0.14 3 08:31 31.12.2020
4223 Clouds 10 1015 77 10000 0.59 153 07:56 31.12.2020
4224 Rain 10 1015 78 10000 1.02 216 07:27 31.12.2020
4225 Clouds 10 1016 77 9379 0.97 185 05:30 31.12.2020
4226 Clouds 11 1017 74 10000 1.08 178 03:38 31.12.2020
4227 Clouds 12 1016 72 10000 1.24 126 02:44 31.12.2020
4228 Clouds 13 1027 66 10000 5.1 270 02:25 31.12.2020
4229 Clouds 13 1027 66 10000 5.1 270 01:43 31.12.2020
4230 Clouds 14 1027 62 10000 3.6 270 01:22 31.12.2020
4231 Clouds 14 1026 62 10000 3.6 270 00:43 31.12.2020
4232 Thunderstorm 13 1025 71 10000 1.5 100 23:43 30.12.2020
4233 Drizzle 13 1025 66 10000 3.6 120 23:19 30.12.2020
4234 Drizzle 13 1025 66 10000 3.6 120 22:45 30.12.2020
4235 Drizzle 13 1025 66 10000 3.6 120 22:27 30.12.2020
4236 Rain 17 1025 42 10000 8.2 290 21:39 30.12.2020
4237 Rain 18 1026 48 10000 7.7 290 21:20 30.12.2020
4238 Clouds 19 1026 45 10000 3.1 350 20:41 30.12.2020
4239 Clouds 17 1027 45 10000 5.1 10 20:20 30.12.2020
4240 Clouds 17 1028 55 10000 5.7 20 19:39 30.12.2020
4241 Clouds 17 1028 45 10000 5.1 20 19:20 30.12.2020
4242 Clouds 18 1028 42 10000 3.6 80 18:44 30.12.2020
4243 Clouds 18 1029 42 10000 2.6 170 18:24 30.12.2020
4244 Clouds 17 1029 55 10000 1.5 30 17:50 30.12.2020
4245 Clouds 16 1030 48 10000 1.5 340 17:31 30.12.2020
4246 Clouds 16 1030 48 10000 1.5 340 16:52 30.12.2020
4247 Clouds 16 1030 51 10000 1.5 210 16:27 30.12.2020
4248 Clouds 14 1030 54 10000 2.1 210 15:45 30.12.2020
4249 Clouds 14 1031 54 10000 1 280 15:24 30.12.2020
4250 Clouds 13 1030 62 10000 3.1 290 14:43 30.12.2020
4251 Clouds 12 1030 71 10000 3.1 290 14:22 30.12.2020
4252 Clouds 11 1030 76 10000 3.6 290 13:26 30.12.2020
4253 Clouds 10 1016 72 10000 0.16 126 12:28 30.12.2020
4254 Clouds 10 1016 72 10000 0.16 126 11:50 30.12.2020
4255 Clouds 10 1015 73 10000 0.23 152 11:25 30.12.2020
4256 Clouds 10 1015 73 10000 0.23 152 10:59 30.12.2020
4257 Clouds 10 1015 73 10000 0.23 152 10:39 30.12.2020
4258 Clouds 10 1015 73 10000 0.32 149 10:20 30.12.2020
4259 Clouds 10 1015 73 10000 0.32 149 09:48 30.12.2020
4260 Clouds 10 1015 72 10000 0.07 318 09:23 30.12.2020
4261 Clouds 10 1015 71 10000 0.58 5 08:24 30.12.2020
4262 Clouds 10 1016 71 10000 0.95 27 07:29 30.12.2020
4263 Clouds 10 1016 72 10000 1.16 10 06:44 30.12.2020
4264 Rain 10 1016 72 10000 1.36 23 05:52 30.12.2020
4265 Clouds 10 1016 72 10000 1.36 23 05:31 30.12.2020
4266 Clouds 10 1017 73 10000 1.76 26 04:29 30.12.2020
4267 Clouds 10 1016 73 10000 2.22 31 03:28 30.12.2020
4268 Clouds 13 1027 66 10000 2.22 31 02:38 30.12.2020
4269 Clouds 13 1027 66 10000 2.56 30 01:51 30.12.2020
4270 Clouds 13 1027 66 10000 2.56 30 01:32 30.12.2020
4271 Clouds 13 1027 66 10000 1 280 00:47 30.12.2020
4272 Clouds 13 1027 66 10000 1 280 00:29 30.12.2020
4273 Clouds 13 1026 71 10000 1.5 280 23:53 29.12.2020
4274 Clouds 13 1026 71 10000 1.5 280 23:35 29.12.2020
4275 Clouds 12 1026 76 10000 4.1 110 22:50 29.12.2020
4276 Clouds 12 1026 76 10000 4.1 110 22:32 29.12.2020
4277 Clouds 12 1026 81 8000 3.1 90 21:59 29.12.2020
4278 Clouds 12 1026 81 8000 3.1 90 21:59 29.12.2020
4279 Clouds 14 1026 58 10000 5.1 270 21:39 29.12.2020
4280 Clouds 16 1026 55 10000 3.6 70 21:21 29.12.2020
4281 Clouds 16 1026 55 10000 3.6 70 20:44 29.12.2020
4282 Clouds 18 1027 48 10000 1.5 110 20:25 29.12.2020
4283 Clouds 17 1027 45 10000 2.6 140 19:45 29.12.2020
4284 Clouds 17 1028 48 10000 1 130 19:23 29.12.2020
4285 Rain 17 1028 48 10000 1 130 18:54 29.12.2020
4286 Clouds 17 1028 48 10000 1 130 18:29 29.12.2020
4287 Clouds 18 1028 42 10000 1 210 17:48 29.12.2020
4288 Clouds 15 1029 51 10000 2.6 100 17:23 29.12.2020
4289 Clouds 15 1029 51 10000 2.6 100 16:56 29.12.2020
4290 Clouds 14 1030 54 10000 1 350 16:27 29.12.2020
4291 Clouds 14 1030 54 10000 1 350 15:51 29.12.2020
4292 Clouds 14 1030 54 10000 1 350 15:33 29.12.2020
4293 Clouds 13 1030 66 10000 0.5 0 14:45 29.12.2020
4294 Clouds 13 1030 66 10000 1 80 14:27 29.12.2020
4295 Clouds 13 1030 66 10000 1 80 13:56 29.12.2020
4296 Clouds 10 1030 87 10000 1.5 120 13:25 29.12.2020
4297 Clouds 10 1030 87 10000 1.5 120 12:45 29.12.2020
4298 Clouds 10 1030 87 10000 1.5 120 12:26 29.12.2020
4299 Clouds 10 1030 87 10000 1.5 120 12:26 29.12.2020
4300 Clouds 8 1017 78 10000 1.38 253 11:59 29.12.2020
4301 Clouds 8 1017 78 10000 1.38 253 11:32 29.12.2020
4302 Clouds 8 1016 78 10000 1.4 261 10:52 29.12.2020
4303 Clouds 8 1016 78 7851 1.76 250 10:20 29.12.2020
4304 Clouds 8 1016 78 7851 1.76 250 09:40 29.12.2020
4305 Clouds 8 1016 78 5857 1.6 236 09:18 29.12.2020
4306 Clouds 8 1016 78 5857 1.6 236 08:47 29.12.2020
4307 Clouds 8 1016 78 5746 1.22 215 07:40 29.12.2020
4308 Clouds 9 1017 78 8173 1.58 197 06:58 29.12.2020
4309 Clouds 9 1018 78 6971 1.44 178 05:40 29.12.2020
4310 Clouds 10 1029 81 10000 2.6 90 01:46 29.12.2020
4311 Clouds 10 1028 81 9000 2.6 290 00:24 29.12.2020
4312 Clouds 10 1028 81 9000 2.6 290 00:24 29.12.2020
4313 Drizzle 12 1028 71 10000 2.6 40 23:37 28.12.2020
4314 Clouds 14 1027 62 10000 6.2 110 22:44 28.12.2020
4315 Clouds 15 1026 62 10000 5.1 120 21:51 28.12.2020
4316 Clouds 15 1026 62 10000 5.1 120 21:30 28.12.2020
4317 Rain 15 1027 62 10000 5.7 110 20:50 28.12.2020
4318 Rain 15 1027 62 10000 5.7 110 20:50 28.12.2020
4319 Rain 15 1027 62 10000 5.7 110 20:31 28.12.2020
4320 Rain 15 1028 62 10000 2.1 110 19:59 28.12.2020
4321 Rain 16 1028 55 10000 1.5 120 19:41 28.12.2020
4322 Drizzle 14 1029 67 10000 2.6 90 19:21 28.12.2020
4323 Drizzle 14 1029 67 10000 2.6 90 18:48 28.12.2020
4324 Clouds 12 1030 71 9000 3.6 120 18:26 28.12.2020
4325 Clouds 12 1030 71 9000 3.6 120 17:41 28.12.2020
4326 Clouds 12 1031 71 8000 3.6 110 17:18 28.12.2020
4327 Drizzle 11 1031 76 9000 3.6 110 16:33 28.12.2020
4328 Clouds 11 1031 76 9000 3.6 110 15:59 28.12.2020
4329 Clouds 12 1031 71 10000 0.5 140 15:40 28.12.2020
4330 Rain 11 1030 76 10000 1 100 14:49 28.12.2020
4331 Clouds 11 1030 76 10000 0.5 30 13:51 28.12.2020
4332 Clouds 9 1029 87 10000 2.6 100 13:24 28.12.2020
4333 Clouds 9 1029 87 10000 1 120 12:40 28.12.2020
4334 Clouds 10 1016 73 10000 0.63 272 12:20 28.12.2020
4335 Clouds 10 1016 73 10000 0.63 272 11:45 28.12.2020
4336 Clouds 10 1015 74 10000 0.53 283 11:22 28.12.2020
4337 Clouds 10 1015 74 10000 0.53 283 10:43 28.12.2020
4338 Rain 10 1015 72 10000 0.06 154 10:25 28.12.2020
4339 Rain 10 1015 72 10000 0.06 154 09:45 28.12.2020
4340 Rain 10 1014 73 10000 0.6 337 09:18 28.12.2020
4341 Clouds 10 1015 74 10000 1.03 24 07:21 28.12.2020
4342 Clouds 10 1016 75 10000 1.51 82 06:43 28.12.2020
4343 Clouds 11 1016 74 10000 1.1 36 04:22 28.12.2020
4344 Clouds 13 1026 54 10000 3.1 30 01:57 28.12.2020
4345 Clouds 14 1025 47 10000 5.1 20 00:30 28.12.2020
4346 Clouds 14 1025 47 10000 5.1 20 00:30 28.12.2020
4347 Clouds 15 1024 47 10000 6.2 20 23:45 27.12.2020
4348 Clouds 15 1024 47 10000 4.6 40 23:18 27.12.2020
4349 Clouds 16 1024 48 10000 4.1 30 21:56 27.12.2020
4350 Clouds 17 1024 45 10000 5.1 10 21:25 27.12.2020
4351 Clouds 19 1025 39 10000 4.1 350 20:42 27.12.2020
4352 Clouds 16 1026 44 10000 3.6 20 19:25 27.12.2020
4353 Clouds 16 1027 48 10000 2.1 200 18:55 27.12.2020
4354 Clouds 16 1027 48 10000 2.1 200 18:37 27.12.2020
4355 Clouds 16 1028 48 10000 2.1 90 18:18 27.12.2020
4356 Clouds 15 1028 54 10000 2.1 110 17:43 27.12.2020
4357 Clouds 14 1029 54 10000 1.5 10 17:21 27.12.2020
4358 Clouds 13 1029 58 10000 0.96 86 16:30 27.12.2020
4359 Clouds 12 1029 66 10000 2.1 100 15:40 27.12.2020
4360 Clouds 12 1029 62 10000 1 80 14:58 27.12.2020
4361 Clouds 11 1029 71 10000 1.2 113 14:38 27.12.2020
4362 Clouds 9 1029 81 10000 0.65 85 13:55 27.12.2020
4363 Clouds 9 1028 76 10000 0.68 32 13:19 27.12.2020
4364 Clouds 8 1028 87 10000 1.5 110 12:43 27.12.2020
4365 Clouds 9 1015 76 10000 0.9 54 11:49 27.12.2020
4366 Clouds 9 1014 77 9598 1.52 71 11:29 27.12.2020
4367 Clouds 9 1014 77 9598 1.52 71 10:51 27.12.2020
4368 Clouds 9 1014 78 9123 0.98 70 10:24 27.12.2020
4369 Clouds 9 1014 78 9123 0.98 70 09:42 27.12.2020
4370 Clouds 9 1014 77 10000 1.22 206 08:29 27.12.2020
4371 Clouds 9 1014 77 10000 1.22 206 07:59 27.12.2020
4372 Clouds 9 1014 77 10000 1.74 223 07:25 27.12.2020
4373 Rain 8 1015 77 10000 2.12 208 05:44 27.12.2020
4374 Rain 10 1014 77 3916 2.28 199 03:26 27.12.2020
4375 Clouds 10 1014 77 3916 2.28 199 02:42 27.12.2020
4376 Clouds 12 1025 76 10000 1.5 110 01:32 27.12.2020
4377 Clouds 16 1023 51 10000 3.1 120 23:57 26.12.2020
4378 Clouds 16 1023 48 10000 2.6 90 23:27 26.12.2020
4379 Clouds 16 1023 48 10000 2.6 90 22:47 26.12.2020
4380 Clouds 16 1023 55 10000 3.1 110 22:20 26.12.2020
4381 Clouds 16 1023 55 10000 3.1 110 21:55 26.12.2020
4382 Clouds 15 1023 58 10000 4.1 110 21:33 26.12.2020
4383 Rain 15 1024 54 10000 6.2 110 20:58 26.12.2020
4384 Rain 16 1024 48 10000 2.6 50 20:28 26.12.2020
4385 Rain 16 1024 51 10000 1.5 50 19:57 26.12.2020
4386 Rain 16 1025 48 10000 1.5 90 19:24 26.12.2020
4387 Rain 17 1026 42 10000 1 20 18:38 26.12.2020
4388 Rain 16 1027 55 10000 1 80 18:18 26.12.2020
4389 Rain 16 1027 55 10000 1 80 17:40 26.12.2020
4390 Rain 16 1027 51 10000 0.5 0 17:19 26.12.2020
4391 Clouds 16 1027 51 10000 0.5 0 16:32 26.12.2020
4392 Clouds 11 1029 71 10000 2.1 120 15:26 26.12.2020
4393 Clouds 11 1029 71 10000 2.1 120 14:50 26.12.2020
4394 Clouds 11 1029 71 10000 2.1 120 14:28 26.12.2020
4395 Clouds 10 1029 71 10000 1 80 13:43 26.12.2020
4396 Clouds 9 1029 76 10000 1.5 80 13:25 26.12.2020
4397 Clouds 9 1015 72 10000 0.9 275 12:44 26.12.2020
4398 Clouds 8 1015 74 10000 0.48 298 12:22 26.12.2020
4399 Clouds 8 1015 74 10000 0.48 298 11:51 26.12.2020
4400 Clouds 8 1014 75 10000 1.57 279 11:22 26.12.2020
4401 Clouds 8 1014 75 10000 1.57 279 11:22 26.12.2020
4402 Clouds 8 1014 75 10000 1.57 279 10:54 26.12.2020
4403 Clouds 8 1014 76 10000 1.67 292 10:27 26.12.2020
4404 Clouds 8 1014 76 10000 1.67 292 09:50 26.12.2020
4405 Clouds 7 1014 80 6517 0.93 283 09:25 26.12.2020
4406 Clouds 7 1014 82 1743 0.74 111 08:29 26.12.2020
4407 Rain 7 1014 82 1743 0.74 111 07:50 26.12.2020
4408 Clouds 10 1015 76 7513 1.97 179 06:29 26.12.2020
4409 Rain 12 1015 72 10000 1.04 259 03:19 26.12.2020
4410 Clouds 15 1027 54 10000 4.6 290 01:32 26.12.2020
4411 Clouds 15 1026 51 10000 3.6 290 00:25 26.12.2020
4412 Clouds 16 1026 51 10000 4.6 280 23:39 25.12.2020
4413 Clouds 16 1025 51 10000 5.1 300 23:21 25.12.2020
4414 Clouds 16 1026 48 10000 5.1 290 22:40 25.12.2020
4415 Clouds 16 1026 48 10000 3.1 270 21:54 25.12.2020
4416 Clouds 16 1026 48 10000 3.1 270 21:34 25.12.2020
4417 Clouds 15 1027 54 10000 6.7 280 20:50 25.12.2020
4418 Clouds 15 1027 54 10000 6.7 280 20:31 25.12.2020
4419 Clouds 16 1028 51 10000 3.6 360 19:47 25.12.2020
4420 Clouds 16 1028 48 10000 5.1 360 19:20 25.12.2020
4421 Clouds 17 1029 48 10000 2.6 20 18:39 25.12.2020
4422 Clouds 16 1030 55 10000 1 0 17:47 25.12.2020
4423 Clouds 16 1030 55 10000 1 0 17:28 25.12.2020
4424 Clouds 13 1031 66 10000 3.1 100 16:33 25.12.2020
4425 Clouds 12 1032 76 10000 3.6 110 15:59 25.12.2020
4426 Clouds 13 1031 66 10000 2.6 100 15:36 25.12.2020
4427 Clouds 13 1031 62 10000 1.61 218 14:50 25.12.2020
4428 Clouds 13 1031 62 10000 1.57 206 14:29 25.12.2020
4429 Clouds 13 1031 62 10000 1.57 206 14:29 25.12.2020
4430 Clouds 12 1030 66 10000 2.1 110 13:44 25.12.2020
4431 Clouds 12 1030 66 10000 2.1 110 13:26 25.12.2020
4432 Clouds 10 1030 81 10000 2.1 110 12:45 25.12.2020
4433 Clouds 10 1016 74 10000 1.54 193 11:56 25.12.2020
4434 Clouds 10 1016 74 10000 1.54 193 11:33 25.12.2020
4435 Clouds 10 1015 75 10000 1.13 190 10:57 25.12.2020
4436 Clouds 10 1015 75 10000 0.79 193 10:24 25.12.2020
4437 Rain 10 1015 75 10000 0.79 193 09:37 25.12.2020
4438 Clouds 10 1015 73 10000 0.98 158 08:48 25.12.2020
4439 Clouds 11 1015 70 10000 0.84 125 07:59 25.12.2020
4440 Clouds 11 1016 71 10000 0.74 89 06:46 25.12.2020
4441 Clouds 12 1017 69 10000 1.54 20 03:49 25.12.2020
4442 Clouds 14 1028 54 10000 1.92 24 01:41 25.12.2020
4443 Clouds 15 1026 51 10000 1.8 354 00:18 25.12.2020
4444 Clouds 17 1026 42 10000 5.1 120 23:23 24.12.2020
4445 Clouds 18 1025 39 10000 2.6 40 22:50 24.12.2020
4446 Clouds 18 1025 39 10000 4.1 20 22:21 24.12.2020
4447 Rain 18 1025 36 10000 4.6 10 21:35 24.12.2020
4448 Rain 20 1029 32 10000 2.1 0 20:42 24.12.2020
4449 Clouds 18 1030 42 10000 1 0 18:52 24.12.2020
4450 Clouds 17 1030 45 10000 4.1 350 18:19 24.12.2020
4451 Clouds 17 1030 45 10000 4.1 350 17:37 24.12.2020
4452 Clouds 16 1031 48 10000 1.5 190 16:49 24.12.2020
4453 Clouds 14 1032 58 10000 1.5 70 16:22 24.12.2020
4454 Clouds 13 1032 62 10000 3.6 110 15:42 24.12.2020
4455 Clouds 13 1032 66 10000 3.1 90 15:19 24.12.2020
4456 Clouds 13 1032 62 10000 2.1 140 14:50 24.12.2020
4457 Clouds 12 1032 71 10000 2.1 110 14:24 24.12.2020
4458 Clouds 12 1032 71 10000 2.1 110 13:48 24.12.2020
4459 Clouds 11 1031 71 10000 2.1 110 13:29 24.12.2020
4460 Clouds 11 1031 71 10000 2.1 110 12:44 24.12.2020
4461 Clouds 10 1017 71 10000 1.23 25 12:21 24.12.2020
4462 Clouds 10 1017 71 10000 1.23 25 11:47 24.12.2020
4463 Clouds 10 1016 73 10000 1.4 19 11:21 24.12.2020
4464 Clouds 10 1016 73 10000 1.4 19 10:53 24.12.2020
4465 Clouds 10 1016 73 10000 1.4 19 10:35 24.12.2020
4466 Clouds 10 1016 73 10000 1.31 17 09:52 24.12.2020
4467 Clouds 9 1016 74 10000 1.36 21 09:26 24.12.2020
4468 Clouds 9 1016 74 10000 1.36 21 08:39 24.12.2020
4469 Clouds 10 1016 74 10000 1.56 25 07:42 24.12.2020
4470 Clouds 10 1016 74 10000 1.8 28 07:20 24.12.2020
4471 Clouds 10 1017 73 10000 1.73 28 05:49 24.12.2020
4472 Clouds 14 1028 50 10000 1.5 360 02:26 24.12.2020
4473 Clouds 14 1028 50 10000 1.5 360 01:43 24.12.2020
4474 Clouds 15 1027 44 10000 1.5 0 01:18 24.12.2020
4475 Clouds 16 1026 44 10000 2.1 10 00:22 24.12.2020
4476 Clouds 16 1026 44 10000 2.1 10 23:49 23.12.2020
4477 Clouds 16 1026 44 10000 2.1 10 23:30 23.12.2020
4478 Clouds 19 1026 34 10000 4.1 350 22:57 23.12.2020
4479 Clouds 19 1026 34 10000 4.1 350 22:33 23.12.2020
4480 Clouds 18 1026 36 10000 3.6 20 21:57 23.12.2020
4481 Clouds 19 1026 37 10000 6.2 360 21:28 23.12.2020
4482 Clouds 19 1027 37 10000 6.7 350 20:56 23.12.2020
4483 Clouds 19 1027 37 10000 6.7 350 20:37 23.12.2020
4484 Clouds 19 1029 39 10000 6.2 10 20:19 23.12.2020
4485 Clouds 19 1029 39 10000 6.2 10 19:39 23.12.2020
4486 Clouds 18 1029 42 10000 3.6 30 19:20 23.12.2020
4487 Clouds 18 1029 42 10000 3.6 30 18:49 23.12.2020
4488 Clouds 17 1030 42 10000 3.6 10 18:29 23.12.2020
4489 Clouds 17 1030 42 10000 3.6 10 17:41 23.12.2020
4490 Clouds 15 1031 47 10000 0.5 210 17:22 23.12.2020
4491 Clouds 15 1031 47 10000 0.5 210 16:49 23.12.2020
4492 Clouds 15 1031 47 10000 0.5 210 16:29 23.12.2020
4493 Clouds 15 1032 51 10000 1.5 90 15:58 23.12.2020
4494 Clouds 15 1032 51 10000 1.5 90 15:37 23.12.2020
4495 Clouds 13 1032 62 10000 2.6 90 15:19 23.12.2020
4496 Clouds 13 1032 62 10000 1.5 80 14:39 23.12.2020
4497 Clouds 12 1032 71 10000 1.5 50 14:20 23.12.2020
4498 Clouds 12 1032 71 10000 1.5 50 13:44 23.12.2020
4499 Clouds 11 1031 76 10000 0.5 360 13:20 23.12.2020
4500 Clouds 11 1031 76 10000 0.5 360 12:54 23.12.2020
4501 Clouds 11 1018 64 10000 0.4 111 12:30 23.12.2020
4502 Clouds 10 1018 68 10000 0.35 74 11:54 23.12.2020
4503 Clouds 10 1017 72 10000 0.52 72 11:27 23.12.2020
4504 Clouds 10 1017 72 10000 0.52 72 10:52 23.12.2020
4505 Clouds 10 1017 72 10000 0.52 72 10:33 23.12.2020
4506 Clouds 10 1017 70 10000 0.9 73 09:37 23.12.2020
4507 Clouds 10 1017 68 10000 1.07 70 08:52 23.12.2020
4508 Clouds 10 1017 68 10000 0.91 64 08:23 23.12.2020
4509 Clouds 10 1017 68 10000 0.91 64 07:48 23.12.2020
4510 Clouds 10 1018 71 10000 0.99 41 06:42 23.12.2020
4511 Clouds 10 1018 72 10000 1.16 22 05:55 23.12.2020
4512 Clouds 10 1019 71 10000 1.34 33 05:22 23.12.2020
4513 Clouds 11 1030 71 10000 1.5 120 01:57 23.12.2020
4514 Clouds 12 1030 66 10000 1.5 80 00:32 23.12.2020
4515 Clouds 12 1029 71 10000 1.5 110 23:41 22.12.2020
4516 Clouds 12 1029 66 10000 1 100 23:22 22.12.2020
4517 Clouds 12 1030 66 10000 0.5 260 22:42 22.12.2020
4518 Clouds 11 1030 71 10000 0.5 160 22:24 22.12.2020
4519 Rain 11 1030 71 9000 0.5 350 21:48 22.12.2020
4520 Rain 11 1031 71 9000 1 310 21:20 22.12.2020
4521 Rain 11 1031 71 9000 1 310 20:53 22.12.2020
4522 Rain 11 1031 71 9000 1 310 20:35 22.12.2020
4523 Rain 11 1032 71 8000 0.5 330 19:54 22.12.2020
4524 Rain 10 1032 76 8000 1 240 19:29 22.12.2020
4525 Rain 10 1033 76 8000 1 290 18:59 22.12.2020
4526 Rain 10 1033 76 8000 1 340 18:38 22.12.2020
4527 Rain 10 1033 76 8000 1.5 300 18:20 22.12.2020
4528 Rain 10 1033 76 8000 0.93 26 17:38 22.12.2020
4529 Rain 10 1033 76 8000 0.73 235 17:18 22.12.2020
4530 Clouds 10 1034 81 9000 0.73 235 16:47 22.12.2020
4531 Rain 9 1034 87 9000 1.4 222 16:21 22.12.2020
4532 Drizzle 9 1034 81 9000 1 100 15:46 22.12.2020
4533 Rain 9 1034 81 9000 1 100 15:28 22.12.2020
4534 Clouds 9 1033 81 9000 1 100 14:57 22.12.2020
4535 Clouds 9 1033 81 9000 1 100 14:38 22.12.2020
4536 Clouds 8 1033 87 9000 1.19 200 14:18 22.12.2020
4537 Clouds 8 1033 87 9000 1.19 200 13:42 22.12.2020
4538 Rain 8 1032 87 9000 1.23 225 13:18 22.12.2020
4539 Rain 8 1032 81 9000 1 251 12:46 22.12.2020
4540 Rain 8 1032 81 9000 0.32 353 12:27 22.12.2020
4541 Rain 10 1019 73 10000 0.32 353 11:57 22.12.2020
4542 Rain 10 1019 73 10000 0.32 353 11:39 22.12.2020
4543 Rain 10 1018 73 10000 1.24 60 11:19 22.12.2020
4544 Rain 10 1018 73 10000 1.24 60 10:51 22.12.2020
4545 Rain 10 1017 73 10000 1.74 85 10:24 22.12.2020
4546 Rain 10 1017 73 10000 1.74 85 09:56 22.12.2020
4547 Rain 11 1017 72 10000 1.93 91 09:23 22.12.2020
4548 Rain 11 1017 72 10000 1.93 91 08:53 22.12.2020
4549 Rain 11 1017 71 10000 1.62 82 08:29 22.12.2020
4550 Rain 11 1017 71 10000 1.62 82 07:48 22.12.2020
4551 Rain 11 1018 72 10000 1.45 74 06:48 22.12.2020
4552 Rain 11 1019 70 10000 1.37 50 05:44 22.12.2020
4553 Rain 11 1019 70 10000 2 35 03:33 22.12.2020
4554 Rain 16 1027 48 10000 5.1 100 00:47 22.12.2020
4555 Clouds 17 1026 48 10000 5.7 90 23:54 21.12.2020
4556 Clouds 16 1026 51 10000 6.2 110 23:36 21.12.2020
4557 Clouds 16 1026 51 10000 6.2 110 22:38 21.12.2020
4558 Clouds 20 1027 40 10000 2.1 230 22:19 21.12.2020
4559 Clouds 20 1027 40 10000 2.1 230 21:59 21.12.2020
4560 Clouds 20 1027 40 10000 2.1 230 21:39 21.12.2020
4561 Clouds 20 1027 40 10000 2.1 230 21:39 21.12.2020
4562 Clouds 18 1028 48 10000 4.1 230 21:19 21.12.2020
4563 Drizzle 14 1029 71 10000 4.1 270 20:29 21.12.2020
4564 Drizzle 14 1029 71 10000 4.1 270 19:59 21.12.2020
4565 Clouds 12 1029 62 10000 5.7 310 19:41 21.12.2020
4566 Drizzle 18 1029 39 10000 3.6 80 19:19 21.12.2020
4567 Drizzle 18 1029 39 10000 3.6 80 18:51 21.12.2020
4568 Drizzle 18 1029 39 10000 3.6 80 18:33 21.12.2020
4569 Clouds 19 1030 34 10000 1.5 120 17:43 21.12.2020
4570 Clouds 19 1030 39 10000 1 0 17:24 21.12.2020
4571 Clouds 18 1031 42 10000 1.5 10 16:47 21.12.2020
4572 Clouds 15 1032 54 10000 2.6 120 16:27 21.12.2020
4573 Clouds 15 1032 54 10000 2.6 120 15:54 21.12.2020
4574 Clouds 15 1032 54 10000 2.6 120 15:35 21.12.2020
4575 Clouds 13 1033 62 10000 2.1 90 14:57 21.12.2020
4576 Clouds 12 1032 66 10000 0.5 0 14:21 21.12.2020
4577 Clouds 11 1033 71 10000 1 280 13:44 21.12.2020
4578 Clouds 11 1033 71 10000 1 280 13:26 21.12.2020
4579 Clouds 9 1032 81 10000 2.1 290 12:45 21.12.2020
4580 Clouds 8 1019 78 9737 0.93 50 12:25 21.12.2020
4581 Clouds 8 1019 78 9737 0.93 50 11:58 21.12.2020
4582 Clouds 8 1019 78 9737 0.93 50 11:39 21.12.2020
4583 Clouds 7 1018 81 6627 0.75 36 11:20 21.12.2020
4584 Clouds 7 1018 81 6627 0.75 36 10:42 21.12.2020
4585 Clouds 7 1017 82 2717 0.74 253 10:24 21.12.2020
4586 Clouds 7 1017 82 2717 0.74 253 09:46 21.12.2020
4587 Clouds 8 1016 82 2793 2.21 215 09:25 21.12.2020
4588 Clouds 8 1016 82 2793 2.21 215 08:52 21.12.2020
4589 Clouds 10 1016 79 5290 2.15 216 07:52 21.12.2020
4590 Clouds 11 1017 74 10000 1.48 210 06:47 21.12.2020
4591 Clouds 12 1018 70 10000 1.16 339 04:49 21.12.2020
4592 Clouds 14 1027 50 10000 1 120 01:26 21.12.2020
4593 Clouds 16 1026 44 10000 4.1 110 00:32 21.12.2020
4594 Clouds 17 1026 45 10000 2.1 290 23:36 20.12.2020
4595 Clouds 17 1026 45 10000 2.1 0 22:59 20.12.2020
4596 Clouds 17 1026 45 10000 2.1 0 22:59 20.12.2020
4597 Clouds 17 1026 45 10000 2.1 0 22:41 20.12.2020
4598 Clouds 17 1026 51 10000 3.1 90 22:22 20.12.2020
4599 Clouds 15 1027 54 10000 2.6 140 21:40 20.12.2020
4600 Clouds 14 1027 58 10000 3.1 110 21:20 20.12.2020
4601 Clouds 13 1028 50 10000 3.6 150 20:51 20.12.2020
4602 Drizzle 15 1028 51 10000 6.2 130 20:24 20.12.2020
4603 Clouds 19 1028 32 10000 3.6 320 19:46 20.12.2020
4604 Clouds 19 1028 32 10000 3.6 320 19:46 20.12.2020
4605 Clouds 19 1028 32 10000 3.6 320 19:28 20.12.2020
4606 Clouds 19 1028 39 10000 4.1 320 18:58 20.12.2020
4607 Clouds 19 1028 39 10000 4.1 320 18:38 20.12.2020
4608 Clouds 18 1028 45 10000 6.2 290 18:19 20.12.2020
4609 Rain 20 1028 32 10000 2.1 20 17:43 20.12.2020
4610 Clouds 19 1029 34 10000 2.6 170 17:22 20.12.2020
4611 Clouds 19 1029 34 10000 2.6 170 16:45 20.12.2020
4612 Clouds 18 1030 42 10000 1.5 0 16:25 20.12.2020
4613 Clouds 18 1030 42 10000 1.5 0 15:47 20.12.2020
4614 Clouds 15 1030 51 10000 1.5 20 15:24 20.12.2020
4615 Clouds 14 1030 54 10000 1.5 0 14:53 20.12.2020
4616 Clouds 14 1030 54 10000 1.5 0 14:30 20.12.2020
4617 Clouds 11 1030 66 10000 1 70 13:47 20.12.2020
4618 Clouds 11 1030 66 10000 1 70 13:25 20.12.2020
4619 Clouds 11 1030 66 10000 1.04 351 12:57 20.12.2020
4620 Clouds 7 1029 81 10000 1.38 31 12:39 20.12.2020
4621 Clouds 11 1016 67 10000 1.36 27 12:18 20.12.2020
4622 Clouds 11 1016 67 10000 1.36 27 11:42 20.12.2020
4623 Clouds 10 1015 72 10000 1.33 349 10:57 20.12.2020
4624 Clouds 10 1015 72 10000 1.33 349 10:38 20.12.2020
4625 Clouds 10 1014 73 10000 1.09 329 10:19 20.12.2020
4626 Clouds 10 1014 73 10000 1.09 329 09:45 20.12.2020
4627 Clouds 10 1014 72 10000 0.83 345 09:27 20.12.2020
4628 Clouds 10 1014 72 10000 0.83 345 08:52 20.12.2020
4629 Clouds 10 1014 72 10000 0.83 345 08:33 20.12.2020
4630 Clouds 11 1014 72 10000 1.35 9 07:23 20.12.2020
4631 Clouds 11 1014 72 10000 1.35 9 07:23 20.12.2020
4632 Clouds 11 1015 69 10000 1.4 2 05:44 20.12.2020
4633 Clouds 15 1025 62 10000 3.6 340 01:33 20.12.2020
4634 Clouds 15 1025 62 10000 3.6 340 01:33 20.12.2020
4635 Thunderstorm 17 1024 42 10000 2.1 60 00:32 20.12.2020
4636 Clouds 23 1023 23 10000 1.5 0 23:19 19.12.2020
4637 Clouds 23 1023 23 10000 1.5 0 22:56 19.12.2020
4638 Clouds 21 1023 52 10000 1 300 22:37 19.12.2020
4639 Clouds 20 1024 28 10000 1.5 100 22:18 19.12.2020
4640 Clouds 20 1024 30 10000 3.1 60 21:41 19.12.2020
4641 Clouds 20 1024 30 10000 3.1 60 21:41 19.12.2020
4642 Clouds 19 1025 32 10000 3.6 30 21:23 19.12.2020
4643 Clouds 19 1025 32 10000 6.2 20 20:42 19.12.2020
4644 Clouds 19 1025 34 10000 6.7 20 20:19 19.12.2020
4645 Clouds 21 1026 26 10000 2.1 90 19:50 19.12.2020
4646 Clouds 21 1026 26 10000 2.1 90 19:31 19.12.2020
4647 Clouds 21 1027 28 10000 3.1 110 18:41 19.12.2020
4648 Clouds 19 1028 32 10000 2.1 330 18:20 19.12.2020
4649 Clouds 19 1028 32 10000 2.1 330 17:46 19.12.2020
4650 Clouds 18 1030 34 10000 4.1 300 17:24 19.12.2020
4651 Clouds 17 1030 42 10000 1 0 16:45 19.12.2020
4652 Clouds 17 1030 42 10000 1 0 16:26 19.12.2020
4653 Clouds 16 1031 41 10000 1.5 0 15:58 19.12.2020
4654 Clouds 15 1031 51 10000 2.1 90 15:39 19.12.2020
4655 Clouds 14 1031 50 10000 1.5 0 14:43 19.12.2020
4656 Clouds 13 1031 58 10000 0.5 90 14:22 19.12.2020
4657 Clouds 13 1031 58 10000 0.5 90 13:41 19.12.2020
4658 Clouds 9 1031 76 10000 2.1 290 13:20 19.12.2020
4659 Clouds 9 1031 76 10000 0.5 360 12:44 19.12.2020
4660 Clouds 9 1031 76 10000 0.5 360 12:26 19.12.2020
4661 Clouds 8 1018 73 10000 1.22 157 11:57 19.12.2020
4662 Clouds 8 1018 73 10000 1.22 157 11:36 19.12.2020
4663 Clouds 8 1017 76 10000 1.59 178 10:43 19.12.2020
4664 Clouds 8 1017 77 7765 2.37 194 10:25 19.12.2020
4665 Clouds 8 1017 77 7765 2.37 194 09:56 19.12.2020
4666 Clouds 8 1017 77 7765 2.37 194 09:38 19.12.2020
4667 Clouds 9 1016 76 7085 2.64 189 08:36 19.12.2020
4668 Clouds 10 1017 71 10000 2.15 174 07:25 19.12.2020
4669 Clouds 10 1017 70 10000 2.27 187 06:54 19.12.2020
4670 Clouds 11 1018 69 10000 1.85 175 06:21 19.12.2020
4671 Clouds 11 1019 70 10000 1.31 133 05:19 19.12.2020
4672 Rain 11 1018 68 10000 1.6 48 03:20 19.12.2020
4673 Clouds 14 1028 47 10000 3.6 100 00:41 19.12.2020
4674 Clouds 16 1028 41 10000 2.1 150 00:18 19.12.2020
4675 Clouds 16 1027 41 10000 5.1 20 23:48 18.12.2020
4676 Clouds 16 1027 41 10000 5.1 20 23:23 18.12.2020
4677 Rain 17 1027 39 10000 5.7 30 22:46 18.12.2020
4678 Rain 17 1027 33 10000 4.1 30 22:24 18.12.2020
4679 Rain 17 1027 33 10000 4.1 30 21:50 18.12.2020
4680 Rain 17 1026 39 10000 5.1 10 21:31 18.12.2020
4681 Rain 17 1026 39 10000 5.1 10 20:43 18.12.2020
4682 Rain 20 1027 42 10000 2.1 260 20:22 18.12.2020
4683 Rain 20 1027 42 10000 2.1 260 19:45 18.12.2020
4684 Clouds 16 1028 48 10000 2.6 0 19:22 18.12.2020
4685 Clouds 21 1029 28 10000 3.1 0 18:45 18.12.2020
4686 Clouds 20 1029 34 10000 2.6 0 18:24 18.12.2020
4687 Clouds 20 1031 30 10000 1 270 17:30 18.12.2020
4688 Clouds 20 1031 30 10000 1 270 16:57 18.12.2020
4689 Clouds 20 1031 30 10000 1 270 16:38 18.12.2020
4690 Clouds 17 1032 33 10000 0.5 0 16:20 18.12.2020
4691 Clouds 17 1032 33 10000 0.5 0 15:43 18.12.2020
4692 Clouds 15 1033 47 10000 2.6 80 15:24 18.12.2020
4693 Clouds 15 1033 47 10000 2.6 80 14:55 18.12.2020
4694 Clouds 14 1033 54 10000 0.5 150 14:23 18.12.2020
4695 Clouds 11 1033 62 10000 1.5 110 13:51 18.12.2020
4696 Clouds 11 1033 62 10000 0.57 100 13:31 18.12.2020
4697 Clouds 11 1033 62 10000 0.5 33 12:57 18.12.2020
4698 Clouds 10 1032 66 10000 1.5 100 12:34 18.12.2020
4699 Clouds 8 1019 70 10000 0.15 1 11:28 18.12.2020
4700 Clouds 8 1019 70 10000 0.15 1 10:40 18.12.2020
4701 Clouds 8 1018 69 10000 0.51 10 10:21 18.12.2020
4702 Clouds 8 1018 69 10000 0.51 10 09:57 18.12.2020
4703 Clouds 8 1018 69 10000 0.51 10 09:36 18.12.2020
4704 Clear 9 1018 69 10000 0.81 24 09:18 18.12.2020
4705 Clear 9 1018 69 10000 0.81 24 08:43 18.12.2020
4706 Clear 9 1018 68 10000 1.11 24 07:56 18.12.2020
4707 Clear 9 1019 67 10000 1.29 23 07:19 18.12.2020
4708 Clear 9 1019 67 10000 1.29 23 06:59 18.12.2020
4709 Clouds 10 1020 67 10000 1.42 27 05:44 18.12.2020
4710 Clouds 10 1020 66 10000 1.46 33 04:51 18.12.2020
4711 Clear 11 1019 64 10000 2.07 28 03:20 18.12.2020
4712 Clouds 16 1029 38 10000 4.6 20 01:44 18.12.2020
4713 Clouds 17 1028 36 10000 5.7 20 00:29 18.12.2020
4714 Clouds 18 1027 31 10000 6.2 20 23:52 17.12.2020
4715 Clouds 19 1027 29 10000 5.7 20 23:21 17.12.2020
4716 Clouds 20 1027 28 10000 6.2 20 22:48 17.12.2020
4717 Clouds 20 1027 28 10000 6.2 20 22:27 17.12.2020
4718 Clouds 20 1027 28 10000 6.2 10 21:44 17.12.2020
4719 Clouds 20 1027 28 10000 6.2 10 21:44 17.12.2020
4720 Clouds 20 1028 28 10000 7.7 20 21:21 17.12.2020
4721 Clouds 20 1028 28 10000 7.7 20 20:45 17.12.2020
4722 Clouds 21 1029 28 10000 4.6 20 20:20 17.12.2020
4723 Clouds 20 1030 28 10000 6.7 30 19:56 17.12.2020
4724 Clouds 20 1030 28 10000 6.7 30 19:38 17.12.2020
4725 Clouds 19 1030 32 10000 5.7 360 19:19 17.12.2020
4726 Clouds 20 1031 28 10000 3.6 20 18:40 17.12.2020
4727 Clouds 18 1032 31 10000 4.6 20 18:19 17.12.2020
4728 Clouds 18 1032 36 10000 2.27 358 17:45 17.12.2020
4729 Clouds 19 1032 39 10000 1.76 354 17:27 17.12.2020
4730 Clouds 17 1033 36 10000 1.5 170 16:40 17.12.2020
4731 Clouds 17 1033 45 10000 1.65 351 16:20 17.12.2020
4732 Clouds 17 1033 45 10000 1.65 351 15:45 17.12.2020
4733 Clouds 15 1033 47 10000 1 0 15:27 17.12.2020
4734 Clouds 15 1033 47 10000 1 0 14:49 17.12.2020
4735 Clouds 12 1033 62 10000 2.8 352 14:22 17.12.2020
4736 Clouds 11 1033 66 10000 2.8 352 13:48 17.12.2020
4737 Clouds 11 1033 66 10000 2.97 340 13:22 17.12.2020
4738 Clouds 8 1032 75 10000 2.97 340 12:41 17.12.2020
4739 Clouds 10 1019 69 10000 1.25 23 12:22 17.12.2020
4740 Clouds 10 1019 69 10000 1.25 23 11:42 17.12.2020
4741 Clouds 10 1018 72 10000 1.1 17 11:22 17.12.2020
4742 Clouds 10 1018 72 10000 1.1 17 10:48 17.12.2020
4743 Clouds 10 1017 72 10000 1.07 22 09:40 17.12.2020
4744 Clouds 10 1017 72 10000 1 15 08:57 17.12.2020
4745 Clouds 11 1017 71 10000 1.05 8 07:44 17.12.2020
4746 Clouds 11 1018 71 10000 1.06 354 07:25 17.12.2020
4747 Clouds 10 1018 72 10000 0.88 327 06:50 17.12.2020
4748 Clouds 11 1019 71 10000 0.96 344 06:32 17.12.2020
4749 Clouds 11 1019 69 10000 1.33 19 03:55 17.12.2020
4750 Clouds 15 1027 44 10000 3.1 0 00:29 17.12.2020
4751 Clouds 16 1027 38 10000 4.1 60 23:50 16.12.2020
4752 Clouds 17 1026 39 10000 3.6 10 23:19 16.12.2020
4753 Clouds 19 1026 32 10000 4.6 10 22:50 16.12.2020
4754 Clouds 19 1026 32 10000 4.6 10 22:31 16.12.2020
4755 Clouds 20 1027 30 10000 2.1 0 21:46 16.12.2020
4756 Clouds 19 1027 32 10000 1.75 351 21:26 16.12.2020
4757 Clouds 18 1028 31 10000 2.1 200 20:52 16.12.2020
4758 Clouds 18 1029 34 10000 2.6 240 20:20 16.12.2020
4759 Clouds 17 1030 42 10000 4.1 10 19:45 16.12.2020
4760 Clouds 16 1030 44 10000 5.1 30 19:18 16.12.2020
4761 Clouds 17 1031 45 10000 2.1 360 18:52 16.12.2020
4762 Rain 16 1031 41 10000 2.1 90 18:26 16.12.2020
4763 Rain 15 1032 44 10000 2.1 0 17:42 16.12.2020
4764 Rain 15 1032 41 10000 2.1 100 16:58 16.12.2020
4765 Rain 15 1032 41 10000 2.1 100 16:38 16.12.2020
4766 Clouds 15 1032 47 10000 1.59 14 16:19 16.12.2020
4767 Clouds 15 1032 47 10000 1.59 14 15:48 16.12.2020
4768 Clouds 13 1032 50 10000 1.5 130 15:23 16.12.2020
4769 Clouds 12 1032 58 10000 1 0 14:46 16.12.2020
4770 Clouds 12 1032 58 10000 1 0 14:27 16.12.2020
4771 Clouds 10 1032 71 10000 1 280 13:42 16.12.2020
4772 Clouds 10 1031 66 10000 0.54 46 13:21 16.12.2020
4773 Clouds 10 1031 66 10000 0.24 18 12:46 16.12.2020
4774 Clouds 10 1018 68 10000 0.5 359 12:20 16.12.2020
4775 Rain 10 1018 68 10000 0.5 359 11:38 16.12.2020
4776 Rain 10 1017 72 10000 0.77 2 11:19 16.12.2020
4777 Rain 10 1017 72 10000 0.77 2 10:41 16.12.2020
4778 Rain 10 1016 72 10000 0.88 15 09:56 16.12.2020
4779 Rain 10 1016 72 10000 0.88 15 09:34 16.12.2020
4780 Clouds 10 1015 72 10000 1.64 11 08:23 16.12.2020
4781 Clouds 10 1015 72 10000 1.64 11 07:46 16.12.2020
4782 Clouds 10 1015 72 10000 1.85 10 07:23 16.12.2020
4783 Clouds 11 1016 72 10000 1.88 349 05:42 16.12.2020
4784 Clouds 13 1026 50 10000 2.6 100 02:20 16.12.2020
4785 Clouds 15 1025 38 10000 2.1 340 23:57 15.12.2020
4786 Clouds 15 1025 38 10000 2.1 340 23:37 15.12.2020
4787 Clouds 14 1026 44 10000 2.6 200 22:44 15.12.2020
4788 Rain 17 1026 39 10000 9.3 100 22:22 15.12.2020
4789 Thunderstorm 17 1026 39 10000 9.3 100 21:49 15.12.2020
4790 Clouds 21 1025 30 10000 4.6 40 21:24 15.12.2020
4791 Clouds 21 1025 30 10000 4.6 40 20:46 15.12.2020
4792 Clouds 22 1025 26 10000 2.6 0 20:27 15.12.2020
4793 Clouds 22 1025 26 10000 2.6 0 19:55 15.12.2020
4794 Clouds 21 1026 22 10000 3.6 270 19:34 15.12.2020
4795 Clouds 21 1028 22 10000 1.5 330 18:55 15.12.2020
4796 Clouds 21 1028 22 10000 1.5 330 18:36 15.12.2020
4797 Clouds 20 1028 33 10000 2.6 310 18:18 15.12.2020
4798 Clouds 20 1029 22 10000 1 0 17:41 15.12.2020
4799 Clouds 18 1029 34 10000 1.5 280 17:20 15.12.2020
4800 Clouds 18 1030 39 10000 1.5 0 16:34 15.12.2020
4801 Clouds 17 1031 42 10000 1.5 0 15:59 15.12.2020
4802 Clouds 14 1031 58 10000 2.1 300 15:33 15.12.2020
4803 Clouds 14 1031 54 10000 1 0 14:51 15.12.2020
4804 Clouds 13 1031 58 10000 0.93 184 14:25 15.12.2020
4805 Clouds 11 1031 66 10000 0.93 184 13:54 15.12.2020
4806 Clouds 11 1031 66 10000 1.02 165 13:33 15.12.2020
4807 Clouds 11 1018 66 10000 1.06 154 12:47 15.12.2020
4808 Clouds 9 1018 72 10000 0.68 198 12:25 15.12.2020
4809 Clouds 9 1018 72 10000 0.68 198 11:58 15.12.2020
4810 Clouds 9 1018 72 10000 0.68 198 11:39 15.12.2020
4811 Clouds 9 1017 75 10000 0.76 180 11:20 15.12.2020
4812 Clouds 9 1017 75 10000 0.76 180 10:39 15.12.2020
4813 Clouds 9 1017 74 10000 1.15 195 09:53 15.12.2020
4814 Clouds 9 1017 74 10000 1.15 195 09:32 15.12.2020
4815 Clouds 10 1016 73 10000 1.24 191 08:58 15.12.2020
4816 Clouds 10 1016 73 10000 1.24 191 08:30 15.12.2020
4817 Clouds 10 1017 70 10000 1.57 174 07:59 15.12.2020
4818 Clouds 10 1017 70 10000 1.57 174 07:37 15.12.2020
4819 Clouds 9 1018 73 10000 1.71 234 06:37 15.12.2020
4820 Clouds 10 1019 70 10000 1.45 186 04:55 15.12.2020
4821 Clouds 18 1026 36 10000 5.7 300 00:37 15.12.2020
4822 Clouds 20 1025 30 10000 1.5 0 23:47 14.12.2020
4823 Clouds 20 1025 30 10000 1 0 23:19 14.12.2020
4824 Clouds 20 1026 34 10000 3.1 270 22:39 14.12.2020
4825 Clouds 20 1027 32 10000 3.1 320 21:55 14.12.2020
4826 Clouds 20 1027 32 10000 3.1 320 21:36 14.12.2020
4827 Rain 20 1028 32 10000 3.6 290 20:56 14.12.2020
4828 Rain 20 1028 32 10000 3.6 290 20:38 14.12.2020
4829 Rain 20 1028 32 10000 4.1 280 20:18 14.12.2020
4830 Rain 19 1029 42 10000 2.1 290 19:32 14.12.2020
4831 Clouds 19 1029 34 10000 2.1 350 18:57 14.12.2020
4832 Clouds 18 1030 36 10000 2.6 340 18:38 14.12.2020
4833 Rain 18 1031 39 10000 3.6 70 17:58 14.12.2020
4834 Clouds 19 1031 39 10000 1.5 30 17:33 14.12.2020
4835 Clouds 17 1031 39 10000 1 0 16:56 14.12.2020
4836 Clouds 17 1031 39 10000 1 0 16:36 14.12.2020
4837 Clouds 15 1032 47 10000 2.1 70 16:18 14.12.2020
4838 Clouds 15 1032 47 10000 2.1 70 15:32 14.12.2020
4839 Clouds 13 1033 54 10000 1 0 14:46 14.12.2020
4840 Clouds 10 1033 66 10000 2.1 90 14:27 14.12.2020
4841 Clouds 10 1033 66 10000 2.1 90 13:55 14.12.2020
4842 Clouds 10 1033 66 10000 2.1 90 13:33 14.12.2020
4843 Clouds 8 1032 75 10000 0.5 300 12:55 14.12.2020
4844 Clouds 8 1032 75 10000 0.5 300 12:31 14.12.2020
4845 Clouds 10 1018 70 10000 0.34 150 11:54 14.12.2020
4846 Clouds 9 1017 74 10000 0.81 175 11:23 14.12.2020
4847 Clouds 9 1017 73 10000 0.66 210 10:27 14.12.2020
4848 Clouds 9 1017 73 10000 0.66 210 09:52 14.12.2020
4849 Clouds 9 1017 72 10000 0.36 243 08:56 14.12.2020
4850 Clouds 9 1017 72 10000 0.36 243 08:38 14.12.2020
4851 Clouds 9 1017 70 10000 0.57 305 07:53 14.12.2020
4852 Clouds 10 1018 69 10000 0.48 267 07:19 14.12.2020
4853 Clouds 10 1018 69 10000 0.48 267 06:42 14.12.2020
4854 Rain 11 1019 66 10000 1.98 195 03:57 14.12.2020
4855 Rain 11 1019 66 10000 1.98 195 03:57 14.12.2020
4856 Clouds 13 1030 54 10000 3.1 110 00:58 14.12.2020
4857 Clouds 14 1030 47 10000 2.1 0 00:39 14.12.2020
4858 Clouds 14 1029 47 10000 1.5 230 00:20 14.12.2020
4859 Clouds 15 1030 41 10000 1.5 70 23:44 13.12.2020
4860 Clouds 15 1030 41 10000 1.35 144 22:57 13.12.2020
4861 Clouds 14 1030 47 10000 2.6 280 22:39 13.12.2020
4862 Clouds 15 1030 44 10000 0.5 330 22:18 13.12.2020
4863 Clouds 15 1031 44 10000 2.6 140 21:41 13.12.2020
4864 Rain 14 1031 44 10000 3.6 80 20:55 13.12.2020
4865 Clouds 14 1032 47 10000 9.8 110 20:28 13.12.2020
4866 Rain 17 1030 33 10000 3.6 100 19:48 13.12.2020
4867 Rain 17 1030 36 10000 3.6 170 19:24 13.12.2020
4868 Rain 17 1030 33 10000 3.6 170 18:56 13.12.2020
4869 Rain 18 1030 31 10000 5.7 80 18:36 13.12.2020
4870 Clouds 20 1030 30 10000 3.6 290 18:18 13.12.2020
4871 Clouds 20 1030 30 10000 3.6 290 17:45 13.12.2020
4872 Clouds 19 1031 32 10000 1 0 17:18 13.12.2020
4873 Clouds 18 1032 36 10000 0.5 70 16:50 13.12.2020
4874 Clouds 18 1032 36 10000 0.5 70 16:31 13.12.2020
4875 Clouds 16 1033 44 10000 1.5 90 15:46 13.12.2020
4876 Clouds 16 1033 44 10000 1.5 90 15:26 13.12.2020
4877 Clouds 14 1033 47 10000 1 0 14:47 13.12.2020
4878 Clouds 14 1033 47 10000 1 0 14:29 13.12.2020
4879 Clouds 12 1033 58 10000 1 100 13:50 13.12.2020
4880 Clouds 12 1033 58 10000 1 100 13:31 13.12.2020
4881 Clouds 10 1032 66 10000 1.5 120 12:57 13.12.2020
4882 Clouds 8 1032 75 10000 1 290 12:24 13.12.2020
4883 Clouds 9 1019 69 10000 1.56 175 11:58 13.12.2020
4884 Clouds 9 1019 69 10000 1.56 175 11:32 13.12.2020
4885 Clouds 8 1018 70 10000 0.83 249 10:45 13.12.2020
4886 Clouds 8 1017 71 10000 1.38 328 10:21 13.12.2020
4887 Clouds 8 1017 71 10000 1.38 328 09:46 13.12.2020
4888 Clouds 8 1017 73 10000 1.11 301 08:48 13.12.2020
4889 Clouds 8 1017 73 10000 1.11 301 08:30 13.12.2020
4890 Clouds 8 1018 77 10000 2.22 268 07:20 13.12.2020
4891 Clouds 12 1019 67 10000 2.88 161 03:24 13.12.2020
4892 Clouds 14 1028 44 10000 3.1 110 02:32 13.12.2020
4893 Clouds 14 1028 47 10000 4.1 100 01:36 13.12.2020
4894 Rain 14 1027 44 10000 1.5 120 00:44 13.12.2020
4895 Rain 15 1027 41 10000 5.1 110 23:40 12.12.2020
4896 Rain 15 1027 41 10000 5.1 110 23:40 12.12.2020
4897 Rain 15 1027 41 10000 9.8 110 23:20 12.12.2020
4898 Clouds 16 1026 38 10000 13.4 110 22:36 12.12.2020
4899 Clouds 22 1024 19 10000 2.1 360 21:47 12.12.2020
4900 Clouds 24 1024 17 10000 5.1 20 21:20 12.12.2020
4901 Clouds 23 1025 18 10000 2.1 0 20:46 12.12.2020
4902 Clouds 24 1026 25 10000 1 290 20:21 12.12.2020
4903 Clouds 24 1026 25 10000 1 290 19:53 12.12.2020
4904 Clouds 24 1026 25 10000 1 290 19:33 12.12.2020
4905 Clouds 22 1028 24 10000 2.1 0 18:56 12.12.2020
4906 Clouds 22 1028 24 10000 2.1 0 18:38 12.12.2020
4907 Clouds 21 1029 28 10000 2.1 0 18:20 12.12.2020
4908 Clouds 21 1029 28 10000 2.1 0 17:41 12.12.2020
4909 Clouds 18 1031 39 10000 1.5 100 16:44 12.12.2020
4910 Clouds 18 1031 39 10000 1 0 15:58 12.12.2020
4911 Clouds 18 1031 39 10000 1 0 15:58 12.12.2020
4912 Clouds 18 1031 39 10000 1 0 15:58 12.12.2020
4913 Clouds 16 1032 44 10000 1 220 15:39 12.12.2020
4914 Clouds 15 1032 47 10000 2.6 110 14:54 12.12.2020
4915 Clouds 13 1032 54 10000 1 0 14:22 12.12.2020
4916 Clouds 12 1032 62 10000 0.47 309 13:44 12.12.2020
4917 Clouds 12 1032 62 10000 0.43 301 13:25 12.12.2020
4918 Clouds 7 1031 87 10000 0.5 315 12:37 12.12.2020
4919 Clouds 9 1016 76 10000 0.35 303 11:28 12.12.2020
4920 Clouds 9 1016 76 10000 0.35 303 10:46 12.12.2020
4921 Clouds 10 1015 75 10000 0.79 265 09:24 12.12.2020
4922 Clouds 10 1015 75 10000 0.79 265 08:41 12.12.2020
4923 Rain 15 1029 41 10000 5.1 180 01:56 12.12.2020
4924 Rain 15 1026 41 10000 1 60 23:31 11.12.2020
4925 Clouds 14 1025 47 10000 1 270 21:32 11.12.2020
4926 Clouds 22 1026 44 10000 1.5 0 19:46 11.12.2020
4927 Clouds 19 1029 32 10000 2.1 340 17:30 11.12.2020
4928 Clouds 14 1031 50 10000 0.5 150 14:39 11.12.2020
4929 Clouds 10 1031 71 10000 0.89 269 13:46 11.12.2020
4930 Mist 8 1030 81 10000 2.6 110 12:29 11.12.2020
4931 Clouds 11 1016 69 10000 0.65 224 11:56 11.12.2020
4932 Clouds 11 1016 69 10000 0.65 224 11:37 11.12.2020
4933 Clouds 11 1016 69 10000 0.58 220 10:41 11.12.2020
4934 Clouds 12 1015 66 10000 0.37 351 07:51 11.12.2020
4935 Clouds 12 1017 69 10000 1.48 19 05:36 11.12.2020
4936 Clouds 12 1017 70 10000 1.87 28 04:47 11.12.2020
4937 Clouds 13 1027 54 10000 2.1 90 01:20 11.12.2020
4938 Clouds 17 1027 39 10000 2.6 90 23:37 10.12.2020
4939 Clouds 17 1028 36 10000 1.5 0 21:59 10.12.2020
4940 Clouds 16 1028 41 10000 3.6 110 21:29 10.12.2020
4941 Clouds 15 1029 47 10000 3.6 110 20:38 10.12.2020
4942 Clouds 14 1030 54 10000 4.1 110 19:33 10.12.2020
4943 Clouds 14 1031 47 10000 1.5 0 18:50 10.12.2020
4944 Smoke 13 1031 58 10000 7.7 110 17:45 10.12.2020
4945 Clouds 12 1032 66 10000 1.5 90 16:24 10.12.2020
4946 Clouds 11 1032 66 10000 1 180 15:24 10.12.2020
4947 Clouds 11 1032 71 10000 0.65 272 14:47 10.12.2020
4948 Haze 10 1032 71 10000 0.69 249 14:24 10.12.2020
4949 Clouds 9 1030 76 10000 0.75 319 12:33 10.12.2020
4950 Clouds 10 1016 76 10000 1.02 311 10:59 10.12.2020
4951 Clouds 11 1015 72 10000 0.55 266 08:44 10.12.2020
4952 Clouds 12 1015 70 10000 0.66 110 07:34 10.12.2020
4953 Clouds 12 1016 69 10000 0.57 199 06:40 10.12.2020
4954 Clouds 13 1018 67 8935 0.5 255 02:51 10.12.2020
4955 Clouds 16 1027 55 10000 3.6 290 01:56 10.12.2020
4956 Rain 19 1028 29 10000 1 160 23:49 09.12.2020
4957 Clouds 23 1028 27 10000 2.6 60 20:43 09.12.2020
4958 Clouds 22 1029 28 10000 3.1 280 20:24 09.12.2020
4959 Clouds 21 1031 37 10000 2.1 230 18:58 09.12.2020
4960 Clouds 21 1031 37 10000 2.1 230 18:58 09.12.2020
4961 Clouds 19 1033 37 10000 2.6 80 17:39 09.12.2020
4962 Clouds 18 1034 45 10000 3.6 270 16:40 09.12.2020
4963 Clouds 17 1034 45 10000 1.5 330 16:20 09.12.2020
4964 Clouds 12 1035 66 10000 1 60 14:53 09.12.2020
4965 Clouds 12 1035 66 10000 1 60 14:27 09.12.2020
4966 Clouds 12 1035 66 10000 1 180 13:51 09.12.2020
4967 Mist 8 1034 81 10000 1.5 100 13:18 09.12.2020
4968 Mist 8 1034 81 10000 1.5 100 12:43 09.12.2020
4969 Clouds 10 1020 71 10000 0.65 259 11:46 09.12.2020
4970 Clouds 10 1018 75 10000 0.36 120 09:59 09.12.2020
4971 Clouds 10 1017 76 10000 0.82 154 08:42 09.12.2020
4972 Clouds 10 1018 75 10000 0.83 159 07:42 09.12.2020
4973 Clouds 11 1019 72 10000 0.72 234 05:42 09.12.2020
4974 Clouds 13 1019 67 10000 1.09 87 02:59 09.12.2020
4975 Clouds 12 1030 66 10000 0.5 360 00:56 09.12.2020
4976 Rain 13 1029 66 10000 3.1 80 23:41 08.12.2020
4977 Clouds 17 1029 48 10000 0.5 0 22:43 08.12.2020
4978 Rain 19 1029 42 10000 7.2 20 20:50 08.12.2020
4979 Clouds 23 1029 28 10000 2.1 0 19:32 08.12.2020
4980 Clouds 20 1031 34 10000 1 0 18:57 08.12.2020
4981 Clouds 18 1033 39 10000 3.6 320 17:28 08.12.2020
4982 Clouds 14 1034 58 10000 1 0 15:27 08.12.2020
4983 Clouds 12 1034 71 10000 1 0 13:59 08.12.2020
4984 Clouds 11 1034 76 10000 1.03 220 13:24 08.12.2020
4985 Clouds 10 1020 71 10000 0.99 226 12:23 08.12.2020
4986 Clouds 9 1019 74 10000 0.94 257 11:28 08.12.2020
4987 Clouds 9 1019 74 10000 0.94 257 10:42 08.12.2020
4988 Clouds 10 1019 71 10000 0.92 263 09:46 08.12.2020
4989 Clouds 11 1020 65 10000 0.36 336 07:50 08.12.2020
4990 Clouds 11 1020 68 10000 0.96 52 06:33 08.12.2020
4991 Clouds 11 1020 69 10000 2.05 31 02:59 08.12.2020
4992 Mist 10 1030 81 9000 1.5 120 00:45 08.12.2020
4993 Rain 11 1030 71 10000 4.6 110 23:50 07.12.2020
4994 Clouds 16 1028 55 10000 5.7 290 22:33 07.12.2020
4995 Clouds 16 1029 51 10000 5.7 290 21:49 07.12.2020
4996 Clouds 17 1029 51 10000 4.6 300 19:51 07.12.2020
4997 Clouds 18 1030 42 10000 1 0 18:29 07.12.2020
4998 Clouds 16 1032 59 10000 1.5 60 17:26 07.12.2020
4999 Clouds 16 1032 59 10000 1.5 60 16:52 07.12.2020
5000 Clouds 12 1033 76 10000 2.1 110 15:26 07.12.2020
5001 Clouds 12 1033 76 9000 2.1 100 14:44 07.12.2020
5002 Clouds 11 1033 81 9000 1.5 100 13:45 07.12.2020
5003 Drizzle 10 1032 87 8000 1.05 54 12:38 07.12.2020
5004 Clouds 10 1019 70 10000 1.05 38 11:43 07.12.2020
5005 Clouds 9 1018 72 10000 0.99 34 10:56 07.12.2020
5006 Clouds 10 1018 71 10000 1.06 28 09:40 07.12.2020
5007 Clouds 10 1019 71 10000 1.17 4 08:21 07.12.2020
5008 Clouds 11 1020 71 10000 1.31 333 06:21 07.12.2020
5009 Clouds 11 1020 70 10000 1.74 346 04:48 07.12.2020
5010 Clouds 10 1031 87 6000 2.6 290 01:54 07.12.2020
5011 Clouds 11 1030 81 6000 4.1 110 23:50 06.12.2020
5012 Clouds 13 1029 76 9000 2.6 100 22:24 06.12.2020
5013 Clouds 13 1030 66 8000 3.1 290 20:54 06.12.2020
5014 Clouds 11 1030 81 7000 1 90 20:34 06.12.2020
5015 Clouds 11 1031 81 7000 1.5 90 19:54 06.12.2020
5016 Clouds 16 1031 55 10000 6.2 100 18:21 06.12.2020
5017 Clouds 16 1032 51 10000 2.1 130 16:47 06.12.2020
5018 Clouds 14 1033 58 9000 1 0 14:57 06.12.2020
5019 Clouds 11 1032 76 9000 1.35 331 13:45 06.12.2020
5020 Clouds 11 1032 71 10000 2.1 290 12:51 06.12.2020
5021 Rain 10 1019 72 10000 1.53 326 11:58 06.12.2020
5022 Rain 10 1019 72 10000 1.53 326 11:34 06.12.2020
5023 Clouds 10 1018 74 10000 1.39 328 10:47 06.12.2020
5024 Clouds 10 1018 75 10000 1.15 324 09:57 06.12.2020
5025 Clouds 10 1018 75 10000 1 201 08:29 06.12.2020
5026 Clouds 11 1019 73 10000 0.92 318 06:47 06.12.2020
5027 Clouds 13 1030 66 10000 3.1 220 01:47 06.12.2020
5028 Thunderstorm 15 1029 58 10000 2.6 200 00:41 06.12.2020
5029 Thunderstorm 15 1029 58 10000 2.6 200 00:23 06.12.2020
5030 Clouds 20 1028 42 10000 5.1 280 22:46 05.12.2020
5031 Clouds 20 1028 42 10000 5.1 310 22:20 05.12.2020
5032 Clouds 19 1028 39 10000 2.6 260 21:48 05.12.2020
5033 Clouds 19 1028 39 10000 2.6 260 21:26 05.12.2020
5034 Clouds 17 1032 45 10000 3.6 280 19:43 05.12.2020
5035 Clouds 17 1033 45 10000 3.6 350 18:40 05.12.2020
5036 Clouds 16 1033 44 10000 2.1 0 17:29 05.12.2020
5037 Clouds 15 1034 51 10000 1.5 0 16:30 05.12.2020
5038 Clouds 15 1034 51 10000 1 20 15:54 05.12.2020
5039 Clouds 13 1034 58 10000 1.36 118 14:27 05.12.2020
5040 Clouds 13 1034 58 10000 1.36 118 14:27 05.12.2020
5041 Clouds 10 1033 81 10000 1.33 151 12:23 05.12.2020
5042 Clouds 10 1020 72 10000 1.33 151 11:41 05.12.2020
5043 Clouds 10 1019 74 10000 0.84 141 10:31 05.12.2020
5044 Clouds 10 1018 71 10000 1 351 07:48 05.12.2020
5045 Clouds 10 1018 72 10000 1.18 335 06:40 05.12.2020
5046 Clouds 11 1020 70 10000 1.94 340 03:54 05.12.2020
5047 Clouds 18 1027 39 10000 1 0 23:52 04.12.2020
5048 Clouds 18 1027 42 10000 2.1 250 22:24 04.12.2020
5049 Clouds 14 1030 62 10000 1 0 20:25 04.12.2020
5050 Rain 16 1030 48 10000 5.7 10 18:53 04.12.2020
5051 Rain 17 1030 45 10000 1.5 0 18:19 04.12.2020
5052 Clouds 18 1030 45 10000 2.1 90 17:29 04.12.2020
5053 Clouds 14 1032 54 10000 1.5 100 15:46 04.12.2020
5054 Clouds 10 1032 71 10000 1 120 13:40 04.12.2020
5055 Clouds 10 1032 76 10000 0.5 100 13:22 04.12.2020
5056 Clouds 10 1032 76 10000 0.5 100 12:51 04.12.2020
5057 Clouds 10 1017 73 10000 1.77 5 10:40 04.12.2020
5058 Clouds 10 1016 75 10000 1.7 339 09:55 04.12.2020
5059 Clouds 11 1017 71 10000 0.6 45 07:20 04.12.2020
5060 Clouds 11 1017 72 8443 0.86 22 06:39 04.12.2020
5061 Clouds 12 1028 71 10000 2.1 280 01:57 04.12.2020
5062 Clouds 15 1026 58 10000 5.1 290 22:52 03.12.2020
5063 Clouds 15 1026 58 10000 5.1 290 22:30 03.12.2020
5064 Thunderstorm 17 1026 45 10000 2.1 0 20:49 03.12.2020
5065 Clouds 20 1027 34 10000 3.1 280 19:37 03.12.2020
5066 Clouds 20 1028 37 10000 2.33 349 19:18 03.12.2020
5067 Clouds 18 1029 36 10000 2.6 80 18:18 03.12.2020
5068 Clouds 18 1030 39 10000 1.5 70 17:19 03.12.2020
5069 Clouds 16 1031 51 10000 2.1 0 15:56 03.12.2020
5070 Clouds 16 1031 51 10000 1.5 0 15:31 03.12.2020
5071 Clouds 13 1031 62 10000 1 180 14:48 03.12.2020
5072 Clouds 10 1031 76 10000 3.1 90 13:44 03.12.2020
5073 Mist 7 1030 87 10000 2.1 300 12:32 03.12.2020
5074 Clouds 9 1016 72 10000 0.5 165 11:38 03.12.2020
5075 Clouds 8 1015 75 10000 0.86 210 10:25 03.12.2020
5076 Clouds 9 1015 80 3790 2.84 178 07:48 03.12.2020
5077 Clouds 12 1016 68 10000 1.58 18 03:38 03.12.2020
5078 Clouds 13 1028 62 10000 0.5 0 01:19 03.12.2020
5079 Rain 13 1026 62 10000 0.5 70 23:19 02.12.2020
5080 Rain 13 1027 62 10000 1 0 22:28 02.12.2020
5081 Rain 16 1026 44 10000 8.2 110 21:28 02.12.2020
5082 Clouds 20 1026 37 10000 3.6 70 20:47 02.12.2020
5083 Clouds 20 1026 37 10000 3.6 70 20:29 02.12.2020
5084 Clouds 19 1029 39 10000 1.5 0 18:39 02.12.2020
5085 Clouds 16 1031 44 10000 1.5 0 17:47 02.12.2020
5086 Clouds 16 1031 44 10000 1.5 0 17:28 02.12.2020
5087 Clouds 13 1032 58 10000 1 0 15:37 02.12.2020
5088 Clouds 8 1031 81 10000 1 280 13:19 02.12.2020
5089 Clouds 9 1016 73 10000 0.9 170 10:47 02.12.2020
5090 Clouds 9 1015 72 10000 1.33 167 10:21 02.12.2020
5091 Clouds 9 1017 72 10000 2.3 214 06:53 02.12.2020
5092 Rain 12 1028 71 4500 7.2 110 23:20 01.12.2020
5093 Clouds 17 1026 48 10000 3.6 20 22:20 01.12.2020
5094 Clouds 16 1031 48 10000 5.7 100 19:36 01.12.2020
5095 Clouds 18 1031 36 10000 1.5 0 18:46 01.12.2020
5096 Clouds 15 1034 47 10000 0.5 300 16:47 01.12.2020
5097 Clouds 11 1034 71 10000 1.5 0 14:21 01.12.2020
5098 Clouds 9 1033 76 10000 1.5 120 12:29 01.12.2020
5099 Clouds 11 1018 69 10000 1.03 162 11:28 01.12.2020
5100 Clouds 11 1018 69 10000 1.03 162 10:44 01.12.2020
5101 Clouds 11 1017 69 10000 0.65 184 10:25 01.12.2020
5102 Clouds 11 1017 67 10000 0.34 192 07:26 01.12.2020
5103 Clouds 13 1018 61 10000 1.29 46 02:41 01.12.2020
5104 Clouds 15 1029 47 10000 2.6 140 00:57 01.12.2020
5105 Rain 19 1026 32 10000 4.1 90 23:49 30.11.2020
5106 Rain 19 1026 32 10000 5.1 100 23:18 30.11.2020
5107 Clouds 19 1026 32 10000 4.1 70 22:36 30.11.2020
5108 Rain 20 1025 30 10000 4.1 60 22:18 30.11.2020
5109 Clouds 21 1028 26 10000 4.1 30 19:46 30.11.2020
5110 Clouds 23 1030 27 10000 2.1 250 18:44 30.11.2020
5111 Clouds 22 1030 26 10000 1.5 0 18:21 30.11.2020
5112 Clouds 21 1031 28 10000 2.6 10 17:43 30.11.2020
5113 Clouds 19 1032 34 10000 1.5 360 16:52 30.11.2020
5114 Clouds 16 1033 44 10000 1 260 14:47 30.11.2020
5115 Clouds 15 1033 51 10000 1 80 13:55 30.11.2020
5116 Clouds 12 1019 60 10000 0.2 86 12:57 30.11.2020
5117 Clouds 10 1019 68 10000 0.31 82 12:25 30.11.2020
5118 Clouds 9 1018 73 10000 0.16 89 10:59 30.11.2020
5119 Clouds 9 1018 73 10000 0.22 286 10:21 30.11.2020
5120 Clouds 9 1018 71 10000 1.02 327 07:59 30.11.2020
5121 Clouds 17 1028 39 10000 4.1 30 01:25 30.11.2020
5122 Clouds 19 1027 34 10000 4.6 20 23:26 29.11.2020
5123 Clouds 19 1027 34 10000 4.6 20 23:26 29.11.2020
5124 Clouds 20 1029 32 10000 2.6 330 21:44 29.11.2020
5125 Clouds 20 1029 32 10000 2.6 330 21:25 29.11.2020
5126 Clouds 17 1032 42 10000 1.5 0 19:19 29.11.2020
5127 Rain 15 1033 51 10000 1.5 0 17:34 29.11.2020
5128 Clouds 9 1029 76 10000 0.5 100 13:37 29.11.2020
5129 Rain 12 1020 61 10000 0.65 47 12:44 29.11.2020
5130 Rain 11 1019 67 10000 0.48 351 11:36 29.11.2020
5131 Rain 10 1018 68 10000 0.82 28 08:53 29.11.2020
5132 Rain 10 1018 68 10000 0.82 28 08:34 29.11.2020
5133 Clouds 13 1030 58 10000 1 360 02:31 29.11.2020
5134 Rain 15 1028 44 10000 3.6 290 22:59 28.11.2020
5135 Clouds 16 1027 41 10000 4.1 220 22:18 28.11.2020
5136 Clouds 21 1028 30 10000 3.6 310 19:58 28.11.2020
5137 Clouds 17 1029 39 10000 2.1 0 19:27 28.11.2020
5138 Clouds 18 1029 34 10000 5.7 30 18:56 28.11.2020
5139 Clouds 21 1030 28 10000 0.5 270 18:20 28.11.2020
5140 Clouds 19 1032 32 10000 1.5 0 16:57 28.11.2020
5141 Clouds 15 1034 47 10000 2.1 0 14:58 28.11.2020
5142 Clouds 13 1020 54 10000 1.28 188 13:47 28.11.2020
5143 Rain 10 1019 69 10000 0.88 177 11:27 28.11.2020
5144 Clouds 10 1018 68 10000 0.83 177 09:25 28.11.2020
5145 Rain 12 1020 65 10000 1.1 92 03:39 28.11.2020
5146 Clouds 15 1029 38 10000 2.1 0 01:52 28.11.2020
5147 Clouds 20 1026 28 10000 5.7 40 23:21 27.11.2020
5148 Clouds 21 1026 42 10000 3.6 350 22:24 27.11.2020
5149 Clouds 19 1028 29 10000 4.1 350 20:39 27.11.2020
5150 Rain 21 1029 26 10000 4.6 10 19:34 27.11.2020
5151 Clouds 19 1029 32 10000 6.7 20 18:57 27.11.2020
5152 Clouds 18 1032 36 10000 1 0 16:51 27.11.2020
5153 Clouds 14 1032 58 10000 1 0 14:45 27.11.2020
5154 Clouds 11 1032 71 10000 0.5 0 13:18 27.11.2020
5155 Mist 8 1031 81 10000 0.5 0 12:46 27.11.2020
5156 Clouds 10 1019 66 10000 1.3 159 11:34 27.11.2020
5157 Clouds 10 1018 69 10000 1.24 170 10:43 27.11.2020
5158 Clouds 10 1018 69 10000 1.24 155 09:31 27.11.2020
5159 Clouds 17 1012 37 10000 1.74 348 23:18 26.11.2020
5160 Clouds 17 1010 35 10000 2.05 55 22:24 26.11.2020
5161 Clouds 17 1010 35 10000 2.05 55 21:45 26.11.2020
5162 Clouds 21 1027 19 10000 6.2 20 20:43 26.11.2020
5163 Clouds 22 1029 19 10000 4.1 40 18:36 26.11.2020
5164 Clouds 20 1031 30 10000 1.5 0 17:20 26.11.2020
5165 Clouds 13 1033 54 10000 1.5 0 13:44 26.11.2020
5166 Clouds 13 1017 59 10000 0.29 23 12:57 26.11.2020
5167 Clouds 11 1017 65 10000 0.58 86 12:38 26.11.2020
5168 Clouds 11 1016 69 10000 0.44 137 10:46 26.11.2020
5169 Clouds 11 1016 67 10000 0.22 322 10:23 26.11.2020
5170 Rain 11 1016 67 10000 0.22 322 09:34 26.11.2020
5171 Rain 11 1015 66 10000 0.62 343 08:57 26.11.2020
5172 Rain 11 1015 66 10000 0.62 343 08:33 26.11.2020
5173 Clouds 14 1015 58 10000 1.55 352 02:18 26.11.2020
5174 Clouds 23 1026 18 10000 6.2 20 22:18 25.11.2020
5175 Clouds 23 1027 13 10000 6.7 10 20:32 25.11.2020
5176 Clouds 24 1029 22 10000 4.1 10 19:18 25.11.2020
5177 Clouds 22 1031 24 10000 2.1 0 17:29 25.11.2020
5178 Clouds 17 1034 39 10000 1.5 0 15:44 25.11.2020
5179 Clouds 16 1034 41 10000 2.1 90 14:58 25.11.2020
5180 Clouds 13 1034 50 10000 0.5 0 13:46 25.11.2020
5181 Clouds 12 1019 58 10000 0.65 63 12:57 25.11.2020
5182 Clouds 12 1019 58 10000 0.65 63 12:57 25.11.2020
5183 Clouds 10 1018 70 10000 0.81 54 11:24 25.11.2020
5184 Clouds 10 1017 70 10000 0.62 19 09:21 25.11.2020
5185 Clouds 10 1017 70 10000 0.62 19 08:50 25.11.2020
5186 Clouds 10 1017 69 10000 1.13 9 07:41 25.11.2020
5187 Clouds 13 1018 63 10000 2.02 8 03:49 25.11.2020
5188 Clouds 17 1030 36 10000 3.1 50 01:49 25.11.2020
5189 Clouds 19 1028 42 10000 4.1 0 00:20 25.11.2020
5190 Smoke 20 1027 30 10000 5.7 30 23:35 24.11.2020
5191 Clouds 22 1027 21 10000 5.7 30 22:39 24.11.2020
5192 Clouds 24 1027 15 10000 6.2 20 21:43 24.11.2020
5193 Clouds 24 1027 15 10000 6.2 20 21:23 24.11.2020
5194 Clouds 25 1029 11 10000 1.5 310 19:48 24.11.2020
5195 Clear 22 1032 17 10000 2.1 0 17:33 24.11.2020
5196 Clouds 21 1033 18 10000 2.6 300 16:58 24.11.2020
5197 Clouds 19 1034 24 10000 2.1 0 16:38 24.11.2020
5198 Clouds 18 1034 25 10000 0.5 180 15:56 24.11.2020
5199 Clouds 15 1035 41 10000 1 190 15:20 24.11.2020
5200 Clear 12 1035 50 10000 2.6 140 14:44 24.11.2020
5201 Haze 11 1035 50 10000 0.37 129 13:36 24.11.2020
5202 Clear 12 1019 44 10000 0.64 55 12:39 24.11.2020
5203 Clear 10 1019 52 10000 0.65 39 12:18 24.11.2020
5204 Clear 9 1019 58 10000 0.42 23 11:25 24.11.2020
5205 Clouds 9 1018 57 10000 0.55 12 10:25 24.11.2020
5206 Clouds 9 1018 57 10000 0.55 12 09:40 24.11.2020
5207 Clear 10 1017 57 10000 0.73 20 08:59 24.11.2020
5208 Clouds 11 1018 58 10000 0.36 358 06:20 24.11.2020
5209 Clouds 18 1029 12 10000 4.6 0 01:00 24.11.2020
5210 Clear 20 1028 14 10000 6.7 30 22:24 23.11.2020
5211 Clear 21 1029 13 10000 8.2 40 21:32 23.11.2020
5212 Clear 22 1029 13 10000 7.7 30 20:31 23.11.2020
5213 Clouds 22 1030 15 10000 6.2 30 19:59 23.11.2020
5214 Clouds 20 1032 20 10000 4.1 100 17:57 23.11.2020
5215 Clouds 19 1034 20 10000 1 0 16:56 23.11.2020
5216 Clouds 14 1035 35 10000 1.5 60 15:33 23.11.2020
5217 Clouds 13 1035 37 10000 1 90 14:37 23.11.2020
5218 Clouds 11 1021 46 10000 0.34 176 12:41 23.11.2020
5219 Clouds 9 1020 52 10000 0.38 59 12:20 23.11.2020
5220 Clouds 9 1020 52 10000 0.38 59 11:42 23.11.2020
5221 Clouds 8 1019 56 10000 0.88 47 10:22 23.11.2020
5222 Clouds 8 1019 56 10000 0.88 47 09:31 23.11.2020
5223 Clouds 8 1018 56 10000 0.94 48 08:36 23.11.2020
5224 Clouds 9 1019 56 10000 0.73 58 06:36 23.11.2020
5225 Clouds 18 1028 20 10000 3.6 60 00:21 23.11.2020
5226 Clouds 21 1027 14 10000 6.2 40 22:44 22.11.2020
5227 Clouds 22 1028 12 10000 8.2 60 21:26 22.11.2020
5228 Clouds 22 1028 10 10000 6.7 40 20:43 22.11.2020
5229 Clouds 22 1029 13 10000 6.7 50 19:51 22.11.2020
5230 Clouds 22 1030 13 10000 5.7 30 18:40 22.11.2020
5231 Clouds 21 1031 21 10000 1.5 0 16:39 22.11.2020
5232 Clouds 18 1032 22 10000 1 180 15:29 22.11.2020
5233 Clouds 13 1033 28 10000 1.5 0 14:27 22.11.2020
5234 Clouds 12 1019 58 10000 1.17 67 12:44 22.11.2020
5235 Clouds 10 1019 66 10000 0.8 73 11:56 22.11.2020
5236 Clear 9 1018 71 10000 0.61 50 11:20 22.11.2020
5237 Clear 9 1018 71 10000 0.61 50 10:38 22.11.2020
5238 Clear 10 1016 70 10000 0.58 289 08:26 22.11.2020
5239 Clouds 17 1027 14 10000 1.5 250 01:47 22.11.2020
5240 Smoke 22 1024 13 10000 5.1 20 22:56 21.11.2020
5241 Clouds 24 1024 11 10000 4.6 20 21:39 21.11.2020
5242 Clouds 24 1024 10 10000 5.1 30 20:55 21.11.2020
5243 Clouds 25 1025 13 10000 3.6 40 20:31 21.11.2020
5244 Clouds 24 1025 14 10000 3.1 0 19:52 21.11.2020
5245 Clouds 23 1026 16 10000 2.6 310 19:25 21.11.2020
5246 Clouds 23 1028 17 10000 2.1 270 17:57 21.11.2020
5247 Clouds 21 1029 22 10000 3.1 50 16:48 21.11.2020
5248 Clouds 17 1031 39 10000 2.1 290 15:51 21.11.2020
5249 Clouds 16 1031 44 10000 1.5 0 15:21 21.11.2020
5250 Clouds 14 1032 58 10000 1 330 14:42 21.11.2020
5251 Haze 11 1031 66 10000 2.1 100 13:41 21.11.2020
5252 Clouds 11 1017 70 10000 0.77 264 12:24 21.11.2020
5253 Clouds 11 1017 70 10000 0.77 264 11:54 21.11.2020
5254 Clouds 10 1016 72 10000 0.51 281 10:37 21.11.2020
5255 Clouds 11 1016 70 10000 0.34 263 09:32 21.11.2020
5256 Clouds 11 1015 69 10000 0.3 325 08:51 21.11.2020
5257 Clouds 11 1017 70 10000 2.41 3 05:43 21.11.2020
5258 Rain 12 1017 68 10000 2.06 63 04:24 21.11.2020
5259 Rain 15 1027 44 10000 1.5 270 00:26 21.11.2020
5260 Clouds 17 1026 42 10000 2.1 0 23:23 20.11.2020
5261 Clouds 16 1026 44 10000 2.1 300 21:47 20.11.2020
5262 Clouds 16 1026 44 10000 2.1 300 21:26 20.11.2020
5263 Clouds 19 1027 25 10000 3.6 250 20:42 20.11.2020
5264 Clouds 20 1027 38 10000 1 180 19:43 20.11.2020
5265 Clouds 20 1028 28 10000 6.7 0 18:29 20.11.2020
5266 Clouds 22 1028 26 10000 1.5 0 17:34 20.11.2020
5267 Clouds 20 1029 32 10000 1.5 0 16:57 20.11.2020
5268 Clouds 20 1029 32 10000 1.5 0 16:37 20.11.2020
5269 Clouds 16 1031 51 10000 0.5 310 15:48 20.11.2020
5270 Clouds 14 1032 58 10000 1 0 14:23 20.11.2020
5271 Rain 12 1017 61 10000 1.4 250 13:29 20.11.2020
5272 Clouds 12 1017 61 10000 1.4 250 12:59 20.11.2020
5273 Clouds 11 1017 69 10000 1.02 243 12:28 20.11.2020
5274 Clouds 11 1017 69 10000 1.02 243 11:36 20.11.2020
5275 Clouds 10 1017 72 10000 1.14 242 10:37 20.11.2020
5276 Clouds 11 1015 70 10000 1.22 265 08:36 20.11.2020
5277 Clouds 11 1016 69 10000 1.21 290 07:58 20.11.2020
5278 Rain 12 1018 64 10000 0.67 324 05:20 20.11.2020
5279 Rain 12 1018 63 10000 1.27 306 03:42 20.11.2020
5280 Clouds 14 1026 62 10000 3.1 260 22:33 19.11.2020
5281 Clouds 13 1027 62 10000 5.7 0 21:54 19.11.2020
5282 Clouds 18 1026 34 10000 6.7 20 20:59 19.11.2020
5283 Clouds 18 1027 36 10000 5.1 20 20:21 19.11.2020
5284 Clouds 20 1028 34 10000 4.1 0 19:28 19.11.2020
5285 Clouds 20 1028 34 10000 4.1 0 18:55 19.11.2020
5286 Clouds 20 1028 34 10000 4.1 0 18:55 19.11.2020
5287 Clouds 19 1030 34 10000 1 0 17:35 19.11.2020
5288 Smoke 17 1031 42 10000 1 0 16:39 19.11.2020
5289 Haze 13 1032 58 10000 1.5 0 15:31 19.11.2020
5290 Clouds 12 1031 62 10000 0.99 328 13:58 19.11.2020
5291 Clouds 11 1032 66 10000 1.5 100 13:38 19.11.2020
5292 Clear 13 1017 59 10000 0.74 300 12:55 19.11.2020
5293 Clouds 13 1017 60 10000 0.55 278 12:34 19.11.2020
5294 Clouds 11 1017 67 10000 0.63 274 11:41 19.11.2020
5295 Clouds 10 1016 72 10000 0.66 301 11:22 19.11.2020
5296 Clouds 10 1016 72 10000 0.66 301 10:51 19.11.2020
5297 Clouds 10 1015 71 10000 0.83 318 09:48 19.11.2020
5298 Clouds 10 1014 71 10000 1 317 09:28 19.11.2020
5299 Clouds 10 1014 71 10000 1 317 08:58 19.11.2020
5300 Clouds 11 1015 70 10000 1.34 329 07:57 19.11.2020
5301 Clouds 14 1013 56 10000 2.46 20 01:48 19.11.2020
5302 Clouds 17 1025 39 10000 2.1 310 00:33 19.11.2020
5303 Clouds 18 1025 39 10000 3.6 10 23:47 18.11.2020
5304 Clouds 19 1025 32 10000 3.6 10 23:23 18.11.2020
5305 Clouds 19 1025 34 10000 4.6 20 22:29 18.11.2020
5306 Clouds 20 1025 32 10000 3.1 20 21:44 18.11.2020
5307 Clouds 20 1025 32 10000 3.1 20 21:26 18.11.2020
5308 Thunderstorm 21 1025 26 10000 5.7 30 20:40 18.11.2020
5309 Clouds 22 1025 19 10000 5.7 30 19:44 18.11.2020
5310 Clouds 22 1025 19 10000 5.7 30 19:22 18.11.2020
5311 Clouds 22 1027 26 10000 4.6 20 18:45 18.11.2020
5312 Clouds 22 1028 27 10000 2.1 0 17:45 18.11.2020
5313 Clouds 21 1028 26 10000 2.6 100 16:54 18.11.2020
5314 Clouds 19 1030 37 10000 0.5 190 16:19 18.11.2020
5315 Clouds 16 1030 44 10000 0.5 10 14:42 18.11.2020
5316 Clouds 13 1031 58 10000 0.5 0 14:22 18.11.2020
5317 Clouds 13 1031 58 10000 0.5 0 13:26 18.11.2020
5318 Clouds 12 1016 62 10000 1.11 266 12:44 18.11.2020
5319 Clouds 11 1016 68 10000 1.07 274 11:56 18.11.2020
5320 Clouds 10 1015 71 10000 1.02 272 10:58 18.11.2020
5321 Clouds 10 1015 71 10000 1.02 272 10:30 18.11.2020
5322 Clouds 11 1014 69 10000 1.74 292 08:43 18.11.2020
5323 Clouds 11 1015 68 10000 2.67 318 07:28 18.11.2020
5324 Clouds 12 1016 65 10000 1.93 2 04:34 18.11.2020
5325 Clouds 18 1025 42 10000 5.1 20 00:20 18.11.2020
5326 Clouds 19 1024 39 10000 4.1 20 23:24 17.11.2020
5327 Clouds 21 1024 30 10000 4.6 20 22:44 17.11.2020
5328 Clouds 21 1024 30 10000 4.6 20 22:25 17.11.2020
5329 Clouds 21 1023 30 10000 6.7 20 21:46 17.11.2020
5330 Clouds 21 1023 30 10000 6.7 20 21:23 17.11.2020
5331 Clouds 26 1024 12 10000 1 70 20:43 17.11.2020
5332 Clouds 26 1025 11 10000 5.7 290 20:23 17.11.2020
5333 Clouds 25 1026 12 10000 4.1 280 19:24 17.11.2020
5334 Clouds 24 1027 13 10000 1 30 18:23 17.11.2020
5335 Clouds 22 1029 19 10000 0.76 205 17:27 17.11.2020
5336 Clouds 21 1030 26 10000 0.5 320 16:33 17.11.2020
5337 Clouds 20 1030 28 10000 2.1 110 15:54 17.11.2020
5338 Clouds 18 1031 39 10000 1.5 0 15:35 17.11.2020
5339 Clouds 17 1031 42 10000 1.5 0 14:58 17.11.2020
5340 Clouds 16 1031 48 10000 1 60 14:29 17.11.2020
5341 Clouds 13 1031 62 10000 1 0 13:45 17.11.2020
5342 Clouds 12 1016 57 10000 0.74 208 13:20 17.11.2020
5343 Clouds 12 1016 58 10000 0.81 181 12:41 17.11.2020
5344 Clouds 10 1017 67 10000 0.46 173 11:44 17.11.2020
5345 Clouds 10 1016 71 10000 0.51 200 10:56 17.11.2020
5346 Clouds 10 1016 71 10000 0.51 200 10:36 17.11.2020
5347 Clouds 10 1015 70 10000 0.91 208 09:51 17.11.2020
5348 Clouds 10 1015 70 10000 1.27 206 09:29 17.11.2020
5349 Clouds 11 1015 69 10000 1.62 223 08:25 17.11.2020
5350 Clouds 11 1015 69 10000 1.62 223 07:49 17.11.2020
5351 Rain 11 1016 68 10000 1.44 219 06:54 17.11.2020
5352 Clouds 11 1018 64 10000 0.91 207 04:20 17.11.2020
5353 Clouds 11 1018 68 10000 3.01 184 02:54 17.11.2020
5354 Clouds 16 1028 41 10000 2.6 300 01:26 17.11.2020
5355 Clouds 17 1027 36 10000 2.1 20 00:56 17.11.2020
5356 Clouds 18 1026 34 10000 3.1 140 23:50 16.11.2020
5357 Clouds 18 1026 34 10000 3.1 140 23:29 16.11.2020
5358 Clouds 18 1027 34 10000 8.7 120 22:48 16.11.2020
5359 Clouds 19 1027 32 10000 8.2 110 22:21 16.11.2020
5360 Clouds 20 1027 28 10000 6.2 280 21:47 16.11.2020
5361 Clouds 20 1027 28 10000 6.2 280 21:25 16.11.2020
5362 Clouds 19 1027 32 10000 8.2 300 20:54 16.11.2020
5363 Clouds 20 1028 34 10000 6.7 280 20:24 16.11.2020
5364 Clouds 18 1029 42 10000 7.7 300 19:39 16.11.2020
5365 Clouds 17 1029 45 10000 5.7 290 19:21 16.11.2020
5366 Rain 17 1030 31 10000 2.1 290 18:41 16.11.2020
5367 Clouds 16 1030 41 10000 5.1 110 17:53 16.11.2020
5368 Clouds 20 1031 30 10000 2.1 220 17:25 16.11.2020
5369 Clouds 20 1031 30 10000 2.1 220 16:56 16.11.2020
5370 Clouds 19 1032 34 10000 2.1 0 16:36 16.11.2020
5371 Clouds 18 1033 39 10000 1.5 0 16:18 16.11.2020
5372 Clouds 16 1033 44 10000 0.61 196 15:41 16.11.2020
5373 Clouds 15 1033 47 10000 1 0 15:21 16.11.2020
5374 Clouds 14 1033 50 10000 2.6 120 14:39 16.11.2020
5375 Clouds 13 1032 54 10000 0.53 217 13:33 16.11.2020
5376 Clouds 12 1017 60 10000 0.71 246 12:34 16.11.2020
5377 Clouds 11 1017 67 10000 0.36 168 11:44 16.11.2020
5378 Rain 10 1017 72 10000 0.47 265 11:25 16.11.2020
5379 Clouds 10 1017 72 10000 0.47 265 10:51 16.11.2020
5380 Rain 10 1016 71 10000 0.67 292 10:27 16.11.2020
5381 Clouds 10 1016 71 10000 0.67 292 09:59 16.11.2020
5382 Clouds 10 1016 71 10000 0.67 292 09:40 16.11.2020
5383 Clouds 11 1016 71 10000 0.51 292 08:49 16.11.2020
5384 Clouds 11 1016 70 10000 0.95 295 08:27 16.11.2020
5385 Clouds 11 1016 70 10000 0.95 295 07:43 16.11.2020
5386 Clouds 11 1017 68 10000 0.54 237 06:47 16.11.2020
5387 Clouds 11 1018 68 10000 1.01 148 05:53 16.11.2020
5388 Clouds 11 1018 67 10000 1.53 151 04:36 16.11.2020
5389 Clouds 13 1016 59 10000 1.17 58 01:47 16.11.2020
5390 Clouds 18 1026 25 10000 4.1 120 01:21 16.11.2020
5391 Clouds 21 1025 16 10000 0.5 20 23:48 15.11.2020
5392 Clouds 21 1025 13 10000 4.1 70 23:21 15.11.2020
5393 Clouds 22 1025 12 10000 4.6 30 22:39 15.11.2020
5394 Clouds 22 1025 13 10000 5.1 20 22:18 15.11.2020
5395 Clouds 23 1025 12 10000 5.7 20 21:43 15.11.2020
5396 Clouds 23 1025 12 10000 5.7 20 21:22 15.11.2020
5397 Clouds 24 1026 11 10000 4.6 30 20:41 15.11.2020
5398 Clouds 24 1026 13 10000 6.2 30 20:18 15.11.2020
5399 Clouds 25 1027 13 10000 5.7 20 19:47 15.11.2020
5400 Clouds 25 1027 13 10000 5.7 20 19:22 15.11.2020
5401 Clouds 25 1027 13 10000 4.1 340 18:56 15.11.2020
5402 Clouds 23 1028 18 10000 1.5 110 18:37 15.11.2020
5403 Clouds 23 1029 17 10000 2.6 0 18:19 15.11.2020
5404 Clouds 21 1030 21 10000 2.6 160 17:43 15.11.2020
5405 Clouds 21 1030 21 10000 2.1 0 17:23 15.11.2020
5406 Clear 20 1031 26 10000 1.5 160 16:45 15.11.2020
5407 Clouds 19 1031 22 10000 1 260 16:20 15.11.2020
5408 Clouds 17 1032 32 10000 0.5 0 15:49 15.11.2020
5409 Clouds 17 1032 39 10000 0.5 0 15:26 15.11.2020
5410 Clouds 16 1032 36 10000 1.5 90 14:55 15.11.2020
5411 Clouds 14 1033 44 10000 1 0 14:28 15.11.2020
5412 Clouds 14 1033 44 10000 1 0 13:53 15.11.2020
5413 Haze 12 1032 50 10000 0.5 0 13:35 15.11.2020
5414 Clouds 13 1016 57 10000 0.46 204 12:50 15.11.2020
5415 Clouds 11 1016 65 10000 0.56 243 12:20 15.11.2020
5416 Clouds 11 1016 65 10000 0.56 243 11:45 15.11.2020
5417 Clouds 10 1015 69 10000 0.68 262 11:19 15.11.2020
5418 Clouds 10 1015 69 10000 0.68 262 10:53 15.11.2020
5419 Clouds 10 1015 69 10000 0.68 262 10:31 15.11.2020
5420 Clouds 10 1015 68 10000 0.7 271 09:56 15.11.2020
5421 Clouds 10 1015 68 10000 0.7 271 09:37 15.11.2020
5422 Clouds 11 1014 67 10000 0.87 286 09:18 15.11.2020
5423 Clouds 11 1014 67 10000 0.87 286 08:43 15.11.2020
5424 Clouds 11 1014 66 10000 1.02 293 07:47 15.11.2020
5425 Clouds 11 1015 64 10000 1.15 309 06:49 15.11.2020
5426 Clouds 12 1016 61 10000 0.83 18 04:56 15.11.2020
5427 Clouds 16 1027 31 10000 1.5 0 02:27 15.11.2020
5428 Clouds 18 1025 52 10000 4.6 20 00:36 15.11.2020
5429 Clouds 18 1025 27 10000 6.7 20 00:18 15.11.2020
5430 Clouds 20 1024 24 10000 5.7 30 23:27 14.11.2020
5431 Clouds 22 1024 21 10000 5.7 20 22:45 14.11.2020
5432 Clouds 22 1024 21 10000 5.7 20 22:26 14.11.2020
5433 Clouds 22 1024 18 10000 2.1 0 21:39 14.11.2020
5434 Clouds 23 1025 20 10000 4.1 340 21:21 14.11.2020
5435 Clouds 22 1026 21 10000 3.1 0 20:48 14.11.2020
5436 Clouds 22 1026 21 10000 3.1 0 20:25 14.11.2020
5437 Clouds 22 1027 24 10000 3.6 0 19:39 14.11.2020
5438 Clouds 21 1028 22 10000 2.1 0 19:20 14.11.2020
5439 Clouds 21 1028 22 10000 3.1 350 18:42 14.11.2020
5440 Clouds 21 1029 24 10000 2.6 360 18:22 14.11.2020
5441 Clouds 20 1030 24 10000 4.1 10 17:47 14.11.2020
5442 Clouds 20 1030 29 10000 4.1 10 17:29 14.11.2020
5443 Clouds 20 1030 28 10000 1 0 16:53 14.11.2020
5444 Clouds 19 1031 29 10000 1.5 70 16:34 14.11.2020
5445 Clouds 19 1031 29 10000 1 0 15:58 14.11.2020
5446 Clouds 17 1032 48 10000 1.5 110 15:33 14.11.2020
5447 Clouds 16 1032 51 10000 1 90 14:59 14.11.2020
5448 Clouds 15 1032 58 10000 0.81 226 14:31 14.11.2020
5449 Clouds 13 1031 58 10000 1.5 110 13:58 14.11.2020
5450 Clouds 13 1031 58 10000 1.5 110 13:58 14.11.2020
5451 Clouds 12 1031 66 10000 1.5 110 13:39 14.11.2020
5452 Clouds 12 1018 64 10000 0.73 226 13:21 14.11.2020
5453 Clouds 12 1018 65 10000 0.66 256 12:41 14.11.2020
5454 Clouds 10 1018 71 10000 0.97 253 12:23 14.11.2020
5455 Clouds 10 1018 71 10000 0.97 253 11:40 14.11.2020
5456 Clouds 10 1017 74 10000 1.11 254 11:21 14.11.2020
5457 Clouds 10 1017 74 10000 1.11 254 10:40 14.11.2020
5458 Clouds 10 1016 72 10000 0.99 265 10:22 14.11.2020
5459 Clouds 10 1016 72 10000 0.99 265 09:45 14.11.2020
5460 Clouds 11 1016 70 10000 0.99 300 09:27 14.11.2020
5461 Clouds 11 1016 70 10000 0.99 300 08:44 14.11.2020
5462 Clouds 11 1016 69 10000 0.86 333 08:23 14.11.2020
5463 Clouds 11 1016 69 10000 0.86 333 07:42 14.11.2020
5464 Clouds 11 1016 68 10000 0.74 358 07:20 14.11.2020
5465 Clear 11 1017 69 10000 1.48 353 06:28 14.11.2020
5466 Rain 11 1017 68 10000 1.87 4 05:18 14.11.2020
5467 Rain 13 1016 61 10000 0.86 335 03:28 14.11.2020
5468 Clouds 19 1025 37 10000 3.1 0 00:42 14.11.2020
5469 Clouds 19 1024 37 10000 4.6 20 23:38 13.11.2020
5470 Clouds 22 1024 28 10000 5.7 20 23:20 13.11.2020
5471 Clouds 23 1023 23 10000 5.7 20 22:42 13.11.2020
5472 Clouds 23 1023 23 10000 5.7 20 22:23 13.11.2020
5473 Clouds 25 1024 13 10000 1.5 350 21:51 13.11.2020
5474 Clouds 25 1024 13 10000 1.5 350 21:29 13.11.2020
5475 Clouds 22 1025 13 10000 2.1 90 20:55 13.11.2020
5476 Clouds 22 1026 14 10000 3.6 140 20:36 13.11.2020
5477 Clouds 24 1026 15 10000 0.5 100 20:18 13.11.2020
5478 Clouds 23 1028 13 10000 2.1 220 19:44 13.11.2020
5479 Clouds 23 1028 13 10000 2.1 220 19:44 13.11.2020
5480 Clouds 23 1028 13 10000 2.1 220 19:22 13.11.2020
5481 Clouds 22 1029 17 10000 3.1 20 18:49 13.11.2020
5482 Clouds 21 1030 21 10000 2.1 0 17:59 13.11.2020
5483 Clouds 21 1030 21 10000 2.1 0 17:36 13.11.2020
5484 Clouds 20 1031 24 10000 1 70 17:18 13.11.2020
5485 Clouds 20 1032 20 10000 2.6 0 16:42 13.11.2020
5486 Clouds 19 1032 29 10000 1.5 0 16:21 13.11.2020
5487 Clouds 17 1033 42 10000 0.5 100 15:41 13.11.2020
5488 Clouds 16 1033 48 10000 1.5 0 15:22 13.11.2020
5489 Clouds 16 1033 48 10000 1.5 0 14:39 13.11.2020
5490 Clouds 15 1032 51 10000 1 0 14:19 13.11.2020
5491 Clouds 15 1032 51 10000 1 0 14:19 13.11.2020
5492 Clouds 13 1032 54 10000 0.5 90 13:37 13.11.2020
5493 Clouds 12 1018 63 10000 1.02 252 13:18 13.11.2020
5494 Clouds 12 1018 63 10000 1.02 252 12:43 13.11.2020
5495 Clouds 10 1018 70 10000 0.83 259 12:24 13.11.2020
5496 Clouds 10 1018 70 10000 0.83 259 11:47 13.11.2020
5497 Clouds 10 1017 74 10000 0.95 257 11:24 13.11.2020
5498 Clouds 10 1017 74 10000 0.95 257 10:54 13.11.2020
5499 Clouds 10 1017 74 10000 0.95 257 10:33 13.11.2020
5500 Clouds 10 1016 73 10000 1.25 262 09:53 13.11.2020
5501 Clouds 10 1016 73 10000 1.25 262 09:32 13.11.2020
5502 Clouds 10 1016 71 10000 1.47 273 08:55 13.11.2020
5503 Clouds 10 1016 71 10000 1.47 273 08:32 13.11.2020
5504 Clouds 11 1016 69 10000 1.25 293 07:55 13.11.2020
5505 Clouds 11 1016 69 10000 1.25 293 07:36 13.11.2020
5506 Clouds 11 1017 68 10000 1.08 314 07:18 13.11.2020
5507 Clouds 12 1017 67 10000 1.17 296 06:37 13.11.2020
5508 Clouds 12 1018 66 10000 0.98 311 05:42 13.11.2020
5509 Rain 12 1018 64 8819 0.5 316 04:24 13.11.2020
5510 Clouds 13 1017 65 6353 1.51 73 01:43 13.11.2020
5511 Clouds 17 1026 48 10000 2.6 90 00:37 13.11.2020
5512 Clouds 18 1026 45 10000 1.5 350 23:59 12.11.2020
5513 Clouds 18 1026 45 10000 2.1 270 23:36 12.11.2020
5514 Clouds 17 1026 51 10000 1.5 0 23:18 12.11.2020
5515 Clouds 17 1026 51 10000 1.5 0 23:18 12.11.2020
5516 Rain 16 1026 59 10000 3.6 320 22:40 12.11.2020
5517 Thunderstorm 17 1026 42 10000 3.1 150 22:20 12.11.2020
5518 Clouds 21 1026 28 10000 2.6 0 21:41 12.11.2020
5519 Clouds 21 1026 28 10000 2.6 0 21:23 12.11.2020
5520 Clouds 22 1026 26 10000 1.5 0 20:42 12.11.2020
5521 Clouds 22 1026 26 10000 1.5 0 20:24 12.11.2020
5522 Clouds 21 1027 28 10000 2.1 0 19:58 12.11.2020
5523 Clouds 22 1028 28 10000 5.1 350 19:40 12.11.2020
5524 Clouds 22 1028 28 10000 5.1 350 19:21 12.11.2020
5525 Clouds 21 1029 28 10000 1.5 0 18:48 12.11.2020
5526 Clouds 21 1030 30 10000 2.6 350 18:20 12.11.2020
5527 Clouds 20 1031 34 10000 0.5 350 17:43 12.11.2020
5528 Clouds 18 1032 42 10000 1.5 0 17:25 12.11.2020
5529 Clouds 17 1033 45 10000 1.5 100 16:46 12.11.2020
5530 Clouds 17 1033 45 10000 1.5 100 16:46 12.11.2020
5531 Clouds 17 1033 45 10000 1.5 100 16:24 12.11.2020
5532 Clouds 17 1033 45 10000 1.5 110 15:54 12.11.2020
5533 Clouds 15 1033 54 10000 2.6 80 15:31 12.11.2020
5534 Clouds 13 1033 62 10000 1 0 14:57 12.11.2020
5535 Clouds 12 1033 66 10000 1.29 315 14:38 12.11.2020
5536 Clouds 12 1033 66 10000 0.5 0 14:20 12.11.2020
5537 Clouds 10 1033 76 10000 1 110 13:45 12.11.2020
5538 Clouds 12 1018 63 10000 1.02 330 13:21 12.11.2020
5539 Clouds 12 1018 63 10000 1.02 330 12:49 12.11.2020
5540 Clouds 12 1018 63 10000 1.02 330 12:49 12.11.2020
5541 Clouds 10 1018 70 10000 1.08 321 12:26 12.11.2020
5542 Clouds 10 1018 70 10000 1.08 321 11:58 12.11.2020
5543 Clouds 10 1018 70 10000 1.08 321 11:39 12.11.2020
5544 Clouds 10 1017 73 10000 1.25 315 10:54 12.11.2020
5545 Clouds 10 1017 73 10000 1.25 315 10:35 12.11.2020
5546 Clouds 10 1016 72 10000 1.34 322 09:58 12.11.2020
5547 Clouds 10 1016 72 10000 1.34 322 09:38 12.11.2020
5548 Clouds 10 1016 72 10000 1.59 339 09:18 12.11.2020
5549 Clouds 10 1016 72 10000 1.59 339 08:40 12.11.2020
5550 Clouds 11 1016 71 10000 1.6 351 08:21 12.11.2020
5551 Clouds 11 1016 71 10000 1.6 351 07:55 12.11.2020
5552 Clouds 11 1016 71 10000 1.6 351 07:36 12.11.2020
5553 Clouds 11 1017 69 10000 1.57 11 06:52 12.11.2020
5554 Rain 11 1017 69 10000 1.72 24 06:26 12.11.2020
5555 Clouds 12 1018 67 10000 1.94 4 03:50 12.11.2020
5556 Rain 12 1017 66 10000 2.33 355 03:20 12.11.2020
5557 Clouds 16 1027 48 10000 1 0 00:36 12.11.2020
5558 Clouds 18 1026 42 10000 5.1 30 23:45 11.11.2020
5559 Clouds 18 1026 42 10000 5.1 30 23:25 11.11.2020
5560 Clouds 19 1026 37 10000 4.1 10 22:48 11.11.2020
5561 Clouds 19 1026 37 10000 4.1 10 22:23 11.11.2020
5562 Clouds 20 1026 32 10000 3.6 10 21:58 11.11.2020
5563 Clouds 21 1026 28 10000 4.1 110 21:38 11.11.2020
5564 Clouds 22 1026 28 10000 1.5 0 21:20 11.11.2020
5565 Clouds 21 1027 30 10000 2.1 270 20:43 11.11.2020
5566 Clouds 21 1027 30 10000 2.1 270 20:22 11.11.2020
5567 Clouds 21 1028 30 10000 3.6 280 19:57 11.11.2020
5568 Clouds 20 1029 40 10000 4.6 320 19:38 11.11.2020
5569 Rain 21 1030 32 10000 3.1 320 19:20 11.11.2020
5570 Clouds 20 1030 34 10000 3.1 0 18:42 11.11.2020
5571 Clouds 19 1031 39 10000 1.5 0 18:22 11.11.2020
5572 Clouds 18 1032 39 10000 1.5 0 17:39 11.11.2020
5573 Clouds 18 1032 42 10000 1 70 17:21 11.11.2020
5574 Clouds 15 1033 51 10000 1 0 16:40 11.11.2020
5575 Clouds 15 1033 51 10000 1 0 16:21 11.11.2020
5576 Clouds 13 1034 58 10000 2.6 90 15:43 11.11.2020
5577 Clouds 14 1034 54 10000 1 100 15:24 11.11.2020
5578 Clouds 11 1034 71 10000 1 110 14:49 11.11.2020
5579 Clouds 11 1034 71 10000 1 110 14:30 11.11.2020
5580 Clouds 10 1034 71 10000 1.5 80 13:50 11.11.2020
5581 Clouds 10 1034 71 10000 1.22 0 13:32 11.11.2020
5582 Clouds 12 1018 60 10000 1.18 1 12:38 11.11.2020
5583 Clouds 10 1018 67 10000 1.02 8 12:20 11.11.2020
5584 Clouds 10 1018 67 10000 1.02 8 11:47 11.11.2020
5585 Clouds 10 1017 71 10000 0.87 10 11:25 11.11.2020
5586 Rain 10 1017 71 10000 0.87 10 10:39 11.11.2020
5587 Clouds 10 1017 70 10000 0.73 15 10:20 11.11.2020
5588 Rain 10 1017 70 10000 0.73 15 09:44 11.11.2020
5589 Rain 10 1017 69 10000 0.97 37 09:24 11.11.2020
5590 Rain 10 1017 69 10000 0.97 37 08:46 11.11.2020
5591 Clouds 11 1017 68 10000 1.26 34 08:27 11.11.2020
5592 Clouds 11 1017 68 10000 1.26 34 07:49 11.11.2020
5593 Clouds 11 1017 67 10000 1.73 40 06:33 11.11.2020
5594 Clouds 12 1017 65 10000 1.6 41 05:59 11.11.2020
5595 Clouds 12 1018 63 10000 1.14 7 02:48 11.11.2020
5596 Clouds 15 1028 47 10000 2.1 0 00:59 11.11.2020
5597 Clouds 16 1027 44 10000 1 0 00:26 11.11.2020
5598 Clouds 18 1026 36 10000 3.1 30 23:42 10.11.2020
5599 Rain 18 1026 36 10000 3.1 30 23:23 10.11.2020
5600 Rain 18 1026 36 10000 2.1 0 22:52 10.11.2020
5601 Rain 18 1025 39 10000 5.1 40 22:27 10.11.2020
5602 Thunderstorm 20 1025 34 10000 4.6 360 21:43 10.11.2020
5603 Thunderstorm 20 1025 34 10000 4.6 360 21:25 10.11.2020
5604 Clouds 21 1025 26 10000 3.6 30 20:58 10.11.2020
5605 Clouds 22 1026 35 10000 0.5 270 20:40 10.11.2020
5606 Clouds 23 1026 23 10000 1.5 0 20:22 10.11.2020
5607 Clouds 22 1027 24 10000 3.6 280 19:47 10.11.2020
5608 Clouds 22 1027 24 10000 3.6 280 19:28 10.11.2020
5609 Clouds 22 1028 26 10000 1.5 270 18:57 10.11.2020
5610 Clouds 21 1029 26 10000 2.1 140 18:39 10.11.2020
5611 Clouds 20 1030 28 10000 2.6 100 18:18 10.11.2020
5612 Clouds 20 1030 28 10000 2.6 100 18:18 10.11.2020
5613 Clouds 19 1031 32 10000 1 130 17:42 10.11.2020
5614 Clouds 18 1031 31 10000 1.5 180 17:24 10.11.2020
5615 Clouds 17 1032 39 10000 0.5 80 16:43 10.11.2020
5616 Clouds 16 1033 51 10000 2.1 0 16:24 10.11.2020
5617 Clouds 16 1033 51 10000 2.1 0 15:55 10.11.2020
5618 Haze 14 1033 54 10000 1.5 0 15:37 10.11.2020
5619 Haze 14 1033 58 10000 1 60 15:19 10.11.2020
5620 Haze 12 1034 66 9000 1 0 14:41 10.11.2020
5621 Haze 11 1034 71 9000 1.5 90 14:20 10.11.2020
5622 Haze 10 1033 76 9000 0.5 0 13:41 10.11.2020
5623 Mist 9 1033 81 10000 1 110 13:22 10.11.2020
5624 Mist 9 1033 81 10000 1 110 12:56 10.11.2020
5625 Mist 8 1032 87 10000 0.5 0 12:38 10.11.2020
5626 Mist 8 1032 87 10000 0.5 0 12:19 10.11.2020
5627 Mist 9 1031 81 10000 2.6 110 11:38 10.11.2020
5628 Clouds 10 1018 71 10000 0.53 326 11:19 10.11.2020
5629 Clouds 10 1018 71 10000 0.53 326 10:42 10.11.2020
5630 Clouds 10 1017 69 10000 0.53 331 10:23 10.11.2020
5631 Clouds 10 1017 69 10000 0.53 331 09:47 10.11.2020
5632 Clouds 11 1017 67 10000 0.59 335 09:26 10.11.2020
5633 Clouds 11 1017 67 10000 0.59 335 08:57 10.11.2020
5634 Clouds 11 1017 67 10000 0.59 335 08:30 10.11.2020
5635 Clouds 11 1018 67 10000 0.97 357 07:47 10.11.2020
5636 Rain 11 1018 69 10000 1.36 10 07:26 10.11.2020
5637 Clouds 10 1018 69 10000 1.63 25 06:47 10.11.2020
5638 Rain 11 1018 68 10000 1.93 20 06:23 10.11.2020
5639 Rain 11 1018 67 10000 1.84 16 05:27 10.11.2020
5640 Clouds 12 1018 61 10000 1.27 6 02:48 10.11.2020
5641 Clouds 13 1029 58 10000 2.1 40 01:37 10.11.2020
5642 Clouds 14 1029 50 10000 2.6 330 00:23 10.11.2020
5643 Clouds 16 1028 41 10000 3.6 30 23:41 09.11.2020
5644 Clouds 16 1029 44 10000 2.1 40 22:56 09.11.2020
5645 Clouds 15 1029 47 10000 4.6 280 22:37 09.11.2020
5646 Rain 15 1029 62 10000 4.1 320 22:19 09.11.2020
5647 Rain 13 1030 58 10000 4.1 130 21:39 09.11.2020
5648 Thunderstorm 14 1029 50 10000 6.7 160 21:20 09.11.2020
5649 Rain 19 1029 29 10000 8.2 310 20:40 09.11.2020
5650 Smoke 20 1028 30 10000 6.7 280 20:21 09.11.2020
5651 Smoke 21 1029 26 10000 4.1 310 19:42 09.11.2020
5652 Smoke 21 1029 26 10000 4.1 310 19:22 09.11.2020
5653 Clouds 20 1031 28 10000 2.1 0 18:47 09.11.2020
5654 Smoke 19 1031 34 10000 3.1 0 18:21 09.11.2020
5655 Smoke 19 1031 34 10000 3.1 0 17:59 09.11.2020
5656 Smoke 21 1031 26 10000 3.6 360 17:39 09.11.2020
5657 Smoke 21 1032 26 10000 1.5 0 17:21 09.11.2020
5658 Smoke 20 1033 28 10000 2.1 330 16:39 09.11.2020
5659 Clouds 18 1033 36 10000 0.88 306 16:19 09.11.2020
5660 Haze 17 1034 36 10000 1 310 15:42 09.11.2020
5661 Haze 17 1034 36 10000 1 310 15:24 09.11.2020
5662 Haze 15 1034 47 10000 0.73 319 14:46 09.11.2020
5663 Haze 13 1034 50 10000 2.1 90 14:27 09.11.2020
5664 Haze 13 1034 50 10000 2.1 90 13:52 09.11.2020
5665 Haze 13 1034 54 10000 1.5 0 13:24 09.11.2020
5666 Haze 12 1034 54 10000 1 140 12:57 09.11.2020
5667 Haze 11 1033 57 10000 1.5 90 12:37 09.11.2020
5668 Haze 11 1033 57 10000 0.96 23 12:19 09.11.2020
5669 Clouds 10 1020 68 10000 0.96 23 11:41 09.11.2020
5670 Clouds 9 1020 72 10000 0.66 30 11:22 09.11.2020
5671 Clouds 9 1020 72 10000 0.66 30 10:43 09.11.2020
5672 Clouds 9 1019 71 10000 0.84 359 10:25 09.11.2020
5673 Clouds 9 1019 71 10000 0.84 359 09:52 09.11.2020
5674 Clouds 10 1019 70 10000 0.82 11 09:28 09.11.2020
5675 Clouds 10 1019 70 10000 0.82 11 08:49 09.11.2020
5676 Clouds 10 1019 69 10000 1.39 16 08:27 09.11.2020
5677 Clouds 10 1019 69 10000 1.39 16 07:43 09.11.2020
5678 Clouds 10 1019 68 10000 1.62 16 07:21 09.11.2020
5679 Clouds 11 1020 64 10000 1 41 06:48 09.11.2020
5680 Clouds 12 1021 58 10000 1.67 12 03:51 09.11.2020
5681 Clouds 16 1031 36 10000 3.6 350 01:56 09.11.2020
5682 Clouds 16 1031 36 10000 3.6 350 01:38 09.11.2020
5683 Clouds 17 1029 48 10000 3.6 20 00:35 09.11.2020
5684 Clouds 21 1028 18 10000 3.6 20 23:39 08.11.2020
5685 Clouds 21 1028 18 10000 3.6 20 23:20 08.11.2020
5686 Clouds 21 1028 18 10000 3.6 20 22:42 08.11.2020
5687 Clouds 21 1029 19 10000 5.1 20 22:20 08.11.2020
5688 Clouds 20 1029 20 10000 5.1 20 21:43 08.11.2020
5689 Clouds 20 1031 18 10000 7.2 30 21:20 08.11.2020
5690 Clouds 20 1031 18 10000 7.2 30 20:55 08.11.2020
5691 Clouds 20 1031 34 10000 7.7 40 20:37 08.11.2020
5692 Clouds 20 1031 18 10000 7.2 30 20:19 08.11.2020
5693 Clouds 20 1031 18 10000 7.2 30 19:43 08.11.2020
5694 Clouds 20 1033 19 10000 6.2 30 19:21 08.11.2020
5695 Clouds 20 1033 19 10000 6.2 30 18:49 08.11.2020
5696 Clouds 20 1033 19 10000 6.2 30 18:49 08.11.2020
5697 Clouds 19 1034 22 10000 6.2 10 18:22 08.11.2020
5698 Clouds 19 1034 22 10000 6.2 10 17:59 08.11.2020
5699 Clouds 19 1034 22 10000 6.2 10 17:41 08.11.2020
5700 Clouds 18 1035 29 10000 2.1 0 17:20 08.11.2020
5701 Clouds 18 1035 29 10000 2.1 0 16:56 08.11.2020
5702 Clouds 18 1035 29 10000 2.1 0 16:37 08.11.2020
5703 Clouds 17 1036 33 10000 2.1 0 16:18 08.11.2020
5704 Clouds 17 1036 33 10000 2.1 0 15:43 08.11.2020
5705 Clouds 17 1036 33 10000 2.1 0 15:23 08.11.2020
5706 Clouds 13 1036 43 10000 2.6 110 14:42 08.11.2020
5707 Clouds 13 1036 43 10000 2.6 110 14:23 08.11.2020
5708 Clouds 12 1036 46 10000 1.5 60 13:47 08.11.2020
5709 Clouds 12 1036 46 10000 1.5 60 13:24 08.11.2020
5710 Clouds 10 1022 58 10000 0.59 42 12:47 08.11.2020
5711 Clouds 9 1022 64 10000 0.62 53 12:29 08.11.2020
5712 Clouds 9 1022 64 10000 0.62 53 11:58 08.11.2020
5713 Clouds 9 1022 64 10000 0.62 53 11:40 08.11.2020
5714 Clouds 8 1021 68 10000 0.89 47 11:21 08.11.2020
5715 Clouds 8 1021 68 10000 0.89 47 10:50 08.11.2020
5716 Clouds 8 1020 65 10000 1.14 44 10:20 08.11.2020
5717 Clouds 8 1020 65 10000 1.14 44 09:57 08.11.2020
5718 Clouds 8 1020 65 10000 1.14 44 09:39 08.11.2020
5719 Clouds 8 1020 64 10000 1.09 46 09:18 08.11.2020
5720 Clouds 8 1020 64 10000 1.09 46 08:40 08.11.2020
5721 Clouds 9 1020 62 10000 1.06 37 08:20 08.11.2020
5722 Clouds 9 1020 62 10000 1.06 37 07:52 08.11.2020
5723 Clouds 9 1020 60 10000 1.7 33 07:28 08.11.2020
5724 Clear 9 1021 61 10000 1.78 38 06:23 08.11.2020
5725 Clear 9 1021 61 10000 1.78 38 05:52 08.11.2020
5726 Clear 10 1021 59 10000 1.84 36 04:50 08.11.2020
5727 Clear 12 1018 51 10000 2.49 31 01:53 08.11.2020
5728 Clear 17 1029 29 10000 5.1 40 01:19 08.11.2020
5729 Clouds 17 1029 29 10000 5.1 40 00:28 08.11.2020
5730 Clouds 18 1029 27 10000 4.1 40 23:47 07.11.2020
5731 Clouds 18 1029 27 10000 4.1 40 23:29 07.11.2020
5732 Clouds 20 1029 20 10000 4.6 10 22:46 07.11.2020
5733 Clouds 20 1029 20 10000 4.6 10 22:26 07.11.2020
5734 Clouds 20 1029 24 10000 6.2 20 21:56 07.11.2020
5735 Clouds 20 1030 28 10000 6.7 20 21:37 07.11.2020
5736 Clouds 20 1030 22 10000 2.6 40 21:18 07.11.2020
5737 Clouds 20 1030 22 10000 2.6 40 20:42 07.11.2020
5738 Clouds 20 1030 22 10000 2.6 40 20:23 07.11.2020
5739 Clouds 20 1031 20 10000 6.2 20 19:44 07.11.2020
5740 Clouds 20 1031 20 10000 6.2 20 19:26 07.11.2020
5741 Clear 20 1032 16 10000 7.2 30 18:41 07.11.2020
5742 Clear 20 1032 16 10000 6.2 30 18:22 07.11.2020
5743 Clear 20 1032 16 10000 6.2 30 17:46 07.11.2020
5744 Clear 20 1032 16 10000 6.2 30 17:28 07.11.2020
5745 Clear 17 1034 25 10000 1.5 250 16:46 07.11.2020
5746 Clear 17 1034 25 10000 1.5 250 16:25 07.11.2020
5747 Clear 16 1034 31 10000 1.5 0 15:53 07.11.2020
5748 Clear 15 1035 34 10000 1 0 15:26 07.11.2020
5749 Clear 13 1035 37 10000 2.1 0 15:00 07.11.2020
5750 Clear 13 1035 37 10000 2.1 0 15:00 07.11.2020
5751 Clear 12 1035 46 10000 2.6 110 14:41 07.11.2020
5752 Haze 11 1035 50 10000 1 0 14:21 07.11.2020
5753 Haze 11 1035 50 10000 1 0 13:43 07.11.2020
5754 Haze 11 1035 50 10000 1 0 13:23 07.11.2020
5755 Clouds 10 1020 50 10000 0.92 43 12:40 07.11.2020
5756 Clouds 9 1020 60 10000 1.19 44 11:56 07.11.2020
5757 Clouds 9 1020 60 10000 1.19 44 11:37 07.11.2020
5758 Clouds 8 1020 66 10000 1.07 45 11:18 07.11.2020
5759 Clouds 8 1020 66 10000 1.07 45 10:42 07.11.2020
5760 Clouds 9 1019 67 10000 1.04 47 10:23 07.11.2020
5761 Clouds 9 1019 67 10000 1.04 47 09:49 07.11.2020
5762 Clouds 9 1018 67 10000 1.08 32 09:24 07.11.2020
5763 Clouds 9 1018 67 10000 1.08 32 08:51 07.11.2020
5764 Clouds 9 1018 67 10000 1.08 32 08:31 07.11.2020
5765 Clouds 9 1018 67 10000 1.91 29 07:48 07.11.2020
5766 Clouds 10 1018 66 10000 1.33 32 06:58 07.11.2020
5767 Clouds 10 1018 64 10000 1.49 26 06:37 07.11.2020
5768 Clouds 11 1018 56 10000 1.85 23 04:32 07.11.2020
5769 Clouds 12 1018 52 10000 2.15 31 03:22 07.11.2020
5770 Clouds 16 1028 45 10000 3.6 30 01:28 07.11.2020
5771 Clouds 16 1028 47 10000 3.6 30 00:40 07.11.2020
5772 Clouds 17 1027 41 10000 5.1 30 23:45 06.11.2020
5773 Clouds 17 1027 29 10000 6.7 30 23:19 06.11.2020
5774 Clouds 20 1027 18 10000 7.2 40 22:41 06.11.2020
5775 Clouds 20 1026 16 10000 7.2 40 22:19 06.11.2020
5776 Clouds 20 1026 16 10000 7.2 40 22:19 06.11.2020
5777 Clouds 20 1027 16 10000 7.7 40 21:44 06.11.2020
5778 Clouds 21 1027 14 10000 7.7 50 21:21 06.11.2020
5779 Clouds 21 1027 14 10000 7.7 50 20:51 06.11.2020
5780 Clouds 21 1028 15 10000 9.3 40 20:20 06.11.2020
5781 Clouds 21 1028 15 10000 9.3 40 19:55 06.11.2020
5782 Clouds 22 1028 17 10000 6.7 40 19:37 06.11.2020
5783 Clouds 21 1029 16 10000 8.7 40 19:19 06.11.2020
5784 Clouds 22 1029 17 10000 6.2 30 18:44 06.11.2020
5785 Clouds 22 1029 15 10000 3.6 10 18:22 06.11.2020
5786 Clouds 21 1030 14 10000 2.1 0 17:50 06.11.2020
5787 Clouds 21 1030 14 10000 2.1 0 17:25 06.11.2020
5788 Haze 20 1031 16 10000 1.5 240 16:48 06.11.2020
5789 Haze 20 1031 16 10000 1.5 240 16:25 06.11.2020
5790 Haze 17 1032 20 10000 1.5 70 15:47 06.11.2020
5791 Haze 17 1032 20 10000 1.5 70 15:28 06.11.2020
5792 Clouds 15 1032 24 10000 1.5 30 14:53 06.11.2020
5793 Haze 14 1032 19 10000 0.99 3 14:24 06.11.2020
5794 Clouds 12 1032 23 10000 0.99 3 13:44 06.11.2020
5795 Clouds 12 1032 23 10000 1.11 34 13:23 06.11.2020
5796 Clouds 11 1018 48 10000 1.26 31 12:45 06.11.2020
5797 Clouds 9 1018 56 10000 1.34 28 12:23 06.11.2020
5798 Clouds 9 1018 56 10000 1.34 28 11:46 06.11.2020
5799 Clouds 9 1018 61 10000 1.3 22 11:27 06.11.2020
5800 Clouds 9 1018 61 10000 1.3 22 10:41 06.11.2020
5801 Clouds 9 1017 62 10000 1.28 23 10:23 06.11.2020
5802 Clouds 9 1017 62 10000 1.28 23 09:48 06.11.2020
5803 Clouds 9 1016 63 10000 1.53 20 09:22 06.11.2020
5804 Clouds 9 1016 63 10000 1.53 20 08:50 06.11.2020
5805 Clouds 10 1016 64 10000 1.54 20 08:29 06.11.2020
5806 Clouds 10 1016 64 10000 1.54 20 07:50 06.11.2020
5807 Clouds 10 1016 64 10000 1.54 20 07:31 06.11.2020
5808 Clouds 10 1017 60 10000 1.35 3 06:57 06.11.2020
5809 Clouds 11 1017 59 10000 1.45 8 06:22 06.11.2020
5810 Clouds 12 1018 55 10000 1.99 356 03:48 06.11.2020
5811 Clouds 18 1027 12 10000 4.1 30 00:51 06.11.2020
5812 Clouds 19 1027 12 10000 5.7 30 00:21 06.11.2020
5813 Clouds 20 1026 11 10000 5.7 30 23:31 05.11.2020
5814 Clouds 21 1026 10 10000 5.7 40 22:58 05.11.2020
5815 Clouds 21 1026 10 10000 5.7 40 22:37 05.11.2020
5816 Clouds 22 1026 9 10000 5.7 40 22:19 05.11.2020
5817 Clouds 23 1027 8 10000 6.7 30 21:43 05.11.2020
5818 Clouds 23 1027 8 10000 6.7 20 21:22 05.11.2020
5819 Clouds 23 1027 8 10000 6.7 20 20:55 05.11.2020
5820 Clouds 23 1027 8 10000 7.7 20 20:37 05.11.2020
5821 Clouds 23 1027 10 10000 7.2 30 20:18 05.11.2020
5822 Clouds 24 1028 8 10000 5.7 30 19:41 05.11.2020
5823 Clouds 24 1028 8 10000 5.7 30 19:23 05.11.2020
5824 Clouds 23 1029 11 10000 2.1 0 18:46 05.11.2020
5825 Clouds 22 1029 18 10000 3.6 0 18:26 05.11.2020
5826 Clouds 20 1031 22 10000 1 180 17:52 05.11.2020
5827 Clouds 20 1031 22 10000 1 180 17:31 05.11.2020
5828 Clouds 20 1031 24 10000 1 130 16:59 05.11.2020
5829 Clouds 19 1032 29 10000 1.5 0 16:41 05.11.2020
5830 Clouds 18 1032 31 10000 1 0 16:20 05.11.2020
5831 Clouds 16 1033 36 10000 0.5 340 15:46 05.11.2020
5832 Haze 15 1033 41 10000 1 0 15:22 05.11.2020
5833 Haze 12 1033 46 10000 1 0 14:46 05.11.2020
5834 Haze 12 1033 46 10000 1 0 14:27 05.11.2020
5835 Haze 10 1034 53 10000 0.91 211 13:49 05.11.2020
5836 Haze 10 1034 53 10000 0.91 211 13:30 05.11.2020
5837 Clouds 11 1019 61 10000 0.51 288 12:53 05.11.2020
5838 Clouds 9 1020 67 10000 0.66 337 12:29 05.11.2020
5839 Clouds 9 1020 67 10000 0.66 337 11:55 05.11.2020
5840 Clouds 9 1020 67 10000 0.66 337 11:37 05.11.2020
5841 Clouds 8 1019 71 10000 0.26 341 11:18 05.11.2020
5842 Clouds 8 1019 71 10000 0.26 341 10:41 05.11.2020
5843 Clouds 8 1019 70 10000 0.11 95 10:22 05.11.2020
5844 Clouds 8 1019 70 10000 0.11 95 09:45 05.11.2020
5845 Clouds 9 1018 69 10000 0.2 347 09:22 05.11.2020
5846 Clouds 9 1018 69 10000 0.2 347 08:44 05.11.2020
5847 Clouds 9 1018 67 10000 0.73 342 08:25 05.11.2020
5848 Clouds 9 1018 67 10000 0.73 342 07:40 05.11.2020
5849 Clouds 9 1019 66 10000 0.83 355 07:20 05.11.2020
5850 Clouds 10 1019 63 10000 0.39 322 06:34 05.11.2020
5851 Clouds 10 1020 62 10000 0.95 44 05:23 05.11.2020
5852 Clouds 15 1031 55 10000 4.1 130 01:35 05.11.2020
5853 Clouds 15 1031 50 10000 4.1 130 00:33 05.11.2020
5854 Clouds 17 1029 29 10000 5.7 100 23:44 04.11.2020
5855 Clouds 17 1029 29 10000 5.7 100 23:26 04.11.2020
5856 Clouds 18 1029 27 10000 6.2 110 22:52 04.11.2020
5857 Clouds 19 1029 25 10000 2.6 40 22:26 04.11.2020
5858 Clouds 18 1029 27 10000 3.6 30 21:58 04.11.2020
5859 Clouds 18 1029 27 10000 4.6 60 21:37 04.11.2020
5860 Clouds 20 1029 20 10000 4.6 30 21:18 04.11.2020
5861 Clouds 20 1030 22 10000 7.2 20 20:43 04.11.2020
5862 Clouds 20 1030 22 10000 7.2 20 20:25 04.11.2020
5863 Clouds 20 1031 28 10000 7.2 20 19:49 04.11.2020
5864 Clouds 20 1031 28 10000 7.2 20 19:29 04.11.2020
5865 Clouds 20 1031 35 10000 7.7 20 18:55 04.11.2020
5866 Clouds 20 1031 35 10000 7.7 20 18:55 04.11.2020
5867 Clouds 20 1032 28 10000 5.7 10 18:37 04.11.2020
5868 Clouds 19 1033 38 10000 5.7 0 18:18 04.11.2020
5869 Clouds 19 1033 32 10000 2.1 0 17:40 04.11.2020
5870 Clouds 18 1034 36 10000 1 0 17:21 04.11.2020
5871 Clouds 16 1034 41 10000 1.5 0 16:38 04.11.2020
5872 Clouds 15 1035 44 10000 1 120 16:20 04.11.2020
5873 Clouds 14 1035 47 10000 2.1 0 15:47 04.11.2020
5874 Clouds 14 1035 47 10000 2.1 0 15:25 04.11.2020
5875 Clouds 14 1035 47 10000 1 0 14:57 04.11.2020
5876 Clouds 13 1035 50 10000 1.58 32 14:39 04.11.2020
5877 Clouds 12 1035 54 10000 1.46 36 14:19 04.11.2020
5878 Clouds 12 1024 50 10000 1 0 13:42 04.11.2020
5879 Clouds 11 1020 63 10000 1.27 37 13:20 04.11.2020
5880 Clouds 11 1021 64 10000 0.99 46 12:51 04.11.2020
5881 Clouds 10 1020 67 10000 1.04 85 12:27 04.11.2020
5882 Clouds 10 1020 67 10000 1.04 85 11:56 04.11.2020
5883 Clouds 10 1020 67 10000 1.04 85 11:56 04.11.2020
5884 Clouds 10 1020 67 10000 1.04 85 11:56 04.11.2020
5885 Clouds 10 1020 67 10000 1.04 85 11:37 04.11.2020
5886 Clouds 10 1020 67 10000 1.04 85 11:37 04.11.2020
5887 Clouds 10 1019 69 10000 1.08 110 11:19 04.11.2020
5888 Clouds 10 1019 69 10000 1.08 110 10:43 04.11.2020
5889 Clouds 9 1019 70 10000 0.91 134 10:22 04.11.2020
5890 Clouds 9 1019 70 10000 0.91 134 09:50 04.11.2020
5891 Clouds 10 1018 67 10000 0.14 184 09:22 04.11.2020
5892 Clouds 10 1018 67 10000 0.14 184 08:45 04.11.2020
5893 Clouds 10 1018 67 10000 0.39 106 08:19 04.11.2020
5894 Clouds 10 1018 67 10000 0.39 106 07:48 04.11.2020
5895 Rain 10 1019 66 10000 1.31 123 07:27 04.11.2020
5896 Clouds 10 1019 66 10000 1.15 118 06:42 04.11.2020
5897 Rain 11 1020 66 10000 1.48 91 06:18 04.11.2020
5898 Clouds 11 1019 65 10000 2.02 46 02:32 04.11.2020
5899 Clouds 12 1018 63 10000 2.22 34 01:42 04.11.2020
5900 Clouds 15 1028 47 10000 1 0 00:41 04.11.2020
5901 Clouds 16 1026 41 10000 5.7 20 23:38 03.11.2020
5902 Clouds 18 1026 36 10000 5.7 10 23:20 03.11.2020
5903 Clouds 18 1026 36 10000 5.7 10 22:41 03.11.2020
5904 Clouds 20 1026 32 10000 4.1 100 22:20 03.11.2020
5905 Clouds 20 1026 32 10000 4.1 100 21:55 03.11.2020
5906 Clouds 20 1026 32 10000 4.1 100 21:37 03.11.2020
5907 Clouds 21 1026 30 10000 5.1 110 21:18 03.11.2020
5908 Clouds 21 1026 30 10000 5.1 110 20:42 03.11.2020
5909 Clouds 20 1028 32 10000 2.6 140 20:21 03.11.2020
5910 Clouds 20 1028 32 10000 2.6 140 19:43 03.11.2020
5911 Clouds 18 1029 39 10000 4.6 110 19:20 03.11.2020
5912 Clouds 17 1030 39 10000 4.1 110 18:44 03.11.2020
5913 Clouds 17 1031 39 10000 2.1 120 18:20 03.11.2020
5914 Clouds 17 1031 39 10000 2.1 120 17:55 03.11.2020
5915 Clouds 17 1031 39 10000 2.1 120 17:37 03.11.2020
5916 Clouds 17 1031 39 10000 2.1 120 17:37 03.11.2020
5917 Rain 15 1032 51 10000 4.6 100 16:55 03.11.2020
5918 Rain 13 1032 58 10000 4.1 100 16:36 03.11.2020
5919 Rain 13 1032 58 10000 3.1 100 16:18 03.11.2020
5920 Rain 13 1032 58 10000 3.1 100 15:41 03.11.2020
5921 Clouds 11 1033 62 10000 2.1 90 15:22 03.11.2020
5922 Clouds 11 1033 62 10000 2.1 90 14:46 03.11.2020
5923 Clouds 11 1033 62 10000 2.1 90 14:27 03.11.2020
5924 Clouds 11 1033 62 10000 2.1 90 14:27 03.11.2020
5925 Clouds 13 1018 55 10000 0.97 24 13:44 03.11.2020
5926 Clouds 11 1018 61 10000 0.77 20 13:23 03.11.2020
5927 Clouds 11 1018 60 10000 0.89 14 12:49 03.11.2020
5928 Clouds 10 1017 67 10000 0.41 354 12:28 03.11.2020
5929 Clouds 10 1017 67 10000 0.41 354 11:59 03.11.2020
5930 Clouds 10 1017 67 10000 0.41 354 11:40 03.11.2020
5931 Clouds 9 1016 70 10000 0.56 287 11:18 03.11.2020
5932 Clouds 9 1016 70 10000 0.56 287 10:39 03.11.2020
5933 Clouds 9 1016 70 10000 0.56 287 10:39 03.11.2020
5934 Clouds 10 1016 68 10000 1.12 296 10:20 03.11.2020
5935 Clouds 10 1016 68 10000 1.12 296 09:49 03.11.2020
5936 Clouds 10 1016 68 10000 1.12 296 09:31 03.11.2020
5937 Clouds 10 1015 66 10000 1.51 320 08:55 03.11.2020
5938 Clouds 10 1015 66 10000 1.51 320 08:34 03.11.2020
5939 Clouds 11 1016 64 10000 1.55 345 07:49 03.11.2020
5940 Clouds 11 1016 65 10000 1.51 4 07:22 03.11.2020
5941 Clouds 11 1016 64 10000 1.04 10 06:44 03.11.2020
5942 Clouds 11 1018 66 10000 1.55 52 05:19 03.11.2020
5943 Clouds 12 1015 64 10000 2 31 01:51 03.11.2020
5944 Clouds 15 1025 51 10000 4.1 120 00:40 03.11.2020
5945 Clouds 16 1024 48 10000 5.1 110 23:48 02.11.2020
5946 Clouds 16 1024 48 10000 5.1 110 23:29 02.11.2020
5947 Clouds 16 1024 44 10000 1.5 130 22:49 02.11.2020
5948 Clouds 16 1024 44 10000 1.5 130 22:30 02.11.2020
5949 Clouds 16 1024 44 10000 1.5 130 22:30 02.11.2020
5950 Clouds 16 1025 44 10000 2.6 110 21:58 02.11.2020
5951 Clouds 16 1025 44 10000 2.6 110 21:58 02.11.2020
5952 Clouds 15 1025 51 10000 3.6 110 21:37 02.11.2020
5953 Drizzle 15 1026 54 10000 1.5 80 21:19 02.11.2020
5954 Rain 16 1026 51 10000 2.6 0 20:39 02.11.2020
5955 Rain 14 1026 58 10000 2.6 0 20:20 02.11.2020
5956 Rain 14 1026 58 10000 2.6 70 19:44 02.11.2020
5957 Rain 14 1026 58 10000 2.6 70 19:26 02.11.2020
5958 Clouds 19 1026 32 10000 5.1 270 18:55 02.11.2020
5959 Clouds 19 1026 32 10000 5.1 270 18:36 02.11.2020
5960 Clouds 21 1027 30 10000 1.5 0 18:18 02.11.2020
5961 Clouds 19 1028 34 10000 2.6 310 17:40 02.11.2020
5962 Clouds 19 1028 29 10000 2.6 0 17:21 02.11.2020
5963 Clouds 19 1029 37 10000 2.38 14 16:49 02.11.2020
5964 Clouds 19 1029 37 10000 1.89 352 16:28 02.11.2020
5965 Clouds 17 1029 45 10000 0.5 160 15:55 02.11.2020
5966 Clouds 15 1030 51 10000 1.5 70 15:36 02.11.2020
5967 Clouds 14 1030 58 10000 1.5 0 15:18 02.11.2020
5968 Clouds 12 1030 66 10000 2.1 100 14:41 02.11.2020
5969 Clouds 11 1030 76 10000 2.1 110 14:19 02.11.2020
5970 Clouds 11 1030 71 10000 1.5 110 13:46 02.11.2020
5971 Clouds 11 1017 66 10000 1.45 303 13:21 02.11.2020
5972 Clouds 11 1017 67 10000 1.31 285 12:43 02.11.2020
5973 Clouds 11 1016 69 10000 1.24 283 12:21 02.11.2020
5974 Clouds 11 1016 69 10000 1.24 283 11:45 02.11.2020
5975 Clouds 11 1016 70 10000 1.55 280 11:20 02.11.2020
5976 Clouds 11 1016 70 10000 1.55 280 10:46 02.11.2020
5977 Clouds 11 1015 70 10000 1.92 286 10:24 02.11.2020
5978 Clouds 11 1015 70 10000 1.92 286 09:55 02.11.2020
5979 Rain 11 1015 71 10000 2.14 297 09:27 02.11.2020
5980 Clouds 11 1015 71 10000 2.14 297 08:50 02.11.2020
5981 Rain 11 1015 71 10000 1.92 308 08:29 02.11.2020
5982 Clouds 11 1015 71 10000 1.92 308 07:59 02.11.2020
5983 Clouds 11 1015 71 10000 1.92 308 07:38 02.11.2020
5984 Clouds 11 1016 69 10000 0.81 312 06:44 02.11.2020
5985 Clouds 11 1017 69 10000 0.95 70 04:59 02.11.2020
5986 Clouds 16 1026 48 10000 4.6 110 01:27 02.11.2020
5987 Clouds 16 1026 48 10000 4.6 110 01:27 02.11.2020
5988 Clouds 16 1026 48 10000 4.6 110 01:27 02.11.2020
5989 Clouds 16 1026 48 10000 4.6 110 01:27 02.11.2020
5990 Clouds 16 1026 48 10000 4.6 110 00:37 02.11.2020
5991 Clouds 18 1025 39 10000 4.1 10 23:57 01.11.2020
5992 Clouds 19 1025 34 10000 4.6 290 23:38 01.11.2020
5993 Clouds 19 1025 34 10000 3.1 310 23:19 01.11.2020
5994 Rain 18 1025 39 10000 3.6 290 22:41 01.11.2020
5995 Rain 19 1024 34 10000 4.1 270 22:21 01.11.2020
5996 Clouds 21 1024 30 10000 5.1 290 21:43 01.11.2020
5997 Clouds 21 1024 30 10000 5.1 290 21:23 01.11.2020
5998 Clouds 23 1025 25 10000 7.2 300 20:47 01.11.2020
5999 Clouds 23 1025 25 10000 7.2 300 20:26 01.11.2020
6000 Clouds 21 1026 28 10000 2.6 320 19:48 01.11.2020
6001 Clouds 21 1026 28 10000 2.6 320 19:29 01.11.2020
6002 Clouds 22 1027 24 10000 5.1 350 18:58 01.11.2020
6003 Clouds 22 1028 26 10000 1.5 180 18:38 01.11.2020
6004 Clouds 20 1029 30 10000 1.91 312 18:19 01.11.2020
6005 Clouds 19 1030 32 10000 2.1 190 17:45 01.11.2020
6006 Clouds 19 1030 32 10000 2.1 190 17:27 01.11.2020
6007 Clouds 17 1031 36 10000 2.1 340 16:45 01.11.2020
6008 Clouds 17 1031 36 10000 2.1 340 16:27 01.11.2020
6009 Clouds 17 1031 36 10000 2.1 340 16:27 01.11.2020
6010 Clouds 16 1031 41 10000 2.6 300 15:59 01.11.2020
6011 Clouds 16 1032 41 10000 1.77 296 15:38 01.11.2020
6012 Clouds 15 1032 44 10000 1.5 230 15:20 01.11.2020
6013 Clouds 15 1032 44 10000 1.5 100 14:46 01.11.2020
6014 Clouds 15 1032 44 10000 1.5 100 14:22 01.11.2020
6015 Clouds 15 1032 44 10000 1 0 13:57 01.11.2020
6016 Clouds 12 1032 50 10000 0.54 302 13:39 01.11.2020
6017 Clouds 12 1018 59 10000 0.15 100 13:21 01.11.2020
6018 Clouds 12 1019 58 10000 0.12 170 12:42 01.11.2020
6019 Clouds 10 1019 64 10000 0.35 103 12:19 01.11.2020
6020 Clouds 10 1019 64 10000 0.35 103 11:48 01.11.2020
6021 Clouds 10 1019 67 10000 0.81 153 11:18 01.11.2020
6022 Clouds 10 1019 67 10000 0.81 153 10:42 01.11.2020
6023 Clouds 10 1018 66 10000 1.23 167 10:24 01.11.2020
6024 Clouds 10 1018 66 10000 1.23 167 09:49 01.11.2020
6025 Clouds 11 1018 61 10000 1.17 165 09:26 01.11.2020
6026 Clouds 11 1018 61 10000 1.17 165 08:40 01.11.2020
6027 Clouds 11 1018 60 10000 1.08 149 07:57 01.11.2020
6028 Clouds 11 1019 60 10000 1.6 134 06:52 01.11.2020
6029 Clouds 12 1020 56 10000 2.31 23 02:32 01.11.2020
6030 Clouds 12 1019 57 10000 2.66 12 01:42 01.11.2020
6031 Clouds 16 1028 44 10000 2.6 360 23:58 31.10.2020
6032 Clouds 17 1028 39 10000 5.1 310 23:24 31.10.2020
6033 Clouds 17 1027 39 10000 8.2 290 22:45 31.10.2020
6034 Clouds 17 1027 39 10000 8.2 290 22:24 31.10.2020
6035 Rain 19 1026 39 10000 6.7 300 21:47 31.10.2020
6036 Clouds 19 1026 39 10000 6.7 300 21:23 31.10.2020
6037 Clouds 19 1026 39 10000 6.7 300 21:23 31.10.2020
6038 Clouds 20 1027 28 10000 2.6 340 20:46 31.10.2020
6039 Clouds 22 1027 26 10000 3.6 80 20:21 31.10.2020
6040 Clouds 22 1027 26 10000 3.6 80 19:58 31.10.2020
6041 Clouds 20 1028 28 10000 1.5 300 19:38 31.10.2020
6042 Clouds 22 1028 26 10000 4.1 270 19:18 31.10.2020
6043 Rain 19 1029 34 10000 1.5 200 18:43 31.10.2020
6044 Clouds 18 1031 34 10000 3.1 300 17:49 31.10.2020
6045 Clouds 18 1031 34 10000 3.1 300 17:29 31.10.2020
6046 Clouds 18 1031 34 10000 0.5 0 16:59 31.10.2020
6047 Clouds 17 1032 36 10000 1.5 210 16:40 31.10.2020
6048 Clouds 17 1032 39 10000 2.1 110 15:59 31.10.2020
6049 Clouds 15 1032 44 10000 1 210 15:38 31.10.2020
6050 Clouds 14 1032 47 10000 1 0 15:19 31.10.2020
6051 Clouds 14 1033 47 10000 4.1 110 14:46 31.10.2020
6052 Clouds 14 1033 47 10000 4.1 110 14:26 31.10.2020
6053 Clouds 13 1032 50 10000 3.1 110 13:50 31.10.2020
6054 Clouds 13 1032 50 10000 3.1 110 13:23 31.10.2020
6055 Clouds 11 1019 65 10000 1.22 35 12:35 31.10.2020
6056 Clouds 11 1018 65 10000 0.83 33 11:48 31.10.2020
6057 Clouds 11 1018 64 10000 0.25 42 11:29 31.10.2020
6058 Clouds 11 1018 64 10000 0.25 42 10:56 31.10.2020
6059 Clouds 11 1018 64 10000 0.25 42 10:33 31.10.2020
6060 Rain 11 1017 64 10000 0.06 95 09:42 31.10.2020
6061 Rain 11 1016 64 10000 0.17 269 09:22 31.10.2020
6062 Rain 11 1016 64 10000 0.17 269 08:32 31.10.2020
6063 Clouds 11 1016 64 10000 0.33 288 07:58 31.10.2020
6064 Clouds 12 1016 64 10000 0.73 345 07:27 31.10.2020
6065 Clouds 11 1016 66 10000 1.42 0 06:40 31.10.2020
6066 Clouds 11 1017 69 10000 1.96 3 05:20 31.10.2020
6067 Clouds 12 1017 69 10000 2.6 356 03:46 31.10.2020
6068 Clouds 19 1025 32 10000 5.1 290 01:29 31.10.2020
6069 Clouds 19 1025 32 10000 5.1 290 00:46 31.10.2020
6070 Clouds 19 1025 44 10000 6.2 290 23:51 30.10.2020
6071 Clouds 20 1024 28 10000 4.6 310 23:24 30.10.2020
6072 Clouds 20 1024 28 10000 4.6 310 22:46 30.10.2020
6073 Clouds 20 1024 28 10000 4.6 310 22:24 30.10.2020
6074 Clouds 21 1025 26 10000 5.7 290 21:56 30.10.2020
6075 Clouds 21 1025 35 10000 3.1 250 21:38 30.10.2020
6076 Clouds 21 1026 22 10000 3.1 260 21:19 30.10.2020
6077 Clouds 21 1026 22 10000 3.1 260 20:39 30.10.2020
6078 Clouds 21 1026 22 10000 3.1 260 20:39 30.10.2020
6079 Clouds 20 1027 30 10000 2.1 240 20:21 30.10.2020
6080 Clouds 18 1029 36 10000 2.1 150 19:47 30.10.2020
6081 Rain 19 1028 34 10000 1.5 0 19:19 30.10.2020
6082 Rain 19 1028 34 10000 1.5 0 18:50 30.10.2020
6083 Rain 19 1028 34 10000 1.5 0 18:28 30.10.2020
6084 Rain 17 1030 42 10000 1 160 17:50 30.10.2020
6085 Rain 16 1031 44 10000 0.5 340 17:24 30.10.2020
6086 Rain 16 1031 44 10000 0.5 340 16:58 30.10.2020
6087 Rain 15 1031 47 10000 1 180 16:38 30.10.2020
6088 Rain 14 1032 50 10000 1 0 16:19 30.10.2020
6089 Rain 14 1032 50 10000 1 0 15:40 30.10.2020
6090 Clouds 12 1032 58 10000 1 0 15:20 30.10.2020
6091 Clouds 12 1032 58 10000 1.5 110 14:45 30.10.2020
6092 Rain 12 1032 58 10000 1.5 110 14:25 30.10.2020
6093 Clouds 13 1018 53 10000 1.1 315 13:47 30.10.2020
6094 Clouds 12 1017 59 10000 1.48 288 13:23 30.10.2020
6095 Clouds 12 1018 59 10000 0.85 305 12:55 30.10.2020
6096 Clouds 11 1017 65 10000 0.99 356 12:23 30.10.2020
6097 Clouds 11 1017 65 10000 0.99 356 11:57 30.10.2020
6098 Clouds 11 1017 65 10000 0.99 356 11:36 30.10.2020
6099 Clouds 10 1016 67 10000 1.38 319 11:18 30.10.2020
6100 Clouds 10 1016 67 10000 1.38 319 10:40 30.10.2020
6101 Clouds 10 1015 67 10000 1.06 340 10:21 30.10.2020
6102 Clouds 10 1015 67 10000 1.06 340 09:43 30.10.2020
6103 Clouds 11 1014 67 10000 0.99 329 09:22 30.10.2020
6104 Clouds 11 1014 67 10000 0.99 329 08:41 30.10.2020
6105 Clouds 11 1014 65 10000 1.24 336 08:23 30.10.2020
6106 Clouds 11 1014 65 10000 1.24 336 07:48 30.10.2020
6107 Clouds 11 1014 65 10000 1.24 336 07:30 30.10.2020
6108 Clouds 11 1014 65 10000 1.37 347 06:35 30.10.2020
6109 Clouds 12 1015 63 10000 1.8 6 04:37 30.10.2020
6110 Clouds 14 1013 55 10000 2.67 26 02:26 30.10.2020
6111 Clouds 18 1024 34 10000 5.7 20 00:39 30.10.2020
6112 Clouds 19 1024 32 10000 5.1 20 23:49 29.10.2020
6113 Clouds 19 1024 32 10000 5.1 20 23:30 29.10.2020
6114 Clouds 23 1022 8 10000 5.1 290 22:57 29.10.2020
6115 Clouds 23 1022 8 10000 5.1 290 22:38 29.10.2020
6116 Clouds 25 1022 6 10000 6.2 290 22:20 29.10.2020
6117 Clouds 24 1023 8 10000 2.6 260 21:36 29.10.2020
6118 Clouds 23 1023 9 10000 4.1 350 21:18 29.10.2020
6119 Clouds 23 1023 9 10000 4.1 350 20:40 29.10.2020
6120 Clouds 23 1024 11 10000 3.6 290 20:19 29.10.2020
6121 Clouds 23 1025 8 10000 1.5 270 19:42 29.10.2020
6122 Clouds 23 1025 8 10000 1.5 270 19:22 29.10.2020
6123 Clouds 22 1026 7 10000 2.6 290 18:49 29.10.2020
6124 Clouds 22 1026 7 10000 2.6 290 18:29 29.10.2020
6125 Clouds 22 1027 6 10000 3.6 330 17:56 29.10.2020
6126 Clouds 22 1027 6 10000 3.6 330 17:37 29.10.2020
6127 Clouds 21 1028 9 10000 3.1 350 17:18 29.10.2020
6128 Clouds 20 1029 13 10000 2.6 40 16:43 29.10.2020
6129 Clouds 18 1030 18 10000 2.6 280 16:19 29.10.2020
6130 Clouds 18 1030 18 10000 2.6 280 15:56 29.10.2020
6131 Clouds 17 1030 23 10000 1 340 15:37 29.10.2020
6132 Clouds 17 1030 25 10000 1 0 15:18 29.10.2020
6133 Clouds 17 1030 25 10000 1 0 14:42 29.10.2020
6134 Clouds 13 1031 43 10000 1 0 14:21 29.10.2020
6135 Clouds 15 1015 47 10000 0.95 239 13:46 29.10.2020
6136 Clouds 13 1015 57 10000 0.9 244 13:27 29.10.2020
6137 Clouds 13 1015 58 10000 0.91 247 12:43 29.10.2020
6138 Clouds 11 1015 66 10000 0.91 252 12:20 29.10.2020
6139 Clouds 11 1015 66 10000 0.91 252 11:54 29.10.2020
6140 Clouds 11 1015 66 10000 0.91 252 11:36 29.10.2020
6141 Clouds 10 1014 70 10000 0.83 254 11:18 29.10.2020
6142 Clouds 10 1014 70 10000 0.83 254 10:37 29.10.2020
6143 Clouds 10 1014 70 10000 0.83 254 10:37 29.10.2020
6144 Clouds 11 1014 69 10000 0.85 270 10:18 29.10.2020
6145 Clouds 11 1014 69 10000 0.85 270 09:47 29.10.2020
6146 Clouds 11 1013 69 10000 1.21 278 09:24 29.10.2020
6147 Clouds 11 1013 69 10000 1.21 278 08:41 29.10.2020
6148 Clouds 11 1013 69 10000 1.33 298 08:23 29.10.2020
6149 Clouds 11 1013 69 10000 1.33 298 07:49 29.10.2020
6150 Clouds 12 1013 68 10000 1.79 311 06:59 29.10.2020
6151 Clouds 12 1014 66 10000 1.67 324 06:30 29.10.2020
6152 Clouds 13 1014 65 10000 1.53 348 04:48 29.10.2020
6153 Clear 15 1011 51 10000 2.22 12 02:28 29.10.2020
6154 Clouds 16 1010 42 10000 2.5 341 00:41 29.10.2020
6155 Clouds 17 1008 30 10000 3.15 311 00:21 29.10.2020
6156 Clouds 17 1008 30 10000 3.15 311 23:41 28.10.2020
6157 Clouds 20 1006 23 10000 3.69 286 23:20 28.10.2020
6158 Clouds 25 1021 5 10000 2.6 0 22:43 28.10.2020
6159 Clouds 25 1021 5 10000 2.6 0 22:23 28.10.2020
6160 Clouds 26 1022 6 10000 1 200 21:45 28.10.2020
6161 Clouds 26 1022 6 10000 1 200 21:26 28.10.2020
6162 Clouds 25 1023 8 10000 2.1 0 20:44 28.10.2020
6163 Clouds 25 1023 8 10000 2.1 0 20:24 28.10.2020
6164 Clouds 25 1023 7 10000 2.1 0 19:57 28.10.2020
6165 Clouds 24 1024 5 10000 4.6 320 19:39 28.10.2020
6166 Clouds 25 1024 7 10000 3.6 300 19:20 28.10.2020
6167 Clouds 23 1026 8 10000 2.6 0 18:43 28.10.2020
6168 Clouds 22 1027 7 10000 3.1 200 18:20 28.10.2020
6169 Clouds 22 1027 7 10000 3.1 200 18:20 28.10.2020
6170 Clouds 21 1027 9 10000 3.6 0 17:43 28.10.2020
6171 Clouds 20 1028 9 10000 4.1 240 17:21 28.10.2020
6172 Clouds 19 1029 12 10000 2.1 0 16:47 28.10.2020
6173 Clouds 19 1029 12 10000 2.1 0 16:29 28.10.2020
6174 Clouds 17 1030 25 10000 2.6 310 15:45 28.10.2020
6175 Clouds 17 1014 38 10000 1.53 200 15:20 28.10.2020
6176 Haze 12 1031 62 10000 1 0 14:53 28.10.2020
6177 Haze 12 1031 62 10000 1 0 14:32 28.10.2020
6178 Clouds 15 1014 51 10000 1.49 203 13:59 28.10.2020
6179 Clouds 13 1015 61 10000 1.32 221 12:38 28.10.2020
6180 Clouds 11 1015 70 10000 1.14 246 12:20 28.10.2020
6181 Clouds 11 1015 70 10000 1.14 246 11:43 28.10.2020
6182 Clouds 10 1015 73 10000 1.02 243 11:22 28.10.2020
6183 Clouds 10 1015 73 10000 1.02 243 10:58 28.10.2020
6184 Clouds 10 1015 73 10000 1.02 243 10:40 28.10.2020
6185 Clouds 11 1014 72 10000 1.19 231 10:22 28.10.2020
6186 Clouds 11 1014 72 10000 1.19 231 09:38 28.10.2020
6187 Clouds 11 1014 70 10000 1.43 239 09:20 28.10.2020
6188 Clouds 11 1014 70 10000 1.43 239 08:47 28.10.2020
6189 Clouds 11 1013 70 10000 1.27 270 08:25 28.10.2020
6190 Clouds 11 1013 70 10000 1.27 270 07:48 28.10.2020
6191 Clouds 11 1013 70 10000 1.27 270 07:30 28.10.2020
6192 Clouds 11 1013 69 10000 1.47 285 06:41 28.10.2020
6193 Clouds 12 1014 68 10000 1.98 307 05:51 28.10.2020
6194 Clouds 12 1015 66 10000 2.02 315 04:53 28.10.2020
6195 Rain 13 1015 65 10000 1.48 327 04:25 28.10.2020
6196 Rain 14 1014 57 10000 1.52 355 02:26 28.10.2020
6197 Clouds 14 1014 57 10000 1.52 355 01:49 28.10.2020
6198 Clouds 19 1023 37 10000 4.1 110 23:57 27.10.2020
6199 Clouds 22 1023 26 10000 2.6 0 23:38 27.10.2020
6200 Clouds 22 1025 26 10000 4.1 360 23:20 27.10.2020
6201 Clouds 23 1021 20 10000 6.2 290 22:42 27.10.2020
6202 Clouds 25 1021 14 10000 5.1 320 22:19 27.10.2020
6203 Clouds 25 1021 14 10000 5.1 320 21:55 27.10.2020
6204 Clouds 24 1022 15 10000 3.6 290 21:37 27.10.2020
6205 Clouds 24 1022 15 10000 3.6 290 21:37 27.10.2020
6206 Clouds 24 1022 15 10000 3.6 290 21:37 27.10.2020
6207 Clouds 24 1022 17 10000 6.7 300 21:18 27.10.2020
6208 Clouds 24 1023 17 10000 6.2 300 20:43 27.10.2020
6209 Clouds 23 1024 20 10000 5.1 310 20:22 27.10.2020
6210 Clouds 23 1025 29 10000 1.5 0 19:39 27.10.2020
6211 Clouds 23 1025 28 10000 1.5 0 19:21 27.10.2020
6212 Clouds 22 1026 24 10000 2.6 0 18:58 27.10.2020
6213 Clouds 21 1027 28 10000 2.6 0 18:40 27.10.2020
6214 Clouds 21 1028 32 10000 5.1 290 18:20 27.10.2020
6215 Clouds 20 1029 28 10000 1.5 0 17:43 27.10.2020
6216 Clouds 19 1029 32 10000 1.5 0 17:21 27.10.2020
6217 Clouds 19 1029 32 10000 1.5 0 17:21 27.10.2020
6218 Clouds 18 1030 36 10000 1.5 0 16:54 27.10.2020
6219 Clouds 18 1030 36 10000 1.5 0 16:36 27.10.2020
6220 Clouds 17 1031 39 10000 1.5 0 16:18 27.10.2020
6221 Clouds 17 1031 39 10000 1 0 15:40 27.10.2020
6222 Clouds 15 1032 44 10000 0.63 239 15:20 27.10.2020
6223 Clouds 13 1032 54 10000 1 0 14:48 27.10.2020
6224 Clouds 13 1032 54 10000 1 0 14:28 27.10.2020
6225 Clouds 11 1032 62 10000 1 80 13:52 27.10.2020
6226 Clouds 12 1017 60 10000 1.08 134 13:22 27.10.2020
6227 Clouds 12 1017 61 10000 0.51 155 12:42 27.10.2020
6228 Clouds 10 1017 67 10000 0.83 117 12:23 27.10.2020
6229 Clouds 10 1017 67 10000 0.83 117 11:43 27.10.2020
6230 Clouds 10 1016 71 10000 0.95 136 11:24 27.10.2020
6231 Clouds 10 1016 71 10000 0.95 136 10:48 27.10.2020
6232 Clouds 10 1016 71 10000 0.95 136 10:30 27.10.2020
6233 Clouds 10 1015 71 10000 0.99 167 09:47 27.10.2020
6234 Clouds 10 1015 70 10000 1.54 183 09:26 27.10.2020
6235 Clouds 10 1015 70 10000 1.54 183 08:44 27.10.2020
6236 Clouds 11 1015 69 10000 1.39 179 08:26 27.10.2020
6237 Clouds 11 1015 69 10000 1.39 179 07:47 27.10.2020
6238 Rain 11 1016 67 10000 1.64 145 07:28 27.10.2020
6239 Clouds 11 1016 67 10000 1.64 145 06:38 27.10.2020
6240 Rain 12 1016 64 10000 1.99 174 06:19 27.10.2020
6241 Clouds 12 1016 64 10000 1.99 174 05:43 27.10.2020
6242 Clouds 12 1017 64 10000 1.77 191 04:51 27.10.2020
6243 Rain 14 1017 58 10000 0.89 328 02:35 27.10.2020
6244 Clouds 17 1028 36 10000 5.1 110 00:59 27.10.2020
6245 Clouds 17 1028 33 10000 1.5 160 23:53 26.10.2020
6246 Clouds 17 1027 47 10000 6.2 40 23:32 26.10.2020
6247 Rain 18 1026 31 10000 6.7 30 22:52 26.10.2020
6248 Rain 18 1026 31 10000 6.7 30 22:28 26.10.2020
6249 Rain 19 1026 29 10000 5.7 300 21:51 26.10.2020
6250 Clouds 21 1025 34 10000 5.1 60 21:21 26.10.2020
6251 Clouds 21 1025 34 10000 5.1 60 20:58 26.10.2020
6252 Clouds 22 1025 24 10000 6.2 40 20:40 26.10.2020
6253 Clouds 22 1026 24 10000 5.7 80 20:22 26.10.2020
6254 Clouds 25 1026 20 10000 1 0 19:48 26.10.2020
6255 Clouds 25 1026 20 10000 1 0 19:26 26.10.2020
6256 Clouds 24 1028 22 10000 1.5 0 18:47 26.10.2020
6257 Clouds 24 1028 22 10000 1.5 0 18:25 26.10.2020
6258 Clouds 23 1029 25 10000 1.92 337 17:59 26.10.2020
6259 Clouds 22 1029 26 10000 1 0 17:40 26.10.2020
6260 Clouds 22 1029 26 10000 1 0 17:40 26.10.2020
6261 Clouds 20 1030 30 10000 3.1 270 17:22 26.10.2020
6262 Clouds 19 1031 32 10000 1 310 16:43 26.10.2020
6263 Clouds 18 1031 34 10000 1.5 0 16:22 26.10.2020
6264 Clouds 16 1032 44 10000 1.5 0 15:44 26.10.2020
6265 Clouds 16 1032 44 10000 1.5 0 15:25 26.10.2020
6266 Clouds 16 1032 44 10000 1 0 14:56 26.10.2020
6267 Clouds 14 1033 50 10000 1.5 0 14:38 26.10.2020
6268 Haze 11 1032 62 10000 1.18 202 13:48 26.10.2020
6269 Haze 11 1032 62 10000 1.17 186 13:29 26.10.2020
6270 Clouds 13 1017 57 10000 0.62 110 12:58 26.10.2020
6271 Clouds 13 1017 57 10000 0.62 110 12:39 26.10.2020
6272 Clouds 12 1017 64 10000 0.62 68 12:20 26.10.2020
6273 Clouds 12 1017 64 10000 0.62 68 11:46 26.10.2020
6274 Rain 11 1016 67 10000 0.39 35 11:23 26.10.2020
6275 Clouds 11 1016 67 10000 0.39 35 10:57 26.10.2020
6276 Clouds 11 1016 67 10000 0.39 35 10:38 26.10.2020
6277 Rain 11 1016 68 10000 1.83 318 10:18 26.10.2020
6278 Rain 12 1015 66 10000 0.9 235 09:32 26.10.2020
6279 Clouds 12 1015 66 10000 0.9 235 08:58 26.10.2020
6280 Rain 12 1016 63 10000 0.58 162 08:26 26.10.2020
6281 Clouds 12 1016 63 10000 0.58 162 07:48 26.10.2020
6282 Rain 12 1017 63 10000 0.42 305 07:29 26.10.2020
6283 Clouds 13 1017 61 10000 1.42 307 05:58 26.10.2020
6284 Rain 13 1017 60 10000 1.11 69 04:20 26.10.2020
6285 Rain 14 1017 55 10000 2.34 347 03:21 26.10.2020
6286 Rain 14 1017 55 10000 2.34 347 03:21 26.10.2020
6287 Rain 12 1030 66 10000 4.1 290 01:36 26.10.2020
6288 Rain 12 1030 66 10000 4.1 290 00:39 26.10.2020
6289 Clouds 14 1030 50 10000 2.6 180 00:21 26.10.2020
6290 Rain 16 1029 38 10000 4.1 120 23:37 25.10.2020
6291 Rain 16 1028 41 10000 5.1 110 22:59 25.10.2020
6292 Rain 17 1028 36 10000 6.2 120 22:39 25.10.2020
6293 Clouds 19 1027 32 10000 3.6 70 22:19 25.10.2020
6294 Clouds 20 1027 34 10000 4.1 30 21:39 25.10.2020
6295 Rain 18 1027 42 10000 5.7 10 21:19 25.10.2020
6296 Clouds 22 1027 35 10000 1 0 20:44 25.10.2020
6297 Clouds 22 1027 24 10000 1.5 160 20:25 25.10.2020
6298 Clouds 22 1027 24 10000 1.5 160 19:57 25.10.2020
6299 Clouds 21 1029 28 10000 5.7 290 19:38 25.10.2020
6300 Clouds 22 1029 25 10000 5.1 350 19:19 25.10.2020
6301 Clouds 22 1030 28 10000 1.5 290 18:41 25.10.2020
6302 Clouds 21 1031 30 10000 2.6 270 18:22 25.10.2020
6303 Clouds 21 1031 30 10000 2.6 270 17:57 25.10.2020
6304 Clouds 18 1032 42 10000 6.7 300 17:38 25.10.2020
6305 Clouds 18 1032 31 10000 2.1 300 17:19 25.10.2020
6306 Clouds 18 1033 31 10000 1 130 16:46 25.10.2020
6307 Clouds 18 1033 31 10000 1 130 16:28 25.10.2020
6308 Clouds 17 1033 36 10000 1 0 15:50 25.10.2020
6309 Clouds 17 1034 36 10000 0.88 161 15:29 25.10.2020
6310 Clouds 13 1034 50 10000 2.1 110 14:55 25.10.2020
6311 Clouds 12 1034 54 10000 0.88 161 14:31 25.10.2020
6312 Clouds 11 1034 57 10000 1 0 13:55 25.10.2020
6313 Clouds 9 1034 66 10000 1.12 169 13:37 25.10.2020
6314 Clouds 12 1019 56 10000 1.24 153 13:18 25.10.2020
6315 Clouds 12 1018 58 10000 1.14 173 12:46 25.10.2020
6316 Clouds 10 1018 64 10000 0.92 166 12:25 25.10.2020
6317 Clouds 10 1018 64 10000 0.92 166 11:43 25.10.2020
6318 Clouds 10 1017 67 10000 0.94 171 11:21 25.10.2020
6319 Clouds 10 1017 67 10000 0.94 171 10:56 25.10.2020
6320 Clouds 10 1017 67 10000 0.94 171 10:38 25.10.2020
6321 Clouds 10 1017 66 10000 1.05 180 10:19 25.10.2020
6322 Clouds 10 1017 66 10000 1.05 180 09:39 25.10.2020
6323 Clouds 10 1017 65 10000 1.2 182 09:19 25.10.2020
6324 Clouds 10 1017 65 10000 1.2 182 09:19 25.10.2020
6325 Clouds 10 1017 65 10000 1.2 182 08:41 25.10.2020
6326 Clouds 10 1017 65 10000 1.2 182 08:41 25.10.2020
6327 Clouds 11 1017 63 10000 1.67 199 08:22 25.10.2020
6328 Clouds 11 1017 63 10000 1.67 199 07:46 25.10.2020
6329 Clouds 11 1018 62 10000 2.36 207 07:24 25.10.2020
6330 Clouds 11 1018 63 10000 2.08 197 06:36 25.10.2020
6331 Clouds 12 1018 62 10000 2.44 198 05:34 25.10.2020
6332 Clouds 12 1019 62 10000 2.51 188 04:51 25.10.2020
6333 Clouds 13 1018 60 10000 2.12 147 02:45 25.10.2020
6334 Clouds 15 1029 47 10000 2.1 110 01:32 25.10.2020
6335 Clouds 15 1029 47 10000 2.1 110 00:48 25.10.2020
6336 Rain 16 1029 44 10000 3.6 110 00:20 25.10.2020
6337 Rain 16 1029 44 10000 3.6 110 23:53 24.10.2020
6338 Rain 17 1028 33 10000 2.6 180 23:26 24.10.2020
6339 Rain 18 1028 34 10000 3.6 100 22:55 24.10.2020
6340 Rain 18 1028 34 10000 1 0 22:37 24.10.2020
6341 Rain 19 1028 32 10000 2.6 100 22:18 24.10.2020
6342 Rain 19 1028 34 10000 5.7 110 21:41 24.10.2020
6343 Rain 20 1028 30 10000 6.2 110 21:20 24.10.2020
6344 Rain 22 1029 24 10000 1 30 20:47 24.10.2020
6345 Rain 22 1029 24 10000 1 30 20:23 24.10.2020
6346 Clouds 20 1031 30 10000 2.1 330 19:48 24.10.2020
6347 Clouds 20 1031 30 10000 2.1 330 19:28 24.10.2020
6348 Clouds 19 1032 37 10000 1 0 18:57 24.10.2020
6349 Clouds 19 1032 37 10000 1 0 18:39 24.10.2020
6350 Clouds 17 1033 42 10000 3.1 30 18:20 24.10.2020
6351 Clouds 16 1034 44 10000 2.6 360 17:39 24.10.2020
6352 Clouds 15 1034 47 10000 2.1 300 17:20 24.10.2020
6353 Clouds 14 1035 54 10000 1 0 16:45 24.10.2020
6354 Clouds 14 1035 54 10000 1 0 16:22 24.10.2020
6355 Clouds 11 1034 62 10000 0.5 0 15:40 24.10.2020
6356 Clouds 10 1035 66 10000 1.5 310 15:19 24.10.2020
6357 Clouds 12 1018 58 10000 1.39 182 14:50 24.10.2020
6358 Clouds 10 1019 65 10000 1.37 169 14:28 24.10.2020
6359 Clouds 10 1019 66 10000 1.64 167 13:46 24.10.2020
6360 Clouds 9 1019 70 10000 1.16 175 13:24 24.10.2020
6361 Clouds 9 1019 70 10000 1.16 175 12:46 24.10.2020
6362 Clouds 8 1019 73 10000 0.9 201 12:21 24.10.2020
6363 Clouds 8 1019 73 10000 0.9 201 12:21 24.10.2020
6364 Clouds 8 1019 72 10000 1.15 218 11:53 24.10.2020
6365 Clouds 8 1019 72 10000 1.15 218 11:35 24.10.2020
6366 Clouds 8 1018 73 10000 1.48 218 10:54 24.10.2020
6367 Clouds 8 1018 73 10000 1.48 218 10:34 24.10.2020
6368 Clouds 9 1018 73 10000 1.91 228 09:55 24.10.2020
6369 Clouds 9 1018 73 10000 1.91 228 09:37 24.10.2020
6370 Rain 9 1018 74 10000 2.61 234 09:19 24.10.2020
6371 Rain 9 1019 74 10000 2.83 225 08:20 24.10.2020
6372 Clouds 9 1019 74 10000 2.83 225 07:54 24.10.2020
6373 Rain 10 1019 73 8458 2.87 216 07:25 24.10.2020
6374 Clouds 10 1019 73 8458 2.87 216 06:53 24.10.2020
6375 Rain 11 1020 69 10000 2.35 196 06:23 24.10.2020
6376 Clouds 12 1019 63 10000 1.16 15 03:36 24.10.2020
6377 Rain 13 1030 62 10000 3.6 270 02:18 24.10.2020
6378 Clouds 15 1029 51 10000 3.6 330 00:42 24.10.2020
6379 Clouds 16 1029 48 10000 2.6 250 00:22 24.10.2020
6380 Clouds 16 1029 48 10000 2.1 290 23:49 23.10.2020
6381 Clouds 16 1029 48 10000 2.1 290 23:26 23.10.2020
6382 Clouds 15 1029 58 10000 3.1 290 22:58 23.10.2020
6383 Clouds 16 1029 48 10000 1.5 310 22:58 23.10.2020
6384 Clouds 15 1029 58 10000 3.1 290 22:40 23.10.2020
6385 Clouds 15 1029 58 10000 3.1 290 22:20 23.10.2020
6386 Drizzle 13 1030 66 10000 1.5 0 21:46 23.10.2020
6387 Drizzle 13 1030 66 10000 1.5 0 21:25 23.10.2020
6388 Rain 18 1030 36 10000 8.7 90 20:41 23.10.2020
6389 Clouds 20 1029 30 10000 6.2 20 20:23 23.10.2020
6390 Clouds 20 1029 30 10000 6.2 20 19:54 23.10.2020
6391 Clouds 22 1030 26 10000 2.1 0 19:33 23.10.2020
6392 Clouds 21 1031 26 10000 1.5 60 18:57 23.10.2020
6393 Clouds 19 1031 29 10000 1 0 18:37 23.10.2020
6394 Clouds 19 1032 32 10000 3.1 70 18:19 23.10.2020
6395 Clouds 19 1033 34 10000 0.5 60 17:42 23.10.2020
6396 Clouds 19 1033 34 10000 0.5 60 17:20 23.10.2020
6397 Clouds 16 1034 44 10000 2.1 300 16:39 23.10.2020
6398 Clouds 16 1034 44 10000 1 250 16:21 23.10.2020
6399 Clouds 13 1034 58 10000 0.5 0 15:43 23.10.2020
6400 Clouds 13 1034 58 10000 0.5 0 15:24 23.10.2020
6401 Clouds 12 1034 62 10000 0.5 260 14:53 23.10.2020
6402 Clouds 11 1033 71 10000 1 0 14:35 23.10.2020
6403 Clear 11 1019 62 10000 0.77 312 13:56 23.10.2020
6404 Clouds 12 1019 64 10000 0.66 344 13:37 23.10.2020
6405 Clouds 10 1020 71 10000 0.79 333 13:19 23.10.2020
6406 Clouds 10 1020 71 10000 0.79 333 12:43 23.10.2020
6407 Clouds 9 1019 74 10000 0.83 288 12:24 23.10.2020
6408 Clouds 9 1019 74 10000 0.83 288 11:46 23.10.2020
6409 Clear 10 1018 73 10000 0.83 270 11:21 23.10.2020
6410 Clear 10 1018 73 10000 0.83 270 10:43 23.10.2020
6411 Clear 10 1018 71 10000 1.09 266 10:25 23.10.2020
6412 Clear 10 1018 71 10000 1.09 266 09:45 23.10.2020
6413 Clear 10 1018 70 10000 1.24 282 09:26 23.10.2020
6414 Clear 10 1018 70 10000 1.24 282 08:52 23.10.2020
6415 Clear 10 1018 70 10000 1.24 282 08:32 23.10.2020
6416 Clouds 11 1019 66 10000 1.47 1 07:33 23.10.2020
6417 Clouds 11 1019 67 10000 1.61 13 06:59 23.10.2020
6418 Clouds 11 1020 65 10000 1.58 17 06:20 23.10.2020
6419 Clouds 12 1020 63 10000 1.6 16 04:56 23.10.2020
6420 Clouds 13 1031 62 10000 2.6 290 02:32 23.10.2020
6421 Clouds 13 1031 62 10000 2.6 290 01:23 23.10.2020
6422 Clouds 13 1030 62 10000 6.7 300 00:36 23.10.2020
6423 Drizzle 15 1030 47 10000 1.5 0 23:40 22.10.2020
6424 Rain 14 1030 54 10000 3.6 270 23:22 22.10.2020
6425 Rain 13 1030 62 10000 4.6 280 22:48 22.10.2020
6426 Rain 13 1030 62 10000 4.6 280 22:26 22.10.2020
6427 Rain 19 1029 32 10000 7.2 300 21:58 22.10.2020
6428 Rain 19 1029 32 10000 7.2 300 21:40 22.10.2020
6429 Clouds 20 1029 30 10000 1.5 0 21:20 22.10.2020
6430 Clouds 20 1030 28 10000 3.6 10 20:44 22.10.2020
6431 Clouds 20 1030 28 10000 3.6 10 20:25 22.10.2020
6432 Clouds 20 1031 30 10000 5.1 90 19:44 22.10.2020
6433 Rain 19 1032 34 10000 1 50 19:21 22.10.2020
6434 Rain 19 1032 34 10000 1 50 18:59 22.10.2020
6435 Clouds 18 1032 31 10000 2.6 0 18:39 22.10.2020
6436 Clouds 18 1033 31 10000 3.1 70 18:19 22.10.2020
6437 Clouds 18 1034 31 10000 1.5 0 17:44 22.10.2020
6438 Clouds 17 1034 33 10000 2.6 80 17:21 22.10.2020
6439 Clouds 16 1035 41 10000 0.5 0 16:45 22.10.2020
6440 Clouds 16 1035 41 10000 0.5 0 16:25 22.10.2020
6441 Clouds 14 1035 50 10000 1.5 0 15:50 22.10.2020
6442 Clouds 14 1035 50 10000 1.5 0 15:27 22.10.2020
6443 Clouds 13 1035 54 10000 1 0 14:56 22.10.2020
6444 Clouds 12 1035 58 10000 1 0 14:37 22.10.2020
6445 Clouds 10 1021 61 10000 0.61 17 14:19 22.10.2020
6446 Clouds 10 1021 61 10000 0.61 17 13:41 22.10.2020
6447 Clouds 9 1021 67 10000 0.77 328 13:22 22.10.2020
6448 Clouds 9 1021 67 10000 0.77 328 12:41 22.10.2020
6449 Clouds 9 1021 70 10000 0.91 356 12:22 22.10.2020
6450 Clouds 9 1021 70 10000 0.91 356 11:42 22.10.2020
6451 Clouds 9 1020 70 10000 1.11 348 11:18 22.10.2020
6452 Clouds 9 1020 70 10000 1.11 348 10:47 22.10.2020
6453 Clouds 9 1020 69 10000 1.1 329 10:25 22.10.2020
6454 Clouds 9 1020 69 10000 1.1 329 09:43 22.10.2020
6455 Clouds 9 1020 68 10000 1.13 353 09:21 22.10.2020
6456 Clouds 9 1020 68 10000 1.13 353 08:41 22.10.2020
6457 Clouds 10 1020 67 10000 1.42 10 08:23 22.10.2020
6458 Clouds 10 1020 67 10000 1.38 5 07:43 22.10.2020
6459 Clouds 10 1021 66 10000 1.58 10 07:18 22.10.2020
6460 Clouds 10 1021 66 10000 1.58 10 06:41 22.10.2020
6461 Clouds 10 1021 65 10000 1.64 354 06:23 22.10.2020
6462 Clouds 10 1021 65 10000 1.64 354 05:38 22.10.2020
6463 Clouds 10 1021 65 10000 1.64 354 05:38 22.10.2020
6464 Clouds 12 1019 59 10000 2.15 14 03:25 22.10.2020
6465 Clouds 15 1030 41 10000 1 0 00:55 22.10.2020
6466 Clouds 16 1029 41 10000 4.1 30 00:22 22.10.2020
6467 Clouds 17 1029 36 10000 2.1 80 23:43 21.10.2020
6468 Clouds 18 1029 34 10000 2.6 360 23:19 21.10.2020
6469 Clouds 19 1029 32 10000 1 10 22:38 21.10.2020
6470 Clouds 19 1029 32 10000 2.1 50 22:19 21.10.2020
6471 Clouds 19 1029 32 10000 2.1 50 22:19 21.10.2020
6472 Clouds 18 1030 34 10000 3.6 360 21:46 21.10.2020
6473 Clouds 16 1031 41 10000 3.1 350 21:20 21.10.2020
6474 Clouds 16 1031 41 10000 3.1 350 20:57 21.10.2020
6475 Rain 17 1032 39 10000 2.6 0 20:39 21.10.2020
6476 Clouds 16 1033 44 10000 3.1 110 20:18 21.10.2020
6477 Clouds 16 1034 41 10000 3.54 6 19:40 21.10.2020
6478 Clouds 15 1034 47 10000 1 50 19:22 21.10.2020
6479 Clouds 15 1034 47 10000 1 50 18:52 21.10.2020
6480 Clouds 15 1035 47 10000 2.1 0 18:30 21.10.2020
6481 Clouds 13 1035 50 10000 1 0 17:50 21.10.2020
6482 Clouds 13 1035 50 10000 1 120 17:22 21.10.2020
6483 Clouds 13 1035 50 10000 1 120 16:59 21.10.2020
6484 Clouds 13 1035 50 10000 1 120 16:39 21.10.2020
6485 Clouds 12 1036 54 10000 1 0 16:20 21.10.2020
6486 Clouds 11 1035 53 10000 1 0 15:45 21.10.2020
6487 Clouds 11 1035 53 10000 1 0 15:22 21.10.2020
6488 Clouds 9 1034 66 10000 1.5 110 14:49 21.10.2020
6489 Clouds 9 1034 66 10000 1.5 110 14:29 21.10.2020
6490 Clouds 11 1021 58 10000 1.13 24 13:58 21.10.2020
6491 Clouds 11 1021 58 10000 1.13 24 13:40 21.10.2020
6492 Clouds 10 1020 64 10000 1.09 43 13:20 21.10.2020
6493 Clouds 10 1020 64 10000 1.09 43 12:40 21.10.2020
6494 Clouds 10 1019 66 10000 1.32 48 12:20 21.10.2020
6495 Clouds 10 1019 66 10000 1.32 48 11:46 21.10.2020
6496 Clouds 10 1019 67 10000 1.16 31 11:20 21.10.2020
6497 Clouds 10 1019 67 10000 1.16 31 10:49 21.10.2020
6498 Clouds 10 1018 67 10000 0.95 38 10:27 21.10.2020
6499 Clouds 10 1018 67 10000 0.95 38 09:58 21.10.2020
6500 Clouds 10 1018 67 10000 0.95 38 09:39 21.10.2020
6501 Clouds 10 1018 66 10000 1.23 55 08:57 21.10.2020
6502 Clouds 10 1018 66 10000 1.23 55 08:39 21.10.2020
6503 Clouds 10 1018 66 10000 1.65 48 08:21 21.10.2020
6504 Clouds 10 1019 68 10000 1.76 37 07:41 21.10.2020
6505 Clouds 10 1019 66 10000 1.97 36 06:59 21.10.2020
6506 Clouds 10 1019 66 10000 1.97 36 06:33 21.10.2020
6507 Clouds 11 1019 64 10000 1.99 34 05:23 21.10.2020
6508 Clouds 14 1029 44 10000 1.5 40 02:37 21.10.2020
6509 Clouds 16 1027 36 10000 3.1 50 00:24 21.10.2020
6510 Clouds 17 1026 33 10000 6.7 10 23:25 20.10.2020
6511 Clouds 19 1026 29 10000 5.7 20 22:37 20.10.2020
6512 Clouds 19 1026 29 10000 5.7 20 22:19 20.10.2020
6513 Clouds 18 1027 34 10000 6.2 10 21:47 20.10.2020
6514 Clouds 19 1027 29 10000 5.7 10 21:18 20.10.2020
6515 Clouds 20 1028 30 10000 5.7 10 20:42 20.10.2020
6516 Clouds 20 1028 30 10000 5.7 10 20:23 20.10.2020
6517 Clouds 17 1029 39 10000 2.6 0 19:45 20.10.2020
6518 Clouds 18 1030 34 10000 4.1 360 19:22 20.10.2020
6519 Clouds 18 1030 34 10000 4.1 360 18:57 20.10.2020
6520 Clouds 18 1030 36 10000 2.1 0 18:37 20.10.2020
6521 Clouds 16 1031 44 10000 2.1 0 17:51 20.10.2020
6522 Clouds 16 1031 44 10000 2.1 0 17:32 20.10.2020
6523 Clouds 16 1032 44 10000 2.6 110 16:56 20.10.2020
6524 Clouds 14 1032 50 10000 3.6 110 16:38 20.10.2020
6525 Clouds 14 1032 50 10000 3.6 110 16:20 20.10.2020
6526 Clouds 13 1032 62 10000 1 0 15:44 20.10.2020
6527 Clouds 13 1032 62 10000 1 0 15:23 20.10.2020
6528 Clouds 10 1032 71 10000 2.6 110 14:44 20.10.2020
6529 Clouds 10 1032 71 10000 2.6 110 14:25 20.10.2020
6530 Clouds 11 1018 61 10000 1.23 301 13:58 20.10.2020
6531 Clouds 11 1018 61 10000 1.23 301 13:39 20.10.2020
6532 Clouds 10 1018 68 10000 1.36 322 13:19 20.10.2020
6533 Clouds 10 1018 68 10000 1.36 322 12:48 20.10.2020
6534 Clouds 9 1017 70 10000 1.39 329 12:29 20.10.2020
6535 Clouds 9 1017 70 10000 1.39 329 11:47 20.10.2020
6536 Clouds 10 1016 70 10000 1.01 328 11:27 20.10.2020
6537 Clouds 10 1016 70 10000 1.01 328 10:40 20.10.2020
6538 Rain 10 1016 70 10000 1.05 332 10:22 20.10.2020
6539 Clouds 10 1016 70 10000 1.05 332 09:44 20.10.2020
6540 Clouds 10 1016 69 10000 1.41 337 09:19 20.10.2020
6541 Clouds 10 1016 69 10000 1.41 337 08:39 20.10.2020
6542 Rain 11 1017 66 10000 1.23 343 08:19 20.10.2020
6543 Clouds 11 1017 66 10000 1.23 343 07:42 20.10.2020
6544 Rain 11 1017 65 10000 1.49 352 07:21 20.10.2020
6545 Clouds 11 1017 64 10000 1.74 353 06:19 20.10.2020
6546 Clouds 13 1016 60 10000 1.73 16 04:27 20.10.2020
6547 Clouds 15 1025 44 10000 5.1 30 02:30 20.10.2020
6548 Clouds 15 1025 44 10000 5.1 30 01:22 20.10.2020
6549 Clouds 17 1025 36 10000 4.1 10 00:51 20.10.2020
6550 Clouds 17 1025 36 10000 4.1 10 00:26 20.10.2020
6551 Clouds 17 1025 39 10000 4.6 10 23:51 19.10.2020
6552 Clouds 18 1025 36 10000 3.6 10 23:24 19.10.2020
6553 Clouds 17 1025 39 10000 6.2 30 22:54 19.10.2020
6554 Rain 17 1026 42 10000 5.7 350 22:26 19.10.2020
6555 Rain 17 1026 33 10000 1.5 0 21:50 19.10.2020
6556 Rain 16 1027 41 10000 6.7 110 21:24 19.10.2020
6557 Rain 16 1027 41 10000 6.7 110 20:59 19.10.2020
6558 Rain 20 1027 28 10000 4.1 60 20:39 19.10.2020
6559 Rain 20 1027 28 10000 4.1 60 20:39 19.10.2020
6560 Rain 20 1027 28 10000 4.1 60 20:18 19.10.2020
6561 Clouds 20 1028 30 10000 1.5 0 19:42 19.10.2020
6562 Clouds 19 1029 29 10000 0.5 340 19:19 19.10.2020
6563 Clouds 18 1030 34 10000 1 240 18:49 19.10.2020
6564 Clouds 17 1030 39 10000 2.1 0 18:20 19.10.2020
6565 Clouds 15 1031 44 10000 1.5 0 17:47 19.10.2020
6566 Clouds 15 1031 44 10000 1.5 0 17:26 19.10.2020
6567 Clouds 15 1032 44 10000 2.1 0 16:53 19.10.2020
6568 Clouds 14 1032 54 10000 1 310 16:29 19.10.2020
6569 Clouds 15 1016 40 10000 0.87 162 15:47 19.10.2020
6570 Clouds 13 1017 49 10000 0.61 183 15:26 19.10.2020
6571 Clouds 13 1017 49 10000 0.61 183 14:57 19.10.2020
6572 Clouds 13 1017 49 10000 0.61 183 14:57 19.10.2020
6573 Clouds 13 1017 49 10000 0.61 183 14:36 19.10.2020
6574 Clouds 11 1017 58 10000 0.7 289 14:18 19.10.2020
6575 Clouds 11 1017 59 10000 0.57 281 13:42 19.10.2020
6576 Clouds 10 1017 66 10000 1.32 297 13:22 19.10.2020
6577 Clouds 10 1017 66 10000 1.32 297 12:43 19.10.2020
6578 Clouds 9 1017 69 10000 1.23 320 12:25 19.10.2020
6579 Clouds 9 1017 69 10000 1.23 320 11:48 19.10.2020
6580 Clouds 9 1016 69 10000 1.1 358 11:22 19.10.2020
6581 Clouds 9 1016 69 10000 1.1 358 10:44 19.10.2020
6582 Rain 10 1016 69 10000 1.43 4 10:23 19.10.2020
6583 Clouds 10 1016 69 10000 1.43 4 09:56 19.10.2020
6584 Rain 10 1016 68 10000 1.61 13 09:25 19.10.2020
6585 Clouds 10 1016 68 10000 1.61 13 08:59 19.10.2020
6586 Clouds 10 1016 68 10000 1.61 13 08:41 19.10.2020
6587 Rain 10 1016 68 10000 1.64 14 08:20 19.10.2020
6588 Rain 10 1017 67 10000 1.44 12 07:20 19.10.2020
6589 Clouds 11 1017 65 10000 1.49 17 06:36 19.10.2020
6590 Clouds 12 1017 60 10000 1.4 16 04:47 19.10.2020
6591 Clouds 12 1016 56 10000 1.1 36 03:45 19.10.2020
6592 Clouds 15 1025 44 10000 4.1 360 01:33 19.10.2020
6593 Clouds 17 1024 36 10000 4.1 30 00:38 19.10.2020
6594 Clouds 18 1024 34 10000 5.7 20 23:56 18.10.2020
6595 Clouds 21 1023 22 10000 2.1 0 23:37 18.10.2020
6596 Clouds 21 1024 22 10000 3.1 110 23:18 18.10.2020
6597 Clouds 21 1024 22 10000 3.1 110 23:18 18.10.2020
6598 Clouds 19 1024 24 10000 8.2 100 22:43 18.10.2020
6599 Clouds 22 1025 13 10000 1.5 290 22:18 18.10.2020
6600 Clouds 22 1026 14 10000 5.7 300 21:41 18.10.2020
6601 Clouds 22 1026 14 10000 1.5 0 21:21 18.10.2020
6602 Clouds 21 1028 15 10000 5.7 280 20:44 18.10.2020
6603 Clouds 20 1028 19 10000 6.2 280 20:23 18.10.2020
6604 Clouds 21 1029 26 10000 6.7 280 19:50 18.10.2020
6605 Clouds 21 1029 29 10000 6.7 280 19:27 18.10.2020
6606 Clouds 20 1031 30 10000 2.1 0 18:51 18.10.2020
6607 Clouds 20 1031 30 10000 2.1 0 18:30 18.10.2020
6608 Clouds 19 1031 32 10000 2.1 0 17:59 18.10.2020
6609 Clouds 17 1032 33 10000 3.1 280 17:40 18.10.2020
6610 Clouds 17 1032 39 10000 2.1 290 17:21 18.10.2020
6611 Clouds 17 1032 39 10000 2.1 290 17:21 18.10.2020
6612 Clouds 16 1033 44 10000 1 30 16:41 18.10.2020
6613 Clouds 14 1033 50 10000 2.1 120 16:21 18.10.2020
6614 Clouds 12 1033 62 10000 1.5 0 15:42 18.10.2020
6615 Clouds 12 1033 58 10000 1 0 15:19 18.10.2020
6616 Clouds 12 1033 58 10000 1 0 14:57 18.10.2020
6617 Clouds 9 1033 70 10000 1 0 14:31 18.10.2020
6618 Clouds 11 1018 62 10000 0.71 268 13:58 18.10.2020
6619 Clouds 11 1018 62 10000 0.71 268 13:40 18.10.2020
6620 Rain 10 1018 69 10000 0.4 239 13:21 18.10.2020
6621 Clouds 10 1018 69 10000 0.4 239 12:43 18.10.2020
6622 Rain 10 1018 71 10000 0.49 234 12:22 18.10.2020
6623 Clouds 10 1018 71 10000 0.49 234 11:42 18.10.2020
6624 Rain 10 1017 69 10000 0.59 229 11:23 18.10.2020
6625 Clouds 10 1017 69 10000 0.59 229 10:45 18.10.2020
6626 Clouds 11 1017 66 10000 0.48 242 10:22 18.10.2020
6627 Clouds 11 1017 66 10000 0.48 242 10:00 18.10.2020
6628 Clouds 11 1017 66 10000 0.48 242 09:41 18.10.2020
6629 Rain 11 1017 63 10000 0.75 334 09:20 18.10.2020
6630 Clouds 11 1017 63 10000 0.75 334 08:44 18.10.2020
6631 Rain 11 1018 64 10000 1.09 326 08:25 18.10.2020
6632 Clouds 11 1018 64 10000 1.09 326 07:48 18.10.2020
6633 Clouds 12 1019 60 10000 0.68 345 05:36 18.10.2020
6634 Clouds 12 1019 61 10000 0.9 63 03:39 18.10.2020
6635 Clouds 12 1018 60 10000 1.64 59 02:51 18.10.2020
6636 Clouds 15 1029 44 10000 3.6 10 01:25 18.10.2020
6637 Clouds 15 1028 44 10000 4.6 10 00:36 18.10.2020
6638 Clouds 16 1028 38 10000 4.6 90 23:59 17.10.2020
6639 Clouds 15 1028 41 10000 5.7 360 23:40 17.10.2020
6640 Clouds 16 1028 38 10000 4.6 10 23:21 17.10.2020
6641 Clouds 16 1028 38 10000 4.6 10 22:55 17.10.2020
6642 Clouds 14 1029 47 10000 5.7 20 22:22 17.10.2020
6643 Clouds 14 1029 47 10000 5.7 20 21:59 17.10.2020
6644 Rain 14 1029 47 10000 5.7 10 21:40 17.10.2020
6645 Rain 16 1030 51 10000 4.1 10 21:20 17.10.2020
6646 Rain 14 1031 47 10000 3.6 70 20:43 17.10.2020
6647 Rain 15 1030 47 10000 6.7 20 20:19 17.10.2020
6648 Clouds 18 1014 32 10000 1.88 335 19:43 17.10.2020
6649 Clouds 20 1031 28 10000 4.6 80 19:21 17.10.2020
6650 Clouds 20 1032 28 10000 2.1 260 18:45 17.10.2020
6651 Clouds 20 1032 28 10000 2.1 260 18:25 17.10.2020
6652 Clouds 17 1033 33 10000 2.1 110 17:50 17.10.2020
6653 Clouds 17 1033 33 10000 2.1 110 17:50 17.10.2020
665